<?xml version="1.0"?>
<gpx xmlns:xsi="http://www.w3.org/2001/XMLSchema-instance" xmlns:xsd="http://www.w3.org/2001/XMLSchema" version="1.1" creator="Ski Blackbox" xmlns="http://www.topografix.com/GPX/1/1">
  <trk>
    <trkseg>
      <trkpt lat="43.05434791003" lon="-5.39685653151">
        <ele>1664.5</ele>
        <time>2013-02-27T14:03:31+01:00</time>
      </trkpt>
      <trkpt lat="43.05432927538" lon="-5.39687735886">
        <ele>1664.58</ele>
        <time>2013-02-27T14:03:33+01:00</time>
      </trkpt>
      <trkpt lat="43.05430512946" lon="-5.39690920238">
        <ele>1664.6</ele>
        <time>2013-02-27T14:03:35+01:00</time>
      </trkpt>
      <trkpt lat="43.0542834784" lon="-5.39693139689">
        <ele>1664.78</ele>
        <time>2013-02-27T14:03:37+01:00</time>
      </trkpt>
      <trkpt lat="43.05424212371" lon="-5.39697163665">
        <ele>1664.93</ele>
        <time>2013-02-27T14:03:40+01:00</time>
      </trkpt>
      <trkpt lat="43.05421595071" lon="-5.39700270616">
        <ele>1664.92</ele>
        <time>2013-02-27T14:03:42+01:00</time>
      </trkpt>
      <trkpt lat="43.05418882623" lon="-5.39703104551">
        <ele>1665.02</ele>
        <time>2013-02-27T14:03:44+01:00</time>
      </trkpt>
      <trkpt lat="43.05416883868" lon="-5.39705764214">
        <ele>1665.11</ele>
        <time>2013-02-27T14:03:46+01:00</time>
      </trkpt>
      <trkpt lat="43.05415050779" lon="-5.39708911879">
        <ele>1665.26</ele>
        <time>2013-02-27T14:03:48+01:00</time>
      </trkpt>
      <trkpt lat="43.05412951367" lon="-5.39712689209">
        <ele>1665.34</ele>
        <time>2013-02-27T14:03:50+01:00</time>
      </trkpt>
      <trkpt lat="43.0541126663" lon="-5.39715646892">
        <ele>1665.67</ele>
        <time>2013-02-27T14:03:52+01:00</time>
      </trkpt>
      <trkpt lat="43.05409976937" lon="-5.39717820871">
        <ele>1665.81</ele>
        <time>2013-02-27T14:03:54+01:00</time>
      </trkpt>
      <trkpt lat="43.05408087488" lon="-5.39721840474">
        <ele>1666.02</ele>
        <time>2013-02-27T14:03:57+01:00</time>
      </trkpt>
      <trkpt lat="43.05406450151" lon="-5.39726089728">
        <ele>1666.17</ele>
        <time>2013-02-27T14:04:00+01:00</time>
      </trkpt>
      <trkpt lat="43.0540464566" lon="-5.39729320914">
        <ele>1666.37</ele>
        <time>2013-02-27T14:04:03+01:00</time>
      </trkpt>
      <trkpt lat="43.05403099798" lon="-5.39731944866">
        <ele>1666.63</ele>
        <time>2013-02-27T14:04:05+01:00</time>
      </trkpt>
      <trkpt lat="43.0540170175" lon="-5.39734598799">
        <ele>1666.8</ele>
        <time>2013-02-27T14:04:07+01:00</time>
      </trkpt>
      <trkpt lat="43.05400002918" lon="-5.39739752337">
        <ele>1666.97</ele>
        <time>2013-02-27T14:04:09+01:00</time>
      </trkpt>
      <trkpt lat="43.05398335608" lon="-5.39744575151">
        <ele>1667.14</ele>
        <time>2013-02-27T14:04:11+01:00</time>
      </trkpt>
      <trkpt lat="43.0539697035" lon="-5.39748779054">
        <ele>1667.27</ele>
        <time>2013-02-27T14:04:13+01:00</time>
      </trkpt>
      <trkpt lat="43.05395818875" lon="-5.39752047234">
        <ele>1667.18</ele>
        <time>2013-02-27T14:04:15+01:00</time>
      </trkpt>
      <trkpt lat="43.05394529108" lon="-5.39754766171">
        <ele>1667.31</ele>
        <time>2013-02-27T14:04:17+01:00</time>
      </trkpt>
      <trkpt lat="43.05393126212" lon="-5.39757882445">
        <ele>1667.44</ele>
        <time>2013-02-27T14:04:20+01:00</time>
      </trkpt>
      <trkpt lat="43.05391160845" lon="-5.39759627956">
        <ele>1667.14</ele>
        <time>2013-02-27T14:04:22+01:00</time>
      </trkpt>
      <trkpt lat="43.05389758471" lon="-5.39760638235">
        <ele>1667.18</ele>
        <time>2013-02-27T14:04:24+01:00</time>
      </trkpt>
      <trkpt lat="43.05387888009" lon="-5.39761885173">
        <ele>1667.27</ele>
        <time>2013-02-27T14:04:26+01:00</time>
      </trkpt>
      <trkpt lat="43.0538556686" lon="-5.39765357061">
        <ele>1667.46</ele>
        <time>2013-02-27T14:04:29+01:00</time>
      </trkpt>
      <trkpt lat="43.05386779655" lon="-5.39768288194">
        <ele>1667.55</ele>
        <time>2013-02-27T14:04:31+01:00</time>
      </trkpt>
      <trkpt lat="43.05388788475" lon="-5.39770158065">
        <ele>1667.81</ele>
        <time>2013-02-27T14:04:33+01:00</time>
      </trkpt>
      <trkpt lat="43.05391303665" lon="-5.39771031408">
        <ele>1667.9</ele>
        <time>2013-02-27T14:04:36+01:00</time>
      </trkpt>
      <trkpt lat="43.05393716457" lon="-5.39771782589">
        <ele>1668.11</ele>
        <time>2013-02-27T14:04:38+01:00</time>
      </trkpt>
      <trkpt lat="43.05396726279" lon="-5.39774090646">
        <ele>1668.09</ele>
        <time>2013-02-27T14:04:41+01:00</time>
      </trkpt>
      <trkpt lat="43.05398441707" lon="-5.39777361568">
        <ele>1668.2</ele>
        <time>2013-02-27T14:04:44+01:00</time>
      </trkpt>
      <trkpt lat="43.0539609365" lon="-5.39782546812">
        <ele>1668</ele>
        <time>2013-02-27T14:04:55+01:00</time>
      </trkpt>
      <trkpt lat="43.0539461036" lon="-5.39785335994">
        <ele>1668.16</ele>
        <time>2013-02-27T14:04:57+01:00</time>
      </trkpt>
      <trkpt lat="43.05393420999" lon="-5.39788149599">
        <ele>1668.33</ele>
        <time>2013-02-27T14:04:59+01:00</time>
      </trkpt>
      <trkpt lat="43.05392898474" lon="-5.39792202816">
        <ele>1668.58</ele>
        <time>2013-02-27T14:05:03+01:00</time>
      </trkpt>
      <trkpt lat="43.05392272899" lon="-5.39795414399">
        <ele>1668.71</ele>
        <time>2013-02-27T14:05:04+01:00</time>
      </trkpt>
      <trkpt lat="43.05391086329" lon="-5.39799861968">
        <ele>1668.96</ele>
        <time>2013-02-27T14:05:06+01:00</time>
      </trkpt>
      <trkpt lat="43.05389998304" lon="-5.39803814552">
        <ele>1669.24</ele>
        <time>2013-02-27T14:05:07+01:00</time>
      </trkpt>
      <trkpt lat="43.05388840926" lon="-5.39807430975">
        <ele>1669.5</ele>
        <time>2013-02-27T14:05:08+01:00</time>
      </trkpt>
      <trkpt lat="43.05387318286" lon="-5.39812439545">
        <ele>1670.06</ele>
        <time>2013-02-27T14:05:10+01:00</time>
      </trkpt>
      <trkpt lat="43.05386008062" lon="-5.39816169111">
        <ele>1670.55</ele>
        <time>2013-02-27T14:05:11+01:00</time>
      </trkpt>
      <trkpt lat="43.05384447506" lon="-5.39820924965">
        <ele>1671.15</ele>
        <time>2013-02-27T14:05:13+01:00</time>
      </trkpt>
      <trkpt lat="43.05383329627" lon="-5.39824259617">
        <ele>1671.57</ele>
        <time>2013-02-27T14:05:14+01:00</time>
      </trkpt>
      <trkpt lat="43.05382274875" lon="-5.3982712777">
        <ele>1672.09</ele>
        <time>2013-02-27T14:05:15+01:00</time>
      </trkpt>
      <trkpt lat="43.05380675744" lon="-5.39832001163">
        <ele>1672.75</ele>
        <time>2013-02-27T14:05:17+01:00</time>
      </trkpt>
      <trkpt lat="43.05379584183" lon="-5.3983516652">
        <ele>1673.23</ele>
        <time>2013-02-27T14:05:18+01:00</time>
      </trkpt>
      <trkpt lat="43.05377890847" lon="-5.39839896128">
        <ele>1673.91</ele>
        <time>2013-02-27T14:05:20+01:00</time>
      </trkpt>
      <trkpt lat="43.05376869074" lon="-5.39842949038">
        <ele>1674.46</ele>
        <time>2013-02-27T14:05:21+01:00</time>
      </trkpt>
      <trkpt lat="43.05375122367" lon="-5.39847780557">
        <ele>1675.17</ele>
        <time>2013-02-27T14:05:23+01:00</time>
      </trkpt>
      <trkpt lat="43.05374166922" lon="-5.3985080594">
        <ele>1675.77</ele>
        <time>2013-02-27T14:05:24+01:00</time>
      </trkpt>
      <trkpt lat="43.05372313692" lon="-5.3985596663">
        <ele>1676.42</ele>
        <time>2013-02-27T14:05:26+01:00</time>
      </trkpt>
      <trkpt lat="43.05370487612" lon="-5.39861521899">
        <ele>1677.16</ele>
        <time>2013-02-27T14:05:28+01:00</time>
      </trkpt>
      <trkpt lat="43.05369373355" lon="-5.39864559307">
        <ele>1677.83</ele>
        <time>2013-02-27T14:05:29+01:00</time>
      </trkpt>
      <trkpt lat="43.05367655119" lon="-5.39870173822">
        <ele>1678.58</ele>
        <time>2013-02-27T14:05:31+01:00</time>
      </trkpt>
      <trkpt lat="43.05366513928" lon="-5.39873330311">
        <ele>1679.28</ele>
        <time>2013-02-27T14:05:32+01:00</time>
      </trkpt>
      <trkpt lat="43.05365456845" lon="-5.39876240997">
        <ele>1679.95</ele>
        <time>2013-02-27T14:05:33+01:00</time>
      </trkpt>
      <trkpt lat="43.05364487381" lon="-5.39879338327">
        <ele>1680.67</ele>
        <time>2013-02-27T14:05:34+01:00</time>
      </trkpt>
      <trkpt lat="43.05362232933" lon="-5.39884574104">
        <ele>1681.21</ele>
        <time>2013-02-27T14:05:36+01:00</time>
      </trkpt>
      <trkpt lat="43.05361090927" lon="-5.39887707806">
        <ele>1681.74</ele>
        <time>2013-02-27T14:05:37+01:00</time>
      </trkpt>
      <trkpt lat="43.05359109658" lon="-5.39893000027">
        <ele>1682.47</ele>
        <time>2013-02-27T14:05:39+01:00</time>
      </trkpt>
      <trkpt lat="43.05357806377" lon="-5.39896177092">
        <ele>1683.04</ele>
        <time>2013-02-27T14:05:40+01:00</time>
      </trkpt>
      <trkpt lat="43.05356215315" lon="-5.39901066192">
        <ele>1683.59</ele>
        <time>2013-02-27T14:05:42+01:00</time>
      </trkpt>
      <trkpt lat="43.05354793662" lon="-5.39904633034">
        <ele>1684.09</ele>
        <time>2013-02-27T14:05:43+01:00</time>
      </trkpt>
      <trkpt lat="43.05353057968" lon="-5.39909462903">
        <ele>1684.56</ele>
        <time>2013-02-27T14:05:45+01:00</time>
      </trkpt>
      <trkpt lat="43.05351265789" lon="-5.39915028865">
        <ele>1684.98</ele>
        <time>2013-02-27T14:05:47+01:00</time>
      </trkpt>
      <trkpt lat="43.05349251966" lon="-5.39921554262">
        <ele>1685.64</ele>
        <time>2013-02-27T14:05:49+01:00</time>
      </trkpt>
      <trkpt lat="43.05348439287" lon="-5.39924575108">
        <ele>1686.01</ele>
        <time>2013-02-27T14:05:50+01:00</time>
      </trkpt>
      <trkpt lat="43.05347009408" lon="-5.3992977256">
        <ele>1686.42</ele>
        <time>2013-02-27T14:05:52+01:00</time>
      </trkpt>
      <trkpt lat="43.05345771124" lon="-5.39933582286">
        <ele>1686.77</ele>
        <time>2013-02-27T14:05:53+01:00</time>
      </trkpt>
      <trkpt lat="43.05344625122" lon="-5.39936309353">
        <ele>1687.25</ele>
        <time>2013-02-27T14:05:54+01:00</time>
      </trkpt>
      <trkpt lat="43.05343517427" lon="-5.39938885281">
        <ele>1687.57</ele>
        <time>2013-02-27T14:05:55+01:00</time>
      </trkpt>
      <trkpt lat="43.05342253567" lon="-5.39942180601">
        <ele>1688</ele>
        <time>2013-02-27T14:05:56+01:00</time>
      </trkpt>
      <trkpt lat="43.05339170045" lon="-5.39949752098">
        <ele>1688.2</ele>
        <time>2013-02-27T14:05:59+01:00</time>
      </trkpt>
      <trkpt lat="43.05337896098" lon="-5.39952877973">
        <ele>1688.56</ele>
        <time>2013-02-27T14:06:00+01:00</time>
      </trkpt>
      <trkpt lat="43.05336026105" lon="-5.39957995906">
        <ele>1688.99</ele>
        <time>2013-02-27T14:06:02+01:00</time>
      </trkpt>
      <trkpt lat="43.0533405879" lon="-5.39963411113">
        <ele>1689.37</ele>
        <time>2013-02-27T14:06:04+01:00</time>
      </trkpt>
      <trkpt lat="43.05332323141" lon="-5.39968750435">
        <ele>1689.76</ele>
        <time>2013-02-27T14:06:06+01:00</time>
      </trkpt>
      <trkpt lat="43.05330384347" lon="-5.39973931294">
        <ele>1690.12</ele>
        <time>2013-02-27T14:06:08+01:00</time>
      </trkpt>
      <trkpt lat="43.05328621375" lon="-5.39979149113">
        <ele>1690.59</ele>
        <time>2013-02-27T14:06:10+01:00</time>
      </trkpt>
      <trkpt lat="43.05326728884" lon="-5.39984378172">
        <ele>1691.03</ele>
        <time>2013-02-27T14:06:12+01:00</time>
      </trkpt>
      <trkpt lat="43.05324932824" lon="-5.39989646073">
        <ele>1691.56</ele>
        <time>2013-02-27T14:06:14+01:00</time>
      </trkpt>
      <trkpt lat="43.05323146407" lon="-5.39995008383">
        <ele>1692.12</ele>
        <time>2013-02-27T14:06:16+01:00</time>
      </trkpt>
      <trkpt lat="43.0532131192" lon="-5.40000266978">
        <ele>1692.7</ele>
        <time>2013-02-27T14:06:18+01:00</time>
      </trkpt>
      <trkpt lat="43.05320223226" lon="-5.40003327525">
        <ele>1693.28</ele>
        <time>2013-02-27T14:06:19+01:00</time>
      </trkpt>
      <trkpt lat="43.05318417021" lon="-5.40008619974">
        <ele>1693.91</ele>
        <time>2013-02-27T14:06:21+01:00</time>
      </trkpt>
      <trkpt lat="43.0531725949" lon="-5.40011593382">
        <ele>1694.5</ele>
        <time>2013-02-27T14:06:22+01:00</time>
      </trkpt>
      <trkpt lat="43.05316362962" lon="-5.40014387692">
        <ele>1694.98</ele>
        <time>2013-02-27T14:06:23+01:00</time>
      </trkpt>
      <trkpt lat="43.05315251136" lon="-5.40017156548">
        <ele>1695.69</ele>
        <time>2013-02-27T14:06:24+01:00</time>
      </trkpt>
      <trkpt lat="43.05313646299" lon="-5.40022125623">
        <ele>1696.4</ele>
        <time>2013-02-27T14:06:26+01:00</time>
      </trkpt>
      <trkpt lat="43.05312633375" lon="-5.40025232655">
        <ele>1697.25</ele>
        <time>2013-02-27T14:06:27+01:00</time>
      </trkpt>
      <trkpt lat="43.05311004481" lon="-5.40030197829">
        <ele>1698.2</ele>
        <time>2013-02-27T14:06:29+01:00</time>
      </trkpt>
      <trkpt lat="43.05309370568" lon="-5.40035446886">
        <ele>1699.39</ele>
        <time>2013-02-27T14:06:31+01:00</time>
      </trkpt>
      <trkpt lat="43.05307490982" lon="-5.40040550825">
        <ele>1700.81</ele>
        <time>2013-02-27T14:06:33+01:00</time>
      </trkpt>
      <trkpt lat="43.05305771649" lon="-5.40045625165">
        <ele>1702.11</ele>
        <time>2013-02-27T14:06:35+01:00</time>
      </trkpt>
      <trkpt lat="43.05303992905" lon="-5.40050779526">
        <ele>1703.58</ele>
        <time>2013-02-27T14:06:37+01:00</time>
      </trkpt>
      <trkpt lat="43.05302276114" lon="-5.40055896627">
        <ele>1705</ele>
        <time>2013-02-27T14:06:39+01:00</time>
      </trkpt>
      <trkpt lat="43.05300659813" lon="-5.40060979827">
        <ele>1706.66</ele>
        <time>2013-02-27T14:06:41+01:00</time>
      </trkpt>
      <trkpt lat="43.05298797076" lon="-5.40066067181">
        <ele>1708.33</ele>
        <time>2013-02-27T14:06:43+01:00</time>
      </trkpt>
      <trkpt lat="43.05297136007" lon="-5.40071298281">
        <ele>1709.99</ele>
        <time>2013-02-27T14:06:45+01:00</time>
      </trkpt>
      <trkpt lat="43.0529526502" lon="-5.4007657393">
        <ele>1711.66</ele>
        <time>2013-02-27T14:06:47+01:00</time>
      </trkpt>
      <trkpt lat="43.05293569179" lon="-5.40081914384">
        <ele>1713.43</ele>
        <time>2013-02-27T14:06:49+01:00</time>
      </trkpt>
      <trkpt lat="43.05291777697" lon="-5.40087170793">
        <ele>1715.2</ele>
        <time>2013-02-27T14:06:51+01:00</time>
      </trkpt>
      <trkpt lat="43.05290010597" lon="-5.4009244143">
        <ele>1716.98</ele>
        <time>2013-02-27T14:06:53+01:00</time>
      </trkpt>
      <trkpt lat="43.05288208217" lon="-5.40097600333">
        <ele>1718.77</ele>
        <time>2013-02-27T14:06:55+01:00</time>
      </trkpt>
      <trkpt lat="43.05286394765" lon="-5.40102710344">
        <ele>1720.68</ele>
        <time>2013-02-27T14:06:57+01:00</time>
      </trkpt>
      <trkpt lat="43.05284538716" lon="-5.40107905991">
        <ele>1722.53</ele>
        <time>2013-02-27T14:07:00+01:00</time>
      </trkpt>
      <trkpt lat="43.05282497357" lon="-5.40112748103">
        <ele>1724.21</ele>
        <time>2013-02-27T14:07:01+01:00</time>
      </trkpt>
      <trkpt lat="43.05280426153" lon="-5.40117471881">
        <ele>1726.38</ele>
        <time>2013-02-27T14:07:03+01:00</time>
      </trkpt>
      <trkpt lat="43.05278351963" lon="-5.40121391736">
        <ele>1728.18</ele>
        <time>2013-02-27T14:07:05+01:00</time>
      </trkpt>
      <trkpt lat="43.0527620581" lon="-5.40125374528">
        <ele>1729.96</ele>
        <time>2013-02-27T14:07:07+01:00</time>
      </trkpt>
      <trkpt lat="43.05274297631" lon="-5.40130027462">
        <ele>1731.72</ele>
        <time>2013-02-27T14:07:09+01:00</time>
      </trkpt>
      <trkpt lat="43.0527251509" lon="-5.40135177401">
        <ele>1733.61</ele>
        <time>2013-02-27T14:07:11+01:00</time>
      </trkpt>
      <trkpt lat="43.05270873356" lon="-5.40140422303">
        <ele>1735.47</ele>
        <time>2013-02-27T14:07:13+01:00</time>
      </trkpt>
      <trkpt lat="43.05269075968" lon="-5.40145638982">
        <ele>1737.27</ele>
        <time>2013-02-27T14:07:15+01:00</time>
      </trkpt>
      <trkpt lat="43.05267440293" lon="-5.40150860383">
        <ele>1739.18</ele>
        <time>2013-02-27T14:07:17+01:00</time>
      </trkpt>
      <trkpt lat="43.05265820789" lon="-5.40156067169">
        <ele>1741.09</ele>
        <time>2013-02-27T14:07:19+01:00</time>
      </trkpt>
      <trkpt lat="43.05264365092" lon="-5.40161046182">
        <ele>1743.06</ele>
        <time>2013-02-27T14:07:21+01:00</time>
      </trkpt>
      <trkpt lat="43.05262906916" lon="-5.40165994874">
        <ele>1745.08</ele>
        <time>2013-02-27T14:07:23+01:00</time>
      </trkpt>
      <trkpt lat="43.05261267443" lon="-5.40171015971">
        <ele>1747.14</ele>
        <time>2013-02-27T14:07:25+01:00</time>
      </trkpt>
      <trkpt lat="43.0525967019" lon="-5.40176082027">
        <ele>1749.21</ele>
        <time>2013-02-27T14:07:27+01:00</time>
      </trkpt>
      <trkpt lat="43.05258039441" lon="-5.40180979073">
        <ele>1751.24</ele>
        <time>2013-02-27T14:07:29+01:00</time>
      </trkpt>
      <trkpt lat="43.0525640157" lon="-5.40186198686">
        <ele>1753.39</ele>
        <time>2013-02-27T14:07:31+01:00</time>
      </trkpt>
      <trkpt lat="43.05254914877" lon="-5.40190712787">
        <ele>1755.46</ele>
        <time>2013-02-27T14:07:33+01:00</time>
      </trkpt>
      <trkpt lat="43.05253150838" lon="-5.40196315037">
        <ele>1757.94</ele>
        <time>2013-02-27T14:07:35+01:00</time>
      </trkpt>
      <trkpt lat="43.05251363851" lon="-5.40201250616">
        <ele>1759.58</ele>
        <time>2013-02-27T14:07:37+01:00</time>
      </trkpt>
      <trkpt lat="43.05249646235" lon="-5.40206345838">
        <ele>1761.84</ele>
        <time>2013-02-27T14:07:39+01:00</time>
      </trkpt>
      <trkpt lat="43.05247916697" lon="-5.40211781405">
        <ele>1763.84</ele>
        <time>2013-02-27T14:07:41+01:00</time>
      </trkpt>
      <trkpt lat="43.05246910163" lon="-5.40214912455">
        <ele>1765.77</ele>
        <time>2013-02-27T14:07:42+01:00</time>
      </trkpt>
      <trkpt lat="43.0524520647" lon="-5.40220377916">
        <ele>1767.58</ele>
        <time>2013-02-27T14:07:44+01:00</time>
      </trkpt>
      <trkpt lat="43.05243568849" lon="-5.40225827876">
        <ele>1769.59</ele>
        <time>2013-02-27T14:07:46+01:00</time>
      </trkpt>
      <trkpt lat="43.05242103796" lon="-5.40230770856">
        <ele>1771.42</ele>
        <time>2013-02-27T14:07:48+01:00</time>
      </trkpt>
      <trkpt lat="43.05240373111" lon="-5.40236244005">
        <ele>1773.13</ele>
        <time>2013-02-27T14:07:50+01:00</time>
      </trkpt>
      <trkpt lat="43.05239458196" lon="-5.40239131084">
        <ele>1774.71</ele>
        <time>2013-02-27T14:07:51+01:00</time>
      </trkpt>
      <trkpt lat="43.05238544311" lon="-5.40241928028">
        <ele>1776.4</ele>
        <time>2013-02-27T14:07:52+01:00</time>
      </trkpt>
      <trkpt lat="43.05237600457" lon="-5.40245008693">
        <ele>1777.9</ele>
        <time>2013-02-27T14:07:53+01:00</time>
      </trkpt>
      <trkpt lat="43.05235920838" lon="-5.40251012616">
        <ele>1779.34</ele>
        <time>2013-02-27T14:07:55+01:00</time>
      </trkpt>
      <trkpt lat="43.05234772193" lon="-5.40256501335">
        <ele>1780.14</ele>
        <time>2013-02-27T14:07:57+01:00</time>
      </trkpt>
      <trkpt lat="43.05234076463" lon="-5.40259705593">
        <ele>1781.3</ele>
        <time>2013-02-27T14:07:58+01:00</time>
      </trkpt>
      <trkpt lat="43.05232581128" lon="-5.40264876627">
        <ele>1782.44</ele>
        <time>2013-02-27T14:08:00+01:00</time>
      </trkpt>
      <trkpt lat="43.05230360845" lon="-5.4027037258">
        <ele>1783.46</ele>
        <time>2013-02-27T14:08:02+01:00</time>
      </trkpt>
      <trkpt lat="43.05228886561" lon="-5.40275591734">
        <ele>1784.51</ele>
        <time>2013-02-27T14:08:04+01:00</time>
      </trkpt>
      <trkpt lat="43.05227381264" lon="-5.40281205656">
        <ele>1785.69</ele>
        <time>2013-02-27T14:08:06+01:00</time>
      </trkpt>
      <trkpt lat="43.05226314173" lon="-5.40286489412">
        <ele>1785.88</ele>
        <time>2013-02-27T14:08:09+01:00</time>
      </trkpt>
      <trkpt lat="43.05225272044" lon="-5.40290269128">
        <ele>1786.8</ele>
        <time>2013-02-27T14:08:10+01:00</time>
      </trkpt>
      <trkpt lat="43.05224168289" lon="-5.40294215276">
        <ele>1787.66</ele>
        <time>2013-02-27T14:08:11+01:00</time>
      </trkpt>
      <trkpt lat="43.05222574846" lon="-5.40298347959">
        <ele>1788.5</ele>
        <time>2013-02-27T14:08:11+01:00</time>
      </trkpt>
      <trkpt lat="43.05221374381" lon="-5.40302171864">
        <ele>1790.45</ele>
        <time>2013-02-27T14:08:12+01:00</time>
      </trkpt>
      <trkpt lat="43.05220356447" lon="-5.40305343928">
        <ele>1790.31</ele>
        <time>2013-02-27T14:08:13+01:00</time>
      </trkpt>
      <trkpt lat="43.05219093388" lon="-5.4030904947">
        <ele>1791.02</ele>
        <time>2013-02-27T14:08:14+01:00</time>
      </trkpt>
      <trkpt lat="43.052167988" lon="-5.40314733824">
        <ele>1792.27</ele>
        <time>2013-02-27T14:08:17+01:00</time>
      </trkpt>
      <trkpt lat="43.05215124721" lon="-5.40318508338">
        <ele>1793.45</ele>
        <time>2013-02-27T14:08:18+01:00</time>
      </trkpt>
      <trkpt lat="43.05213233574" lon="-5.40322868869">
        <ele>1793.99</ele>
        <time>2013-02-27T14:08:20+01:00</time>
      </trkpt>
      <trkpt lat="43.05212143463" lon="-5.40325764338">
        <ele>1794.69</ele>
        <time>2013-02-27T14:08:21+01:00</time>
      </trkpt>
      <trkpt lat="43.05211690747" lon="-5.40329414561">
        <ele>1795.86</ele>
        <time>2013-02-27T14:08:23+01:00</time>
      </trkpt>
      <trkpt lat="43.05210083916" lon="-5.40333208084">
        <ele>1796.86</ele>
        <time>2013-02-27T14:08:25+01:00</time>
      </trkpt>
      <trkpt lat="43.05208284822" lon="-5.40337595421">
        <ele>1797.81</ele>
        <time>2013-02-27T14:08:26+01:00</time>
      </trkpt>
      <trkpt lat="43.0520646558" lon="-5.40342626002">
        <ele>1798.75</ele>
        <time>2013-02-27T14:08:29+01:00</time>
      </trkpt>
      <trkpt lat="43.05204657664" lon="-5.40346586859">
        <ele>1799.83</ele>
        <time>2013-02-27T14:08:30+01:00</time>
      </trkpt>
      <trkpt lat="43.05203213139" lon="-5.40350597681">
        <ele>1800.7</ele>
        <time>2013-02-27T14:08:32+01:00</time>
      </trkpt>
      <trkpt lat="43.05201707181" lon="-5.40354906834">
        <ele>1801.87</ele>
        <time>2013-02-27T14:08:34+01:00</time>
      </trkpt>
      <trkpt lat="43.05200085002" lon="-5.40359523757">
        <ele>1803.03</ele>
        <time>2013-02-27T14:08:36+01:00</time>
      </trkpt>
      <trkpt lat="43.05198241444" lon="-5.40364764413">
        <ele>1804.23</ele>
        <time>2013-02-27T14:08:38+01:00</time>
      </trkpt>
      <trkpt lat="43.05196575535" lon="-5.40369079219">
        <ele>1805.42</ele>
        <time>2013-02-27T14:08:40+01:00</time>
      </trkpt>
      <trkpt lat="43.05195084236" lon="-5.40374191549">
        <ele>1806.86</ele>
        <time>2013-02-27T14:08:42+01:00</time>
      </trkpt>
      <trkpt lat="43.05194063194" lon="-5.40376852095">
        <ele>1810.92</ele>
        <time>2013-02-27T14:08:43+01:00</time>
      </trkpt>
      <trkpt lat="43.05192102178" lon="-5.40382157994">
        <ele>1812.98</ele>
        <time>2013-02-27T14:08:45+01:00</time>
      </trkpt>
      <trkpt lat="43.05190133304" lon="-5.40387524104">
        <ele>1815.88</ele>
        <time>2013-02-27T14:08:47+01:00</time>
      </trkpt>
      <trkpt lat="43.05188058032" lon="-5.40392586943">
        <ele>1818.19</ele>
        <time>2013-02-27T14:08:50+01:00</time>
      </trkpt>
      <trkpt lat="43.05186391643" lon="-5.40396322679">
        <ele>1820.04</ele>
        <time>2013-02-27T14:08:51+01:00</time>
      </trkpt>
      <trkpt lat="43.05184228845" lon="-5.40401440505">
        <ele>1823.18</ele>
        <time>2013-02-27T14:08:53+01:00</time>
      </trkpt>
      <trkpt lat="43.05182232249" lon="-5.40406599215">
        <ele>1825.78</ele>
        <time>2013-02-27T14:08:55+01:00</time>
      </trkpt>
      <trkpt lat="43.05180229642" lon="-5.40411988324">
        <ele>1828.2</ele>
        <time>2013-02-27T14:08:57+01:00</time>
      </trkpt>
      <trkpt lat="43.05179078874" lon="-5.40415001573">
        <ele>1830.48</ele>
        <time>2013-02-27T14:08:58+01:00</time>
      </trkpt>
      <trkpt lat="43.05177679064" lon="-5.40419232381">
        <ele>1832.82</ele>
        <time>2013-02-27T14:09:00+01:00</time>
      </trkpt>
      <trkpt lat="43.05175904399" lon="-5.40425132989">
        <ele>1835.39</ele>
        <time>2013-02-27T14:09:02+01:00</time>
      </trkpt>
      <trkpt lat="43.05174365292" lon="-5.40430558569">
        <ele>1837.84</ele>
        <time>2013-02-27T14:09:04+01:00</time>
      </trkpt>
      <trkpt lat="43.05172917635" lon="-5.4043592156">
        <ele>1840.51</ele>
        <time>2013-02-27T14:09:06+01:00</time>
      </trkpt>
      <trkpt lat="43.05171569647" lon="-5.40440742688">
        <ele>1843.05</ele>
        <time>2013-02-27T14:09:08+01:00</time>
      </trkpt>
      <trkpt lat="43.05170125485" lon="-5.40444946442">
        <ele>1845.52</ele>
        <time>2013-02-27T14:09:10+01:00</time>
      </trkpt>
      <trkpt lat="43.05168883987" lon="-5.40448389255">
        <ele>1847.74</ele>
        <time>2013-02-27T14:09:11+01:00</time>
      </trkpt>
      <trkpt lat="43.05167805558" lon="-5.4045126068">
        <ele>1849.78</ele>
        <time>2013-02-27T14:09:12+01:00</time>
      </trkpt>
      <trkpt lat="43.05166011695" lon="-5.40456413518">
        <ele>1851.84</ele>
        <time>2013-02-27T14:09:14+01:00</time>
      </trkpt>
      <trkpt lat="43.05164896889" lon="-5.40459561557">
        <ele>1853.68</ele>
        <time>2013-02-27T14:09:15+01:00</time>
      </trkpt>
      <trkpt lat="43.05163205" lon="-5.40464817493">
        <ele>1855.49</ele>
        <time>2013-02-27T14:09:17+01:00</time>
      </trkpt>
      <trkpt lat="43.05161334704" lon="-5.40470299306">
        <ele>1857.22</ele>
        <time>2013-02-27T14:09:19+01:00</time>
      </trkpt>
      <trkpt lat="43.05159540864" lon="-5.40475886688">
        <ele>1858.88</ele>
        <time>2013-02-27T14:09:21+01:00</time>
      </trkpt>
      <trkpt lat="43.05157664144" lon="-5.40481439364">
        <ele>1860.57</ele>
        <time>2013-02-27T14:09:24+01:00</time>
      </trkpt>
      <trkpt lat="43.05156089165" lon="-5.40486211058">
        <ele>1862.01</ele>
        <time>2013-02-27T14:09:25+01:00</time>
      </trkpt>
      <trkpt lat="43.05157185682" lon="-5.40491611159">
        <ele>1862.44</ele>
        <time>2013-02-27T14:09:27+01:00</time>
      </trkpt>
      <trkpt lat="43.05156727061" lon="-5.40497820119">
        <ele>1864.34</ele>
        <time>2013-02-27T14:09:29+01:00</time>
      </trkpt>
      <trkpt lat="43.05154810358" lon="-5.40503698983">
        <ele>1865.61</ele>
        <time>2013-02-27T14:09:31+01:00</time>
      </trkpt>
      <trkpt lat="43.05153340028" lon="-5.40506851732">
        <ele>1866.76</ele>
        <time>2013-02-27T14:09:32+01:00</time>
      </trkpt>
      <trkpt lat="43.0515192188" lon="-5.4050969415">
        <ele>1867.77</ele>
        <time>2013-02-27T14:09:33+01:00</time>
      </trkpt>
      <trkpt lat="43.05150195885" lon="-5.4051277711">
        <ele>1868.92</ele>
        <time>2013-02-27T14:09:34+01:00</time>
      </trkpt>
      <trkpt lat="43.05149008656" lon="-5.40515582375">
        <ele>1869.95</ele>
        <time>2013-02-27T14:09:35+01:00</time>
      </trkpt>
      <trkpt lat="43.05147894163" lon="-5.40518344783">
        <ele>1870.92</ele>
        <time>2013-02-27T14:09:36+01:00</time>
      </trkpt>
      <trkpt lat="43.05146734138" lon="-5.40521148167">
        <ele>1871.83</ele>
        <time>2013-02-27T14:09:37+01:00</time>
      </trkpt>
      <trkpt lat="43.05145667627" lon="-5.40523880212">
        <ele>1872.79</ele>
        <time>2013-02-27T14:09:38+01:00</time>
      </trkpt>
      <trkpt lat="43.05144553891" lon="-5.40526748454">
        <ele>1873.66</ele>
        <time>2013-02-27T14:09:39+01:00</time>
      </trkpt>
      <trkpt lat="43.05143499553" lon="-5.40529524704">
        <ele>1874.5</ele>
        <time>2013-02-27T14:09:40+01:00</time>
      </trkpt>
      <trkpt lat="43.05141474244" lon="-5.40534758548">
        <ele>1875.44</ele>
        <time>2013-02-27T14:09:42+01:00</time>
      </trkpt>
      <trkpt lat="43.05139468766" lon="-5.40539921316">
        <ele>1876.54</ele>
        <time>2013-02-27T14:09:44+01:00</time>
      </trkpt>
      <trkpt lat="43.05137514305" lon="-5.40545182588">
        <ele>1877.47</ele>
        <time>2013-02-27T14:09:46+01:00</time>
      </trkpt>
      <trkpt lat="43.05136323089" lon="-5.40548266034">
        <ele>1878.35</ele>
        <time>2013-02-27T14:09:47+01:00</time>
      </trkpt>
      <trkpt lat="43.05134431195" lon="-5.40553334461">
        <ele>1879.44</ele>
        <time>2013-02-27T14:09:49+01:00</time>
      </trkpt>
      <trkpt lat="43.05132601248" lon="-5.40558390163">
        <ele>1880.88</ele>
        <time>2013-02-27T14:09:51+01:00</time>
      </trkpt>
      <trkpt lat="43.0513050215" lon="-5.40563127756">
        <ele>1881.99</ele>
        <time>2013-02-27T14:09:53+01:00</time>
      </trkpt>
      <trkpt lat="43.05128651483" lon="-5.40565532706">
        <ele>1882.77</ele>
        <time>2013-02-27T14:09:54+01:00</time>
      </trkpt>
      <trkpt lat="43.05126528966" lon="-5.40567677669">
        <ele>1883.59</ele>
        <time>2013-02-27T14:09:55+01:00</time>
      </trkpt>
      <trkpt lat="43.05124532018" lon="-5.40569675754">
        <ele>1884.43</ele>
        <time>2013-02-27T14:09:56+01:00</time>
      </trkpt>
      <trkpt lat="43.05122928516" lon="-5.40572524224">
        <ele>1885.53</ele>
        <time>2013-02-27T14:09:57+01:00</time>
      </trkpt>
      <trkpt lat="43.05121723362" lon="-5.40575336215">
        <ele>1886.54</ele>
        <time>2013-02-27T14:09:59+01:00</time>
      </trkpt>
      <trkpt lat="43.05120082789" lon="-5.40580490653">
        <ele>1887.74</ele>
        <time>2013-02-27T14:10:01+01:00</time>
      </trkpt>
      <trkpt lat="43.05118425076" lon="-5.40585570043">
        <ele>1888.81</ele>
        <time>2013-02-27T14:10:02+01:00</time>
      </trkpt>
      <trkpt lat="43.0511690898" lon="-5.40590438248">
        <ele>1890.02</ele>
        <time>2013-02-27T14:10:04+01:00</time>
      </trkpt>
      <trkpt lat="43.05115620866" lon="-5.40594974757">
        <ele>1891.34</ele>
        <time>2013-02-27T14:10:06+01:00</time>
      </trkpt>
      <trkpt lat="43.05114290008" lon="-5.40598356654">
        <ele>1892.54</ele>
        <time>2013-02-27T14:10:07+01:00</time>
      </trkpt>
      <trkpt lat="43.05112874191" lon="-5.40600534813">
        <ele>1893.44</ele>
        <time>2013-02-27T14:10:08+01:00</time>
      </trkpt>
      <trkpt lat="43.05112136956" lon="-5.40603936772">
        <ele>1894.55</ele>
        <time>2013-02-27T14:10:09+01:00</time>
      </trkpt>
      <trkpt lat="43.05111052375" lon="-5.4060690218">
        <ele>1895.36</ele>
        <time>2013-02-27T14:10:10+01:00</time>
      </trkpt>
      <trkpt lat="43.05109959463" lon="-5.40609831476">
        <ele>1895.99</ele>
        <time>2013-02-27T14:10:11+01:00</time>
      </trkpt>
      <trkpt lat="43.0510912806" lon="-5.40612318092">
        <ele>1896.76</ele>
        <time>2013-02-27T14:10:12+01:00</time>
      </trkpt>
      <trkpt lat="43.05108156448" lon="-5.40615774366">
        <ele>1897.65</ele>
        <time>2013-02-27T14:10:13+01:00</time>
      </trkpt>
      <trkpt lat="43.0510719176" lon="-5.40618828186">
        <ele>1898.11</ele>
        <time>2013-02-27T14:10:14+01:00</time>
      </trkpt>
      <trkpt lat="43.05105586549" lon="-5.40624014351">
        <ele>1899</ele>
        <time>2013-02-27T14:10:16+01:00</time>
      </trkpt>
      <trkpt lat="43.05103973863" lon="-5.40629602342">
        <ele>1899.63</ele>
        <time>2013-02-27T14:10:18+01:00</time>
      </trkpt>
      <trkpt lat="43.0510234157" lon="-5.40635253147">
        <ele>1900.15</ele>
        <time>2013-02-27T14:10:20+01:00</time>
      </trkpt>
      <trkpt lat="43.05101352305" lon="-5.40638390634">
        <ele>1900.62</ele>
        <time>2013-02-27T14:10:21+01:00</time>
      </trkpt>
      <trkpt lat="43.05100397167" lon="-5.40641306964">
        <ele>1901.08</ele>
        <time>2013-02-27T14:10:22+01:00</time>
      </trkpt>
      <trkpt lat="43.0509838555" lon="-5.40646796215">
        <ele>1901.44</ele>
        <time>2013-02-27T14:10:24+01:00</time>
      </trkpt>
      <trkpt lat="43.05097120724" lon="-5.40651147171">
        <ele>1901.54</ele>
        <time>2013-02-27T14:10:25+01:00</time>
      </trkpt>
      <trkpt lat="43.05096224783" lon="-5.40654712908">
        <ele>1901.86</ele>
        <time>2013-02-27T14:10:26+01:00</time>
      </trkpt>
      <trkpt lat="43.05095543008" lon="-5.40658901687">
        <ele>1902.08</ele>
        <time>2013-02-27T14:10:27+01:00</time>
      </trkpt>
      <trkpt lat="43.05095410709" lon="-5.40663152771">
        <ele>1902.34</ele>
        <time>2013-02-27T14:10:28+01:00</time>
      </trkpt>
      <trkpt lat="43.05096034922" lon="-5.40666482209">
        <ele>1902.54</ele>
        <time>2013-02-27T14:10:29+01:00</time>
      </trkpt>
      <trkpt lat="43.05096934696" lon="-5.40669455453">
        <ele>1902.75</ele>
        <time>2013-02-27T14:10:30+01:00</time>
      </trkpt>
      <trkpt lat="43.05098491925" lon="-5.40672483601">
        <ele>1902.96</ele>
        <time>2013-02-27T14:10:32+01:00</time>
      </trkpt>
      <trkpt lat="43.05101005059" lon="-5.40674453576">
        <ele>1903.4</ele>
        <time>2013-02-27T14:10:41+01:00</time>
      </trkpt>
      <trkpt lat="43.05101727854" lon="-5.4067769069">
        <ele>1903.59</ele>
        <time>2013-02-27T14:10:44+01:00</time>
      </trkpt>
      <trkpt lat="43.05098439341" lon="-5.40678903796">
        <ele>1903.9</ele>
        <time>2013-02-27T14:11:00+01:00</time>
      </trkpt>
      <trkpt lat="43.05100279376" lon="-5.40678927802">
        <ele>1904.41</ele>
        <time>2013-02-27T14:11:03+01:00</time>
      </trkpt>
      <trkpt lat="43.05102013612" lon="-5.40677232867">
        <ele>1905</ele>
        <time>2013-02-27T14:11:31+01:00</time>
      </trkpt>
      <trkpt lat="43.05104906972" lon="-5.40675151016">
        <ele>1904.56</ele>
        <time>2013-02-27T14:12:01+01:00</time>
      </trkpt>
      <trkpt lat="43.05107911617" lon="-5.40670737237">
        <ele>1904.93</ele>
        <time>2013-02-27T14:12:03+01:00</time>
      </trkpt>
      <trkpt lat="43.05109377585" lon="-5.40666078924">
        <ele>1905.14</ele>
        <time>2013-02-27T14:12:05+01:00</time>
      </trkpt>
      <trkpt lat="43.05109991892" lon="-5.40662188247">
        <ele>1905.27</ele>
        <time>2013-02-27T14:12:07+01:00</time>
      </trkpt>
      <trkpt lat="43.05110736029" lon="-5.40657778381">
        <ele>1905.2</ele>
        <time>2013-02-27T14:12:19+01:00</time>
      </trkpt>
      <trkpt lat="43.05112436112" lon="-5.40655066736">
        <ele>1905.35</ele>
        <time>2013-02-27T14:12:22+01:00</time>
      </trkpt>
      <trkpt lat="43.05114178985" lon="-5.40650495656">
        <ele>1905.37</ele>
        <time>2013-02-27T14:12:23+01:00</time>
      </trkpt>
      <trkpt lat="43.0511493791" lon="-5.40646621246">
        <ele>1905.3</ele>
        <time>2013-02-27T14:12:25+01:00</time>
      </trkpt>
      <trkpt lat="43.05115485284" lon="-5.4064224318">
        <ele>1905.04</ele>
        <time>2013-02-27T14:12:25+01:00</time>
      </trkpt>
      <trkpt lat="43.05115777649" lon="-5.40636524775">
        <ele>1904.71</ele>
        <time>2013-02-27T14:12:26+01:00</time>
      </trkpt>
      <trkpt lat="43.05114335861" lon="-5.40622887224">
        <ele>1904.19</ele>
        <time>2013-02-27T14:12:27+01:00</time>
      </trkpt>
      <trkpt lat="43.05114442396" lon="-5.40614667726">
        <ele>1903.75</ele>
        <time>2013-02-27T14:12:28+01:00</time>
      </trkpt>
      <trkpt lat="43.05116659761" lon="-5.40605097899">
        <ele>1903.38</ele>
        <time>2013-02-27T14:12:29+01:00</time>
      </trkpt>
      <trkpt lat="43.05119369701" lon="-5.40593776085">
        <ele>1902.98</ele>
        <time>2013-02-27T14:12:30+01:00</time>
      </trkpt>
      <trkpt lat="43.05120974514" lon="-5.40583632733">
        <ele>1902.42</ele>
        <time>2013-02-27T14:12:31+01:00</time>
      </trkpt>
      <trkpt lat="43.05119623174" lon="-5.40570223503">
        <ele>1901.55</ele>
        <time>2013-02-27T14:12:32+01:00</time>
      </trkpt>
      <trkpt lat="43.0511833008" lon="-5.40558253488">
        <ele>1900.71</ele>
        <time>2013-02-27T14:12:33+01:00</time>
      </trkpt>
      <trkpt lat="43.05117269123" lon="-5.40547302466">
        <ele>1899.91</ele>
        <time>2013-02-27T14:12:34+01:00</time>
      </trkpt>
      <trkpt lat="43.05117366707" lon="-5.40536815442">
        <ele>1898.84</ele>
        <time>2013-02-27T14:12:35+01:00</time>
      </trkpt>
      <trkpt lat="43.05118349604" lon="-5.40525431852">
        <ele>1897.54</ele>
        <time>2013-02-27T14:12:36+01:00</time>
      </trkpt>
      <trkpt lat="43.0512002453" lon="-5.40513852995">
        <ele>1896.22</ele>
        <time>2013-02-27T14:12:37+01:00</time>
      </trkpt>
      <trkpt lat="43.05121980551" lon="-5.40503764602">
        <ele>1895</ele>
        <time>2013-02-27T14:12:38+01:00</time>
      </trkpt>
      <trkpt lat="43.05125528665" lon="-5.4049272892">
        <ele>1893.5</ele>
        <time>2013-02-27T14:12:39+01:00</time>
      </trkpt>
      <trkpt lat="43.05129210254" lon="-5.40482188166">
        <ele>1891.85</ele>
        <time>2013-02-27T14:12:40+01:00</time>
      </trkpt>
      <trkpt lat="43.05131954682" lon="-5.40473160387">
        <ele>1890.23</ele>
        <time>2013-02-27T14:12:41+01:00</time>
      </trkpt>
      <trkpt lat="43.05133383313" lon="-5.40465558792">
        <ele>1888.72</ele>
        <time>2013-02-27T14:12:42+01:00</time>
      </trkpt>
      <trkpt lat="43.05134525718" lon="-5.40458273321">
        <ele>1887.34</ele>
        <time>2013-02-27T14:12:43+01:00</time>
      </trkpt>
      <trkpt lat="43.0513586204" lon="-5.40452769603">
        <ele>1885.93</ele>
        <time>2013-02-27T14:12:44+01:00</time>
      </trkpt>
      <trkpt lat="43.05136908462" lon="-5.40448696318">
        <ele>1884.6</ele>
        <time>2013-02-27T14:12:45+01:00</time>
      </trkpt>
      <trkpt lat="43.05137616601" lon="-5.40445158348">
        <ele>1883.22</ele>
        <time>2013-02-27T14:12:47+01:00</time>
      </trkpt>
      <trkpt lat="43.05137498822" lon="-5.40441364618">
        <ele>1881.82</ele>
        <time>2013-02-27T14:12:49+01:00</time>
      </trkpt>
      <trkpt lat="43.05137974503" lon="-5.40438418949">
        <ele>1880.37</ele>
        <time>2013-02-27T14:12:53+01:00</time>
      </trkpt>
      <trkpt lat="43.05139016952" lon="-5.40440222968">
        <ele>1879.06</ele>
        <time>2013-02-27T14:13:19+01:00</time>
      </trkpt>
      <trkpt lat="43.0514140317" lon="-5.40441768782">
        <ele>1879.21</ele>
        <time>2013-02-27T14:13:42+01:00</time>
      </trkpt>
      <trkpt lat="43.05141260834" lon="-5.40439147277">
        <ele>1878.11</ele>
        <time>2013-02-27T14:13:49+01:00</time>
      </trkpt>
      <trkpt lat="43.05139688824" lon="-5.40440876667">
        <ele>1877.62</ele>
        <time>2013-02-27T14:13:57+01:00</time>
      </trkpt>
      <trkpt lat="43.05140153979" lon="-5.40437979315">
        <ele>1876</ele>
        <time>2013-02-27T14:14:06+01:00</time>
      </trkpt>
      <trkpt lat="43.05138318338" lon="-5.40440307248">
        <ele>1875.79</ele>
        <time>2013-02-27T14:14:11+01:00</time>
      </trkpt>
      <trkpt lat="43.05136954183" lon="-5.40442954029">
        <ele>1875.53</ele>
        <time>2013-02-27T14:14:14+01:00</time>
      </trkpt>
      <trkpt lat="43.05134309483" lon="-5.40442849065">
        <ele>1873.62</ele>
        <time>2013-02-27T14:14:55+01:00</time>
      </trkpt>
      <trkpt lat="43.05137575471" lon="-5.4044186543">
        <ele>1870.34</ele>
        <time>2013-02-27T14:15:05+01:00</time>
      </trkpt>
      <trkpt lat="43.05140074659" lon="-5.4044104287">
        <ele>1870.51</ele>
        <time>2013-02-27T14:15:09+01:00</time>
      </trkpt>
      <trkpt lat="43.0513905964" lon="-5.40437308538">
        <ele>1869.63</ele>
        <time>2013-02-27T14:15:16+01:00</time>
      </trkpt>
      <trkpt lat="43.05138075443" lon="-5.40432417659">
        <ele>1868.29</ele>
        <time>2013-02-27T14:15:17+01:00</time>
      </trkpt>
      <trkpt lat="43.05136607907" lon="-5.40429233366">
        <ele>1867.21</ele>
        <time>2013-02-27T14:15:22+01:00</time>
      </trkpt>
      <trkpt lat="43.05141809575" lon="-5.40424854826">
        <ele>1866.28</ele>
        <time>2013-02-27T14:15:23+01:00</time>
      </trkpt>
      <trkpt lat="43.05145106317" lon="-5.40420237437">
        <ele>1865.32</ele>
        <time>2013-02-27T14:15:24+01:00</time>
      </trkpt>
      <trkpt lat="43.05148638982" lon="-5.40416464112">
        <ele>1864.4</ele>
        <time>2013-02-27T14:15:24+01:00</time>
      </trkpt>
      <trkpt lat="43.05151117368" lon="-5.40413884397">
        <ele>1863.49</ele>
        <time>2013-02-27T14:15:25+01:00</time>
      </trkpt>
      <trkpt lat="43.05153716984" lon="-5.4040552414">
        <ele>1863.07</ele>
        <time>2013-02-27T14:15:26+01:00</time>
      </trkpt>
      <trkpt lat="43.05155617734" lon="-5.40403670254">
        <ele>1862.45</ele>
        <time>2013-02-27T14:15:27+01:00</time>
      </trkpt>
      <trkpt lat="43.05155953235" lon="-5.40403055712">
        <ele>1861.91</ele>
        <time>2013-02-27T14:15:28+01:00</time>
      </trkpt>
      <trkpt lat="43.05157442035" lon="-5.40402276784">
        <ele>1861.32</ele>
        <time>2013-02-27T14:15:30+01:00</time>
      </trkpt>
      <trkpt lat="43.05160562704" lon="-5.40401837029">
        <ele>1860.88</ele>
        <time>2013-02-27T14:15:31+01:00</time>
      </trkpt>
      <trkpt lat="43.05170770591" lon="-5.40402866562">
        <ele>1860.11</ele>
        <time>2013-02-27T14:15:32+01:00</time>
      </trkpt>
      <trkpt lat="43.05176114638" lon="-5.40401329033">
        <ele>1859.6</ele>
        <time>2013-02-27T14:15:34+01:00</time>
      </trkpt>
      <trkpt lat="43.05180274693" lon="-5.40400035815">
        <ele>1859.07</ele>
        <time>2013-02-27T14:15:35+01:00</time>
      </trkpt>
      <trkpt lat="43.05183839205" lon="-5.40400481252">
        <ele>1858.5</ele>
        <time>2013-02-27T14:15:35+01:00</time>
      </trkpt>
      <trkpt lat="43.05186620761" lon="-5.40401314652">
        <ele>1856.94</ele>
        <time>2013-02-27T14:15:37+01:00</time>
      </trkpt>
      <trkpt lat="43.05190459425" lon="-5.40402513982">
        <ele>1857.11</ele>
        <time>2013-02-27T14:15:37+01:00</time>
      </trkpt>
      <trkpt lat="43.05194935312" lon="-5.40403820027">
        <ele>1856.67</ele>
        <time>2013-02-27T14:15:38+01:00</time>
      </trkpt>
      <trkpt lat="43.05193446676" lon="-5.40403028468">
        <ele>1855.84</ele>
        <time>2013-02-27T14:15:43+01:00</time>
      </trkpt>
      <trkpt lat="43.05195110314" lon="-5.40402863451">
        <ele>1854.4</ele>
        <time>2013-02-27T14:15:47+01:00</time>
      </trkpt>
      <trkpt lat="43.05195339106" lon="-5.40406069215">
        <ele>1852.98</ele>
        <time>2013-02-27T14:15:53+01:00</time>
      </trkpt>
      <trkpt lat="43.05194496383" lon="-5.40409265172">
        <ele>1852.4</ele>
        <time>2013-02-27T14:15:57+01:00</time>
      </trkpt>
      <trkpt lat="43.05204131312" lon="-5.40407456848">
        <ele>1852.02</ele>
        <time>2013-02-27T14:16:04+01:00</time>
      </trkpt>
      <trkpt lat="43.05207412814" lon="-5.40405304808">
        <ele>1851.02</ele>
        <time>2013-02-27T14:16:05+01:00</time>
      </trkpt>
      <trkpt lat="43.05210848553" lon="-5.40406014339">
        <ele>1850.81</ele>
        <time>2013-02-27T14:16:07+01:00</time>
      </trkpt>
      <trkpt lat="43.05213654646" lon="-5.40406042252">
        <ele>1850.31</ele>
        <time>2013-02-27T14:16:07+01:00</time>
      </trkpt>
      <trkpt lat="43.05217783203" lon="-5.40404498858">
        <ele>1848.32</ele>
        <time>2013-02-27T14:16:10+01:00</time>
      </trkpt>
      <trkpt lat="43.05221254243" lon="-5.40402104762">
        <ele>1848.3</ele>
        <time>2013-02-27T14:16:11+01:00</time>
      </trkpt>
      <trkpt lat="43.05225260979" lon="-5.40398655397">
        <ele>1847.58</ele>
        <time>2013-02-27T14:16:13+01:00</time>
      </trkpt>
      <trkpt lat="43.05228080688" lon="-5.40394746873">
        <ele>1846.78</ele>
        <time>2013-02-27T14:16:14+01:00</time>
      </trkpt>
      <trkpt lat="43.05231507888" lon="-5.40385234577">
        <ele>1845.3</ele>
        <time>2013-02-27T14:16:15+01:00</time>
      </trkpt>
      <trkpt lat="43.05235737197" lon="-5.40377511725">
        <ele>1844.34</ele>
        <time>2013-02-27T14:16:17+01:00</time>
      </trkpt>
      <trkpt lat="43.05238528974" lon="-5.40373675566">
        <ele>1843.35</ele>
        <time>2013-02-27T14:16:17+01:00</time>
      </trkpt>
      <trkpt lat="43.05242864816" lon="-5.40369326735">
        <ele>1842.33</ele>
        <time>2013-02-27T14:16:18+01:00</time>
      </trkpt>
      <trkpt lat="43.05248559422" lon="-5.40366641024">
        <ele>1841.24</ele>
        <time>2013-02-27T14:16:19+01:00</time>
      </trkpt>
      <trkpt lat="43.0525835212" lon="-5.40360308208">
        <ele>1840.2</ele>
        <time>2013-02-27T14:16:21+01:00</time>
      </trkpt>
      <trkpt lat="43.05262248556" lon="-5.40348279281">
        <ele>1838.63</ele>
        <time>2013-02-27T14:16:22+01:00</time>
      </trkpt>
      <trkpt lat="43.05266551595" lon="-5.40333334169">
        <ele>1836.97</ele>
        <time>2013-02-27T14:16:23+01:00</time>
      </trkpt>
      <trkpt lat="43.0527067444" lon="-5.40320434384">
        <ele>1835.43</ele>
        <time>2013-02-27T14:16:24+01:00</time>
      </trkpt>
      <trkpt lat="43.0527555585" lon="-5.40309962027">
        <ele>1833.87</ele>
        <time>2013-02-27T14:16:24+01:00</time>
      </trkpt>
      <trkpt lat="43.05279133875" lon="-5.40299177199">
        <ele>1832.15</ele>
        <time>2013-02-27T14:16:25+01:00</time>
      </trkpt>
      <trkpt lat="43.05283389995" lon="-5.40296550846">
        <ele>1830.63</ele>
        <time>2013-02-27T14:16:27+01:00</time>
      </trkpt>
      <trkpt lat="43.05286258466" lon="-5.4029639019">
        <ele>1829.1</ele>
        <time>2013-02-27T14:16:27+01:00</time>
      </trkpt>
      <trkpt lat="43.05286590481" lon="-5.40295178305">
        <ele>1827.87</ele>
        <time>2013-02-27T14:16:29+01:00</time>
      </trkpt>
      <trkpt lat="43.05285149259" lon="-5.40294781911">
        <ele>1826.23</ele>
        <time>2013-02-27T14:16:31+01:00</time>
      </trkpt>
      <trkpt lat="43.05284113627" lon="-5.40297126887">
        <ele>1824.63</ele>
        <time>2013-02-27T14:16:34+01:00</time>
      </trkpt>
      <trkpt lat="43.05285334777" lon="-5.4029942649">
        <ele>1823.26</ele>
        <time>2013-02-27T14:16:37+01:00</time>
      </trkpt>
      <trkpt lat="43.05286857862" lon="-5.40299810332">
        <ele>1821.44</ele>
        <time>2013-02-27T14:16:41+01:00</time>
      </trkpt>
      <trkpt lat="43.05287101822" lon="-5.40297269753">
        <ele>1819.83</ele>
        <time>2013-02-27T14:16:43+01:00</time>
      </trkpt>
      <trkpt lat="43.05285590435" lon="-5.40293024467">
        <ele>1818.38</ele>
        <time>2013-02-27T14:16:44+01:00</time>
      </trkpt>
      <trkpt lat="43.05287235053" lon="-5.40292967384">
        <ele>1816.67</ele>
        <time>2013-02-27T14:16:49+01:00</time>
      </trkpt>
      <trkpt lat="43.05289664591" lon="-5.40292502983">
        <ele>1814.98</ele>
        <time>2013-02-27T14:16:51+01:00</time>
      </trkpt>
      <trkpt lat="43.05293442183" lon="-5.40290502021">
        <ele>1813.46</ele>
        <time>2013-02-27T14:16:51+01:00</time>
      </trkpt>
      <trkpt lat="43.05295773499" lon="-5.40287077638">
        <ele>1811.97</ele>
        <time>2013-02-27T14:16:52+01:00</time>
      </trkpt>
      <trkpt lat="43.05297959729" lon="-5.40282356037">
        <ele>1810.46</ele>
        <time>2013-02-27T14:16:54+01:00</time>
      </trkpt>
      <trkpt lat="43.05299194932" lon="-5.40270582297">
        <ele>1808.93</ele>
        <time>2013-02-27T14:16:55+01:00</time>
      </trkpt>
      <trkpt lat="43.05295891398" lon="-5.40259014162">
        <ele>1807.55</ele>
        <time>2013-02-27T14:16:56+01:00</time>
      </trkpt>
      <trkpt lat="43.05294791141" lon="-5.40252467757">
        <ele>1806.23</ele>
        <time>2013-02-27T14:16:57+01:00</time>
      </trkpt>
      <trkpt lat="43.05293193444" lon="-5.40238634153">
        <ele>1804.83</ele>
        <time>2013-02-27T14:16:57+01:00</time>
      </trkpt>
      <trkpt lat="43.05291786737" lon="-5.40232441589">
        <ele>1803.6</ele>
        <time>2013-02-27T14:16:58+01:00</time>
      </trkpt>
      <trkpt lat="43.05290202044" lon="-5.40223068598">
        <ele>1802.1</ele>
        <time>2013-02-27T14:16:59+01:00</time>
      </trkpt>
      <trkpt lat="43.0528956324" lon="-5.40217277975">
        <ele>1800.72</ele>
        <time>2013-02-27T14:17:01+01:00</time>
      </trkpt>
      <trkpt lat="43.05289009679" lon="-5.402095015">
        <ele>1799.24</ele>
        <time>2013-02-27T14:17:02+01:00</time>
      </trkpt>
      <trkpt lat="43.05287514276" lon="-5.40202836596">
        <ele>1797.88</ele>
        <time>2013-02-27T14:17:02+01:00</time>
      </trkpt>
      <trkpt lat="43.05285397999" lon="-5.40197634529">
        <ele>1796.51</ele>
        <time>2013-02-27T14:17:04+01:00</time>
      </trkpt>
      <trkpt lat="43.05282691513" lon="-5.40194575753">
        <ele>1795.13</ele>
        <time>2013-02-27T14:17:04+01:00</time>
      </trkpt>
      <trkpt lat="43.05282270915" lon="-5.401880162">
        <ele>1793.78</ele>
        <time>2013-02-27T14:17:05+01:00</time>
      </trkpt>
      <trkpt lat="43.05278404881" lon="-5.40181976896">
        <ele>1792.47</ele>
        <time>2013-02-27T14:17:07+01:00</time>
      </trkpt>
      <trkpt lat="43.0527527133" lon="-5.401742915">
        <ele>1791.14</ele>
        <time>2013-02-27T14:17:07+01:00</time>
      </trkpt>
      <trkpt lat="43.05274564154" lon="-5.40167208954">
        <ele>1789.36</ele>
        <time>2013-02-27T14:17:10+01:00</time>
      </trkpt>
      <trkpt lat="43.05269484101" lon="-5.40160414616">
        <ele>1787.68</ele>
        <time>2013-02-27T14:17:10+01:00</time>
      </trkpt>
      <trkpt lat="43.05267505848" lon="-5.40155689576">
        <ele>1786.27</ele>
        <time>2013-02-27T14:17:11+01:00</time>
      </trkpt>
      <trkpt lat="43.05266127839" lon="-5.40150660904">
        <ele>1784.93</ele>
        <time>2013-02-27T14:17:12+01:00</time>
      </trkpt>
      <trkpt lat="43.05265362734" lon="-5.40145960427">
        <ele>1783.56</ele>
        <time>2013-02-27T14:17:14+01:00</time>
      </trkpt>
      <trkpt lat="43.05265065544" lon="-5.40140675153">
        <ele>1782.37</ele>
        <time>2013-02-27T14:17:15+01:00</time>
      </trkpt>
      <trkpt lat="43.05264869139" lon="-5.40137386767">
        <ele>1781.22</ele>
        <time>2013-02-27T14:17:15+01:00</time>
      </trkpt>
      <trkpt lat="43.05263598898" lon="-5.40128680855">
        <ele>1779.2</ele>
        <time>2013-02-27T14:17:17+01:00</time>
      </trkpt>
      <trkpt lat="43.05263054551" lon="-5.40124520649">
        <ele>1777.7</ele>
        <time>2013-02-27T14:17:17+01:00</time>
      </trkpt>
      <trkpt lat="43.05260728115" lon="-5.40115921943">
        <ele>1776.56</ele>
        <time>2013-02-27T14:17:18+01:00</time>
      </trkpt>
      <trkpt lat="43.0525964592" lon="-5.40108924955">
        <ele>1772.98</ele>
        <time>2013-02-27T14:17:19+01:00</time>
      </trkpt>
      <trkpt lat="43.05258011263" lon="-5.40104575128">
        <ele>1773.32</ele>
        <time>2013-02-27T14:17:21+01:00</time>
      </trkpt>
      <trkpt lat="43.05256256055" lon="-5.40098494971">
        <ele>1772.18</ele>
        <time>2013-02-27T14:17:22+01:00</time>
      </trkpt>
      <trkpt lat="43.05255150643" lon="-5.40091880994">
        <ele>1770.85</ele>
        <time>2013-02-27T14:17:23+01:00</time>
      </trkpt>
      <trkpt lat="43.05253732624" lon="-5.40086615352">
        <ele>1769.35</ele>
        <time>2013-02-27T14:17:24+01:00</time>
      </trkpt>
      <trkpt lat="43.05252691296" lon="-5.40082363689">
        <ele>1766.36</ele>
        <time>2013-02-27T14:17:25+01:00</time>
      </trkpt>
      <trkpt lat="43.05251440322" lon="-5.4007443903">
        <ele>1764.76</ele>
        <time>2013-02-27T14:17:27+01:00</time>
      </trkpt>
      <trkpt lat="43.05249959403" lon="-5.40069261311">
        <ele>1763.19</ele>
        <time>2013-02-27T14:17:29+01:00</time>
      </trkpt>
      <trkpt lat="43.05251919888" lon="-5.40068177456">
        <ele>1761.14</ele>
        <time>2013-02-27T14:17:36+01:00</time>
      </trkpt>
      <trkpt lat="43.05253545361" lon="-5.4006153652">
        <ele>1759.1</ele>
        <time>2013-02-27T14:17:37+01:00</time>
      </trkpt>
      <trkpt lat="43.05255436636" lon="-5.40055642146">
        <ele>1756.94</ele>
        <time>2013-02-27T14:17:38+01:00</time>
      </trkpt>
      <trkpt lat="43.05257615323" lon="-5.4004675192">
        <ele>1755.28</ele>
        <time>2013-02-27T14:17:39+01:00</time>
      </trkpt>
      <trkpt lat="43.05258071178" lon="-5.40034835125">
        <ele>1752.62</ele>
        <time>2013-02-27T14:17:40+01:00</time>
      </trkpt>
      <trkpt lat="43.05259215115" lon="-5.40023064035">
        <ele>1749.94</ele>
        <time>2013-02-27T14:17:41+01:00</time>
      </trkpt>
      <trkpt lat="43.0526233534" lon="-5.40006067397">
        <ele>1747.07</ele>
        <time>2013-02-27T14:17:42+01:00</time>
      </trkpt>
      <trkpt lat="43.05265144332" lon="-5.39990713613">
        <ele>1744.21</ele>
        <time>2013-02-27T14:17:43+01:00</time>
      </trkpt>
      <trkpt lat="43.05268054215" lon="-5.39975101667">
        <ele>1741.24</ele>
        <time>2013-02-27T14:17:44+01:00</time>
      </trkpt>
      <trkpt lat="43.05270932697" lon="-5.39959139524">
        <ele>1737.57</ele>
        <time>2013-02-27T14:17:45+01:00</time>
      </trkpt>
      <trkpt lat="43.05275916506" lon="-5.3994588073">
        <ele>1735.33</ele>
        <time>2013-02-27T14:17:46+01:00</time>
      </trkpt>
      <trkpt lat="43.05283472031" lon="-5.39937803228">
        <ele>1732.9</ele>
        <time>2013-02-27T14:17:47+01:00</time>
      </trkpt>
      <trkpt lat="43.05290892741" lon="-5.39934268908">
        <ele>1730.42</ele>
        <time>2013-02-27T14:17:48+01:00</time>
      </trkpt>
      <trkpt lat="43.05298472203" lon="-5.39927983049">
        <ele>1727.91</ele>
        <time>2013-02-27T14:17:49+01:00</time>
      </trkpt>
      <trkpt lat="43.05309810904" lon="-5.39922434776">
        <ele>1725.6</ele>
        <time>2013-02-27T14:17:50+01:00</time>
      </trkpt>
      <trkpt lat="43.05318335679" lon="-5.39918313909">
        <ele>1723.34</ele>
        <time>2013-02-27T14:17:51+01:00</time>
      </trkpt>
      <trkpt lat="43.05328076583" lon="-5.39909631777">
        <ele>1721.27</ele>
        <time>2013-02-27T14:17:52+01:00</time>
      </trkpt>
      <trkpt lat="43.05334018209" lon="-5.39901121783">
        <ele>1719.09</ele>
        <time>2013-02-27T14:17:53+01:00</time>
      </trkpt>
      <trkpt lat="43.05338704836" lon="-5.39895382457">
        <ele>1716.91</ele>
        <time>2013-02-27T14:17:54+01:00</time>
      </trkpt>
      <trkpt lat="43.05341964672" lon="-5.39887106394">
        <ele>1715.02</ele>
        <time>2013-02-27T14:17:55+01:00</time>
      </trkpt>
      <trkpt lat="43.0534485929" lon="-5.39880289079">
        <ele>1712.46</ele>
        <time>2013-02-27T14:17:56+01:00</time>
      </trkpt>
      <trkpt lat="43.05346682329" lon="-5.39869544346">
        <ele>1710.84</ele>
        <time>2013-02-27T14:17:57+01:00</time>
      </trkpt>
      <trkpt lat="43.05349045182" lon="-5.39858383177">
        <ele>1708.74</ele>
        <time>2013-02-27T14:17:58+01:00</time>
      </trkpt>
      <trkpt lat="43.05352769931" lon="-5.3984706496">
        <ele>1707.03</ele>
        <time>2013-02-27T14:17:59+01:00</time>
      </trkpt>
      <trkpt lat="43.05355311961" lon="-5.39835876266">
        <ele>1705.29</ele>
        <time>2013-02-27T14:18:00+01:00</time>
      </trkpt>
      <trkpt lat="43.05358281294" lon="-5.39829702386">
        <ele>1703.55</ele>
        <time>2013-02-27T14:18:01+01:00</time>
      </trkpt>
      <trkpt lat="43.05361688127" lon="-5.39819341393">
        <ele>1702.11</ele>
        <time>2013-02-27T14:18:02+01:00</time>
      </trkpt>
      <trkpt lat="43.05364981295" lon="-5.39808451433">
        <ele>1700.74</ele>
        <time>2013-02-27T14:18:03+01:00</time>
      </trkpt>
      <trkpt lat="43.0536649153" lon="-5.39798783372">
        <ele>1699.46</ele>
        <time>2013-02-27T14:18:05+01:00</time>
      </trkpt>
      <trkpt lat="43.05369264562" lon="-5.39790761145">
        <ele>1698.26</ele>
        <time>2013-02-27T14:18:05+01:00</time>
      </trkpt>
      <trkpt lat="43.0537224992" lon="-5.39783416773">
        <ele>1697.18</ele>
        <time>2013-02-27T14:18:06+01:00</time>
      </trkpt>
      <trkpt lat="43.05374395968" lon="-5.39777984934">
        <ele>1696.28</ele>
        <time>2013-02-27T14:18:07+01:00</time>
      </trkpt>
      <trkpt lat="43.05377312926" lon="-5.39773237351">
        <ele>1695.41</ele>
        <time>2013-02-27T14:18:08+01:00</time>
      </trkpt>
      <trkpt lat="43.0537997503" lon="-5.39769746442">
        <ele>1694.51</ele>
        <time>2013-02-27T14:18:09+01:00</time>
      </trkpt>
      <trkpt lat="43.0538294826" lon="-5.39770127849">
        <ele>1693.69</ele>
        <time>2013-02-27T14:18:10+01:00</time>
      </trkpt>
      <trkpt lat="43.0538176259" lon="-5.39768903259">
        <ele>1693.46</ele>
        <time>2013-02-27T14:18:11+01:00</time>
      </trkpt>
      <trkpt lat="43.05383232012" lon="-5.39769945801">
        <ele>1692.62</ele>
        <time>2013-02-27T14:18:12+01:00</time>
      </trkpt>
      <trkpt lat="43.05386486384" lon="-5.39770650519">
        <ele>1691.95</ele>
        <time>2013-02-27T14:18:14+01:00</time>
      </trkpt>
      <trkpt lat="43.05387663642" lon="-5.3976826348">
        <ele>1691.19</ele>
        <time>2013-02-27T14:18:15+01:00</time>
      </trkpt>
      <trkpt lat="43.0538858403" lon="-5.39769247531">
        <ele>1690.4</ele>
        <time>2013-02-27T14:18:21+01:00</time>
      </trkpt>
      <trkpt lat="43.05390492198" lon="-5.39770187989">
        <ele>1689.79</ele>
        <time>2013-02-27T14:18:23+01:00</time>
      </trkpt>
      <trkpt lat="43.05392145427" lon="-5.3977440644">
        <ele>1687.76</ele>
        <time>2013-02-27T14:18:31+01:00</time>
      </trkpt>
      <trkpt lat="43.05393683706" lon="-5.39777958926">
        <ele>1686.89</ele>
        <time>2013-02-27T14:18:34+01:00</time>
      </trkpt>
      <trkpt lat="43.05393596135" lon="-5.39782055856">
        <ele>1685.74</ele>
        <time>2013-02-27T14:18:46+01:00</time>
      </trkpt>
      <trkpt lat="43.05393383832" lon="-5.39785102237">
        <ele>1684.93</ele>
        <time>2013-02-27T14:18:49+01:00</time>
      </trkpt>
      <trkpt lat="43.05394067805" lon="-5.39788827789">
        <ele>1684.28</ele>
        <time>2013-02-27T14:18:52+01:00</time>
      </trkpt>
      <trkpt lat="43.05392113593" lon="-5.39791633287">
        <ele>1684.14</ele>
        <time>2013-02-27T14:18:54+01:00</time>
      </trkpt>
      <trkpt lat="43.05389999191" lon="-5.39794957629">
        <ele>1683.7</ele>
        <time>2013-02-27T14:18:55+01:00</time>
      </trkpt>
      <trkpt lat="43.05388154537" lon="-5.39797794576">
        <ele>1682.33</ele>
        <time>2013-02-27T14:18:56+01:00</time>
      </trkpt>
      <trkpt lat="43.05386917723" lon="-5.3980051489">
        <ele>1681.84</ele>
        <time>2013-02-27T14:18:57+01:00</time>
      </trkpt>
      <trkpt lat="43.05385745466" lon="-5.39803645989">
        <ele>1681.32</ele>
        <time>2013-02-27T14:18:58+01:00</time>
      </trkpt>
      <trkpt lat="43.05384839922" lon="-5.39806591855">
        <ele>1681.04</ele>
        <time>2013-02-27T14:18:59+01:00</time>
      </trkpt>
      <trkpt lat="43.05383840773" lon="-5.39809341458">
        <ele>1680.59</ele>
        <time>2013-02-27T14:19:00+01:00</time>
      </trkpt>
      <trkpt lat="43.05382299586" lon="-5.3981481827">
        <ele>1680.32</ele>
        <time>2013-02-27T14:19:02+01:00</time>
      </trkpt>
      <trkpt lat="43.05380655584" lon="-5.3982038252">
        <ele>1679.94</ele>
        <time>2013-02-27T14:19:04+01:00</time>
      </trkpt>
      <trkpt lat="43.05379551992" lon="-5.39823624507">
        <ele>1679.8</ele>
        <time>2013-02-27T14:19:05+01:00</time>
      </trkpt>
      <trkpt lat="43.05378559018" lon="-5.39826566374">
        <ele>1679.73</ele>
        <time>2013-02-27T14:19:06+01:00</time>
      </trkpt>
      <trkpt lat="43.05377632564" lon="-5.39829087634">
        <ele>1679.67</ele>
        <time>2013-02-27T14:19:07+01:00</time>
      </trkpt>
      <trkpt lat="43.05375636251" lon="-5.39834580963">
        <ele>1679.55</ele>
        <time>2013-02-27T14:19:09+01:00</time>
      </trkpt>
      <trkpt lat="43.05373671391" lon="-5.39840131777">
        <ele>1679.7</ele>
        <time>2013-02-27T14:19:11+01:00</time>
      </trkpt>
      <trkpt lat="43.05371762482" lon="-5.39845431854">
        <ele>1679.76</ele>
        <time>2013-02-27T14:19:13+01:00</time>
      </trkpt>
      <trkpt lat="43.05369817678" lon="-5.39850910537">
        <ele>1679.92</ele>
        <time>2013-02-27T14:19:15+01:00</time>
      </trkpt>
      <trkpt lat="43.05367824022" lon="-5.39856437256">
        <ele>1680.14</ele>
        <time>2013-02-27T14:19:17+01:00</time>
      </trkpt>
      <trkpt lat="43.05366825023" lon="-5.3985961514">
        <ele>1680.39</ele>
        <time>2013-02-27T14:19:18+01:00</time>
      </trkpt>
      <trkpt lat="43.05365408745" lon="-5.39864089514">
        <ele>1680.03</ele>
        <time>2013-02-27T14:19:20+01:00</time>
      </trkpt>
      <trkpt lat="43.05364286435" lon="-5.39868203196">
        <ele>1679.74</ele>
        <time>2013-02-27T14:19:23+01:00</time>
      </trkpt>
      <trkpt lat="43.05362872392" lon="-5.39872511704">
        <ele>1679.88</ele>
        <time>2013-02-27T14:19:25+01:00</time>
      </trkpt>
      <trkpt lat="43.05361137837" lon="-5.39877825872">
        <ele>1679.86</ele>
        <time>2013-02-27T14:19:26+01:00</time>
      </trkpt>
      <trkpt lat="43.0536010361" lon="-5.39881349633">
        <ele>1679.76</ele>
        <time>2013-02-27T14:19:27+01:00</time>
      </trkpt>
      <trkpt lat="43.05359149099" lon="-5.39884662833">
        <ele>1679.71</ele>
        <time>2013-02-27T14:19:28+01:00</time>
      </trkpt>
      <trkpt lat="43.05358163593" lon="-5.3988784675">
        <ele>1679.73</ele>
        <time>2013-02-27T14:19:29+01:00</time>
      </trkpt>
      <trkpt lat="43.05357037776" lon="-5.39890924343">
        <ele>1679.73</ele>
        <time>2013-02-27T14:19:30+01:00</time>
      </trkpt>
      <trkpt lat="43.05355833607" lon="-5.39893846562">
        <ele>1679.7</ele>
        <time>2013-02-27T14:19:31+01:00</time>
      </trkpt>
      <trkpt lat="43.05354697586" lon="-5.39896690766">
        <ele>1679.84</ele>
        <time>2013-02-27T14:19:32+01:00</time>
      </trkpt>
      <trkpt lat="43.05353672522" lon="-5.39899993643">
        <ele>1679.73</ele>
        <time>2013-02-27T14:19:33+01:00</time>
      </trkpt>
      <trkpt lat="43.05353712163" lon="-5.3990282192">
        <ele>1679.66</ele>
        <time>2013-02-27T14:19:34+01:00</time>
      </trkpt>
      <trkpt lat="43.05352741085" lon="-5.39905647336">
        <ele>1679.7</ele>
        <time>2013-02-27T14:19:36+01:00</time>
      </trkpt>
      <trkpt lat="43.05352432876" lon="-5.39908673346">
        <ele>1679.69</ele>
        <time>2013-02-27T14:19:36+01:00</time>
      </trkpt>
      <trkpt lat="43.05351073715" lon="-5.39913308567">
        <ele>1679.71</ele>
        <time>2013-02-27T14:19:38+01:00</time>
      </trkpt>
      <trkpt lat="43.05349775938" lon="-5.3991639479">
        <ele>1679.85</ele>
        <time>2013-02-27T14:19:39+01:00</time>
      </trkpt>
      <trkpt lat="43.05347484609" lon="-5.39920331268">
        <ele>1679.92</ele>
        <time>2013-02-27T14:19:41+01:00</time>
      </trkpt>
      <trkpt lat="43.05345242675" lon="-5.39925074822">
        <ele>1680.08</ele>
        <time>2013-02-27T14:19:43+01:00</time>
      </trkpt>
      <trkpt lat="43.05343325778" lon="-5.39930066963">
        <ele>1680.27</ele>
        <time>2013-02-27T14:19:45+01:00</time>
      </trkpt>
      <trkpt lat="43.05341557708" lon="-5.39935511152">
        <ele>1680.36</ele>
        <time>2013-02-27T14:19:47+01:00</time>
      </trkpt>
      <trkpt lat="43.05340131211" lon="-5.39939563831">
        <ele>1680.48</ele>
        <time>2013-02-27T14:19:48+01:00</time>
      </trkpt>
      <trkpt lat="43.05339261392" lon="-5.39941830616">
        <ele>1680.7</ele>
        <time>2013-02-27T14:19:50+01:00</time>
      </trkpt>
      <trkpt lat="43.05338237653" lon="-5.39944682298">
        <ele>1680.85</ele>
        <time>2013-02-27T14:19:50+01:00</time>
      </trkpt>
      <trkpt lat="43.05337167206" lon="-5.39949592209">
        <ele>1681.21</ele>
        <time>2013-02-27T14:19:51+01:00</time>
      </trkpt>
      <trkpt lat="43.05335863469" lon="-5.39954872431">
        <ele>1681.35</ele>
        <time>2013-02-27T14:19:53+01:00</time>
      </trkpt>
      <trkpt lat="43.05335414967" lon="-5.39960246832">
        <ele>1681.37</ele>
        <time>2013-02-27T14:19:55+01:00</time>
      </trkpt>
      <trkpt lat="43.05334373082" lon="-5.39964600713">
        <ele>1680.91</ele>
        <time>2013-02-27T14:19:57+01:00</time>
      </trkpt>
      <trkpt lat="43.05332478266" lon="-5.39968716962">
        <ele>1680.99</ele>
        <time>2013-02-27T14:19:59+01:00</time>
      </trkpt>
      <trkpt lat="43.05331039831" lon="-5.39971565279">
        <ele>1681.11</ele>
        <time>2013-02-27T14:20:00+01:00</time>
      </trkpt>
      <trkpt lat="43.05329719493" lon="-5.39974381293">
        <ele>1681.26</ele>
        <time>2013-02-27T14:20:01+01:00</time>
      </trkpt>
      <trkpt lat="43.05328419422" lon="-5.39977224373">
        <ele>1681.26</ele>
        <time>2013-02-27T14:20:02+01:00</time>
      </trkpt>
      <trkpt lat="43.05327006058" lon="-5.39979911934">
        <ele>1681.42</ele>
        <time>2013-02-27T14:20:03+01:00</time>
      </trkpt>
      <trkpt lat="43.05325603563" lon="-5.39982608625">
        <ele>1681.58</ele>
        <time>2013-02-27T14:20:04+01:00</time>
      </trkpt>
      <trkpt lat="43.05324541871" lon="-5.3998541443">
        <ele>1681.72</ele>
        <time>2013-02-27T14:20:05+01:00</time>
      </trkpt>
      <trkpt lat="43.05322522394" lon="-5.39987846431">
        <ele>1681.74</ele>
        <time>2013-02-27T14:20:07+01:00</time>
      </trkpt>
      <trkpt lat="43.0532091821" lon="-5.39990471893">
        <ele>1681.9</ele>
        <time>2013-02-27T14:20:07+01:00</time>
      </trkpt>
      <trkpt lat="43.0531936691" lon="-5.39992874532">
        <ele>1682.01</ele>
        <time>2013-02-27T14:20:09+01:00</time>
      </trkpt>
      <trkpt lat="43.05316904177" lon="-5.39997452134">
        <ele>1682.13</ele>
        <time>2013-02-27T14:20:10+01:00</time>
      </trkpt>
      <trkpt lat="43.05314738603" lon="-5.40002458023">
        <ele>1682.26</ele>
        <time>2013-02-27T14:20:12+01:00</time>
      </trkpt>
      <trkpt lat="43.0531263246" lon="-5.40007710502">
        <ele>1682.41</ele>
        <time>2013-02-27T14:20:14+01:00</time>
      </trkpt>
      <trkpt lat="43.05311004237" lon="-5.4001269714">
        <ele>1682.67</ele>
        <time>2013-02-27T14:20:16+01:00</time>
      </trkpt>
      <trkpt lat="43.05309605709" lon="-5.40017576965">
        <ele>1683.1</ele>
        <time>2013-02-27T14:20:19+01:00</time>
      </trkpt>
      <trkpt lat="43.05307954724" lon="-5.4002285117">
        <ele>1683.54</ele>
        <time>2013-02-27T14:20:20+01:00</time>
      </trkpt>
      <trkpt lat="43.05306759515" lon="-5.40026024956">
        <ele>1683.95</ele>
        <time>2013-02-27T14:20:21+01:00</time>
      </trkpt>
      <trkpt lat="43.05305497881" lon="-5.40029113935">
        <ele>1684.33</ele>
        <time>2013-02-27T14:20:22+01:00</time>
      </trkpt>
      <trkpt lat="43.0530417267" lon="-5.40032346884">
        <ele>1684.96</ele>
        <time>2013-02-27T14:20:24+01:00</time>
      </trkpt>
      <trkpt lat="43.05302935327" lon="-5.40035668977">
        <ele>1685.6</ele>
        <time>2013-02-27T14:20:24+01:00</time>
      </trkpt>
      <trkpt lat="43.05302000543" lon="-5.40038854673">
        <ele>1686.16</ele>
        <time>2013-02-27T14:20:26+01:00</time>
      </trkpt>
      <trkpt lat="43.05301236911" lon="-5.40041832039">
        <ele>1686.81</ele>
        <time>2013-02-27T14:20:26+01:00</time>
      </trkpt>
      <trkpt lat="43.0530044716" lon="-5.40045069488">
        <ele>1686.98</ele>
        <time>2013-02-27T14:20:29+01:00</time>
      </trkpt>
      <trkpt lat="43.05299632068" lon="-5.40048942334">
        <ele>1687.53</ele>
        <time>2013-02-27T14:20:31+01:00</time>
      </trkpt>
      <trkpt lat="43.05298553746" lon="-5.40053471996">
        <ele>1688.07</ele>
        <time>2013-02-27T14:20:33+01:00</time>
      </trkpt>
      <trkpt lat="43.05297694352" lon="-5.40057938561">
        <ele>1688.54</ele>
        <time>2013-02-27T14:20:36+01:00</time>
      </trkpt>
      <trkpt lat="43.05297214019" lon="-5.4006225169">
        <ele>1688.99</ele>
        <time>2013-02-27T14:20:37+01:00</time>
      </trkpt>
      <trkpt lat="43.05296990547" lon="-5.40065836759">
        <ele>1689.45</ele>
        <time>2013-02-27T14:20:39+01:00</time>
      </trkpt>
      <trkpt lat="43.0529616466" lon="-5.40069095165">
        <ele>1689.94</ele>
        <time>2013-02-27T14:20:41+01:00</time>
      </trkpt>
      <trkpt lat="43.05295573178" lon="-5.40071593751">
        <ele>1690.73</ele>
        <time>2013-02-27T14:20:43+01:00</time>
      </trkpt>
      <trkpt lat="43.05295176854" lon="-5.40075940157">
        <ele>1690.6</ele>
        <time>2013-02-27T14:20:45+01:00</time>
      </trkpt>
      <trkpt lat="43.05294643416" lon="-5.40079877751">
        <ele>1690.69</ele>
        <time>2013-02-27T14:20:47+01:00</time>
      </trkpt>
      <trkpt lat="43.05293479833" lon="-5.40083304999">
        <ele>1690.93</ele>
        <time>2013-02-27T14:20:49+01:00</time>
      </trkpt>
      <trkpt lat="43.05291636566" lon="-5.40087101525">
        <ele>1691.36</ele>
        <time>2013-02-27T14:20:52+01:00</time>
      </trkpt>
      <trkpt lat="43.05289719581" lon="-5.40091740671">
        <ele>1691.77</ele>
        <time>2013-02-27T14:20:53+01:00</time>
      </trkpt>
      <trkpt lat="43.05288503345" lon="-5.40095594132">
        <ele>1692.13</ele>
        <time>2013-02-27T14:20:54+01:00</time>
      </trkpt>
      <trkpt lat="43.05286883273" lon="-5.40101151239">
        <ele>1692.52</ele>
        <time>2013-02-27T14:20:55+01:00</time>
      </trkpt>
      <trkpt lat="43.05286089872" lon="-5.40104730293">
        <ele>1692.95</ele>
        <time>2013-02-27T14:20:56+01:00</time>
      </trkpt>
      <trkpt lat="43.05285317637" lon="-5.40107953969">
        <ele>1693.38</ele>
        <time>2013-02-27T14:20:57+01:00</time>
      </trkpt>
      <trkpt lat="43.0528330576" lon="-5.40113849128">
        <ele>1695.66</ele>
        <time>2013-02-27T14:20:59+01:00</time>
      </trkpt>
      <trkpt lat="43.05281334292" lon="-5.4011964156">
        <ele>1696.9</ele>
        <time>2013-02-27T14:21:01+01:00</time>
      </trkpt>
      <trkpt lat="43.05279756474" lon="-5.40123985169">
        <ele>1698.14</ele>
        <time>2013-02-27T14:21:02+01:00</time>
      </trkpt>
      <trkpt lat="43.05278465257" lon="-5.40127301407">
        <ele>1699.37</ele>
        <time>2013-02-27T14:21:03+01:00</time>
      </trkpt>
      <trkpt lat="43.05277395645" lon="-5.40130385348">
        <ele>1700.92</ele>
        <time>2013-02-27T14:21:04+01:00</time>
      </trkpt>
      <trkpt lat="43.0527624295" lon="-5.4013348318">
        <ele>1702.32</ele>
        <time>2013-02-27T14:21:05+01:00</time>
      </trkpt>
      <trkpt lat="43.05275107165" lon="-5.40136603906">
        <ele>1703.71</ele>
        <time>2013-02-27T14:21:06+01:00</time>
      </trkpt>
      <trkpt lat="43.05273961352" lon="-5.40139749328">
        <ele>1705.16</ele>
        <time>2013-02-27T14:21:07+01:00</time>
      </trkpt>
      <trkpt lat="43.05272870529" lon="-5.4014273205">
        <ele>1706.66</ele>
        <time>2013-02-27T14:21:08+01:00</time>
      </trkpt>
      <trkpt lat="43.05271727003" lon="-5.40145662117">
        <ele>1708.15</ele>
        <time>2013-02-27T14:21:09+01:00</time>
      </trkpt>
      <trkpt lat="43.05270683576" lon="-5.40148514597">
        <ele>1709.57</ele>
        <time>2013-02-27T14:21:10+01:00</time>
      </trkpt>
      <trkpt lat="43.05268766557" lon="-5.40153569477">
        <ele>1711.05</ele>
        <time>2013-02-27T14:21:12+01:00</time>
      </trkpt>
      <trkpt lat="43.05266541825" lon="-5.40157379111">
        <ele>1712.55</ele>
        <time>2013-02-27T14:21:15+01:00</time>
      </trkpt>
      <trkpt lat="43.05264701225" lon="-5.40162557876">
        <ele>1714.27</ele>
        <time>2013-02-27T14:21:17+01:00</time>
      </trkpt>
      <trkpt lat="43.05263541846" lon="-5.40167792542">
        <ele>1718.52</ele>
        <time>2013-02-27T14:21:18+01:00</time>
      </trkpt>
      <trkpt lat="43.05262753412" lon="-5.40173245004">
        <ele>1720.77</ele>
        <time>2013-02-27T14:21:20+01:00</time>
      </trkpt>
      <trkpt lat="43.05261797768" lon="-5.40177567558">
        <ele>1720.83</ele>
        <time>2013-02-27T14:21:22+01:00</time>
      </trkpt>
      <trkpt lat="43.05259833029" lon="-5.40182146928">
        <ele>1722.88</ele>
        <time>2013-02-27T14:21:24+01:00</time>
      </trkpt>
      <trkpt lat="43.05258373903" lon="-5.40185020815">
        <ele>1724.9</ele>
        <time>2013-02-27T14:21:25+01:00</time>
      </trkpt>
      <trkpt lat="43.0525685832" lon="-5.40187654188">
        <ele>1726.55</ele>
        <time>2013-02-27T14:21:26+01:00</time>
      </trkpt>
      <trkpt lat="43.05255619783" lon="-5.40192834495">
        <ele>1728.03</ele>
        <time>2013-02-27T14:21:28+01:00</time>
      </trkpt>
      <trkpt lat="43.05255594885" lon="-5.40195024304">
        <ele>1729.65</ele>
        <time>2013-02-27T14:21:29+01:00</time>
      </trkpt>
      <trkpt lat="43.05251860107" lon="-5.4020293182">
        <ele>1732.05</ele>
        <time>2013-02-27T14:21:31+01:00</time>
      </trkpt>
      <trkpt lat="43.05249527296" lon="-5.40207839263">
        <ele>1734.12</ele>
        <time>2013-02-27T14:21:31+01:00</time>
      </trkpt>
      <trkpt lat="43.05247776626" lon="-5.40213206163">
        <ele>1736.35</ele>
        <time>2013-02-27T14:21:34+01:00</time>
      </trkpt>
      <trkpt lat="43.05246722412" lon="-5.40216693531">
        <ele>1738.1</ele>
        <time>2013-02-27T14:21:35+01:00</time>
      </trkpt>
      <trkpt lat="43.05245217403" lon="-5.40219141146">
        <ele>1739.93</ele>
        <time>2013-02-27T14:21:36+01:00</time>
      </trkpt>
      <trkpt lat="43.05243203141" lon="-5.40224103253">
        <ele>1741.73</ele>
        <time>2013-02-27T14:21:38+01:00</time>
      </trkpt>
      <trkpt lat="43.05241405539" lon="-5.40229434147">
        <ele>1743.48</ele>
        <time>2013-02-27T14:21:40+01:00</time>
      </trkpt>
      <trkpt lat="43.05239547335" lon="-5.40235227719">
        <ele>1745.4</ele>
        <time>2013-02-27T14:21:42+01:00</time>
      </trkpt>
      <trkpt lat="43.05237854351" lon="-5.40240167343">
        <ele>1747.04</ele>
        <time>2013-02-27T14:21:44+01:00</time>
      </trkpt>
      <trkpt lat="43.0523644034" lon="-5.40245768399">
        <ele>1748.96</ele>
        <time>2013-02-27T14:21:47+01:00</time>
      </trkpt>
      <trkpt lat="43.05234790197" lon="-5.4025127718">
        <ele>1750.55</ele>
        <time>2013-02-27T14:21:49+01:00</time>
      </trkpt>
      <trkpt lat="43.05233629412" lon="-5.40254362745">
        <ele>1752.14</ele>
        <time>2013-02-27T14:21:49+01:00</time>
      </trkpt>
      <trkpt lat="43.05232513792" lon="-5.40257243708">
        <ele>1753.76</ele>
        <time>2013-02-27T14:21:51+01:00</time>
      </trkpt>
      <trkpt lat="43.0523134611" lon="-5.40260089123">
        <ele>1755.27</ele>
        <time>2013-02-27T14:21:51+01:00</time>
      </trkpt>
      <trkpt lat="43.05230256203" lon="-5.4026306677">
        <ele>1756.77</ele>
        <time>2013-02-27T14:21:52+01:00</time>
      </trkpt>
      <trkpt lat="43.05229321132" lon="-5.40265530861">
        <ele>1758.19</ele>
        <time>2013-02-27T14:21:53+01:00</time>
      </trkpt>
      <trkpt lat="43.05228111199" lon="-5.40269065048">
        <ele>1759.65</ele>
        <time>2013-02-27T14:21:54+01:00</time>
      </trkpt>
      <trkpt lat="43.05226986892" lon="-5.40272179466">
        <ele>1761.11</ele>
        <time>2013-02-27T14:21:55+01:00</time>
      </trkpt>
      <trkpt lat="43.05225950356" lon="-5.4027525945">
        <ele>1762.46</ele>
        <time>2013-02-27T14:21:56+01:00</time>
      </trkpt>
      <trkpt lat="43.05224922598" lon="-5.40278320904">
        <ele>1766.11</ele>
        <time>2013-02-27T14:21:57+01:00</time>
      </trkpt>
      <trkpt lat="43.05223869314" lon="-5.40281395592">
        <ele>1767.85</ele>
        <time>2013-02-27T14:21:58+01:00</time>
      </trkpt>
      <trkpt lat="43.05222813478" lon="-5.40284358447">
        <ele>1769.57</ele>
        <time>2013-02-27T14:21:59+01:00</time>
      </trkpt>
      <trkpt lat="43.05220904947" lon="-5.40289957963">
        <ele>1771.6</ele>
        <time>2013-02-27T14:22:01+01:00</time>
      </trkpt>
      <trkpt lat="43.0521909974" lon="-5.40295873951">
        <ele>1771.79</ele>
        <time>2013-02-27T14:22:03+01:00</time>
      </trkpt>
      <trkpt lat="43.05217319952" lon="-5.40301270895">
        <ele>1773.16</ele>
        <time>2013-02-27T14:22:05+01:00</time>
      </trkpt>
      <trkpt lat="43.05215572881" lon="-5.40306510322">
        <ele>1774.65</ele>
        <time>2013-02-27T14:22:07+01:00</time>
      </trkpt>
      <trkpt lat="43.05213723469" lon="-5.40311847154">
        <ele>1778.38</ele>
        <time>2013-02-27T14:22:09+01:00</time>
      </trkpt>
      <trkpt lat="43.05212056189" lon="-5.40316997589">
        <ele>1778.01</ele>
        <time>2013-02-27T14:22:11+01:00</time>
      </trkpt>
      <trkpt lat="43.05210682466" lon="-5.4032203886">
        <ele>1781.64</ele>
        <time>2013-02-27T14:22:14+01:00</time>
      </trkpt>
      <trkpt lat="43.05209289066" lon="-5.40327122021">
        <ele>1783.74</ele>
        <time>2013-02-27T14:22:15+01:00</time>
      </trkpt>
      <trkpt lat="43.05207723964" lon="-5.40332179196">
        <ele>1786.04</ele>
        <time>2013-02-27T14:22:17+01:00</time>
      </trkpt>
      <trkpt lat="43.05206643349" lon="-5.40337143248">
        <ele>1788.09</ele>
        <time>2013-02-27T14:22:20+01:00</time>
      </trkpt>
      <trkpt lat="43.05205494255" lon="-5.40342165881">
        <ele>1789.9</ele>
        <time>2013-02-27T14:22:22+01:00</time>
      </trkpt>
      <trkpt lat="43.05203912094" lon="-5.40347428227">
        <ele>1791.75</ele>
        <time>2013-02-27T14:22:23+01:00</time>
      </trkpt>
      <trkpt lat="43.05202026367" lon="-5.40352646651">
        <ele>1791.73</ele>
        <time>2013-02-27T14:22:25+01:00</time>
      </trkpt>
      <trkpt lat="43.05200053707" lon="-5.40357506128">
        <ele>1793.13</ele>
        <time>2013-02-27T14:22:27+01:00</time>
      </trkpt>
      <trkpt lat="43.05198389188" lon="-5.40362420235">
        <ele>1794.57</ele>
        <time>2013-02-27T14:22:29+01:00</time>
      </trkpt>
      <trkpt lat="43.05196846009" lon="-5.4036775471">
        <ele>1798.01</ele>
        <time>2013-02-27T14:22:31+01:00</time>
      </trkpt>
      <trkpt lat="43.05195058477" lon="-5.40372829472">
        <ele>1799.8</ele>
        <time>2013-02-27T14:22:33+01:00</time>
      </trkpt>
      <trkpt lat="43.05193054146" lon="-5.40377885808">
        <ele>1799.83</ele>
        <time>2013-02-27T14:22:36+01:00</time>
      </trkpt>
      <trkpt lat="43.05191801364" lon="-5.40382796969">
        <ele>1803.5</ele>
        <time>2013-02-27T14:22:37+01:00</time>
      </trkpt>
      <trkpt lat="43.0519085005" lon="-5.40387670983">
        <ele>1805.39</ele>
        <time>2013-02-27T14:22:39+01:00</time>
      </trkpt>
      <trkpt lat="43.05188816184" lon="-5.40392382863">
        <ele>1805.05</ele>
        <time>2013-02-27T14:22:41+01:00</time>
      </trkpt>
      <trkpt lat="43.05187368052" lon="-5.40394846881">
        <ele>1806.05</ele>
        <time>2013-02-27T14:22:43+01:00</time>
      </trkpt>
      <trkpt lat="43.05185722073" lon="-5.40397739837">
        <ele>1807.51</ele>
        <time>2013-02-27T14:22:43+01:00</time>
      </trkpt>
      <trkpt lat="43.05184373112" lon="-5.40400601538">
        <ele>1808.44</ele>
        <time>2013-02-27T14:22:44+01:00</time>
      </trkpt>
      <trkpt lat="43.05183389548" lon="-5.40403595901">
        <ele>1809.12</ele>
        <time>2013-02-27T14:22:45+01:00</time>
      </trkpt>
      <trkpt lat="43.05182644979" lon="-5.40406423576">
        <ele>1810.01</ele>
        <time>2013-02-27T14:22:47+01:00</time>
      </trkpt>
      <trkpt lat="43.05181376243" lon="-5.40411180063">
        <ele>1811.2</ele>
        <time>2013-02-27T14:22:48+01:00</time>
      </trkpt>
      <trkpt lat="43.05179546698" lon="-5.40415638349">
        <ele>1812.03</ele>
        <time>2013-02-27T14:22:50+01:00</time>
      </trkpt>
      <trkpt lat="43.05177739102" lon="-5.40418152742">
        <ele>1812.66</ele>
        <time>2013-02-27T14:22:51+01:00</time>
      </trkpt>
      <trkpt lat="43.05175893349" lon="-5.40420667291">
        <ele>1813.36</ele>
        <time>2013-02-27T14:22:53+01:00</time>
      </trkpt>
      <trkpt lat="43.05173817962" lon="-5.40423068695">
        <ele>1814.24</ele>
        <time>2013-02-27T14:22:55+01:00</time>
      </trkpt>
      <trkpt lat="43.05173410514" lon="-5.40423462224">
        <ele>1814.98</ele>
        <time>2013-02-27T14:22:56+01:00</time>
      </trkpt>
      <trkpt lat="43.05170244279" lon="-5.40427248954">
        <ele>1816.31</ele>
        <time>2013-02-27T14:22:57+01:00</time>
      </trkpt>
      <trkpt lat="43.05167910982" lon="-5.40431791">
        <ele>1817.4</ele>
        <time>2013-02-27T14:22:59+01:00</time>
      </trkpt>
      <trkpt lat="43.05166616509" lon="-5.40436760996">
        <ele>1818.6</ele>
        <time>2013-02-27T14:23:02+01:00</time>
      </trkpt>
      <trkpt lat="43.05167233842" lon="-5.40445088876">
        <ele>1819.91</ele>
        <time>2013-02-27T14:23:03+01:00</time>
      </trkpt>
      <trkpt lat="43.05167950747" lon="-5.40451461729">
        <ele>1821.1</ele>
        <time>2013-02-27T14:23:06+01:00</time>
      </trkpt>
      <trkpt lat="43.05167611331" lon="-5.40457430166">
        <ele>1822.36</ele>
        <time>2013-02-27T14:23:07+01:00</time>
      </trkpt>
      <trkpt lat="43.05165954238" lon="-5.40463297602">
        <ele>1823.81</ele>
        <time>2013-02-27T14:23:09+01:00</time>
      </trkpt>
      <trkpt lat="43.05164519761" lon="-5.40466771084">
        <ele>1825.17</ele>
        <time>2013-02-27T14:23:10+01:00</time>
      </trkpt>
      <trkpt lat="43.05162224562" lon="-5.40471428744">
        <ele>1826.55</ele>
        <time>2013-02-27T14:23:12+01:00</time>
      </trkpt>
      <trkpt lat="43.05160786516" lon="-5.40474546276">
        <ele>1827.89</ele>
        <time>2013-02-27T14:23:13+01:00</time>
      </trkpt>
      <trkpt lat="43.05159593661" lon="-5.40477382605">
        <ele>1829.33</ele>
        <time>2013-02-27T14:23:14+01:00</time>
      </trkpt>
      <trkpt lat="43.05158436434" lon="-5.40480236454">
        <ele>1830.72</ele>
        <time>2013-02-27T14:23:15+01:00</time>
      </trkpt>
      <trkpt lat="43.05157179043" lon="-5.40482932875">
        <ele>1832.13</ele>
        <time>2013-02-27T14:23:16+01:00</time>
      </trkpt>
      <trkpt lat="43.05155117074" lon="-5.40487374773">
        <ele>1833.23</ele>
        <time>2013-02-27T14:23:18+01:00</time>
      </trkpt>
      <trkpt lat="43.05152693023" lon="-5.40491676263">
        <ele>1834.39</ele>
        <time>2013-02-27T14:23:20+01:00</time>
      </trkpt>
      <trkpt lat="43.05150840287" lon="-5.40497009145">
        <ele>1835.72</ele>
        <time>2013-02-27T14:23:23+01:00</time>
      </trkpt>
      <trkpt lat="43.0514958461" lon="-5.40500288544">
        <ele>1837.06</ele>
        <time>2013-02-27T14:23:23+01:00</time>
      </trkpt>
      <trkpt lat="43.05148032604" lon="-5.40502815264">
        <ele>1838.29</ele>
        <time>2013-02-27T14:23:24+01:00</time>
      </trkpt>
      <trkpt lat="43.0514595865" lon="-5.40505292032">
        <ele>1839.51</ele>
        <time>2013-02-27T14:23:25+01:00</time>
      </trkpt>
      <trkpt lat="43.05144159169" lon="-5.40507852687">
        <ele>1840.74</ele>
        <time>2013-02-27T14:23:26+01:00</time>
      </trkpt>
      <trkpt lat="43.05142662687" lon="-5.40510490468">
        <ele>1841.87</ele>
        <time>2013-02-27T14:23:27+01:00</time>
      </trkpt>
      <trkpt lat="43.05141830301" lon="-5.40513532595">
        <ele>1843.01</ele>
        <time>2013-02-27T14:23:28+01:00</time>
      </trkpt>
      <trkpt lat="43.05141362075" lon="-5.40516850052">
        <ele>1844.19</ele>
        <time>2013-02-27T14:23:29+01:00</time>
      </trkpt>
      <trkpt lat="43.05140959976" lon="-5.40520202458">
        <ele>1845.37</ele>
        <time>2013-02-27T14:23:30+01:00</time>
      </trkpt>
      <trkpt lat="43.05140517458" lon="-5.40523508209">
        <ele>1846.5</ele>
        <time>2013-02-27T14:23:31+01:00</time>
      </trkpt>
      <trkpt lat="43.05139991672" lon="-5.40527209139">
        <ele>1847.68</ele>
        <time>2013-02-27T14:23:32+01:00</time>
      </trkpt>
      <trkpt lat="43.05139441208" lon="-5.40530385493">
        <ele>1850.97</ele>
        <time>2013-02-27T14:23:33+01:00</time>
      </trkpt>
      <trkpt lat="43.05138880733" lon="-5.40533584827">
        <ele>1852.55</ele>
        <time>2013-02-27T14:23:35+01:00</time>
      </trkpt>
      <trkpt lat="43.05137421555" lon="-5.40538725193">
        <ele>1854.09</ele>
        <time>2013-02-27T14:23:36+01:00</time>
      </trkpt>
      <trkpt lat="43.05135069101" lon="-5.4054369002">
        <ele>1855.62</ele>
        <time>2013-02-27T14:23:38+01:00</time>
      </trkpt>
      <trkpt lat="43.05133690983" lon="-5.40546540141">
        <ele>1857.13</ele>
        <time>2013-02-27T14:23:40+01:00</time>
      </trkpt>
      <trkpt lat="43.05132395212" lon="-5.40549752114">
        <ele>1858.97</ele>
        <time>2013-02-27T14:23:40+01:00</time>
      </trkpt>
      <trkpt lat="43.05131152937" lon="-5.40553015359">
        <ele>1860.83</ele>
        <time>2013-02-27T14:23:41+01:00</time>
      </trkpt>
      <trkpt lat="43.05129610491" lon="-5.40556781617">
        <ele>1862.78</ele>
        <time>2013-02-27T14:23:42+01:00</time>
      </trkpt>
      <trkpt lat="43.05127988994" lon="-5.4056042467">
        <ele>1864.53</ele>
        <time>2013-02-27T14:23:43+01:00</time>
      </trkpt>
      <trkpt lat="43.05126340733" lon="-5.40564040316">
        <ele>1866.37</ele>
        <time>2013-02-27T14:23:44+01:00</time>
      </trkpt>
      <trkpt lat="43.05124950054" lon="-5.40566846043">
        <ele>1867.35</ele>
        <time>2013-02-27T14:23:45+01:00</time>
      </trkpt>
      <trkpt lat="43.05123230578" lon="-5.40571185133">
        <ele>1867.38</ele>
        <time>2013-02-27T14:23:47+01:00</time>
      </trkpt>
      <trkpt lat="43.05122125552" lon="-5.40574916886">
        <ele>1868.34</ele>
        <time>2013-02-27T14:23:49+01:00</time>
      </trkpt>
      <trkpt lat="43.05120828345" lon="-5.40580493982">
        <ele>1870.9</ele>
        <time>2013-02-27T14:23:51+01:00</time>
      </trkpt>
      <trkpt lat="43.05119442341" lon="-5.40585361725">
        <ele>1872.16</ele>
        <time>2013-02-27T14:23:53+01:00</time>
      </trkpt>
      <trkpt lat="43.05117889549" lon="-5.40591782828">
        <ele>1872</ele>
        <time>2013-02-27T14:23:55+01:00</time>
      </trkpt>
      <trkpt lat="43.05117028933" lon="-5.40597185021">
        <ele>1874.86</ele>
        <time>2013-02-27T14:23:58+01:00</time>
      </trkpt>
      <trkpt lat="43.05117433213" lon="-5.406008936">
        <ele>1876.45</ele>
        <time>2013-02-27T14:23:59+01:00</time>
      </trkpt>
      <trkpt lat="43.05116885231" lon="-5.40604553516">
        <ele>1878.08</ele>
        <time>2013-02-27T14:24:01+01:00</time>
      </trkpt>
      <trkpt lat="43.05115053888" lon="-5.40609641872">
        <ele>1877.84</ele>
        <time>2013-02-27T14:24:03+01:00</time>
      </trkpt>
      <trkpt lat="43.05113852353" lon="-5.40614925878">
        <ele>1878.56</ele>
        <time>2013-02-27T14:24:05+01:00</time>
      </trkpt>
      <trkpt lat="43.05112430909" lon="-5.4061919596">
        <ele>1879.42</ele>
        <time>2013-02-27T14:24:07+01:00</time>
      </trkpt>
      <trkpt lat="43.05109964331" lon="-5.40622666769">
        <ele>1880.32</ele>
        <time>2013-02-27T14:24:09+01:00</time>
      </trkpt>
      <trkpt lat="43.05107476122" lon="-5.40627035557">
        <ele>1880.87</ele>
        <time>2013-02-27T14:24:12+01:00</time>
      </trkpt>
      <trkpt lat="43.05104607899" lon="-5.40632348626">
        <ele>1881.43</ele>
        <time>2013-02-27T14:24:13+01:00</time>
      </trkpt>
      <trkpt lat="43.05103424231" lon="-5.40634973371">
        <ele>1882</ele>
        <time>2013-02-27T14:24:14+01:00</time>
      </trkpt>
      <trkpt lat="43.05102399599" lon="-5.40639179652">
        <ele>1882.81</ele>
        <time>2013-02-27T14:24:16+01:00</time>
      </trkpt>
      <trkpt lat="43.05101222372" lon="-5.40643212737">
        <ele>1883.09</ele>
        <time>2013-02-27T14:24:16+01:00</time>
      </trkpt>
      <trkpt lat="43.05099944217" lon="-5.40647372115">
        <ele>1883.44</ele>
        <time>2013-02-27T14:24:17+01:00</time>
      </trkpt>
      <trkpt lat="43.05099638295" lon="-5.40651362292">
        <ele>1884.04</ele>
        <time>2013-02-27T14:24:19+01:00</time>
      </trkpt>
      <trkpt lat="43.05099875506" lon="-5.40655231457">
        <ele>1884.51</ele>
        <time>2013-02-27T14:24:19+01:00</time>
      </trkpt>
      <trkpt lat="43.05100982421" lon="-5.40658727732">
        <ele>1884.88</ele>
        <time>2013-02-27T14:24:20+01:00</time>
      </trkpt>
      <trkpt lat="43.05102796366" lon="-5.40662068963">
        <ele>1885.15</ele>
        <time>2013-02-27T14:24:21+01:00</time>
      </trkpt>
      <trkpt lat="43.05105053465" lon="-5.40665379185">
        <ele>1885.41</ele>
        <time>2013-02-27T14:24:22+01:00</time>
      </trkpt>
      <trkpt lat="43.05107251673" lon="-5.40668186996">
        <ele>1885.79</ele>
        <time>2013-02-27T14:24:23+01:00</time>
      </trkpt>
      <trkpt lat="43.05109297288" lon="-5.40670572461">
        <ele>1886.11</ele>
        <time>2013-02-27T14:24:24+01:00</time>
      </trkpt>
      <trkpt lat="43.05108304956" lon="-5.40674697358">
        <ele>1888.02</ele>
        <time>2013-02-27T14:25:10+01:00</time>
      </trkpt>
      <trkpt lat="43.05109575337" lon="-5.4067272113">
        <ele>1888.77</ele>
        <time>2013-02-27T14:26:16+01:00</time>
      </trkpt>
      <trkpt lat="43.05112433199" lon="-5.40668449903">
        <ele>1889.37</ele>
        <time>2013-02-27T14:26:18+01:00</time>
      </trkpt>
      <trkpt lat="43.0511437483" lon="-5.40665374937">
        <ele>1890.29</ele>
        <time>2013-02-27T14:26:19+01:00</time>
      </trkpt>
      <trkpt lat="43.05116526587" lon="-5.40662329072">
        <ele>1891.28</ele>
        <time>2013-02-27T14:26:20+01:00</time>
      </trkpt>
      <trkpt lat="43.05118605059" lon="-5.40659399274">
        <ele>1891.89</ele>
        <time>2013-02-27T14:26:22+01:00</time>
      </trkpt>
      <trkpt lat="43.05120563423" lon="-5.40658300657">
        <ele>1891.56</ele>
        <time>2013-02-27T14:26:22+01:00</time>
      </trkpt>
      <trkpt lat="43.0512380159" lon="-5.40657745658">
        <ele>1891.8</ele>
        <time>2013-02-27T14:26:24+01:00</time>
      </trkpt>
      <trkpt lat="43.05125776917" lon="-5.40659284216">
        <ele>1892.03</ele>
        <time>2013-02-27T14:26:27+01:00</time>
      </trkpt>
      <trkpt lat="43.05128837428" lon="-5.40659196302">
        <ele>1891.85</ele>
        <time>2013-02-27T14:26:34+01:00</time>
      </trkpt>
      <trkpt lat="43.05131018622" lon="-5.40656932369">
        <ele>1891.6</ele>
        <time>2013-02-27T14:26:36+01:00</time>
      </trkpt>
      <trkpt lat="43.05133295527" lon="-5.40654635564">
        <ele>1891.28</ele>
        <time>2013-02-27T14:26:37+01:00</time>
      </trkpt>
      <trkpt lat="43.05132362669" lon="-5.40653732393">
        <ele>1890.39</ele>
        <time>2013-02-27T14:26:42+01:00</time>
      </trkpt>
      <trkpt lat="43.05132712366" lon="-5.40653872579">
        <ele>1890.52</ele>
        <time>2013-02-27T14:26:50+01:00</time>
      </trkpt>
      <trkpt lat="43.0513659103" lon="-5.40656577934">
        <ele>1889.42</ele>
        <time>2013-02-27T14:26:52+01:00</time>
      </trkpt>
      <trkpt lat="43.05142909906" lon="-5.40659254952">
        <ele>1888.84</ele>
        <time>2013-02-27T14:26:53+01:00</time>
      </trkpt>
      <trkpt lat="43.05152306832" lon="-5.40658016983">
        <ele>1888.09</ele>
        <time>2013-02-27T14:26:54+01:00</time>
      </trkpt>
      <trkpt lat="43.0516081798" lon="-5.4065643499">
        <ele>1887.4</ele>
        <time>2013-02-27T14:26:55+01:00</time>
      </trkpt>
      <trkpt lat="43.05168997744" lon="-5.4065628623">
        <ele>1886.54</ele>
        <time>2013-02-27T14:26:56+01:00</time>
      </trkpt>
      <trkpt lat="43.05177332514" lon="-5.40655512164">
        <ele>1885.91</ele>
        <time>2013-02-27T14:26:57+01:00</time>
      </trkpt>
      <trkpt lat="43.05187337785" lon="-5.40650415381">
        <ele>1884.87</ele>
        <time>2013-02-27T14:26:58+01:00</time>
      </trkpt>
      <trkpt lat="43.05197606748" lon="-5.40645003907">
        <ele>1883.69</ele>
        <time>2013-02-27T14:26:59+01:00</time>
      </trkpt>
      <trkpt lat="43.05208954395" lon="-5.4064106506">
        <ele>1882.48</ele>
        <time>2013-02-27T14:27:00+01:00</time>
      </trkpt>
      <trkpt lat="43.05222043285" lon="-5.40637454266">
        <ele>1881.47</ele>
        <time>2013-02-27T14:27:01+01:00</time>
      </trkpt>
      <trkpt lat="43.05236962344" lon="-5.40637342309">
        <ele>1880.45</ele>
        <time>2013-02-27T14:27:02+01:00</time>
      </trkpt>
      <trkpt lat="43.05248224124" lon="-5.40635187562">
        <ele>1879.25</ele>
        <time>2013-02-27T14:27:03+01:00</time>
      </trkpt>
      <trkpt lat="43.0526055488" lon="-5.40634770023">
        <ele>1878.17</ele>
        <time>2013-02-27T14:27:04+01:00</time>
      </trkpt>
      <trkpt lat="43.0527195614" lon="-5.40635216252">
        <ele>1877.06</ele>
        <time>2013-02-27T14:27:06+01:00</time>
      </trkpt>
      <trkpt lat="43.0528364424" lon="-5.40636465553">
        <ele>1876.1</ele>
        <time>2013-02-27T14:27:06+01:00</time>
      </trkpt>
      <trkpt lat="43.05290075721" lon="-5.40638901593">
        <ele>1875.19</ele>
        <time>2013-02-27T14:27:08+01:00</time>
      </trkpt>
      <trkpt lat="43.05302265058" lon="-5.40640541972">
        <ele>1874.22</ele>
        <time>2013-02-27T14:27:09+01:00</time>
      </trkpt>
      <trkpt lat="43.05311733665" lon="-5.40641326023">
        <ele>1873.21</ele>
        <time>2013-02-27T14:27:10+01:00</time>
      </trkpt>
      <trkpt lat="43.05314066598" lon="-5.40641100618">
        <ele>1872.58</ele>
        <time>2013-02-27T14:27:11+01:00</time>
      </trkpt>
      <trkpt lat="43.05314811464" lon="-5.4063608004">
        <ele>1871.8</ele>
        <time>2013-02-27T14:27:13+01:00</time>
      </trkpt>
      <trkpt lat="43.05317230257" lon="-5.40634043273">
        <ele>1871.08</ele>
        <time>2013-02-27T14:27:14+01:00</time>
      </trkpt>
      <trkpt lat="43.05319390396" lon="-5.40631309104">
        <ele>1869.09</ele>
        <time>2013-02-27T14:27:15+01:00</time>
      </trkpt>
      <trkpt lat="43.0532146863" lon="-5.40628864607">
        <ele>1868.21</ele>
        <time>2013-02-27T14:27:16+01:00</time>
      </trkpt>
      <trkpt lat="43.05324006981" lon="-5.40625749733">
        <ele>1867.23</ele>
        <time>2013-02-27T14:27:17+01:00</time>
      </trkpt>
      <trkpt lat="43.05325902288" lon="-5.40622240793">
        <ele>1866.19</ele>
        <time>2013-02-27T14:27:18+01:00</time>
      </trkpt>
      <trkpt lat="43.05327823619" lon="-5.40619084784">
        <ele>1865.11</ele>
        <time>2013-02-27T14:27:19+01:00</time>
      </trkpt>
      <trkpt lat="43.05330112254" lon="-5.40616354754">
        <ele>1864.06</ele>
        <time>2013-02-27T14:27:20+01:00</time>
      </trkpt>
      <trkpt lat="43.0533274257" lon="-5.40613025956">
        <ele>1863.09</ele>
        <time>2013-02-27T14:27:21+01:00</time>
      </trkpt>
      <trkpt lat="43.05337506064" lon="-5.40608852131">
        <ele>1861.75</ele>
        <time>2013-02-27T14:27:22+01:00</time>
      </trkpt>
      <trkpt lat="43.05340890515" lon="-5.40603976414">
        <ele>1860.74</ele>
        <time>2013-02-27T14:27:23+01:00</time>
      </trkpt>
      <trkpt lat="43.05343922066" lon="-5.4059887209">
        <ele>1859.63</ele>
        <time>2013-02-27T14:27:24+01:00</time>
      </trkpt>
      <trkpt lat="43.05348562856" lon="-5.40595992932">
        <ele>1858.3</ele>
        <time>2013-02-27T14:27:25+01:00</time>
      </trkpt>
      <trkpt lat="43.05353862455" lon="-5.40593441902">
        <ele>1856.84</ele>
        <time>2013-02-27T14:27:26+01:00</time>
      </trkpt>
      <trkpt lat="43.05359205303" lon="-5.40590010896">
        <ele>1855.93</ele>
        <time>2013-02-27T14:27:27+01:00</time>
      </trkpt>
      <trkpt lat="43.0536585601" lon="-5.40585461322">
        <ele>1854.89</ele>
        <time>2013-02-27T14:27:28+01:00</time>
      </trkpt>
      <trkpt lat="43.05374126367" lon="-5.40580655498">
        <ele>1853.17</ele>
        <time>2013-02-27T14:27:29+01:00</time>
      </trkpt>
      <trkpt lat="43.05382177506" lon="-5.40577387634">
        <ele>1851.6</ele>
        <time>2013-02-27T14:27:30+01:00</time>
      </trkpt>
      <trkpt lat="43.0538847375" lon="-5.40575739575">
        <ele>1850.18</ele>
        <time>2013-02-27T14:27:31+01:00</time>
      </trkpt>
      <trkpt lat="43.05390964607" lon="-5.40574707952">
        <ele>1848.77</ele>
        <time>2013-02-27T14:27:34+01:00</time>
      </trkpt>
      <trkpt lat="43.05393320208" lon="-5.40574696088">
        <ele>1847.37</ele>
        <time>2013-02-27T14:27:36+01:00</time>
      </trkpt>
      <trkpt lat="43.05394787098" lon="-5.40570100432">
        <ele>1847.71</ele>
        <time>2013-02-27T14:27:38+01:00</time>
      </trkpt>
      <trkpt lat="43.05396166771" lon="-5.40566680141">
        <ele>1847.07</ele>
        <time>2013-02-27T14:27:40+01:00</time>
      </trkpt>
      <trkpt lat="43.05399111503" lon="-5.40563541861">
        <ele>1846.3</ele>
        <time>2013-02-27T14:27:41+01:00</time>
      </trkpt>
      <trkpt lat="43.05402402776" lon="-5.40560694677">
        <ele>1845.84</ele>
        <time>2013-02-27T14:27:42+01:00</time>
      </trkpt>
      <trkpt lat="43.05409816844" lon="-5.40552045086">
        <ele>1845.2</ele>
        <time>2013-02-27T14:27:43+01:00</time>
      </trkpt>
      <trkpt lat="43.05416593668" lon="-5.40547049578">
        <ele>1844.32</ele>
        <time>2013-02-27T14:27:44+01:00</time>
      </trkpt>
      <trkpt lat="43.05423534733" lon="-5.40542657482">
        <ele>1842.01</ele>
        <time>2013-02-27T14:27:46+01:00</time>
      </trkpt>
      <trkpt lat="43.05430391299" lon="-5.4053847324">
        <ele>1840.83</ele>
        <time>2013-02-27T14:27:47+01:00</time>
      </trkpt>
      <trkpt lat="43.05437019742" lon="-5.40532553606">
        <ele>1839.86</ele>
        <time>2013-02-27T14:27:47+01:00</time>
      </trkpt>
      <trkpt lat="43.05439894407" lon="-5.40522223346">
        <ele>1838.52</ele>
        <time>2013-02-27T14:27:48+01:00</time>
      </trkpt>
      <trkpt lat="43.05444415539" lon="-5.40515336024">
        <ele>1837.23</ele>
        <time>2013-02-27T14:27:49+01:00</time>
      </trkpt>
      <trkpt lat="43.05446851978" lon="-5.40507856534">
        <ele>1836.06</ele>
        <time>2013-02-27T14:27:50+01:00</time>
      </trkpt>
      <trkpt lat="43.05449179932" lon="-5.40498951033">
        <ele>1834.66</ele>
        <time>2013-02-27T14:27:52+01:00</time>
      </trkpt>
      <trkpt lat="43.05452421609" lon="-5.40491758577">
        <ele>1833.15</ele>
        <time>2013-02-27T14:27:53+01:00</time>
      </trkpt>
      <trkpt lat="43.05455658276" lon="-5.40484144299">
        <ele>1831.89</ele>
        <time>2013-02-27T14:27:54+01:00</time>
      </trkpt>
      <trkpt lat="43.05457106919" lon="-5.40473864031">
        <ele>1830.87</ele>
        <time>2013-02-27T14:27:54+01:00</time>
      </trkpt>
      <trkpt lat="43.05458318657" lon="-5.4046593394">
        <ele>1829.83</ele>
        <time>2013-02-27T14:27:55+01:00</time>
      </trkpt>
      <trkpt lat="43.054588594" lon="-5.40460586123">
        <ele>1828.97</ele>
        <time>2013-02-27T14:27:56+01:00</time>
      </trkpt>
      <trkpt lat="43.05458162145" lon="-5.40456518784">
        <ele>1829.02</ele>
        <time>2013-02-27T14:27:57+01:00</time>
      </trkpt>
      <trkpt lat="43.05455495453" lon="-5.40454089693">
        <ele>1828.54</ele>
        <time>2013-02-27T14:27:59+01:00</time>
      </trkpt>
      <trkpt lat="43.05452675532" lon="-5.40452497463">
        <ele>1827.88</ele>
        <time>2013-02-27T14:28:02+01:00</time>
      </trkpt>
      <trkpt lat="43.05449949017" lon="-5.4045311779">
        <ele>1827.42</ele>
        <time>2013-02-27T14:28:04+01:00</time>
      </trkpt>
      <trkpt lat="43.05450470879" lon="-5.40450353035">
        <ele>1825.53</ele>
        <time>2013-02-27T14:28:13+01:00</time>
      </trkpt>
      <trkpt lat="43.05448942658" lon="-5.40448069931">
        <ele>1825.17</ele>
        <time>2013-02-27T14:28:19+01:00</time>
      </trkpt>
      <trkpt lat="43.05449296319" lon="-5.40445392651">
        <ele>1823.19</ele>
        <time>2013-02-27T14:28:24+01:00</time>
      </trkpt>
      <trkpt lat="43.05450205242" lon="-5.404471706">
        <ele>1821.61</ele>
        <time>2013-02-27T14:28:30+01:00</time>
      </trkpt>
      <trkpt lat="43.05452475796" lon="-5.40446996454">
        <ele>1820.09</ele>
        <time>2013-02-27T14:28:32+01:00</time>
      </trkpt>
      <trkpt lat="43.05455092438" lon="-5.40445379121">
        <ele>1818.42</ele>
        <time>2013-02-27T14:28:34+01:00</time>
      </trkpt>
      <trkpt lat="43.05457255267" lon="-5.40443245164">
        <ele>1816.9</ele>
        <time>2013-02-27T14:28:36+01:00</time>
      </trkpt>
      <trkpt lat="43.05458515965" lon="-5.40440089224">
        <ele>1815.23</ele>
        <time>2013-02-27T14:28:39+01:00</time>
      </trkpt>
      <trkpt lat="43.05459613" lon="-5.4043654784">
        <ele>1813.91</ele>
        <time>2013-02-27T14:28:41+01:00</time>
      </trkpt>
      <trkpt lat="43.05460818119" lon="-5.40433519452">
        <ele>1812.51</ele>
        <time>2013-02-27T14:28:44+01:00</time>
      </trkpt>
      <trkpt lat="43.05461454769" lon="-5.40430338854">
        <ele>1811.27</ele>
        <time>2013-02-27T14:28:49+01:00</time>
      </trkpt>
      <trkpt lat="43.05463459645" lon="-5.40429240053">
        <ele>1810.1</ele>
        <time>2013-02-27T14:29:10+01:00</time>
      </trkpt>
      <trkpt lat="43.05465104495" lon="-5.40426646538">
        <ele>1808.56</ele>
        <time>2013-02-27T14:29:13+01:00</time>
      </trkpt>
      <trkpt lat="43.05464886964" lon="-5.40423405393">
        <ele>1808.82</ele>
        <time>2013-02-27T14:29:18+01:00</time>
      </trkpt>
      <trkpt lat="43.05465083989" lon="-5.4042071199">
        <ele>1808.13</ele>
        <time>2013-02-27T14:29:22+01:00</time>
      </trkpt>
      <trkpt lat="43.05467806471" lon="-5.40414527249">
        <ele>1807.43</ele>
        <time>2013-02-27T14:29:24+01:00</time>
      </trkpt>
      <trkpt lat="43.05470235219" lon="-5.40410862902">
        <ele>1806.82</ele>
        <time>2013-02-27T14:29:26+01:00</time>
      </trkpt>
      <trkpt lat="43.05472058033" lon="-5.40408414156">
        <ele>1806.44</ele>
        <time>2013-02-27T14:29:26+01:00</time>
      </trkpt>
      <trkpt lat="43.05474367122" lon="-5.4040506078">
        <ele>1805.98</ele>
        <time>2013-02-27T14:29:27+01:00</time>
      </trkpt>
      <trkpt lat="43.05475486043" lon="-5.40397202438">
        <ele>1805.43</ele>
        <time>2013-02-27T14:29:29+01:00</time>
      </trkpt>
      <trkpt lat="43.05476609187" lon="-5.40389325391">
        <ele>1804.89</ele>
        <time>2013-02-27T14:29:29+01:00</time>
      </trkpt>
      <trkpt lat="43.05477998472" lon="-5.40381506046">
        <ele>1804.44</ele>
        <time>2013-02-27T14:29:30+01:00</time>
      </trkpt>
      <trkpt lat="43.05479960877" lon="-5.40373916718">
        <ele>1804.05</ele>
        <time>2013-02-27T14:29:31+01:00</time>
      </trkpt>
      <trkpt lat="43.05480518378" lon="-5.40372616315">
        <ele>1803.71</ele>
        <time>2013-02-27T14:29:33+01:00</time>
      </trkpt>
      <trkpt lat="43.05481115263" lon="-5.40370667273">
        <ele>1803.31</ele>
        <time>2013-02-27T14:29:34+01:00</time>
      </trkpt>
      <trkpt lat="43.05484404743" lon="-5.40358531249">
        <ele>1801.73</ele>
        <time>2013-02-27T14:29:35+01:00</time>
      </trkpt>
      <trkpt lat="43.05487916552" lon="-5.40347689743">
        <ele>1802.12</ele>
        <time>2013-02-27T14:29:36+01:00</time>
      </trkpt>
      <trkpt lat="43.05491269209" lon="-5.40338316923">
        <ele>1800.42</ele>
        <time>2013-02-27T14:29:36+01:00</time>
      </trkpt>
      <trkpt lat="43.05495430772" lon="-5.40329896375">
        <ele>1799.46</ele>
        <time>2013-02-27T14:29:37+01:00</time>
      </trkpt>
      <trkpt lat="43.05499896204" lon="-5.40323678635">
        <ele>1798.55</ele>
        <time>2013-02-27T14:29:39+01:00</time>
      </trkpt>
      <trkpt lat="43.0550284829" lon="-5.40313534485">
        <ele>1797.56</ele>
        <time>2013-02-27T14:29:41+01:00</time>
      </trkpt>
      <trkpt lat="43.05503422657" lon="-5.4030823058">
        <ele>1797.8</ele>
        <time>2013-02-27T14:29:42+01:00</time>
      </trkpt>
      <trkpt lat="43.05503246741" lon="-5.40300503385">
        <ele>1797.25</ele>
        <time>2013-02-27T14:29:42+01:00</time>
      </trkpt>
      <trkpt lat="43.05502942948" lon="-5.40292092605">
        <ele>1796.66</ele>
        <time>2013-02-27T14:29:43+01:00</time>
      </trkpt>
      <trkpt lat="43.05503363117" lon="-5.40282791018">
        <ele>1796.17</ele>
        <time>2013-02-27T14:29:44+01:00</time>
      </trkpt>
      <trkpt lat="43.05505239105" lon="-5.40272587214">
        <ele>1795.85</ele>
        <time>2013-02-27T14:29:46+01:00</time>
      </trkpt>
      <trkpt lat="43.05507767565" lon="-5.40262020311">
        <ele>1795.42</ele>
        <time>2013-02-27T14:29:47+01:00</time>
      </trkpt>
      <trkpt lat="43.05508748905" lon="-5.4025110422">
        <ele>1793.64</ele>
        <time>2013-02-27T14:29:47+01:00</time>
      </trkpt>
      <trkpt lat="43.05508660542" lon="-5.40249767021">
        <ele>1792.93</ele>
        <time>2013-02-27T14:29:48+01:00</time>
      </trkpt>
      <trkpt lat="43.05507403762" lon="-5.40240262755">
        <ele>1792.17</ele>
        <time>2013-02-27T14:29:49+01:00</time>
      </trkpt>
      <trkpt lat="43.05505803072" lon="-5.4023171362">
        <ele>1791.48</ele>
        <time>2013-02-27T14:29:50+01:00</time>
      </trkpt>
      <trkpt lat="43.05502899783" lon="-5.40216365003">
        <ele>1790.16</ele>
        <time>2013-02-27T14:29:52+01:00</time>
      </trkpt>
      <trkpt lat="43.05502372769" lon="-5.40206469058">
        <ele>1789.07</ele>
        <time>2013-02-27T14:29:53+01:00</time>
      </trkpt>
      <trkpt lat="43.05502160078" lon="-5.40196275604">
        <ele>1788.07</ele>
        <time>2013-02-27T14:29:54+01:00</time>
      </trkpt>
      <trkpt lat="43.05503529052" lon="-5.40185861716">
        <ele>1787.1</ele>
        <time>2013-02-27T14:29:54+01:00</time>
      </trkpt>
      <trkpt lat="43.05503886666" lon="-5.40174263801">
        <ele>1785.71</ele>
        <time>2013-02-27T14:29:56+01:00</time>
      </trkpt>
      <trkpt lat="43.05503210523" lon="-5.40161838996">
        <ele>1784.33</ele>
        <time>2013-02-27T14:29:56+01:00</time>
      </trkpt>
      <trkpt lat="43.05502237104" lon="-5.40148296628">
        <ele>1783.08</ele>
        <time>2013-02-27T14:29:57+01:00</time>
      </trkpt>
      <trkpt lat="43.05499993883" lon="-5.40131399269">
        <ele>1781.89</ele>
        <time>2013-02-27T14:29:58+01:00</time>
      </trkpt>
      <trkpt lat="43.05500239261" lon="-5.40118102329">
        <ele>1780.61</ele>
        <time>2013-02-27T14:30:00+01:00</time>
      </trkpt>
      <trkpt lat="43.0550196807" lon="-5.40107785235">
        <ele>1779.44</ele>
        <time>2013-02-27T14:30:01+01:00</time>
      </trkpt>
      <trkpt lat="43.05501589056" lon="-5.40100343281">
        <ele>1778.32</ele>
        <time>2013-02-27T14:30:02+01:00</time>
      </trkpt>
      <trkpt lat="43.05499894449" lon="-5.40089078944">
        <ele>1777.3</ele>
        <time>2013-02-27T14:30:02+01:00</time>
      </trkpt>
      <trkpt lat="43.05497587456" lon="-5.40084539494">
        <ele>1776.32</ele>
        <time>2013-02-27T14:30:03+01:00</time>
      </trkpt>
      <trkpt lat="43.05498145297" lon="-5.40080533652">
        <ele>1773.33</ele>
        <time>2013-02-27T14:30:06+01:00</time>
      </trkpt>
      <trkpt lat="43.05498649138" lon="-5.40075896925">
        <ele>1772.2</ele>
        <time>2013-02-27T14:30:09+01:00</time>
      </trkpt>
      <trkpt lat="43.05501683573" lon="-5.40075251211">
        <ele>1772.54</ele>
        <time>2013-02-27T14:30:10+01:00</time>
      </trkpt>
      <trkpt lat="43.05501844542" lon="-5.40073164056">
        <ele>1770.71</ele>
        <time>2013-02-27T14:30:16+01:00</time>
      </trkpt>
      <trkpt lat="43.05503972212" lon="-5.40072129717">
        <ele>1769.13</ele>
        <time>2013-02-27T14:30:18+01:00</time>
      </trkpt>
      <trkpt lat="43.05506446283" lon="-5.40072459291">
        <ele>1768.08</ele>
        <time>2013-02-27T14:30:22+01:00</time>
      </trkpt>
      <trkpt lat="43.05510541963" lon="-5.40072491678">
        <ele>1767.08</ele>
        <time>2013-02-27T14:30:25+01:00</time>
      </trkpt>
      <trkpt lat="43.05514013133" lon="-5.40071613027">
        <ele>1765.95</ele>
        <time>2013-02-27T14:30:26+01:00</time>
      </trkpt>
      <trkpt lat="43.05516305716" lon="-5.40070480603">
        <ele>1764.95</ele>
        <time>2013-02-27T14:30:26+01:00</time>
      </trkpt>
      <trkpt lat="43.05521917467" lon="-5.40064851722">
        <ele>1764.08</ele>
        <time>2013-02-27T14:30:27+01:00</time>
      </trkpt>
      <trkpt lat="43.05528447003" lon="-5.40056995566">
        <ele>1763.21</ele>
        <time>2013-02-27T14:30:28+01:00</time>
      </trkpt>
      <trkpt lat="43.05540724841" lon="-5.40042543315">
        <ele>1762.46</ele>
        <time>2013-02-27T14:30:29+01:00</time>
      </trkpt>
      <trkpt lat="43.05545174378" lon="-5.4003706132">
        <ele>1761.82</ele>
        <time>2013-02-27T14:30:30+01:00</time>
      </trkpt>
      <trkpt lat="43.05548803115" lon="-5.4003048141">
        <ele>1761.07</ele>
        <time>2013-02-27T14:30:32+01:00</time>
      </trkpt>
      <trkpt lat="43.05551344613" lon="-5.40024806804">
        <ele>1760.38</ele>
        <time>2013-02-27T14:30:32+01:00</time>
      </trkpt>
      <trkpt lat="43.0555267038" lon="-5.40015680541">
        <ele>1759.53</ele>
        <time>2013-02-27T14:30:34+01:00</time>
      </trkpt>
      <trkpt lat="43.05553649671" lon="-5.40008886497">
        <ele>1757.54</ele>
        <time>2013-02-27T14:30:35+01:00</time>
      </trkpt>
      <trkpt lat="43.0555288664" lon="-5.40003222742">
        <ele>1756.47</ele>
        <time>2013-02-27T14:30:36+01:00</time>
      </trkpt>
      <trkpt lat="43.05553793506" lon="-5.39999394371">
        <ele>1755.6</ele>
        <time>2013-02-27T14:30:36+01:00</time>
      </trkpt>
      <trkpt lat="43.05554682312" lon="-5.39993324629">
        <ele>1754.16</ele>
        <time>2013-02-27T14:30:39+01:00</time>
      </trkpt>
      <trkpt lat="43.05554712552" lon="-5.39988496404">
        <ele>1752.53</ele>
        <time>2013-02-27T14:30:42+01:00</time>
      </trkpt>
      <trkpt lat="43.055533464" lon="-5.39984022926">
        <ele>1751.21</ele>
        <time>2013-02-27T14:30:45+01:00</time>
      </trkpt>
      <trkpt lat="43.05542407188" lon="-5.3997553398">
        <ele>1750.39</ele>
        <time>2013-02-27T14:30:47+01:00</time>
      </trkpt>
      <trkpt lat="43.055372908" lon="-5.39971782039">
        <ele>1750.37</ele>
        <time>2013-02-27T14:30:48+01:00</time>
      </trkpt>
      <trkpt lat="43.05530440338" lon="-5.39969761033">
        <ele>1749.62</ele>
        <time>2013-02-27T14:30:49+01:00</time>
      </trkpt>
      <trkpt lat="43.05526172028" lon="-5.39963772904">
        <ele>1748.54</ele>
        <time>2013-02-27T14:30:49+01:00</time>
      </trkpt>
      <trkpt lat="43.05520796522" lon="-5.39957244733">
        <ele>1746.42</ele>
        <time>2013-02-27T14:30:50+01:00</time>
      </trkpt>
      <trkpt lat="43.05517817539" lon="-5.39947290131">
        <ele>1746.47</ele>
        <time>2013-02-27T14:30:52+01:00</time>
      </trkpt>
      <trkpt lat="43.05514241138" lon="-5.39936863663">
        <ele>1745.54</ele>
        <time>2013-02-27T14:30:52+01:00</time>
      </trkpt>
      <trkpt lat="43.05513294517" lon="-5.39925618625">
        <ele>1744.23</ele>
        <time>2013-02-27T14:30:54+01:00</time>
      </trkpt>
      <trkpt lat="43.05511663505" lon="-5.39911943408">
        <ele>1743.14</ele>
        <time>2013-02-27T14:30:54+01:00</time>
      </trkpt>
      <trkpt lat="43.05508262821" lon="-5.39897708393">
        <ele>1742.28</ele>
        <time>2013-02-27T14:30:55+01:00</time>
      </trkpt>
      <trkpt lat="43.05507656445" lon="-5.39871050079">
        <ele>1740.37</ele>
        <time>2013-02-27T14:30:57+01:00</time>
      </trkpt>
      <trkpt lat="43.0551177306" lon="-5.39855760716">
        <ele>1738.99</ele>
        <time>2013-02-27T14:30:58+01:00</time>
      </trkpt>
      <trkpt lat="43.05510336622" lon="-5.3984965183">
        <ele>1737.81</ele>
        <time>2013-02-27T14:30:59+01:00</time>
      </trkpt>
      <trkpt lat="43.05507108963" lon="-5.39845539973">
        <ele>1736.44</ele>
        <time>2013-02-27T14:31:00+01:00</time>
      </trkpt>
      <trkpt lat="43.05502470292" lon="-5.39841539184">
        <ele>1734.95</ele>
        <time>2013-02-27T14:31:01+01:00</time>
      </trkpt>
      <trkpt lat="43.05496593882" lon="-5.39835709884">
        <ele>1733.67</ele>
        <time>2013-02-27T14:31:02+01:00</time>
      </trkpt>
      <trkpt lat="43.0549195546" lon="-5.39832336731">
        <ele>1732.41</ele>
        <time>2013-02-27T14:31:03+01:00</time>
      </trkpt>
      <trkpt lat="43.05484701403" lon="-5.39829455734">
        <ele>1731.13</ele>
        <time>2013-02-27T14:31:05+01:00</time>
      </trkpt>
      <trkpt lat="43.05476244303" lon="-5.39827931416">
        <ele>1729.86</ele>
        <time>2013-02-27T14:31:05+01:00</time>
      </trkpt>
      <trkpt lat="43.05468795006" lon="-5.39824734314">
        <ele>1728.63</ele>
        <time>2013-02-27T14:31:07+01:00</time>
      </trkpt>
      <trkpt lat="43.05462386054" lon="-5.39825222857">
        <ele>1727.41</ele>
        <time>2013-02-27T14:31:08+01:00</time>
      </trkpt>
      <trkpt lat="43.0545121051" lon="-5.39822549267">
        <ele>1726.1</ele>
        <time>2013-02-27T14:31:08+01:00</time>
      </trkpt>
      <trkpt lat="43.05446200967" lon="-5.39821314014">
        <ele>1724.75</ele>
        <time>2013-02-27T14:31:09+01:00</time>
      </trkpt>
      <trkpt lat="43.05435393933" lon="-5.39813848277">
        <ele>1723.07</ele>
        <time>2013-02-27T14:31:10+01:00</time>
      </trkpt>
      <trkpt lat="43.05426302368" lon="-5.39803081392">
        <ele>1721.43</ele>
        <time>2013-02-27T14:31:11+01:00</time>
      </trkpt>
      <trkpt lat="43.05418100398" lon="-5.39793800044">
        <ele>1719.96</ele>
        <time>2013-02-27T14:31:12+01:00</time>
      </trkpt>
      <trkpt lat="43.05409858417" lon="-5.39783970908">
        <ele>1718.51</ele>
        <time>2013-02-27T14:31:13+01:00</time>
      </trkpt>
      <trkpt lat="43.05402010765" lon="-5.39775091687">
        <ele>1717.1</ele>
        <time>2013-02-27T14:31:14+01:00</time>
      </trkpt>
      <trkpt lat="43.05394872298" lon="-5.39768863376">
        <ele>1715.76</ele>
        <time>2013-02-27T14:31:15+01:00</time>
      </trkpt>
      <trkpt lat="43.05388717212" lon="-5.3976679964">
        <ele>1714.47</ele>
        <time>2013-02-27T14:31:16+01:00</time>
      </trkpt>
      <trkpt lat="43.05383630519" lon="-5.39766970274">
        <ele>1713.32</ele>
        <time>2013-02-27T14:31:17+01:00</time>
      </trkpt>
      <trkpt lat="43.0538613717" lon="-5.39771429282">
        <ele>1709.61</ele>
        <time>2013-02-27T14:31:30+01:00</time>
      </trkpt>
      <trkpt lat="43.05388458812" lon="-5.39774199393">
        <ele>1709.59</ele>
        <time>2013-02-27T14:31:37+01:00</time>
      </trkpt>
      <trkpt lat="43.05390445294" lon="-5.39776490146">
        <ele>1708.03</ele>
        <time>2013-02-27T14:31:39+01:00</time>
      </trkpt>
      <trkpt lat="43.05392327864" lon="-5.3977917453">
        <ele>1706.47</ele>
        <time>2013-02-27T14:31:41+01:00</time>
      </trkpt>
      <trkpt lat="43.0539431035" lon="-5.39778175842">
        <ele>1705.52</ele>
        <time>2013-02-27T14:31:44+01:00</time>
      </trkpt>
      <trkpt lat="43.05396887509" lon="-5.39777438165">
        <ele>1702.5</ele>
        <time>2013-02-27T14:31:55+01:00</time>
      </trkpt>
      <trkpt lat="43.05396847248" lon="-5.39780736436">
        <ele>1700.94</ele>
        <time>2013-02-27T14:31:59+01:00</time>
      </trkpt>
      <trkpt lat="43.05397085068" lon="-5.39784194623">
        <ele>1699.65</ele>
        <time>2013-02-27T14:32:02+01:00</time>
      </trkpt>
      <trkpt lat="43.05395799568" lon="-5.39787288635">
        <ele>1697.66</ele>
        <time>2013-02-27T14:32:03+01:00</time>
      </trkpt>
      <trkpt lat="43.05393834577" lon="-5.39792230702">
        <ele>1695.8</ele>
        <time>2013-02-27T14:32:05+01:00</time>
      </trkpt>
      <trkpt lat="43.05392321757" lon="-5.39796665754">
        <ele>1694.73</ele>
        <time>2013-02-27T14:32:07+01:00</time>
      </trkpt>
      <trkpt lat="43.05390404736" lon="-5.39801450584">
        <ele>1693.48</ele>
        <time>2013-02-27T14:32:08+01:00</time>
      </trkpt>
      <trkpt lat="43.05388515699" lon="-5.39806500557">
        <ele>1693.69</ele>
        <time>2013-02-27T14:32:10+01:00</time>
      </trkpt>
      <trkpt lat="43.05387236729" lon="-5.39809728835">
        <ele>1692.91</ele>
        <time>2013-02-27T14:32:11+01:00</time>
      </trkpt>
      <trkpt lat="43.0538609043" lon="-5.39813046517">
        <ele>1692.4</ele>
        <time>2013-02-27T14:32:12+01:00</time>
      </trkpt>
      <trkpt lat="43.05385116819" lon="-5.39816405845">
        <ele>1692.03</ele>
        <time>2013-02-27T14:32:13+01:00</time>
      </trkpt>
      <trkpt lat="43.05382966566" lon="-5.39822102826">
        <ele>1691.63</ele>
        <time>2013-02-27T14:32:15+01:00</time>
      </trkpt>
      <trkpt lat="43.05381762899" lon="-5.39825338372">
        <ele>1691.2</ele>
        <time>2013-02-27T14:32:16+01:00</time>
      </trkpt>
      <trkpt lat="43.05380092715" lon="-5.39830200325">
        <ele>1690.98</ele>
        <time>2013-02-27T14:32:18+01:00</time>
      </trkpt>
      <trkpt lat="43.05378213274" lon="-5.39835680458">
        <ele>1690.79</ele>
        <time>2013-02-27T14:32:20+01:00</time>
      </trkpt>
      <trkpt lat="43.05377157803" lon="-5.39838868771">
        <ele>1690.61</ele>
        <time>2013-02-27T14:32:21+01:00</time>
      </trkpt>
      <trkpt lat="43.05376353198" lon="-5.39841713686">
        <ele>1690.45</ele>
        <time>2013-02-27T14:32:22+01:00</time>
      </trkpt>
      <trkpt lat="43.05374256058" lon="-5.39847045981">
        <ele>1690.39</ele>
        <time>2013-02-27T14:32:24+01:00</time>
      </trkpt>
      <trkpt lat="43.05372292431" lon="-5.39852384556">
        <ele>1690.37</ele>
        <time>2013-02-27T14:32:27+01:00</time>
      </trkpt>
      <trkpt lat="43.05371160648" lon="-5.39855483276">
        <ele>1690.27</ele>
        <time>2013-02-27T14:32:27+01:00</time>
      </trkpt>
      <trkpt lat="43.05369093648" lon="-5.39860500425">
        <ele>1690.26</ele>
        <time>2013-02-27T14:32:29+01:00</time>
      </trkpt>
      <trkpt lat="43.0536785346" lon="-5.39863325603">
        <ele>1690.23</ele>
        <time>2013-02-27T14:32:30+01:00</time>
      </trkpt>
      <trkpt lat="43.05366274711" lon="-5.39867579927">
        <ele>1690.17</ele>
        <time>2013-02-27T14:32:32+01:00</time>
      </trkpt>
      <trkpt lat="43.05364396575" lon="-5.39872675387">
        <ele>1690.04</ele>
        <time>2013-02-27T14:32:35+01:00</time>
      </trkpt>
      <trkpt lat="43.05363652607" lon="-5.39874695334">
        <ele>1689.97</ele>
        <time>2013-02-27T14:32:35+01:00</time>
      </trkpt>
      <trkpt lat="43.05363996206" lon="-5.39880482126">
        <ele>1689.34</ele>
        <time>2013-02-27T14:32:37+01:00</time>
      </trkpt>
      <trkpt lat="43.05364551076" lon="-5.39884046767">
        <ele>1689.01</ele>
        <time>2013-02-27T14:32:39+01:00</time>
      </trkpt>
      <trkpt lat="43.05364296599" lon="-5.39889480383">
        <ele>1688.86</ele>
        <time>2013-02-27T14:32:40+01:00</time>
      </trkpt>
      <trkpt lat="43.05363508096" lon="-5.39893021328">
        <ele>1688.63</ele>
        <time>2013-02-27T14:32:42+01:00</time>
      </trkpt>
      <trkpt lat="43.05361177806" lon="-5.39899067113">
        <ele>1688.59</ele>
        <time>2013-02-27T14:32:44+01:00</time>
      </trkpt>
      <trkpt lat="43.05359186242" lon="-5.39902670141">
        <ele>1688.02</ele>
        <time>2013-02-27T14:32:44+01:00</time>
      </trkpt>
      <trkpt lat="43.05357128312" lon="-5.3990593214">
        <ele>1687.63</ele>
        <time>2013-02-27T14:32:45+01:00</time>
      </trkpt>
      <trkpt lat="43.05355207984" lon="-5.3990928016">
        <ele>1687.31</ele>
        <time>2013-02-27T14:32:46+01:00</time>
      </trkpt>
      <trkpt lat="43.05353259624" lon="-5.39912696395">
        <ele>1687.07</ele>
        <time>2013-02-27T14:32:47+01:00</time>
      </trkpt>
      <trkpt lat="43.05351706919" lon="-5.39915821648">
        <ele>1686.77</ele>
        <time>2013-02-27T14:32:48+01:00</time>
      </trkpt>
      <trkpt lat="43.05350570966" lon="-5.39918872542">
        <ele>1686.49</ele>
        <time>2013-02-27T14:32:49+01:00</time>
      </trkpt>
      <trkpt lat="43.05349623791" lon="-5.39921855649">
        <ele>1686.33</ele>
        <time>2013-02-27T14:32:50+01:00</time>
      </trkpt>
      <trkpt lat="43.05348733211" lon="-5.39924681103">
        <ele>1686.22</ele>
        <time>2013-02-27T14:32:51+01:00</time>
      </trkpt>
      <trkpt lat="43.05347124095" lon="-5.39929806713">
        <ele>1686.24</ele>
        <time>2013-02-27T14:32:54+01:00</time>
      </trkpt>
      <trkpt lat="43.05345835399" lon="-5.39934589015">
        <ele>1686.15</ele>
        <time>2013-02-27T14:32:56+01:00</time>
      </trkpt>
      <trkpt lat="43.05344816371" lon="-5.39937647195">
        <ele>1686.1</ele>
        <time>2013-02-27T14:32:56+01:00</time>
      </trkpt>
      <trkpt lat="43.05343696067" lon="-5.39940864886">
        <ele>1686.1</ele>
        <time>2013-02-27T14:32:57+01:00</time>
      </trkpt>
      <trkpt lat="43.05342533659" lon="-5.39943799585">
        <ele>1686.11</ele>
        <time>2013-02-27T14:32:59+01:00</time>
      </trkpt>
      <trkpt lat="43.05341516631" lon="-5.39946753574">
        <ele>1685.77</ele>
        <time>2013-02-27T14:32:59+01:00</time>
      </trkpt>
      <trkpt lat="43.05339599965" lon="-5.39951729783">
        <ele>1685.58</ele>
        <time>2013-02-27T14:33:01+01:00</time>
      </trkpt>
      <trkpt lat="43.05338297416" lon="-5.39955700954">
        <ele>1685.5</ele>
        <time>2013-02-27T14:33:02+01:00</time>
      </trkpt>
      <trkpt lat="43.05337615017" lon="-5.39960278426">
        <ele>1685.36</ele>
        <time>2013-02-27T14:33:04+01:00</time>
      </trkpt>
      <trkpt lat="43.05335460175" lon="-5.39965351344">
        <ele>1685.66</ele>
        <time>2013-02-27T14:33:06+01:00</time>
      </trkpt>
      <trkpt lat="43.05333474137" lon="-5.39969827072">
        <ele>1685.31</ele>
        <time>2013-02-27T14:33:08+01:00</time>
      </trkpt>
      <trkpt lat="43.05331047897" lon="-5.39971659896">
        <ele>1684.92</ele>
        <time>2013-02-27T14:33:11+01:00</time>
      </trkpt>
      <trkpt lat="43.05327169655" lon="-5.39973173106">
        <ele>1684.64</ele>
        <time>2013-02-27T14:33:13+01:00</time>
      </trkpt>
      <trkpt lat="43.05323004365" lon="-5.39976023846">
        <ele>1684.35</ele>
        <time>2013-02-27T14:33:15+01:00</time>
      </trkpt>
      <trkpt lat="43.05321347956" lon="-5.39977469836">
        <ele>1684.04</ele>
        <time>2013-02-27T14:33:16+01:00</time>
      </trkpt>
      <trkpt lat="43.05318691782" lon="-5.39980859567">
        <ele>1683.77</ele>
        <time>2013-02-27T14:33:18+01:00</time>
      </trkpt>
      <trkpt lat="43.05317898756" lon="-5.39982762689">
        <ele>1683.52</ele>
        <time>2013-02-27T14:33:18+01:00</time>
      </trkpt>
      <trkpt lat="43.05315718712" lon="-5.39986169439">
        <ele>1683.34</ele>
        <time>2013-02-27T14:33:19+01:00</time>
      </trkpt>
      <trkpt lat="43.05313515798" lon="-5.39992302379">
        <ele>1683.42</ele>
        <time>2013-02-27T14:33:21+01:00</time>
      </trkpt>
      <trkpt lat="43.05311472595" lon="-5.3999831671">
        <ele>1683.4</ele>
        <time>2013-02-27T14:33:23+01:00</time>
      </trkpt>
      <trkpt lat="43.05310309854" lon="-5.40001692037">
        <ele>1683.43</ele>
        <time>2013-02-27T14:33:25+01:00</time>
      </trkpt>
      <trkpt lat="43.05309958985" lon="-5.40005072845">
        <ele>1683.47</ele>
        <time>2013-02-27T14:33:26+01:00</time>
      </trkpt>
      <trkpt lat="43.05309772186" lon="-5.40006110815">
        <ele>1683.51</ele>
        <time>2013-02-27T14:33:28+01:00</time>
      </trkpt>
      <trkpt lat="43.05308652891" lon="-5.40012416149">
        <ele>1683.97</ele>
        <time>2013-02-27T14:33:29+01:00</time>
      </trkpt>
      <trkpt lat="43.05307699294" lon="-5.40017366735">
        <ele>1684.28</ele>
        <time>2013-02-27T14:33:30+01:00</time>
      </trkpt>
      <trkpt lat="43.05306041229" lon="-5.40024351394">
        <ele>1684.63</ele>
        <time>2013-02-27T14:33:31+01:00</time>
      </trkpt>
      <trkpt lat="43.05305230171" lon="-5.40029087676">
        <ele>1685.13</ele>
        <time>2013-02-27T14:33:32+01:00</time>
      </trkpt>
      <trkpt lat="43.05304518107" lon="-5.4003262997">
        <ele>1685.66</ele>
        <time>2013-02-27T14:33:33+01:00</time>
      </trkpt>
      <trkpt lat="43.05303852663" lon="-5.40035692067">
        <ele>1686.22</ele>
        <time>2013-02-27T14:33:34+01:00</time>
      </trkpt>
      <trkpt lat="43.05302951792" lon="-5.4004052226">
        <ele>1686.93</ele>
        <time>2013-02-27T14:33:36+01:00</time>
      </trkpt>
      <trkpt lat="43.05301775848" lon="-5.40045612195">
        <ele>1687.85</ele>
        <time>2013-02-27T14:33:38+01:00</time>
      </trkpt>
      <trkpt lat="43.05300138305" lon="-5.40050974366">
        <ele>1688.69</ele>
        <time>2013-02-27T14:33:40+01:00</time>
      </trkpt>
      <trkpt lat="43.05297873626" lon="-5.40056323472">
        <ele>1691.6</ele>
        <time>2013-02-27T14:33:42+01:00</time>
      </trkpt>
      <trkpt lat="43.05296330781" lon="-5.40061437416">
        <ele>1691.45</ele>
        <time>2013-02-27T14:33:44+01:00</time>
      </trkpt>
      <trkpt lat="43.05295814398" lon="-5.40065237869">
        <ele>1692.41</ele>
        <time>2013-02-27T14:33:45+01:00</time>
      </trkpt>
      <trkpt lat="43.05295698638" lon="-5.40068937148">
        <ele>1693.56</ele>
        <time>2013-02-27T14:33:47+01:00</time>
      </trkpt>
      <trkpt lat="43.05295768815" lon="-5.40072471213">
        <ele>1694.72</ele>
        <time>2013-02-27T14:33:47+01:00</time>
      </trkpt>
      <trkpt lat="43.05293068868" lon="-5.40076834554">
        <ele>1695.12</ele>
        <time>2013-02-27T14:33:49+01:00</time>
      </trkpt>
      <trkpt lat="43.0529075016" lon="-5.40080192953">
        <ele>1695.77</ele>
        <time>2013-02-27T14:33:49+01:00</time>
      </trkpt>
      <trkpt lat="43.05288546336" lon="-5.40083674246">
        <ele>1696.55</ele>
        <time>2013-02-27T14:33:50+01:00</time>
      </trkpt>
      <trkpt lat="43.05286264905" lon="-5.40087300818">
        <ele>1697.25</ele>
        <time>2013-02-27T14:33:51+01:00</time>
      </trkpt>
      <trkpt lat="43.0528491732" lon="-5.40089267073">
        <ele>1697.8</ele>
        <time>2013-02-27T14:33:52+01:00</time>
      </trkpt>
      <trkpt lat="43.05283497538" lon="-5.40091834381">
        <ele>1698.44</ele>
        <time>2013-02-27T14:33:53+01:00</time>
      </trkpt>
      <trkpt lat="43.05282026989" lon="-5.40094693832">
        <ele>1699.11</ele>
        <time>2013-02-27T14:33:54+01:00</time>
      </trkpt>
      <trkpt lat="43.05281157605" lon="-5.40099053033">
        <ele>1699.82</ele>
        <time>2013-02-27T14:33:56+01:00</time>
      </trkpt>
      <trkpt lat="43.05280936975" lon="-5.40099965045">
        <ele>1700.57</ele>
        <time>2013-02-27T14:33:58+01:00</time>
      </trkpt>
      <trkpt lat="43.05280419813" lon="-5.40105540124">
        <ele>1701.49</ele>
        <time>2013-02-27T14:34:00+01:00</time>
      </trkpt>
      <trkpt lat="43.0527979662" lon="-5.4010994118">
        <ele>1702.73</ele>
        <time>2013-02-27T14:34:02+01:00</time>
      </trkpt>
      <trkpt lat="43.05278845443" lon="-5.40117136651">
        <ele>1703.74</ele>
        <time>2013-02-27T14:34:04+01:00</time>
      </trkpt>
      <trkpt lat="43.05277993129" lon="-5.40120353681">
        <ele>1704.76</ele>
        <time>2013-02-27T14:34:06+01:00</time>
      </trkpt>
      <trkpt lat="43.05276739259" lon="-5.40124703078">
        <ele>1706.06</ele>
        <time>2013-02-27T14:34:08+01:00</time>
      </trkpt>
      <trkpt lat="43.05274998556" lon="-5.40130717284">
        <ele>1707.3</ele>
        <time>2013-02-27T14:34:10+01:00</time>
      </trkpt>
      <trkpt lat="43.05273865869" lon="-5.40134260352">
        <ele>1708.38</ele>
        <time>2013-02-27T14:34:10+01:00</time>
      </trkpt>
      <trkpt lat="43.05272231172" lon="-5.40137785285">
        <ele>1709.42</ele>
        <time>2013-02-27T14:34:12+01:00</time>
      </trkpt>
      <trkpt lat="43.0527033514" lon="-5.4014160834">
        <ele>1710.63</ele>
        <time>2013-02-27T14:34:14+01:00</time>
      </trkpt>
      <trkpt lat="43.05269102785" lon="-5.40143247115">
        <ele>1711.68</ele>
        <time>2013-02-27T14:34:16+01:00</time>
      </trkpt>
      <trkpt lat="43.05267154659" lon="-5.40146864835">
        <ele>1712.49</ele>
        <time>2013-02-27T14:34:18+01:00</time>
      </trkpt>
      <trkpt lat="43.0526553457" lon="-5.4015100149">
        <ele>1713.94</ele>
        <time>2013-02-27T14:34:20+01:00</time>
      </trkpt>
      <trkpt lat="43.05263976736" lon="-5.40156160589">
        <ele>1715.28</ele>
        <time>2013-02-27T14:34:22+01:00</time>
      </trkpt>
      <trkpt lat="43.05262481645" lon="-5.40161356538">
        <ele>1716.47</ele>
        <time>2013-02-27T14:34:24+01:00</time>
      </trkpt>
      <trkpt lat="43.05261592774" lon="-5.40164432593">
        <ele>1716.05</ele>
        <time>2013-02-27T14:34:26+01:00</time>
      </trkpt>
      <trkpt lat="43.05259735033" lon="-5.40171178265">
        <ele>1719.03</ele>
        <time>2013-02-27T14:34:28+01:00</time>
      </trkpt>
      <trkpt lat="43.05258099494" lon="-5.40176651296">
        <ele>1720.71</ele>
        <time>2013-02-27T14:34:30+01:00</time>
      </trkpt>
      <trkpt lat="43.05256907373" lon="-5.4018188321">
        <ele>1722.33</ele>
        <time>2013-02-27T14:34:32+01:00</time>
      </trkpt>
      <trkpt lat="43.05255835741" lon="-5.40187496094">
        <ele>1723.94</ele>
        <time>2013-02-27T14:34:34+01:00</time>
      </trkpt>
      <trkpt lat="43.05254706405" lon="-5.40192659047">
        <ele>1725.89</ele>
        <time>2013-02-27T14:34:36+01:00</time>
      </trkpt>
      <trkpt lat="43.05254027692" lon="-5.40198086299">
        <ele>1728.08</ele>
        <time>2013-02-27T14:34:38+01:00</time>
      </trkpt>
      <trkpt lat="43.05253088939" lon="-5.40202799906">
        <ele>1730.13</ele>
        <time>2013-02-27T14:34:40+01:00</time>
      </trkpt>
      <trkpt lat="43.05251647256" lon="-5.40206062738">
        <ele>1732.07</ele>
        <time>2013-02-27T14:34:42+01:00</time>
      </trkpt>
      <trkpt lat="43.05250440262" lon="-5.40208954949">
        <ele>1734.1</ele>
        <time>2013-02-27T14:34:42+01:00</time>
      </trkpt>
      <trkpt lat="43.05249266796" lon="-5.40210489942">
        <ele>1736.04</ele>
        <time>2013-02-27T14:34:43+01:00</time>
      </trkpt>
      <trkpt lat="43.05247911023" lon="-5.40212661407">
        <ele>1737.84</ele>
        <time>2013-02-27T14:34:44+01:00</time>
      </trkpt>
      <trkpt lat="43.0524662964" lon="-5.40215079863">
        <ele>1739.59</ele>
        <time>2013-02-27T14:34:45+01:00</time>
      </trkpt>
      <trkpt lat="43.05244949592" lon="-5.40217827169">
        <ele>1741.23</ele>
        <time>2013-02-27T14:34:46+01:00</time>
      </trkpt>
      <trkpt lat="43.05244619817" lon="-5.40218371797">
        <ele>1742.83</ele>
        <time>2013-02-27T14:34:47+01:00</time>
      </trkpt>
      <trkpt lat="43.05242215913" lon="-5.40223136029">
        <ele>1744.33</ele>
        <time>2013-02-27T14:34:49+01:00</time>
      </trkpt>
      <trkpt lat="43.05240490092" lon="-5.40227890223">
        <ele>1745.7</ele>
        <time>2013-02-27T14:34:51+01:00</time>
      </trkpt>
      <trkpt lat="43.05238770807" lon="-5.40234503192">
        <ele>1747.35</ele>
        <time>2013-02-27T14:34:52+01:00</time>
      </trkpt>
      <trkpt lat="43.05236881327" lon="-5.40239647934">
        <ele>1748.76</ele>
        <time>2013-02-27T14:34:54+01:00</time>
      </trkpt>
      <trkpt lat="43.05236047455" lon="-5.4024340603">
        <ele>1749.93</ele>
        <time>2013-02-27T14:34:55+01:00</time>
      </trkpt>
      <trkpt lat="43.05234117236" lon="-5.40247291718">
        <ele>1750.91</ele>
        <time>2013-02-27T14:34:58+01:00</time>
      </trkpt>
      <trkpt lat="43.05232460734" lon="-5.40251248463">
        <ele>1751.82</ele>
        <time>2013-02-27T14:34:59+01:00</time>
      </trkpt>
      <trkpt lat="43.05231042793" lon="-5.4025554302">
        <ele>1752.85</ele>
        <time>2013-02-27T14:35:01+01:00</time>
      </trkpt>
      <trkpt lat="43.0522977014" lon="-5.40260881221">
        <ele>1754.06</ele>
        <time>2013-02-27T14:35:03+01:00</time>
      </trkpt>
      <trkpt lat="43.05228704241" lon="-5.40264416494">
        <ele>1755.06</ele>
        <time>2013-02-27T14:35:04+01:00</time>
      </trkpt>
      <trkpt lat="43.05227022552" lon="-5.40269207211">
        <ele>1756.01</ele>
        <time>2013-02-27T14:35:06+01:00</time>
      </trkpt>
      <trkpt lat="43.05225968723" lon="-5.40272445232">
        <ele>1757</ele>
        <time>2013-02-27T14:35:07+01:00</time>
      </trkpt>
      <trkpt lat="43.05224037991" lon="-5.40276814402">
        <ele>1758.04</ele>
        <time>2013-02-27T14:35:09+01:00</time>
      </trkpt>
      <trkpt lat="43.05222850535" lon="-5.40279901058">
        <ele>1758.99</ele>
        <time>2013-02-27T14:35:10+01:00</time>
      </trkpt>
      <trkpt lat="43.0522118812" lon="-5.40284608758">
        <ele>1760.22</ele>
        <time>2013-02-27T14:35:12+01:00</time>
      </trkpt>
      <trkpt lat="43.05219400539" lon="-5.40289835127">
        <ele>1761.37</ele>
        <time>2013-02-27T14:35:14+01:00</time>
      </trkpt>
      <trkpt lat="43.0521831212" lon="-5.40293146867">
        <ele>1762.46</ele>
        <time>2013-02-27T14:35:15+01:00</time>
      </trkpt>
      <trkpt lat="43.0521650945" lon="-5.40298712441">
        <ele>1763.61</ele>
        <time>2013-02-27T14:35:17+01:00</time>
      </trkpt>
      <trkpt lat="43.05214880703" lon="-5.40303699859">
        <ele>1764.91</ele>
        <time>2013-02-27T14:35:19+01:00</time>
      </trkpt>
      <trkpt lat="43.05213046983" lon="-5.40309831054">
        <ele>1766.19</ele>
        <time>2013-02-27T14:35:21+01:00</time>
      </trkpt>
      <trkpt lat="43.05211260572" lon="-5.40315588985">
        <ele>1767.54</ele>
        <time>2013-02-27T14:35:23+01:00</time>
      </trkpt>
      <trkpt lat="43.05209294071" lon="-5.40321264328">
        <ele>1769.03</ele>
        <time>2013-02-27T14:35:26+01:00</time>
      </trkpt>
      <trkpt lat="43.05207613881" lon="-5.40325906111">
        <ele>1770.42</ele>
        <time>2013-02-27T14:35:28+01:00</time>
      </trkpt>
      <trkpt lat="43.05205782511" lon="-5.40331065652">
        <ele>1771.76</ele>
        <time>2013-02-27T14:35:29+01:00</time>
      </trkpt>
      <trkpt lat="43.05204041605" lon="-5.40336731076">
        <ele>1773.23</ele>
        <time>2013-02-27T14:35:31+01:00</time>
      </trkpt>
      <trkpt lat="43.0520299605" lon="-5.40340284855">
        <ele>1774.7</ele>
        <time>2013-02-27T14:35:32+01:00</time>
      </trkpt>
      <trkpt lat="43.05201703997" lon="-5.40345273734">
        <ele>1775.95</ele>
        <time>2013-02-27T14:35:34+01:00</time>
      </trkpt>
      <trkpt lat="43.05199866435" lon="-5.40350093657">
        <ele>1777.3</ele>
        <time>2013-02-27T14:35:36+01:00</time>
      </trkpt>
      <trkpt lat="43.05198268395" lon="-5.40352146217">
        <ele>1778.69</ele>
        <time>2013-02-27T14:35:38+01:00</time>
      </trkpt>
      <trkpt lat="43.05196446782" lon="-5.40354899169">
        <ele>1779.81</ele>
        <time>2013-02-27T14:35:40+01:00</time>
      </trkpt>
      <trkpt lat="43.05196073513" lon="-5.40355637145">
        <ele>1780.85</ele>
        <time>2013-02-27T14:35:42+01:00</time>
      </trkpt>
      <trkpt lat="43.05193333494" lon="-5.40361128951">
        <ele>1782.43</ele>
        <time>2013-02-27T14:35:44+01:00</time>
      </trkpt>
      <trkpt lat="43.05192892692" lon="-5.40362176855">
        <ele>1783.72</ele>
        <time>2013-02-27T14:35:46+01:00</time>
      </trkpt>
      <trkpt lat="43.0519018824" lon="-5.40368267054">
        <ele>1784.92</ele>
        <time>2013-02-27T14:35:47+01:00</time>
      </trkpt>
      <trkpt lat="43.05188211562" lon="-5.40372908907">
        <ele>1786.1</ele>
        <time>2013-02-27T14:35:48+01:00</time>
      </trkpt>
      <trkpt lat="43.05186670018" lon="-5.4037680144">
        <ele>1787.25</ele>
        <time>2013-02-27T14:35:49+01:00</time>
      </trkpt>
      <trkpt lat="43.05184939517" lon="-5.40379984037">
        <ele>1788.34</ele>
        <time>2013-02-27T14:35:50+01:00</time>
      </trkpt>
      <trkpt lat="43.05183276838" lon="-5.40387270919">
        <ele>1790.08</ele>
        <time>2013-02-27T14:35:52+01:00</time>
      </trkpt>
      <trkpt lat="43.05181700428" lon="-5.40392925953">
        <ele>1791.58</ele>
        <time>2013-02-27T14:35:54+01:00</time>
      </trkpt>
      <trkpt lat="43.0518041955" lon="-5.4039817415">
        <ele>1793.07</ele>
        <time>2013-02-27T14:35:56+01:00</time>
      </trkpt>
      <trkpt lat="43.05178862504" lon="-5.40403300747">
        <ele>1794.69</ele>
        <time>2013-02-27T14:35:58+01:00</time>
      </trkpt>
      <trkpt lat="43.0517768719" lon="-5.40406363942">
        <ele>1796.36</ele>
        <time>2013-02-27T14:36:00+01:00</time>
      </trkpt>
      <trkpt lat="43.0517677683" lon="-5.40409391709">
        <ele>1795.76</ele>
        <time>2013-02-27T14:36:01+01:00</time>
      </trkpt>
      <trkpt lat="43.05176541625" lon="-5.40410148785">
        <ele>1796.56</ele>
        <time>2013-02-27T14:36:03+01:00</time>
      </trkpt>
      <trkpt lat="43.05175194028" lon="-5.40415810358">
        <ele>1797.52</ele>
        <time>2013-02-27T14:36:05+01:00</time>
      </trkpt>
      <trkpt lat="43.05174122089" lon="-5.40421147334">
        <ele>1798.39</ele>
        <time>2013-02-27T14:36:07+01:00</time>
      </trkpt>
      <trkpt lat="43.05172984718" lon="-5.40426384875">
        <ele>1799.1</ele>
        <time>2013-02-27T14:36:09+01:00</time>
      </trkpt>
      <trkpt lat="43.05170854417" lon="-5.40434752449">
        <ele>1800.01</ele>
        <time>2013-02-27T14:36:11+01:00</time>
      </trkpt>
      <trkpt lat="43.05170169034" lon="-5.40437244274">
        <ele>1800.9</ele>
        <time>2013-02-27T14:36:12+01:00</time>
      </trkpt>
      <trkpt lat="43.05168940117" lon="-5.40441986998">
        <ele>1801.8</ele>
        <time>2013-02-27T14:36:13+01:00</time>
      </trkpt>
      <trkpt lat="43.05167960079" lon="-5.40445255653">
        <ele>1805.67</ele>
        <time>2013-02-27T14:36:14+01:00</time>
      </trkpt>
      <trkpt lat="43.05166909117" lon="-5.40448491011">
        <ele>1807.41</ele>
        <time>2013-02-27T14:36:15+01:00</time>
      </trkpt>
      <trkpt lat="43.0516586744" lon="-5.40451686181">
        <ele>1809.05</ele>
        <time>2013-02-27T14:36:16+01:00</time>
      </trkpt>
      <trkpt lat="43.05164438699" lon="-5.40456697215">
        <ele>1808.35</ele>
        <time>2013-02-27T14:36:18+01:00</time>
      </trkpt>
      <trkpt lat="43.05163274528" lon="-5.40463130896">
        <ele>1809.7</ele>
        <time>2013-02-27T14:36:21+01:00</time>
      </trkpt>
      <trkpt lat="43.05161757586" lon="-5.40469010915">
        <ele>1810.81</ele>
        <time>2013-02-27T14:36:22+01:00</time>
      </trkpt>
      <trkpt lat="43.05160673004" lon="-5.40472728311">
        <ele>1811.71</ele>
        <time>2013-02-27T14:36:23+01:00</time>
      </trkpt>
      <trkpt lat="43.05159316149" lon="-5.40476013184">
        <ele>1812.42</ele>
        <time>2013-02-27T14:36:24+01:00</time>
      </trkpt>
      <trkpt lat="43.05158377578" lon="-5.40479285312">
        <ele>1813.38</ele>
        <time>2013-02-27T14:36:25+01:00</time>
      </trkpt>
      <trkpt lat="43.05156758235" lon="-5.40484184334">
        <ele>1817.16</ele>
        <time>2013-02-27T14:36:27+01:00</time>
      </trkpt>
      <trkpt lat="43.05153832624" lon="-5.40490562084">
        <ele>1816.18</ele>
        <time>2013-02-27T14:36:29+01:00</time>
      </trkpt>
      <trkpt lat="43.05152790084" lon="-5.40493295522">
        <ele>1816.96</ele>
        <time>2013-02-27T14:36:31+01:00</time>
      </trkpt>
      <trkpt lat="43.05150910945" lon="-5.40497646199">
        <ele>1818.1</ele>
        <time>2013-02-27T14:36:32+01:00</time>
      </trkpt>
      <trkpt lat="43.05147886378" lon="-5.40502243907">
        <ele>1819.17</ele>
        <time>2013-02-27T14:36:34+01:00</time>
      </trkpt>
      <trkpt lat="43.05145954999" lon="-5.4050599283">
        <ele>1819.72</ele>
        <time>2013-02-27T14:36:34+01:00</time>
      </trkpt>
      <trkpt lat="43.05144957877" lon="-5.40509438899">
        <ele>1820.56</ele>
        <time>2013-02-27T14:36:35+01:00</time>
      </trkpt>
      <trkpt lat="43.05143191554" lon="-5.40512327018">
        <ele>1821.44</ele>
        <time>2013-02-27T14:36:36+01:00</time>
      </trkpt>
      <trkpt lat="43.05141524684" lon="-5.40515028363">
        <ele>1822.25</ele>
        <time>2013-02-27T14:36:37+01:00</time>
      </trkpt>
      <trkpt lat="43.05139823722" lon="-5.40518210481">
        <ele>1823.03</ele>
        <time>2013-02-27T14:36:38+01:00</time>
      </trkpt>
      <trkpt lat="43.05138704351" lon="-5.40524772784">
        <ele>1827.16</ele>
        <time>2013-02-27T14:36:41+01:00</time>
      </trkpt>
      <trkpt lat="43.05138204008" lon="-5.40528857823">
        <ele>1829.06</ele>
        <time>2013-02-27T14:36:43+01:00</time>
      </trkpt>
      <trkpt lat="43.05136440903" lon="-5.40532744361">
        <ele>1830.95</ele>
        <time>2013-02-27T14:36:44+01:00</time>
      </trkpt>
      <trkpt lat="43.05134333045" lon="-5.40538415101">
        <ele>1833</ele>
        <time>2013-02-27T14:36:45+01:00</time>
      </trkpt>
      <trkpt lat="43.05132942525" lon="-5.40542211342">
        <ele>1835.12</ele>
        <time>2013-02-27T14:36:46+01:00</time>
      </trkpt>
      <trkpt lat="43.05131708884" lon="-5.40545444928">
        <ele>1837</ele>
        <time>2013-02-27T14:36:48+01:00</time>
      </trkpt>
      <trkpt lat="43.05130298748" lon="-5.40548116713">
        <ele>1838.68</ele>
        <time>2013-02-27T14:36:49+01:00</time>
      </trkpt>
      <trkpt lat="43.05128786257" lon="-5.40551152229">
        <ele>1840.46</ele>
        <time>2013-02-27T14:36:49+01:00</time>
      </trkpt>
      <trkpt lat="43.05127834442" lon="-5.4055299012">
        <ele>1842.13</ele>
        <time>2013-02-27T14:36:50+01:00</time>
      </trkpt>
      <trkpt lat="43.05121846036" lon="-5.40557779667">
        <ele>1843.52</ele>
        <time>2013-02-27T14:36:52+01:00</time>
      </trkpt>
      <trkpt lat="43.05120087466" lon="-5.40560628901">
        <ele>1844.95</ele>
        <time>2013-02-27T14:36:53+01:00</time>
      </trkpt>
      <trkpt lat="43.05119635006" lon="-5.40561262511">
        <ele>1846.29</ele>
        <time>2013-02-27T14:36:53+01:00</time>
      </trkpt>
      <trkpt lat="43.05118566648" lon="-5.40566387772">
        <ele>1847.99</ele>
        <time>2013-02-27T14:36:55+01:00</time>
      </trkpt>
      <trkpt lat="43.05116502253" lon="-5.40570859462">
        <ele>1849.62</ele>
        <time>2013-02-27T14:36:56+01:00</time>
      </trkpt>
      <trkpt lat="43.05114654392" lon="-5.40574476243">
        <ele>1850.93</ele>
        <time>2013-02-27T14:36:57+01:00</time>
      </trkpt>
      <trkpt lat="43.05114274761" lon="-5.40579437489">
        <ele>1852.45</ele>
        <time>2013-02-27T14:36:59+01:00</time>
      </trkpt>
      <trkpt lat="43.05113575614" lon="-5.40582387814">
        <ele>1853.92</ele>
        <time>2013-02-27T14:37:02+01:00</time>
      </trkpt>
      <trkpt lat="43.05113054212" lon="-5.40585857869">
        <ele>1855.4</ele>
        <time>2013-02-27T14:37:03+01:00</time>
      </trkpt>
      <trkpt lat="43.0511273432" lon="-5.40591772098">
        <ele>1857.05</ele>
        <time>2013-02-27T14:37:05+01:00</time>
      </trkpt>
      <trkpt lat="43.05111825446" lon="-5.40596978257">
        <ele>1858.65</ele>
        <time>2013-02-27T14:37:07+01:00</time>
      </trkpt>
      <trkpt lat="43.05111127346" lon="-5.40602022686">
        <ele>1860.19</ele>
        <time>2013-02-27T14:37:09+01:00</time>
      </trkpt>
      <trkpt lat="43.05110018778" lon="-5.40607256051">
        <ele>1861.87</ele>
        <time>2013-02-27T14:37:11+01:00</time>
      </trkpt>
      <trkpt lat="43.0510925727" lon="-5.40612366271">
        <ele>1863.55</ele>
        <time>2013-02-27T14:37:14+01:00</time>
      </trkpt>
      <trkpt lat="43.05108528293" lon="-5.40618062064">
        <ele>1865.04</ele>
        <time>2013-02-27T14:37:15+01:00</time>
      </trkpt>
      <trkpt lat="43.05108049508" lon="-5.40620303735">
        <ele>1866.49</ele>
        <time>2013-02-27T14:37:16+01:00</time>
      </trkpt>
      <trkpt lat="43.05106429311" lon="-5.4062597957">
        <ele>1867.56</ele>
        <time>2013-02-27T14:37:19+01:00</time>
      </trkpt>
      <trkpt lat="43.0510507637" lon="-5.40628738425">
        <ele>1868.72</ele>
        <time>2013-02-27T14:37:20+01:00</time>
      </trkpt>
      <trkpt lat="43.05103532373" lon="-5.40631291318">
        <ele>1870.29</ele>
        <time>2013-02-27T14:37:22+01:00</time>
      </trkpt>
      <trkpt lat="43.05101616564" lon="-5.40636203597">
        <ele>1871.25</ele>
        <time>2013-02-27T14:37:24+01:00</time>
      </trkpt>
      <trkpt lat="43.0510093836" lon="-5.40642858925">
        <ele>1872.5</ele>
        <time>2013-02-27T14:37:26+01:00</time>
      </trkpt>
      <trkpt lat="43.05100762486" lon="-5.40647992022">
        <ele>1873.74</ele>
        <time>2013-02-27T14:37:27+01:00</time>
      </trkpt>
      <trkpt lat="43.05101314044" lon="-5.40652699973">
        <ele>1874.98</ele>
        <time>2013-02-27T14:37:28+01:00</time>
      </trkpt>
      <trkpt lat="43.05102415056" lon="-5.40658504257">
        <ele>1876.04</ele>
        <time>2013-02-27T14:37:29+01:00</time>
      </trkpt>
      <trkpt lat="43.05103494524" lon="-5.40662147433">
        <ele>1877.11</ele>
        <time>2013-02-27T14:37:30+01:00</time>
      </trkpt>
      <trkpt lat="43.05105114985" lon="-5.40666276064">
        <ele>1878.24</ele>
        <time>2013-02-27T14:37:32+01:00</time>
      </trkpt>
      <trkpt lat="43.0510440196" lon="-5.40669683781">
        <ele>1881.59</ele>
        <time>2013-02-27T14:37:37+01:00</time>
      </trkpt>
      <trkpt lat="43.05102376836" lon="-5.40671276809">
        <ele>1882.98</ele>
        <time>2013-02-27T14:37:43+01:00</time>
      </trkpt>
      <trkpt lat="43.05104282243" lon="-5.40671197129">
        <ele>1883.05</ele>
        <time>2013-02-27T14:38:06+01:00</time>
      </trkpt>
      <trkpt lat="43.05104113471" lon="-5.40668612978">
        <ele>1884.01</ele>
        <time>2013-02-27T14:38:10+01:00</time>
      </trkpt>
      <trkpt lat="43.05103315287" lon="-5.40670389436">
        <ele>1885.52</ele>
        <time>2013-02-27T14:38:14+01:00</time>
      </trkpt>
      <trkpt lat="43.05105432757" lon="-5.40671060713">
        <ele>1886.5</ele>
        <time>2013-02-27T14:38:29+01:00</time>
      </trkpt>
      <trkpt lat="43.05103823896" lon="-5.40670315719">
        <ele>1886.48</ele>
        <time>2013-02-27T14:38:35+01:00</time>
      </trkpt>
      <trkpt lat="43.05104269906" lon="-5.40667813082">
        <ele>1887.02</ele>
        <time>2013-02-27T14:38:52+01:00</time>
      </trkpt>
      <trkpt lat="43.05107624698" lon="-5.4066454988">
        <ele>1887.7</ele>
        <time>2013-02-27T14:38:54+01:00</time>
      </trkpt>
      <trkpt lat="43.05110270432" lon="-5.40660054975">
        <ele>1888.77</ele>
        <time>2013-02-27T14:38:56+01:00</time>
      </trkpt>
      <trkpt lat="43.05111587478" lon="-5.40654891281">
        <ele>1889.01</ele>
        <time>2013-02-27T14:38:59+01:00</time>
      </trkpt>
      <trkpt lat="43.05112534851" lon="-5.40649862051">
        <ele>1889.45</ele>
        <time>2013-02-27T14:39:00+01:00</time>
      </trkpt>
      <trkpt lat="43.05113649687" lon="-5.40646267873">
        <ele>1889.41</ele>
        <time>2013-02-27T14:39:02+01:00</time>
      </trkpt>
      <trkpt lat="43.05115914486" lon="-5.4064672921">
        <ele>1889.37</ele>
        <time>2013-02-27T14:39:07+01:00</time>
      </trkpt>
      <trkpt lat="43.05117587851" lon="-5.40648900189">
        <ele>1889.72</ele>
        <time>2013-02-27T14:39:32+01:00</time>
      </trkpt>
      <trkpt lat="43.05119997389" lon="-5.40649139717">
        <ele>1890.11</ele>
        <time>2013-02-27T14:39:42+01:00</time>
      </trkpt>
      <trkpt lat="43.05123006885" lon="-5.40647292829">
        <ele>1890.32</ele>
        <time>2013-02-27T14:39:50+01:00</time>
      </trkpt>
      <trkpt lat="43.05125503055" lon="-5.40647123228">
        <ele>1890.39</ele>
        <time>2013-02-27T14:39:51+01:00</time>
      </trkpt>
      <trkpt lat="43.05133254895" lon="-5.40649158157">
        <ele>1890.43</ele>
        <time>2013-02-27T14:39:52+01:00</time>
      </trkpt>
      <trkpt lat="43.05138436647" lon="-5.40651491513">
        <ele>1890.55</ele>
        <time>2013-02-27T14:39:54+01:00</time>
      </trkpt>
      <trkpt lat="43.05144220508" lon="-5.40652635442">
        <ele>1890.63</ele>
        <time>2013-02-27T14:39:54+01:00</time>
      </trkpt>
      <trkpt lat="43.05150597529" lon="-5.40654929528">
        <ele>1890.68</ele>
        <time>2013-02-27T14:39:55+01:00</time>
      </trkpt>
      <trkpt lat="43.05160958916" lon="-5.40653597971">
        <ele>1890.65</ele>
        <time>2013-02-27T14:39:56+01:00</time>
      </trkpt>
      <trkpt lat="43.05166212444" lon="-5.40651809628">
        <ele>1890.72</ele>
        <time>2013-02-27T14:39:57+01:00</time>
      </trkpt>
      <trkpt lat="43.05183581559" lon="-5.40649104905">
        <ele>1890.47</ele>
        <time>2013-02-27T14:39:58+01:00</time>
      </trkpt>
      <trkpt lat="43.05197754043" lon="-5.40644761929">
        <ele>1890.04</ele>
        <time>2013-02-27T14:39:59+01:00</time>
      </trkpt>
      <trkpt lat="43.05209909216" lon="-5.40641043486">
        <ele>1889.76</ele>
        <time>2013-02-27T14:40:00+01:00</time>
      </trkpt>
      <trkpt lat="43.05217417483" lon="-5.4063863827">
        <ele>1889.39</ele>
        <time>2013-02-27T14:40:01+01:00</time>
      </trkpt>
      <trkpt lat="43.05233063285" lon="-5.40634440926">
        <ele>1889.15</ele>
        <time>2013-02-27T14:40:02+01:00</time>
      </trkpt>
      <trkpt lat="43.05248711656" lon="-5.4063447988">
        <ele>1888.73</ele>
        <time>2013-02-27T14:40:03+01:00</time>
      </trkpt>
      <trkpt lat="43.05262365647" lon="-5.4063511799">
        <ele>1888.35</ele>
        <time>2013-02-27T14:40:04+01:00</time>
      </trkpt>
      <trkpt lat="43.05274440591" lon="-5.40636204502">
        <ele>1887.88</ele>
        <time>2013-02-27T14:40:05+01:00</time>
      </trkpt>
      <trkpt lat="43.05286716051" lon="-5.40637850081">
        <ele>1887.27</ele>
        <time>2013-02-27T14:40:06+01:00</time>
      </trkpt>
      <trkpt lat="43.05298119663" lon="-5.40639439834">
        <ele>1886.57</ele>
        <time>2013-02-27T14:40:07+01:00</time>
      </trkpt>
      <trkpt lat="43.05308436954" lon="-5.40640810552">
        <ele>1885.92</ele>
        <time>2013-02-27T14:40:08+01:00</time>
      </trkpt>
      <trkpt lat="43.05313377081" lon="-5.40640226389">
        <ele>1885.15</ele>
        <time>2013-02-27T14:40:09+01:00</time>
      </trkpt>
      <trkpt lat="43.05315578806" lon="-5.40638044255">
        <ele>1884.33</ele>
        <time>2013-02-27T14:40:11+01:00</time>
      </trkpt>
      <trkpt lat="43.05315026734" lon="-5.40633953319">
        <ele>1881.6</ele>
        <time>2013-02-27T14:40:12+01:00</time>
      </trkpt>
      <trkpt lat="43.05314886145" lon="-5.40627978585">
        <ele>1880.5</ele>
        <time>2013-02-27T14:40:13+01:00</time>
      </trkpt>
      <trkpt lat="43.05317211922" lon="-5.40622198566">
        <ele>1879.16</ele>
        <time>2013-02-27T14:40:14+01:00</time>
      </trkpt>
      <trkpt lat="43.05319575599" lon="-5.40620194803">
        <ele>1877.59</ele>
        <time>2013-02-27T14:40:16+01:00</time>
      </trkpt>
      <trkpt lat="43.05317723756" lon="-5.40619359549">
        <ele>1875.53</ele>
        <time>2013-02-27T14:40:22+01:00</time>
      </trkpt>
      <trkpt lat="43.05312478472" lon="-5.40618937689">
        <ele>1872.54</ele>
        <time>2013-02-27T14:40:27+01:00</time>
      </trkpt>
      <trkpt lat="43.05314051738" lon="-5.40617990331">
        <ele>1870.62</ele>
        <time>2013-02-27T14:40:27+01:00</time>
      </trkpt>
      <trkpt lat="43.0531625018" lon="-5.40615847526">
        <ele>1868.28</ele>
        <time>2013-02-27T14:40:29+01:00</time>
      </trkpt>
      <trkpt lat="43.05319717411" lon="-5.40613896811">
        <ele>1865.96</ele>
        <time>2013-02-27T14:40:33+01:00</time>
      </trkpt>
      <trkpt lat="43.05322529803" lon="-5.40612970226">
        <ele>1864.02</ele>
        <time>2013-02-27T14:40:33+01:00</time>
      </trkpt>
      <trkpt lat="43.05325897187" lon="-5.4061293525">
        <ele>1862.31</ele>
        <time>2013-02-27T14:40:34+01:00</time>
      </trkpt>
      <trkpt lat="43.05328848544" lon="-5.40612590159">
        <ele>1860.71</ele>
        <time>2013-02-27T14:40:37+01:00</time>
      </trkpt>
      <trkpt lat="43.0533251665" lon="-5.40611106276">
        <ele>1860.69</ele>
        <time>2013-02-27T14:40:38+01:00</time>
      </trkpt>
      <trkpt lat="43.05334269511" lon="-5.40608657027">
        <ele>1858.09</ele>
        <time>2013-02-27T14:40:40+01:00</time>
      </trkpt>
      <trkpt lat="43.05335780138" lon="-5.40605806833">
        <ele>1856.94</ele>
        <time>2013-02-27T14:40:41+01:00</time>
      </trkpt>
      <trkpt lat="43.05337398689" lon="-5.40601288071">
        <ele>1855.6</ele>
        <time>2013-02-27T14:40:41+01:00</time>
      </trkpt>
      <trkpt lat="43.05338612091" lon="-5.40597037433">
        <ele>1854.32</ele>
        <time>2013-02-27T14:40:42+01:00</time>
      </trkpt>
      <trkpt lat="43.05340293106" lon="-5.40592277986">
        <ele>1852.99</ele>
        <time>2013-02-27T14:40:44+01:00</time>
      </trkpt>
      <trkpt lat="43.05342644318" lon="-5.40587363133">
        <ele>1852.03</ele>
        <time>2013-02-27T14:40:45+01:00</time>
      </trkpt>
      <trkpt lat="43.05349062359" lon="-5.40579681345">
        <ele>1851.12</ele>
        <time>2013-02-27T14:40:46+01:00</time>
      </trkpt>
      <trkpt lat="43.05356307177" lon="-5.40575489601">
        <ele>1850.91</ele>
        <time>2013-02-27T14:40:47+01:00</time>
      </trkpt>
      <trkpt lat="43.05364270556" lon="-5.40570232312">
        <ele>1850.34</ele>
        <time>2013-02-27T14:40:48+01:00</time>
      </trkpt>
      <trkpt lat="43.05373078374" lon="-5.40564721682">
        <ele>1849.68</ele>
        <time>2013-02-27T14:40:48+01:00</time>
      </trkpt>
      <trkpt lat="43.05382705515" lon="-5.40559904697">
        <ele>1849.15</ele>
        <time>2013-02-27T14:40:49+01:00</time>
      </trkpt>
      <trkpt lat="43.05390789966" lon="-5.40552329654">
        <ele>1848.4</ele>
        <time>2013-02-27T14:40:51+01:00</time>
      </trkpt>
      <trkpt lat="43.05398187017" lon="-5.40544042068">
        <ele>1847.72</ele>
        <time>2013-02-27T14:40:52+01:00</time>
      </trkpt>
      <trkpt lat="43.05406388713" lon="-5.40538723336">
        <ele>1847.02</ele>
        <time>2013-02-27T14:40:53+01:00</time>
      </trkpt>
      <trkpt lat="43.05415965038" lon="-5.40533428404">
        <ele>1846.35</ele>
        <time>2013-02-27T14:40:53+01:00</time>
      </trkpt>
      <trkpt lat="43.05424756817" lon="-5.40528205289">
        <ele>1845.7</ele>
        <time>2013-02-27T14:40:54+01:00</time>
      </trkpt>
      <trkpt lat="43.05430441256" lon="-5.40522325984">
        <ele>1845.01</ele>
        <time>2013-02-27T14:40:55+01:00</time>
      </trkpt>
      <trkpt lat="43.05433921724" lon="-5.40516295324">
        <ele>1844.39</ele>
        <time>2013-02-27T14:40:57+01:00</time>
      </trkpt>
      <trkpt lat="43.0543648369" lon="-5.40512159394">
        <ele>1843.75</ele>
        <time>2013-02-27T14:40:58+01:00</time>
      </trkpt>
      <trkpt lat="43.05439964923" lon="-5.40507002698">
        <ele>1842.89</ele>
        <time>2013-02-27T14:40:59+01:00</time>
      </trkpt>
      <trkpt lat="43.05445274539" lon="-5.40496674732">
        <ele>1842.26</ele>
        <time>2013-02-27T14:41:00+01:00</time>
      </trkpt>
      <trkpt lat="43.05447751327" lon="-5.40488165132">
        <ele>1840.63</ele>
        <time>2013-02-27T14:41:00+01:00</time>
      </trkpt>
      <trkpt lat="43.05447623071" lon="-5.40480488591">
        <ele>1839.83</ele>
        <time>2013-02-27T14:41:01+01:00</time>
      </trkpt>
      <trkpt lat="43.05449615782" lon="-5.40470551263">
        <ele>1838.83</ele>
        <time>2013-02-27T14:41:02+01:00</time>
      </trkpt>
      <trkpt lat="43.05450862573" lon="-5.40463896754">
        <ele>1838.8</ele>
        <time>2013-02-27T14:41:03+01:00</time>
      </trkpt>
      <trkpt lat="43.05449476152" lon="-5.40463127805">
        <ele>1838.38</ele>
        <time>2013-02-27T14:41:07+01:00</time>
      </trkpt>
      <trkpt lat="43.05449197845" lon="-5.40461175914">
        <ele>1837.82</ele>
        <time>2013-02-27T14:41:08+01:00</time>
      </trkpt>
      <trkpt lat="43.05447989999" lon="-5.40459240241">
        <ele>1837.29</ele>
        <time>2013-02-27T14:41:12+01:00</time>
      </trkpt>
      <trkpt lat="43.05445977661" lon="-5.40454084131">
        <ele>1836.82</ele>
        <time>2013-02-27T14:41:14+01:00</time>
      </trkpt>
      <trkpt lat="43.05448404924" lon="-5.40454836578">
        <ele>1836.31</ele>
        <time>2013-02-27T14:41:14+01:00</time>
      </trkpt>
      <trkpt lat="43.05451877687" lon="-5.40454168994">
        <ele>1835.63</ele>
        <time>2013-02-27T14:41:15+01:00</time>
      </trkpt>
      <trkpt lat="43.05454580543" lon="-5.40452694372">
        <ele>1835.2</ele>
        <time>2013-02-27T14:41:17+01:00</time>
      </trkpt>
      <trkpt lat="43.05457692683" lon="-5.40450092748">
        <ele>1834.8</ele>
        <time>2013-02-27T14:41:18+01:00</time>
      </trkpt>
      <trkpt lat="43.05462348482" lon="-5.40440177987">
        <ele>1834.25</ele>
        <time>2013-02-27T14:41:18+01:00</time>
      </trkpt>
      <trkpt lat="43.05466156311" lon="-5.4043089272">
        <ele>1833.64</ele>
        <time>2013-02-27T14:41:20+01:00</time>
      </trkpt>
      <trkpt lat="43.05468393092" lon="-5.40421813819">
        <ele>1833.09</ele>
        <time>2013-02-27T14:41:20+01:00</time>
      </trkpt>
      <trkpt lat="43.05470143714" lon="-5.40414845152">
        <ele>1832.36</ele>
        <time>2013-02-27T14:41:21+01:00</time>
      </trkpt>
      <trkpt lat="43.05472020662" lon="-5.40406838781">
        <ele>1831.61</ele>
        <time>2013-02-27T14:41:22+01:00</time>
      </trkpt>
      <trkpt lat="43.0548022439" lon="-5.40400380041">
        <ele>1830.79</ele>
        <time>2013-02-27T14:41:23+01:00</time>
      </trkpt>
      <trkpt lat="43.05486854045" lon="-5.40395178973">
        <ele>1828.31</ele>
        <time>2013-02-27T14:41:25+01:00</time>
      </trkpt>
      <trkpt lat="43.05490996295" lon="-5.40389981336">
        <ele>1827.36</ele>
        <time>2013-02-27T14:41:25+01:00</time>
      </trkpt>
      <trkpt lat="43.0549449019" lon="-5.40386749102">
        <ele>1826.72</ele>
        <time>2013-02-27T14:41:27+01:00</time>
      </trkpt>
      <trkpt lat="43.05496695509" lon="-5.40385234471">
        <ele>1825.85</ele>
        <time>2013-02-27T14:41:27+01:00</time>
      </trkpt>
      <trkpt lat="43.05496213414" lon="-5.40381038808">
        <ele>1824.61</ele>
        <time>2013-02-27T14:41:28+01:00</time>
      </trkpt>
      <trkpt lat="43.05493967875" lon="-5.40381728535">
        <ele>1824.73</ele>
        <time>2013-02-27T14:41:29+01:00</time>
      </trkpt>
      <trkpt lat="43.05490192828" lon="-5.40380793597">
        <ele>1824.08</ele>
        <time>2013-02-27T14:41:31+01:00</time>
      </trkpt>
      <trkpt lat="43.05490151956" lon="-5.40375610995">
        <ele>1823.36</ele>
        <time>2013-02-27T14:41:32+01:00</time>
      </trkpt>
      <trkpt lat="43.05492128617" lon="-5.40371644161">
        <ele>1822.38</ele>
        <time>2013-02-27T14:41:34+01:00</time>
      </trkpt>
      <trkpt lat="43.05493342023" lon="-5.40364413493">
        <ele>1820.1</ele>
        <time>2013-02-27T14:41:34+01:00</time>
      </trkpt>
      <trkpt lat="43.05494607296" lon="-5.40356697695">
        <ele>1819.07</ele>
        <time>2013-02-27T14:41:35+01:00</time>
      </trkpt>
      <trkpt lat="43.05497140228" lon="-5.40346678755">
        <ele>1817.65</ele>
        <time>2013-02-27T14:41:37+01:00</time>
      </trkpt>
      <trkpt lat="43.0549964506" lon="-5.40336534463">
        <ele>1816.26</ele>
        <time>2013-02-27T14:41:38+01:00</time>
      </trkpt>
      <trkpt lat="43.05503220509" lon="-5.40324896591">
        <ele>1814.98</ele>
        <time>2013-02-27T14:41:39+01:00</time>
      </trkpt>
      <trkpt lat="43.05503539973" lon="-5.40313288573">
        <ele>1813.95</ele>
        <time>2013-02-27T14:41:40+01:00</time>
      </trkpt>
      <trkpt lat="43.05504502406" lon="-5.4030275941">
        <ele>1812.49</ele>
        <time>2013-02-27T14:41:41+01:00</time>
      </trkpt>
      <trkpt lat="43.05506035997" lon="-5.4029247284">
        <ele>1811.03</ele>
        <time>2013-02-27T14:41:41+01:00</time>
      </trkpt>
      <trkpt lat="43.05506205252" lon="-5.4028193304">
        <ele>1810.01</ele>
        <time>2013-02-27T14:41:42+01:00</time>
      </trkpt>
      <trkpt lat="43.05505444498" lon="-5.40273749877">
        <ele>1809.01</ele>
        <time>2013-02-27T14:41:44+01:00</time>
      </trkpt>
      <trkpt lat="43.05501044399" lon="-5.40263831924">
        <ele>1808.54</ele>
        <time>2013-02-27T14:41:44+01:00</time>
      </trkpt>
      <trkpt lat="43.05497934793" lon="-5.40255444559">
        <ele>1807.4</ele>
        <time>2013-02-27T14:41:46+01:00</time>
      </trkpt>
      <trkpt lat="43.05495830951" lon="-5.40251453681">
        <ele>1806.48</ele>
        <time>2013-02-27T14:41:46+01:00</time>
      </trkpt>
      <trkpt lat="43.05494903916" lon="-5.40247617903">
        <ele>1805.63</ele>
        <time>2013-02-27T14:41:48+01:00</time>
      </trkpt>
      <trkpt lat="43.05495881917" lon="-5.40243772913">
        <ele>1804.59</ele>
        <time>2013-02-27T14:41:49+01:00</time>
      </trkpt>
      <trkpt lat="43.05496935824" lon="-5.40240315">
        <ele>1803.45</ele>
        <time>2013-02-27T14:41:50+01:00</time>
      </trkpt>
      <trkpt lat="43.0549788086" lon="-5.40236082902">
        <ele>1800.63</ele>
        <time>2013-02-27T14:41:52+01:00</time>
      </trkpt>
      <trkpt lat="43.05498576135" lon="-5.40230730371">
        <ele>1800.97</ele>
        <time>2013-02-27T14:41:53+01:00</time>
      </trkpt>
      <trkpt lat="43.05500006002" lon="-5.40227742086">
        <ele>1799.84</ele>
        <time>2013-02-27T14:41:53+01:00</time>
      </trkpt>
      <trkpt lat="43.0550060043" lon="-5.40222832777">
        <ele>1798.59</ele>
        <time>2013-02-27T14:41:54+01:00</time>
      </trkpt>
      <trkpt lat="43.05500343806" lon="-5.40217512443">
        <ele>1797.41</ele>
        <time>2013-02-27T14:41:55+01:00</time>
      </trkpt>
      <trkpt lat="43.05501526298" lon="-5.40212813983">
        <ele>1796.46</ele>
        <time>2013-02-27T14:41:57+01:00</time>
      </trkpt>
      <trkpt lat="43.05502667365" lon="-5.40209531893">
        <ele>1795.19</ele>
        <time>2013-02-27T14:41:59+01:00</time>
      </trkpt>
      <trkpt lat="43.05503185511" lon="-5.40205686408">
        <ele>1794.07</ele>
        <time>2013-02-27T14:41:59+01:00</time>
      </trkpt>
      <trkpt lat="43.05503628986" lon="-5.40201672381">
        <ele>1793.21</ele>
        <time>2013-02-27T14:42:00+01:00</time>
      </trkpt>
      <trkpt lat="43.05503678363" lon="-5.40200926482">
        <ele>1792.29</ele>
        <time>2013-02-27T14:42:01+01:00</time>
      </trkpt>
      <trkpt lat="43.05503261438" lon="-5.40195155948">
        <ele>1791.23</ele>
        <time>2013-02-27T14:42:04+01:00</time>
      </trkpt>
      <trkpt lat="43.0550302783" lon="-5.40190095577">
        <ele>1790.25</ele>
        <time>2013-02-27T14:42:06+01:00</time>
      </trkpt>
      <trkpt lat="43.05504151547" lon="-5.40186186569">
        <ele>1789.42</ele>
        <time>2013-02-27T14:42:08+01:00</time>
      </trkpt>
      <trkpt lat="43.0550600841" lon="-5.4018421111">
        <ele>1788.82</ele>
        <time>2013-02-27T14:42:11+01:00</time>
      </trkpt>
      <trkpt lat="43.05508200413" lon="-5.40183717913">
        <ele>1788.25</ele>
        <time>2013-02-27T14:42:12+01:00</time>
      </trkpt>
      <trkpt lat="43.05510125007" lon="-5.40179125698">
        <ele>1786.86</ele>
        <time>2013-02-27T14:42:15+01:00</time>
      </trkpt>
      <trkpt lat="43.05510754677" lon="-5.40174465574">
        <ele>1785.08</ele>
        <time>2013-02-27T14:42:18+01:00</time>
      </trkpt>
      <trkpt lat="43.05511762387" lon="-5.40166311701">
        <ele>1785.04</ele>
        <time>2013-02-27T14:42:19+01:00</time>
      </trkpt>
      <trkpt lat="43.05512212034" lon="-5.40158967821">
        <ele>1784.15</ele>
        <time>2013-02-27T14:42:20+01:00</time>
      </trkpt>
      <trkpt lat="43.05512100797" lon="-5.40151383609">
        <ele>1783.21</ele>
        <time>2013-02-27T14:42:20+01:00</time>
      </trkpt>
      <trkpt lat="43.05511938114" lon="-5.40145456732">
        <ele>1782.42</ele>
        <time>2013-02-27T14:42:21+01:00</time>
      </trkpt>
      <trkpt lat="43.05509906952" lon="-5.40130073566">
        <ele>1781.64</ele>
        <time>2013-02-27T14:42:22+01:00</time>
      </trkpt>
      <trkpt lat="43.0550736501" lon="-5.40118199287">
        <ele>1780.68</ele>
        <time>2013-02-27T14:42:24+01:00</time>
      </trkpt>
      <trkpt lat="43.05505673097" lon="-5.4010733524">
        <ele>1779.78</ele>
        <time>2013-02-27T14:42:25+01:00</time>
      </trkpt>
      <trkpt lat="43.05505059788" lon="-5.40099020172">
        <ele>1778.9</ele>
        <time>2013-02-27T14:42:26+01:00</time>
      </trkpt>
      <trkpt lat="43.05503388151" lon="-5.40087325696">
        <ele>1778.03</ele>
        <time>2013-02-27T14:42:27+01:00</time>
      </trkpt>
      <trkpt lat="43.05500465491" lon="-5.40077288861">
        <ele>1777.17</ele>
        <time>2013-02-27T14:42:27+01:00</time>
      </trkpt>
      <trkpt lat="43.05499931251" lon="-5.40069206291">
        <ele>1776.37</ele>
        <time>2013-02-27T14:42:28+01:00</time>
      </trkpt>
      <trkpt lat="43.05499646542" lon="-5.40060907905">
        <ele>1775.46</ele>
        <time>2013-02-27T14:42:30+01:00</time>
      </trkpt>
      <trkpt lat="43.05497486244" lon="-5.40057634621">
        <ele>1775.16</ele>
        <time>2013-02-27T14:42:31+01:00</time>
      </trkpt>
      <trkpt lat="43.05494792578" lon="-5.40056337446">
        <ele>1774.68</ele>
        <time>2013-02-27T14:42:32+01:00</time>
      </trkpt>
      <trkpt lat="43.05491576581" lon="-5.40051175203">
        <ele>1773.73</ele>
        <time>2013-02-27T14:42:33+01:00</time>
      </trkpt>
      <trkpt lat="43.0548475923" lon="-5.40045316758">
        <ele>1773.09</ele>
        <time>2013-02-27T14:42:34+01:00</time>
      </trkpt>
      <trkpt lat="43.05475292093" lon="-5.40033817191">
        <ele>1772.29</ele>
        <time>2013-02-27T14:42:35+01:00</time>
      </trkpt>
      <trkpt lat="43.05469392116" lon="-5.40023256074">
        <ele>1771.42</ele>
        <time>2013-02-27T14:42:36+01:00</time>
      </trkpt>
      <trkpt lat="43.05468527281" lon="-5.40011139211">
        <ele>1770.14</ele>
        <time>2013-02-27T14:42:37+01:00</time>
      </trkpt>
      <trkpt lat="43.05466607525" lon="-5.40002124309">
        <ele>1769.33</ele>
        <time>2013-02-27T14:42:38+01:00</time>
      </trkpt>
      <trkpt lat="43.05466810307" lon="-5.39996009678">
        <ele>1768.27</ele>
        <time>2013-02-27T14:42:40+01:00</time>
      </trkpt>
      <trkpt lat="43.05466971563" lon="-5.39990106297">
        <ele>1767.32</ele>
        <time>2013-02-27T14:42:41+01:00</time>
      </trkpt>
      <trkpt lat="43.05468294627" lon="-5.39983185694">
        <ele>1766.25</ele>
        <time>2013-02-27T14:42:42+01:00</time>
      </trkpt>
      <trkpt lat="43.0547135209" lon="-5.39978676799">
        <ele>1765.22</ele>
        <time>2013-02-27T14:42:44+01:00</time>
      </trkpt>
      <trkpt lat="43.05474089233" lon="-5.39973416431">
        <ele>1764.03</ele>
        <time>2013-02-27T14:42:44+01:00</time>
      </trkpt>
      <trkpt lat="43.05475617415" lon="-5.39969728827">
        <ele>1763.1</ele>
        <time>2013-02-27T14:42:45+01:00</time>
      </trkpt>
      <trkpt lat="43.05476565908" lon="-5.39964259852">
        <ele>1762.14</ele>
        <time>2013-02-27T14:42:46+01:00</time>
      </trkpt>
      <trkpt lat="43.05476107668" lon="-5.39957598442">
        <ele>1761.17</ele>
        <time>2013-02-27T14:42:47+01:00</time>
      </trkpt>
      <trkpt lat="43.05474120444" lon="-5.3995265003">
        <ele>1760.22</ele>
        <time>2013-02-27T14:42:48+01:00</time>
      </trkpt>
      <trkpt lat="43.05471414828" lon="-5.39947434942">
        <ele>1759.34</ele>
        <time>2013-02-27T14:42:49+01:00</time>
      </trkpt>
      <trkpt lat="43.05467863866" lon="-5.39942564284">
        <ele>1758.46</ele>
        <time>2013-02-27T14:42:51+01:00</time>
      </trkpt>
      <trkpt lat="43.05467227557" lon="-5.39941384035">
        <ele>1757.61</ele>
        <time>2013-02-27T14:42:51+01:00</time>
      </trkpt>
      <trkpt lat="43.05460835641" lon="-5.39921949534">
        <ele>1756.37</ele>
        <time>2013-02-27T14:42:53+01:00</time>
      </trkpt>
      <trkpt lat="43.05458749242" lon="-5.39909533209">
        <ele>1755.05</ele>
        <time>2013-02-27T14:42:54+01:00</time>
      </trkpt>
      <trkpt lat="43.05457279195" lon="-5.39896233936">
        <ele>1753.61</ele>
        <time>2013-02-27T14:42:54+01:00</time>
      </trkpt>
      <trkpt lat="43.05456230008" lon="-5.39889378938">
        <ele>1752.45</ele>
        <time>2013-02-27T14:42:55+01:00</time>
      </trkpt>
      <trkpt lat="43.05455168972" lon="-5.39879581192">
        <ele>1750.91</ele>
        <time>2013-02-27T14:42:57+01:00</time>
      </trkpt>
      <trkpt lat="43.05456600022" lon="-5.39867015602">
        <ele>1749.09</ele>
        <time>2013-02-27T14:42:58+01:00</time>
      </trkpt>
      <trkpt lat="43.05458019424" lon="-5.39862163389">
        <ele>1747.39</ele>
        <time>2013-02-27T14:42:58+01:00</time>
      </trkpt>
      <trkpt lat="43.05459248824" lon="-5.39853587752">
        <ele>1745.88</ele>
        <time>2013-02-27T14:43:00+01:00</time>
      </trkpt>
      <trkpt lat="43.05458910062" lon="-5.39849741387">
        <ele>1744.36</ele>
        <time>2013-02-27T14:43:02+01:00</time>
      </trkpt>
      <trkpt lat="43.05451913413" lon="-5.39837678895">
        <ele>1742.66</ele>
        <time>2013-02-27T14:43:04+01:00</time>
      </trkpt>
      <trkpt lat="43.0544690316" lon="-5.39830123261">
        <ele>1741.1</ele>
        <time>2013-02-27T14:43:05+01:00</time>
      </trkpt>
      <trkpt lat="43.05440281881" lon="-5.3981976755">
        <ele>1738.96</ele>
        <time>2013-02-27T14:43:06+01:00</time>
      </trkpt>
      <trkpt lat="43.05432909244" lon="-5.39807376609">
        <ele>1736.78</ele>
        <time>2013-02-27T14:43:07+01:00</time>
      </trkpt>
      <trkpt lat="43.05425041001" lon="-5.39793733725">
        <ele>1734.77</ele>
        <time>2013-02-27T14:43:08+01:00</time>
      </trkpt>
      <trkpt lat="43.05417995646" lon="-5.39779002263">
        <ele>1732.78</ele>
        <time>2013-02-27T14:43:09+01:00</time>
      </trkpt>
      <trkpt lat="43.05414501158" lon="-5.39763898859">
        <ele>1730.96</ele>
        <time>2013-02-27T14:43:10+01:00</time>
      </trkpt>
      <trkpt lat="43.05411351391" lon="-5.39750833305">
        <ele>1729.28</ele>
        <time>2013-02-27T14:43:11+01:00</time>
      </trkpt>
      <trkpt lat="43.05410640972" lon="-5.39738503892">
        <ele>1727.45</ele>
        <time>2013-02-27T14:43:12+01:00</time>
      </trkpt>
      <trkpt lat="43.05411357195" lon="-5.39726623456">
        <ele>1725.78</ele>
        <time>2013-02-27T14:43:13+01:00</time>
      </trkpt>
      <trkpt lat="43.05412925363" lon="-5.39716898116">
        <ele>1724.11</ele>
        <time>2013-02-27T14:43:14+01:00</time>
      </trkpt>
      <trkpt lat="43.05414385641" lon="-5.39709025366">
        <ele>1719.59</ele>
        <time>2013-02-27T14:43:15+01:00</time>
      </trkpt>
      <trkpt lat="43.05416607675" lon="-5.39701958311">
        <ele>1717.42</ele>
        <time>2013-02-27T14:43:16+01:00</time>
      </trkpt>
      <trkpt lat="43.05418644142" lon="-5.3969630293">
        <ele>1715.44</ele>
        <time>2013-02-27T14:43:17+01:00</time>
      </trkpt>
      <trkpt lat="43.05420413109" lon="-5.39692003254">
        <ele>1713.28</ele>
        <time>2013-02-27T14:43:18+01:00</time>
      </trkpt>
      <trkpt lat="43.05421810872" lon="-5.39689656342">
        <ele>1711.11</ele>
        <time>2013-02-27T14:43:19+01:00</time>
      </trkpt>
      <trkpt lat="43.05423679634" lon="-5.39687128364">
        <ele>1709.3</ele>
        <time>2013-02-27T14:43:20+01:00</time>
      </trkpt>
      <trkpt lat="43.05425669417" lon="-5.39684704989">
        <ele>1707.58</ele>
        <time>2013-02-27T14:43:22+01:00</time>
      </trkpt>
      <trkpt lat="43.05426553524" lon="-5.39681417406">
        <ele>1705.54</ele>
        <time>2013-02-27T14:43:33+01:00</time>
      </trkpt>
      <trkpt lat="43.05428235735" lon="-5.39678560478">
        <ele>1703.76</ele>
        <time>2013-02-27T14:43:36+01:00</time>
      </trkpt>
      <trkpt lat="43.05430174797" lon="-5.39675984141">
        <ele>1703.96</ele>
        <time>2013-02-27T14:43:38+01:00</time>
      </trkpt>
      <trkpt lat="43.05432011002" lon="-5.3967298783">
        <ele>1701.12</ele>
        <time>2013-02-27T14:43:41+01:00</time>
      </trkpt>
      <trkpt lat="43.054332969" lon="-5.39669116273">
        <ele>1699.33</ele>
        <time>2013-02-27T14:43:43+01:00</time>
      </trkpt>
      <trkpt lat="43.05434046935" lon="-5.3966427171">
        <ele>1698.16</ele>
        <time>2013-02-27T14:43:44+01:00</time>
      </trkpt>
      <trkpt lat="43.05434609332" lon="-5.39660104263">
        <ele>1696.86</ele>
        <time>2013-02-27T14:43:46+01:00</time>
      </trkpt>
      <trkpt lat="43.05434306069" lon="-5.3965575708">
        <ele>1695.36</ele>
        <time>2013-02-27T14:43:48+01:00</time>
      </trkpt>
      <trkpt lat="43.0543373915" lon="-5.39650817391">
        <ele>1695.32</ele>
        <time>2013-02-27T14:43:50+01:00</time>
      </trkpt>
      <trkpt lat="43.05433840342" lon="-5.39645437336">
        <ele>1694.38</ele>
        <time>2013-02-27T14:43:52+01:00</time>
      </trkpt>
      <trkpt lat="43.05434866409" lon="-5.39641176201">
        <ele>1693.44</ele>
        <time>2013-02-27T14:43:55+01:00</time>
      </trkpt>
      <trkpt lat="43.05436000338" lon="-5.39637541183">
        <ele>1692.47</ele>
        <time>2013-02-27T14:43:57+01:00</time>
      </trkpt>
      <trkpt lat="43.05438148255" lon="-5.39637384148">
        <ele>1691.68</ele>
        <time>2013-02-27T14:44:00+01:00</time>
      </trkpt>
      <trkpt lat="43.05440626376" lon="-5.39638506091">
        <ele>1691.05</ele>
        <time>2013-02-27T14:44:04+01:00</time>
      </trkpt>
      <trkpt lat="43.05442104359" lon="-5.39636598124">
        <ele>1690.08</ele>
        <time>2013-02-27T14:44:09+01:00</time>
      </trkpt>
      <trkpt lat="43.05443479545" lon="-5.39633313039">
        <ele>1688.57</ele>
        <time>2013-02-27T14:44:11+01:00</time>
      </trkpt>
      <trkpt lat="43.05445092334" lon="-5.39629242911">
        <ele>1687.19</ele>
        <time>2013-02-27T14:44:13+01:00</time>
      </trkpt>
      <trkpt lat="43.05446045211" lon="-5.39625733266">
        <ele>1686.1</ele>
        <time>2013-02-27T14:44:15+01:00</time>
      </trkpt>
      <trkpt lat="43.05445632289" lon="-5.39622476532">
        <ele>1684.98</ele>
        <time>2013-02-27T14:44:18+01:00</time>
      </trkpt>
      <trkpt lat="43.05445157432" lon="-5.39618204204">
        <ele>1683.12</ele>
        <time>2013-02-27T14:44:22+01:00</time>
      </trkpt>
      <trkpt lat="43.05443667712" lon="-5.3961538502">
        <ele>1681.9</ele>
        <time>2013-02-27T14:44:25+01:00</time>
      </trkpt>
      <trkpt lat="43.05444523118" lon="-5.39611233728">
        <ele>1680.98</ele>
        <time>2013-02-27T14:44:27+01:00</time>
      </trkpt>
      <trkpt lat="43.05444915028" lon="-5.39609051009">
        <ele>1681.47</ele>
        <time>2013-02-27T14:44:30+01:00</time>
      </trkpt>
      <trkpt lat="43.05445077014" lon="-5.39608457228">
        <ele>1680.98</ele>
        <time>2013-02-27T14:44:32+01:00</time>
      </trkpt>
      <trkpt lat="43.05445613167" lon="-5.39604020822">
        <ele>1680.5</ele>
        <time>2013-02-27T14:44:34+01:00</time>
      </trkpt>
      <trkpt lat="43.05445162495" lon="-5.39600293876">
        <ele>1680.13</ele>
        <time>2013-02-27T14:44:37+01:00</time>
      </trkpt>
      <trkpt lat="43.05444771617" lon="-5.39598979418">
        <ele>1679.53</ele>
        <time>2013-02-27T14:44:55+01:00</time>
      </trkpt>
      <trkpt lat="43.05444569555" lon="-5.39595272465">
        <ele>1679.6</ele>
        <time>2013-02-27T14:45:02+01:00</time>
      </trkpt>
      <trkpt lat="43.05444410935" lon="-5.39591073904">
        <ele>1678.84</ele>
        <time>2013-02-27T14:45:06+01:00</time>
      </trkpt>
      <trkpt lat="43.05444353583" lon="-5.39587116047">
        <ele>1677.08</ele>
        <time>2013-02-27T14:45:10+01:00</time>
      </trkpt>
      <trkpt lat="43.05444049871" lon="-5.3958324261">
        <ele>1677.29</ele>
        <time>2013-02-27T14:45:12+01:00</time>
      </trkpt>
      <trkpt lat="43.05443184684" lon="-5.39580517844">
        <ele>1676.87</ele>
        <time>2013-02-27T14:45:17+01:00</time>
      </trkpt>
      <trkpt lat="43.05443313395" lon="-5.39577062694">
        <ele>1676.24</ele>
        <time>2013-02-27T14:45:26+01:00</time>
      </trkpt>
      <trkpt lat="43.05444417334" lon="-5.39573562005">
        <ele>1675.8</ele>
        <time>2013-02-27T14:45:35+01:00</time>
      </trkpt>
      <trkpt lat="43.05444938861" lon="-5.39570179363">
        <ele>1676.28</ele>
        <time>2013-02-27T14:45:43+01:00</time>
      </trkpt>
      <trkpt lat="43.05445130572" lon="-5.39566740633">
        <ele>1676.42</ele>
        <time>2013-02-27T14:45:51+01:00</time>
      </trkpt>
      <trkpt lat="43.05443920118" lon="-5.39562323155">
        <ele>1675.82</ele>
        <time>2013-02-27T14:45:54+01:00</time>
      </trkpt>
      <trkpt lat="43.05442877102" lon="-5.39559415919">
        <ele>1675.81</ele>
        <time>2013-02-27T14:45:56+01:00</time>
      </trkpt>
      <trkpt lat="43.05441947655" lon="-5.39556507656">
        <ele>1675.63</ele>
        <time>2013-02-27T14:45:58+01:00</time>
      </trkpt>
      <trkpt lat="43.0544243567" lon="-5.39553163328">
        <ele>1675.49</ele>
        <time>2013-02-27T14:46:02+01:00</time>
      </trkpt>
      <trkpt lat="43.05443741152" lon="-5.39549845992">
        <ele>1675.79</ele>
        <time>2013-02-27T14:46:09+01:00</time>
      </trkpt>
      <trkpt lat="43.05444263974" lon="-5.39546670278">
        <ele>1676.06</ele>
        <time>2013-02-27T14:46:15+01:00</time>
      </trkpt>
      <trkpt lat="43.05444651951" lon="-5.39543621883">
        <ele>1676.27</ele>
        <time>2013-02-27T14:46:21+01:00</time>
      </trkpt>
      <trkpt lat="43.05444690749" lon="-5.39540246752">
        <ele>1676.6</ele>
        <time>2013-02-27T14:46:26+01:00</time>
      </trkpt>
      <trkpt lat="43.05444521123" lon="-5.39537087891">
        <ele>1677.11</ele>
        <time>2013-02-27T14:46:31+01:00</time>
      </trkpt>
      <trkpt lat="43.05444115659" lon="-5.39533754519">
        <ele>1677.31</ele>
        <time>2013-02-27T14:46:37+01:00</time>
      </trkpt>
      <trkpt lat="43.0544355994" lon="-5.39530474262">
        <ele>1677.3</ele>
        <time>2013-02-27T14:46:41+01:00</time>
      </trkpt>
      <trkpt lat="43.05443157106" lon="-5.39526700143">
        <ele>1677.28</ele>
        <time>2013-02-27T14:46:45+01:00</time>
      </trkpt>
      <trkpt lat="43.05443347731" lon="-5.39524686108">
        <ele>1677.52</ele>
        <time>2013-02-27T14:46:50+01:00</time>
      </trkpt>
      <trkpt lat="43.0544384328" lon="-5.3952213682">
        <ele>1677.72</ele>
        <time>2013-02-27T14:46:56+01:00</time>
      </trkpt>
      <trkpt lat="43.05444640069" lon="-5.39519009775">
        <ele>1677.8</ele>
        <time>2013-02-27T14:46:59+01:00</time>
      </trkpt>
      <trkpt lat="43.05445696443" lon="-5.39515162185">
        <ele>1678.02</ele>
        <time>2013-02-27T14:47:01+01:00</time>
      </trkpt>
      <trkpt lat="43.054468407" lon="-5.39511859566">
        <ele>1678.11</ele>
        <time>2013-02-27T14:47:03+01:00</time>
      </trkpt>
      <trkpt lat="43.05449191087" lon="-5.3950752768">
        <ele>1678.35</ele>
        <time>2013-02-27T14:47:05+01:00</time>
      </trkpt>
      <trkpt lat="43.05450568246" lon="-5.3950635336">
        <ele>1678.41</ele>
        <time>2013-02-27T14:47:08+01:00</time>
      </trkpt>
      <trkpt lat="43.05452382097" lon="-5.39505187849">
        <ele>1678.49</ele>
        <time>2013-02-27T14:47:11+01:00</time>
      </trkpt>
      <trkpt lat="43.05455653726" lon="-5.39502947863">
        <ele>1678.99</ele>
        <time>2013-02-27T14:47:12+01:00</time>
      </trkpt>
      <trkpt lat="43.05457870439" lon="-5.3950081678">
        <ele>1679.19</ele>
        <time>2013-02-27T14:47:13+01:00</time>
      </trkpt>
      <trkpt lat="43.05459443662" lon="-5.39497902814">
        <ele>1679.31</ele>
        <time>2013-02-27T14:47:14+01:00</time>
      </trkpt>
      <trkpt lat="43.05460861365" lon="-5.39494738395">
        <ele>1679.68</ele>
        <time>2013-02-27T14:47:15+01:00</time>
      </trkpt>
      <trkpt lat="43.05462137323" lon="-5.39491215431">
        <ele>1679.93</ele>
        <time>2013-02-27T14:47:16+01:00</time>
      </trkpt>
      <trkpt lat="43.05463217294" lon="-5.39487520175">
        <ele>1679.83</ele>
        <time>2013-02-27T14:47:17+01:00</time>
      </trkpt>
      <trkpt lat="43.05464405589" lon="-5.39483113203">
        <ele>1679.98</ele>
        <time>2013-02-27T14:47:18+01:00</time>
      </trkpt>
      <trkpt lat="43.05465146162" lon="-5.39478436483">
        <ele>1680.13</ele>
        <time>2013-02-27T14:47:19+01:00</time>
      </trkpt>
      <trkpt lat="43.05465632905" lon="-5.39473813102">
        <ele>1680.23</ele>
        <time>2013-02-27T14:47:20+01:00</time>
      </trkpt>
      <trkpt lat="43.0546561626" lon="-5.39468999222">
        <ele>1680.54</ele>
        <time>2013-02-27T14:47:21+01:00</time>
      </trkpt>
      <trkpt lat="43.05465612931" lon="-5.39464294765">
        <ele>1680.75</ele>
        <time>2013-02-27T14:47:22+01:00</time>
      </trkpt>
      <trkpt lat="43.05465530791" lon="-5.39461565131">
        <ele>1681</ele>
        <time>2013-02-27T14:47:23+01:00</time>
      </trkpt>
      <trkpt lat="43.05465164923" lon="-5.39458423351">
        <ele>1681.2</ele>
        <time>2013-02-27T14:47:24+01:00</time>
      </trkpt>
      <trkpt lat="43.05464575466" lon="-5.39455209608">
        <ele>1681.48</ele>
        <time>2013-02-27T14:47:26+01:00</time>
      </trkpt>
      <trkpt lat="43.05464387607" lon="-5.39451670708">
        <ele>1681.74</ele>
        <time>2013-02-27T14:47:26+01:00</time>
      </trkpt>
      <trkpt lat="43.0546472325" lon="-5.39448241641">
        <ele>1681.82</ele>
        <time>2013-02-27T14:47:28+01:00</time>
      </trkpt>
      <trkpt lat="43.05466255756" lon="-5.39442360203">
        <ele>1681.91</ele>
        <time>2013-02-27T14:47:28+01:00</time>
      </trkpt>
      <trkpt lat="43.05468168229" lon="-5.39437670221">
        <ele>1681.91</ele>
        <time>2013-02-27T14:47:29+01:00</time>
      </trkpt>
      <trkpt lat="43.05469851595" lon="-5.39432661973">
        <ele>1682</ele>
        <time>2013-02-27T14:47:31+01:00</time>
      </trkpt>
      <trkpt lat="43.05471053281" lon="-5.39427898525">
        <ele>1682.09</ele>
        <time>2013-02-27T14:47:31+01:00</time>
      </trkpt>
      <trkpt lat="43.05471813296" lon="-5.3942340532">
        <ele>1682.2</ele>
        <time>2013-02-27T14:47:33+01:00</time>
      </trkpt>
      <trkpt lat="43.05473122002" lon="-5.39419100273">
        <ele>1682.01</ele>
        <time>2013-02-27T14:47:34+01:00</time>
      </trkpt>
      <trkpt lat="43.05476635921" lon="-5.39418252675">
        <ele>1681.47</ele>
        <time>2013-02-27T14:47:36+01:00</time>
      </trkpt>
      <trkpt lat="43.05479387243" lon="-5.39419035339">
        <ele>1681.35</ele>
        <time>2013-02-27T14:47:37+01:00</time>
      </trkpt>
      <trkpt lat="43.05487816496" lon="-5.39421250468">
        <ele>1681.5</ele>
        <time>2013-02-27T14:47:38+01:00</time>
      </trkpt>
      <trkpt lat="43.05494202918" lon="-5.39420459677">
        <ele>1681.53</ele>
        <time>2013-02-27T14:47:39+01:00</time>
      </trkpt>
      <trkpt lat="43.05498594917" lon="-5.39420174114">
        <ele>1681.45</ele>
        <time>2013-02-27T14:47:41+01:00</time>
      </trkpt>
      <trkpt lat="43.05501170242" lon="-5.39419287656">
        <ele>1681.34</ele>
        <time>2013-02-27T14:47:41+01:00</time>
      </trkpt>
      <trkpt lat="43.05504343833" lon="-5.39417071654">
        <ele>1681.25</ele>
        <time>2013-02-27T14:47:43+01:00</time>
      </trkpt>
      <trkpt lat="43.05511992314" lon="-5.39411476705">
        <ele>1680.99</ele>
        <time>2013-02-27T14:47:43+01:00</time>
      </trkpt>
      <trkpt lat="43.05517830308" lon="-5.39406743438">
        <ele>1680.79</ele>
        <time>2013-02-27T14:47:44+01:00</time>
      </trkpt>
      <trkpt lat="43.05523842647" lon="-5.39402229447">
        <ele>1680.51</ele>
        <time>2013-02-27T14:47:45+01:00</time>
      </trkpt>
      <trkpt lat="43.05530657637" lon="-5.3939903336">
        <ele>1680.28</ele>
        <time>2013-02-27T14:47:46+01:00</time>
      </trkpt>
      <trkpt lat="43.05536952547" lon="-5.39396154498">
        <ele>1679.55</ele>
        <time>2013-02-27T14:47:47+01:00</time>
      </trkpt>
      <trkpt lat="43.05544960637" lon="-5.39396269394">
        <ele>1679.32</ele>
        <time>2013-02-27T14:47:48+01:00</time>
      </trkpt>
      <trkpt lat="43.05553341539" lon="-5.39397385374">
        <ele>1679.39</ele>
        <time>2013-02-27T14:47:49+01:00</time>
      </trkpt>
      <trkpt lat="43.0555788231" lon="-5.39398291815">
        <ele>1679.22</ele>
        <time>2013-02-27T14:47:50+01:00</time>
      </trkpt>
      <trkpt lat="43.05563792537" lon="-5.393970016">
        <ele>1678.98</ele>
        <time>2013-02-27T14:47:51+01:00</time>
      </trkpt>
      <trkpt lat="43.0556685871" lon="-5.39394596293">
        <ele>1678.68</ele>
        <time>2013-02-27T14:47:53+01:00</time>
      </trkpt>
      <trkpt lat="43.05567569335" lon="-5.39394117716">
        <ele>1678.52</ele>
        <time>2013-02-27T14:47:53+01:00</time>
      </trkpt>
      <trkpt lat="43.05564716322" lon="-5.39390926773">
        <ele>1679.26</ele>
        <time>2013-02-27T14:47:54+01:00</time>
      </trkpt>
      <trkpt lat="43.05565812042" lon="-5.39387934946">
        <ele>1679.45</ele>
        <time>2013-02-27T14:48:02+01:00</time>
      </trkpt>
      <trkpt lat="43.05567422582" lon="-5.39385760783">
        <ele>1679.42</ele>
        <time>2013-02-27T14:48:06+01:00</time>
      </trkpt>
      <trkpt lat="43.05565917435" lon="-5.39384702337">
        <ele>1678.86</ele>
        <time>2013-02-27T14:48:10+01:00</time>
      </trkpt>
      <trkpt lat="43.05567829228" lon="-5.39384778985">
        <ele>1678.6</ele>
        <time>2013-02-27T14:48:20+01:00</time>
      </trkpt>
      <trkpt lat="43.05566370921" lon="-5.39385706266">
        <ele>1678.88</ele>
        <time>2013-02-27T14:48:25+01:00</time>
      </trkpt>
      <trkpt lat="43.05565191186" lon="-5.39386836386">
        <ele>1678.77</ele>
        <time>2013-02-27T14:48:31+01:00</time>
      </trkpt>
      <trkpt lat="43.0556312087" lon="-5.39390094121">
        <ele>1678.13</ele>
        <time>2013-02-27T14:48:38+01:00</time>
      </trkpt>
      <trkpt lat="43.0556050069" lon="-5.39391040711">
        <ele>1678.01</ele>
        <time>2013-02-27T14:48:48+01:00</time>
      </trkpt>
      <trkpt lat="43.05557592841" lon="-5.39392416906">
        <ele>1678.11</ele>
        <time>2013-02-27T14:49:05+01:00</time>
      </trkpt>
      <trkpt lat="43.0555426536" lon="-5.39394019839">
        <ele>1678.21</ele>
        <time>2013-02-27T14:49:07+01:00</time>
      </trkpt>
      <trkpt lat="43.05551242872" lon="-5.39395091444">
        <ele>1677.83</ele>
        <time>2013-02-27T14:49:09+01:00</time>
      </trkpt>
      <trkpt lat="43.05548060101" lon="-5.39395413053">
        <ele>1677.76</ele>
        <time>2013-02-27T14:49:11+01:00</time>
      </trkpt>
      <trkpt lat="43.05544855332" lon="-5.39395598075">
        <ele>1677.74</ele>
        <time>2013-02-27T14:49:13+01:00</time>
      </trkpt>
      <trkpt lat="43.05541381295" lon="-5.39396030705">
        <ele>1677.81</ele>
        <time>2013-02-27T14:49:15+01:00</time>
      </trkpt>
      <trkpt lat="43.05537202969" lon="-5.39397538802">
        <ele>1678</ele>
        <time>2013-02-27T14:49:17+01:00</time>
      </trkpt>
      <trkpt lat="43.0553287949" lon="-5.39399085117">
        <ele>1678.36</ele>
        <time>2013-02-27T14:49:19+01:00</time>
      </trkpt>
      <trkpt lat="43.05529608453" lon="-5.39400691077">
        <ele>1678.67</ele>
        <time>2013-02-27T14:49:22+01:00</time>
      </trkpt>
      <trkpt lat="43.05526530199" lon="-5.39402172324">
        <ele>1678.9</ele>
        <time>2013-02-27T14:49:23+01:00</time>
      </trkpt>
      <trkpt lat="43.05524686967" lon="-5.39402185651">
        <ele>1679.11</ele>
        <time>2013-02-27T14:49:25+01:00</time>
      </trkpt>
      <trkpt lat="43.05520949266" lon="-5.39402203018">
        <ele>1679.43</ele>
        <time>2013-02-27T14:49:27+01:00</time>
      </trkpt>
      <trkpt lat="43.05518954452" lon="-5.39402129752">
        <ele>1679.31</ele>
        <time>2013-02-27T14:49:29+01:00</time>
      </trkpt>
      <trkpt lat="43.05515353649" lon="-5.39402265599">
        <ele>1679.82</ele>
        <time>2013-02-27T14:49:31+01:00</time>
      </trkpt>
      <trkpt lat="43.05512541366" lon="-5.39402507345">
        <ele>1680.29</ele>
        <time>2013-02-27T14:49:33+01:00</time>
      </trkpt>
      <trkpt lat="43.05509672209" lon="-5.39403548112">
        <ele>1680.76</ele>
        <time>2013-02-27T14:49:35+01:00</time>
      </trkpt>
      <trkpt lat="43.05506738034" lon="-5.39404775505">
        <ele>1680.64</ele>
        <time>2013-02-27T14:49:37+01:00</time>
      </trkpt>
      <trkpt lat="43.05503656745" lon="-5.39405450137">
        <ele>1681.55</ele>
        <time>2013-02-27T14:49:39+01:00</time>
      </trkpt>
      <trkpt lat="43.05500683496" lon="-5.39405705763">
        <ele>1681.91</ele>
        <time>2013-02-27T14:49:41+01:00</time>
      </trkpt>
      <trkpt lat="43.05497510572" lon="-5.3940572336">
        <ele>1682.29</ele>
        <time>2013-02-27T14:49:43+01:00</time>
      </trkpt>
      <trkpt lat="43.05494545819" lon="-5.39405834168">
        <ele>1682.62</ele>
        <time>2013-02-27T14:49:45+01:00</time>
      </trkpt>
      <trkpt lat="43.05492363659" lon="-5.39404595691">
        <ele>1682.69</ele>
        <time>2013-02-27T14:49:47+01:00</time>
      </trkpt>
      <trkpt lat="43.05490126794" lon="-5.39404609511">
        <ele>1683.11</ele>
        <time>2013-02-27T14:49:50+01:00</time>
      </trkpt>
      <trkpt lat="43.05488204333" lon="-5.39405311128">
        <ele>1682.99</ele>
        <time>2013-02-27T14:49:52+01:00</time>
      </trkpt>
      <trkpt lat="43.05487715368" lon="-5.39405568206">
        <ele>1683.11</ele>
        <time>2013-02-27T14:49:55+01:00</time>
      </trkpt>
      <trkpt lat="43.05487335448" lon="-5.39405776511">
        <ele>1683.14</ele>
        <time>2013-02-27T14:49:57+01:00</time>
      </trkpt>
      <trkpt lat="43.05486834128" lon="-5.39406001223">
        <ele>1683.18</ele>
        <time>2013-02-27T14:49:58+01:00</time>
      </trkpt>
      <trkpt lat="43.05485439475" lon="-5.39406456674">
        <ele>1683.2</ele>
        <time>2013-02-27T14:50:00+01:00</time>
      </trkpt>
      <trkpt lat="43.05477135112" lon="-5.39408468486">
        <ele>1683.35</ele>
        <time>2013-02-27T14:50:02+01:00</time>
      </trkpt>
      <trkpt lat="43.05467765827" lon="-5.39409782893">
        <ele>1683.43</ele>
        <time>2013-02-27T14:50:04+01:00</time>
      </trkpt>
      <trkpt lat="43.05463330461" lon="-5.39410092713">
        <ele>1683.53</ele>
        <time>2013-02-27T14:50:06+01:00</time>
      </trkpt>
      <trkpt lat="43.05459838292" lon="-5.3941038937">
        <ele>1683.96</ele>
        <time>2013-02-27T14:50:08+01:00</time>
      </trkpt>
      <trkpt lat="43.05456558232" lon="-5.39410589518">
        <ele>1684.24</ele>
        <time>2013-02-27T14:50:10+01:00</time>
      </trkpt>
      <trkpt lat="43.05452685806" lon="-5.39410951387">
        <ele>1684.52</ele>
        <time>2013-02-27T14:50:12+01:00</time>
      </trkpt>
      <trkpt lat="43.05449254675" lon="-5.39411417566">
        <ele>1684.81</ele>
        <time>2013-02-27T14:50:14+01:00</time>
      </trkpt>
      <trkpt lat="43.0544606381" lon="-5.39411946981">
        <ele>1685.07</ele>
        <time>2013-02-27T14:50:16+01:00</time>
      </trkpt>
      <trkpt lat="43.05443362837" lon="-5.39412651181">
        <ele>1685.36</ele>
        <time>2013-02-27T14:50:18+01:00</time>
      </trkpt>
      <trkpt lat="43.05439869648" lon="-5.39413541367">
        <ele>1685.76</ele>
        <time>2013-02-27T14:50:20+01:00</time>
      </trkpt>
      <trkpt lat="43.05436748014" lon="-5.39414369669">
        <ele>1686.11</ele>
        <time>2013-02-27T14:50:22+01:00</time>
      </trkpt>
      <trkpt lat="43.05433716343" lon="-5.39414965472">
        <ele>1686.36</ele>
        <time>2013-02-27T14:50:24+01:00</time>
      </trkpt>
      <trkpt lat="43.05431002698" lon="-5.3941557499">
        <ele>1686.65</ele>
        <time>2013-02-27T14:50:26+01:00</time>
      </trkpt>
      <trkpt lat="43.05427582095" lon="-5.39416353348">
        <ele>1687</ele>
        <time>2013-02-27T14:50:28+01:00</time>
      </trkpt>
      <trkpt lat="43.05424599185" lon="-5.3941732778">
        <ele>1686.87</ele>
        <time>2013-02-27T14:50:31+01:00</time>
      </trkpt>
      <trkpt lat="43.05421330452" lon="-5.3941832733">
        <ele>1687.19</ele>
        <time>2013-02-27T14:50:33+01:00</time>
      </trkpt>
      <trkpt lat="43.0541765922" lon="-5.39420082921">
        <ele>1687.41</ele>
        <time>2013-02-27T14:50:34+01:00</time>
      </trkpt>
      <trkpt lat="43.05416640824" lon="-5.39422096097">
        <ele>1687.93</ele>
        <time>2013-02-27T14:50:36+01:00</time>
      </trkpt>
      <trkpt lat="43.05415100652" lon="-5.39422348314">
        <ele>1687.7</ele>
        <time>2013-02-27T14:50:38+01:00</time>
      </trkpt>
      <trkpt lat="43.0541381927" lon="-5.39420995016">
        <ele>1687.62</ele>
        <time>2013-02-27T14:50:44+01:00</time>
      </trkpt>
      <trkpt lat="43.05411638404" lon="-5.39421156558">
        <ele>1687.8</ele>
        <time>2013-02-27T14:50:46+01:00</time>
      </trkpt>
      <trkpt lat="43.05408433636" lon="-5.39421811489">
        <ele>1687.92</ele>
        <time>2013-02-27T14:50:48+01:00</time>
      </trkpt>
      <trkpt lat="43.05404582807" lon="-5.39422616723">
        <ele>1687.95</ele>
        <time>2013-02-27T14:50:50+01:00</time>
      </trkpt>
      <trkpt lat="43.05399678241" lon="-5.3942351572">
        <ele>1688.01</ele>
        <time>2013-02-27T14:50:51+01:00</time>
      </trkpt>
      <trkpt lat="43.05395391505" lon="-5.39424312428">
        <ele>1688.14</ele>
        <time>2013-02-27T14:50:53+01:00</time>
      </trkpt>
      <trkpt lat="43.05391409385" lon="-5.39424921039">
        <ele>1688.64</ele>
        <time>2013-02-27T14:50:55+01:00</time>
      </trkpt>
      <trkpt lat="43.05387635709" lon="-5.39425424976">
        <ele>1688.93</ele>
        <time>2013-02-27T14:50:57+01:00</time>
      </trkpt>
      <trkpt lat="43.05383930543" lon="-5.39425894567">
        <ele>1689.29</ele>
        <time>2013-02-27T14:50:59+01:00</time>
      </trkpt>
      <trkpt lat="43.05380279314" lon="-5.39426659038">
        <ele>1689.72</ele>
        <time>2013-02-27T14:51:01+01:00</time>
      </trkpt>
      <trkpt lat="43.05376648929" lon="-5.39427334963">
        <ele>1690.28</ele>
        <time>2013-02-27T14:51:03+01:00</time>
      </trkpt>
      <trkpt lat="43.05372922131" lon="-5.39428838074">
        <ele>1691.07</ele>
        <time>2013-02-27T14:51:05+01:00</time>
      </trkpt>
      <trkpt lat="43.05369035234" lon="-5.3943007747">
        <ele>1691.76</ele>
        <time>2013-02-27T14:51:07+01:00</time>
      </trkpt>
      <trkpt lat="43.05366125498" lon="-5.39429902901">
        <ele>1692.74</ele>
        <time>2013-02-27T14:51:09+01:00</time>
      </trkpt>
      <trkpt lat="43.05363065861" lon="-5.39430297141">
        <ele>1693.48</ele>
        <time>2013-02-27T14:51:11+01:00</time>
      </trkpt>
      <trkpt lat="43.05358702193" lon="-5.39431489105">
        <ele>1694.58</ele>
        <time>2013-02-27T14:51:13+01:00</time>
      </trkpt>
      <trkpt lat="43.05355646812" lon="-5.39432753443">
        <ele>1695.48</ele>
        <time>2013-02-27T14:51:14+01:00</time>
      </trkpt>
      <trkpt lat="43.05353268831" lon="-5.39434367532">
        <ele>1696.57</ele>
        <time>2013-02-27T14:51:16+01:00</time>
      </trkpt>
      <trkpt lat="43.05350647467" lon="-5.39436118626">
        <ele>1697.53</ele>
        <time>2013-02-27T14:51:17+01:00</time>
      </trkpt>
      <trkpt lat="43.05348459014" lon="-5.39437879783">
        <ele>1698.53</ele>
        <time>2013-02-27T14:51:18+01:00</time>
      </trkpt>
      <trkpt lat="43.05346249995" lon="-5.39439824863">
        <ele>1699.43</ele>
        <time>2013-02-27T14:51:20+01:00</time>
      </trkpt>
      <trkpt lat="43.05343831622" lon="-5.39441405091">
        <ele>1699.05</ele>
        <time>2013-02-27T14:51:23+01:00</time>
      </trkpt>
      <trkpt lat="43.0534103616" lon="-5.39442308361">
        <ele>1699.47</ele>
        <time>2013-02-27T14:51:25+01:00</time>
      </trkpt>
      <trkpt lat="43.05337538762" lon="-5.39443296437">
        <ele>1700.35</ele>
        <time>2013-02-27T14:51:26+01:00</time>
      </trkpt>
      <trkpt lat="43.05333705065" lon="-5.39444368827">
        <ele>1702.95</ele>
        <time>2013-02-27T14:51:28+01:00</time>
      </trkpt>
      <trkpt lat="43.05330014494" lon="-5.39442309836">
        <ele>1701.76</ele>
        <time>2013-02-27T14:51:29+01:00</time>
      </trkpt>
      <trkpt lat="43.05327943847" lon="-5.39441222654">
        <ele>1701.99</ele>
        <time>2013-02-27T14:51:31+01:00</time>
      </trkpt>
      <trkpt lat="43.05325535987" lon="-5.39439082311">
        <ele>1702.52</ele>
        <time>2013-02-27T14:51:33+01:00</time>
      </trkpt>
      <trkpt lat="43.05323148113" lon="-5.39437178139">
        <ele>1703.08</ele>
        <time>2013-02-27T14:51:36+01:00</time>
      </trkpt>
      <trkpt lat="43.05320768137" lon="-5.39435316617">
        <ele>1703.2</ele>
        <time>2013-02-27T14:51:38+01:00</time>
      </trkpt>
      <trkpt lat="43.05316741858" lon="-5.39433746933">
        <ele>1703.49</ele>
        <time>2013-02-27T14:51:39+01:00</time>
      </trkpt>
      <trkpt lat="43.05313197396" lon="-5.39434492469">
        <ele>1703.83</ele>
        <time>2013-02-27T14:51:42+01:00</time>
      </trkpt>
      <trkpt lat="43.05310644485" lon="-5.39436096675">
        <ele>1703.8</ele>
        <time>2013-02-27T14:51:45+01:00</time>
      </trkpt>
      <trkpt lat="43.05309013603" lon="-5.39436544466">
        <ele>1703.96</ele>
        <time>2013-02-27T14:51:47+01:00</time>
      </trkpt>
      <trkpt lat="43.05308495961" lon="-5.39436579187">
        <ele>1704.2</ele>
        <time>2013-02-27T14:51:50+01:00</time>
      </trkpt>
      <trkpt lat="43.05302693574" lon="-5.39435944049">
        <ele>1704.13</ele>
        <time>2013-02-27T14:51:52+01:00</time>
      </trkpt>
      <trkpt lat="43.05298787186" lon="-5.39436051714">
        <ele>1704.25</ele>
        <time>2013-02-27T14:51:54+01:00</time>
      </trkpt>
      <trkpt lat="43.05293808251" lon="-5.39437588696">
        <ele>1705.18</ele>
        <time>2013-02-27T14:51:58+01:00</time>
      </trkpt>
      <trkpt lat="43.05291494829" lon="-5.39439887632">
        <ele>1705.78</ele>
        <time>2013-02-27T14:51:59+01:00</time>
      </trkpt>
      <trkpt lat="43.05288681858" lon="-5.39445061402">
        <ele>1706.1</ele>
        <time>2013-02-27T14:52:00+01:00</time>
      </trkpt>
      <trkpt lat="43.05287897982" lon="-5.39449059997">
        <ele>1706.49</ele>
        <time>2013-02-27T14:52:02+01:00</time>
      </trkpt>
      <trkpt lat="43.05287347375" lon="-5.39453063457">
        <ele>1707.06</ele>
        <time>2013-02-27T14:52:03+01:00</time>
      </trkpt>
      <trkpt lat="43.05286139107" lon="-5.39458593041">
        <ele>1707.89</ele>
        <time>2013-02-27T14:52:04+01:00</time>
      </trkpt>
      <trkpt lat="43.05285560596" lon="-5.39461325232">
        <ele>1708.83</ele>
        <time>2013-02-27T14:52:06+01:00</time>
      </trkpt>
      <trkpt lat="43.0528519837" lon="-5.39466293777">
        <ele>1709.54</ele>
        <time>2013-02-27T14:52:07+01:00</time>
      </trkpt>
      <trkpt lat="43.05285816594" lon="-5.39470056867">
        <ele>1710.21</ele>
        <time>2013-02-27T14:52:09+01:00</time>
      </trkpt>
      <trkpt lat="43.052858933" lon="-5.39473484989">
        <ele>1710.86</ele>
        <time>2013-02-27T14:52:10+01:00</time>
      </trkpt>
      <trkpt lat="43.05286354559" lon="-5.39477268564">
        <ele>1711.28</ele>
        <time>2013-02-27T14:52:12+01:00</time>
      </trkpt>
      <trkpt lat="43.05286587626" lon="-5.39482021771">
        <ele>1711.88</ele>
        <time>2013-02-27T14:52:13+01:00</time>
      </trkpt>
      <trkpt lat="43.05286714706" lon="-5.39486325173">
        <ele>1712.28</ele>
        <time>2013-02-27T14:52:16+01:00</time>
      </trkpt>
      <trkpt lat="43.05286877585" lon="-5.39490813542">
        <ele>1712.63</ele>
        <time>2013-02-27T14:52:18+01:00</time>
      </trkpt>
      <trkpt lat="43.0528696081" lon="-5.39493658656">
        <ele>1713.11</ele>
        <time>2013-02-27T14:52:19+01:00</time>
      </trkpt>
      <trkpt lat="43.0528889823" lon="-5.39499200337">
        <ele>1713.36</ele>
        <time>2013-02-27T14:52:22+01:00</time>
      </trkpt>
      <trkpt lat="43.05290261487" lon="-5.39501141951">
        <ele>1713.66</ele>
        <time>2013-02-27T14:52:22+01:00</time>
      </trkpt>
      <trkpt lat="43.05293330222" lon="-5.39505739549">
        <ele>1714.02</ele>
        <time>2013-02-27T14:52:24+01:00</time>
      </trkpt>
      <trkpt lat="43.05295556647" lon="-5.3950852991">
        <ele>1714.38</ele>
        <time>2013-02-27T14:52:25+01:00</time>
      </trkpt>
      <trkpt lat="43.05297195515" lon="-5.39511716547">
        <ele>1714.64</ele>
        <time>2013-02-27T14:52:26+01:00</time>
      </trkpt>
      <trkpt lat="43.05298244132" lon="-5.39514781273">
        <ele>1714.93</ele>
        <time>2013-02-27T14:52:27+01:00</time>
      </trkpt>
      <trkpt lat="43.05298420328" lon="-5.39517915495">
        <ele>1715.42</ele>
        <time>2013-02-27T14:52:29+01:00</time>
      </trkpt>
      <trkpt lat="43.0529769449" lon="-5.39521137377">
        <ele>1715.43</ele>
        <time>2013-02-27T14:52:30+01:00</time>
      </trkpt>
      <trkpt lat="43.05296751365" lon="-5.39524510901">
        <ele>1715.66</ele>
        <time>2013-02-27T14:52:31+01:00</time>
      </trkpt>
      <trkpt lat="43.05295851955" lon="-5.39528256735">
        <ele>1715.75</ele>
        <time>2013-02-27T14:52:31+01:00</time>
      </trkpt>
      <trkpt lat="43.05294548898" lon="-5.39532217847">
        <ele>1715.81</ele>
        <time>2013-02-27T14:52:33+01:00</time>
      </trkpt>
      <trkpt lat="43.05293497035" lon="-5.39536255542">
        <ele>1715.76</ele>
        <time>2013-02-27T14:52:33+01:00</time>
      </trkpt>
      <trkpt lat="43.05291848328" lon="-5.39540771235">
        <ele>1716.12</ele>
        <time>2013-02-27T14:52:34+01:00</time>
      </trkpt>
      <trkpt lat="43.05290076899" lon="-5.39545583693">
        <ele>1715.98</ele>
        <time>2013-02-27T14:52:36+01:00</time>
      </trkpt>
      <trkpt lat="43.05288468681" lon="-5.39550287867">
        <ele>1715.88</ele>
        <time>2013-02-27T14:52:37+01:00</time>
      </trkpt>
      <trkpt lat="43.05286638294" lon="-5.39555332481">
        <ele>1715.71</ele>
        <time>2013-02-27T14:52:38+01:00</time>
      </trkpt>
      <trkpt lat="43.05284726594" lon="-5.39560787165">
        <ele>1715.66</ele>
        <time>2013-02-27T14:52:39+01:00</time>
      </trkpt>
      <trkpt lat="43.05283321662" lon="-5.39566364097">
        <ele>1715.67</ele>
        <time>2013-02-27T14:52:39+01:00</time>
      </trkpt>
      <trkpt lat="43.05280871439" lon="-5.39570604257">
        <ele>1715.47</ele>
        <time>2013-02-27T14:52:40+01:00</time>
      </trkpt>
      <trkpt lat="43.05278386501" lon="-5.39573832749">
        <ele>1715.42</ele>
        <time>2013-02-27T14:52:42+01:00</time>
      </trkpt>
      <trkpt lat="43.0527666982" lon="-5.39575212802">
        <ele>1715.35</ele>
        <time>2013-02-27T14:52:43+01:00</time>
      </trkpt>
      <trkpt lat="43.05274665254" lon="-5.39576724256">
        <ele>1715.26</ele>
        <time>2013-02-27T14:52:43+01:00</time>
      </trkpt>
      <trkpt lat="43.05271888103" lon="-5.39577194997">
        <ele>1715.23</ele>
        <time>2013-02-27T14:52:45+01:00</time>
      </trkpt>
      <trkpt lat="43.05269311393" lon="-5.39577945855">
        <ele>1715.13</ele>
        <time>2013-02-27T14:52:46+01:00</time>
      </trkpt>
      <trkpt lat="43.05268863033" lon="-5.39578205343">
        <ele>1715.05</ele>
        <time>2013-02-27T14:52:46+01:00</time>
      </trkpt>
      <trkpt lat="43.05268655227" lon="-5.39578839537">
        <ele>1715.19</ele>
        <time>2013-02-27T14:52:51+01:00</time>
      </trkpt>
      <trkpt lat="43.05268893567" lon="-5.39581793992">
        <ele>1715.19</ele>
        <time>2013-02-27T14:52:53+01:00</time>
      </trkpt>
      <trkpt lat="43.05267666021" lon="-5.39580261648">
        <ele>1714.83</ele>
        <time>2013-02-27T14:53:00+01:00</time>
      </trkpt>
      <trkpt lat="43.05268285524" lon="-5.39582577038">
        <ele>1714.64</ele>
        <time>2013-02-27T14:53:06+01:00</time>
      </trkpt>
      <trkpt lat="43.05266645872" lon="-5.3958405265">
        <ele>1715.21</ele>
        <time>2013-02-27T14:53:11+01:00</time>
      </trkpt>
      <trkpt lat="43.05267249769" lon="-5.39585620116">
        <ele>1716.11</ele>
        <time>2013-02-27T14:53:21+01:00</time>
      </trkpt>
      <trkpt lat="43.05266126914" lon="-5.39588959506">
        <ele>1715.48</ele>
        <time>2013-02-27T14:53:24+01:00</time>
      </trkpt>
      <trkpt lat="43.05264122027" lon="-5.39592316298">
        <ele>1715.05</ele>
        <time>2013-02-27T14:53:26+01:00</time>
      </trkpt>
      <trkpt lat="43.05262980839" lon="-5.39594097957">
        <ele>1714.49</ele>
        <time>2013-02-27T14:53:31+01:00</time>
      </trkpt>
      <trkpt lat="43.05260351275" lon="-5.39593618915">
        <ele>1714.71</ele>
        <time>2013-02-27T14:53:45+01:00</time>
      </trkpt>
      <trkpt lat="43.05258564724" lon="-5.39591685793">
        <ele>1714.5</ele>
        <time>2013-02-27T14:53:49+01:00</time>
      </trkpt>
      <trkpt lat="43.05257295762" lon="-5.39590333551">
        <ele>1714.47</ele>
        <time>2013-02-27T14:53:53+01:00</time>
      </trkpt>
      <trkpt lat="43.05255330655" lon="-5.39589908887">
        <ele>1713.38</ele>
        <time>2013-02-27T14:53:59+01:00</time>
      </trkpt>
      <trkpt lat="43.05256159145" lon="-5.39592526291">
        <ele>1712.22</ele>
        <time>2013-02-27T14:54:07+01:00</time>
      </trkpt>
      <trkpt lat="43.0525740055" lon="-5.39593741948">
        <ele>1712.67</ele>
        <time>2013-02-27T14:54:11+01:00</time>
      </trkpt>
      <trkpt lat="43.05259255334" lon="-5.39592085909">
        <ele>1711.52</ele>
        <time>2013-02-27T14:54:17+01:00</time>
      </trkpt>
      <trkpt lat="43.05258285186" lon="-5.39588676867">
        <ele>1710.53</ele>
        <time>2013-02-27T14:54:22+01:00</time>
      </trkpt>
      <trkpt lat="43.05257095225" lon="-5.39587366445">
        <ele>1710.89</ele>
        <time>2013-02-27T14:54:25+01:00</time>
      </trkpt>
      <trkpt lat="43.05256705493" lon="-5.3958700071">
        <ele>1710.73</ele>
        <time>2013-02-27T14:54:26+01:00</time>
      </trkpt>
      <trkpt lat="43.05256650185" lon="-5.39586848283">
        <ele>1710.39</ele>
        <time>2013-02-27T14:54:30+01:00</time>
      </trkpt>
      <trkpt lat="43.05255209352" lon="-5.39590559655">
        <ele>1710.62</ele>
        <time>2013-02-27T14:55:24+01:00</time>
      </trkpt>
      <trkpt lat="43.05256279054" lon="-5.39595995795">
        <ele>1710.87</ele>
        <time>2013-02-27T14:55:26+01:00</time>
      </trkpt>
      <trkpt lat="43.05257535703" lon="-5.39600885054">
        <ele>1710.87</ele>
        <time>2013-02-27T14:55:27+01:00</time>
      </trkpt>
      <trkpt lat="43.05261763811" lon="-5.39612470898">
        <ele>1710.77</ele>
        <time>2013-02-27T14:55:28+01:00</time>
      </trkpt>
      <trkpt lat="43.05265106038" lon="-5.39620494261">
        <ele>1710.69</ele>
        <time>2013-02-27T14:55:29+01:00</time>
      </trkpt>
      <trkpt lat="43.05269517638" lon="-5.3962822927">
        <ele>1710.51</ele>
        <time>2013-02-27T14:55:30+01:00</time>
      </trkpt>
      <trkpt lat="43.05273373182" lon="-5.39636252668">
        <ele>1710.35</ele>
        <time>2013-02-27T14:55:31+01:00</time>
      </trkpt>
      <trkpt lat="43.0527775605" lon="-5.39646197599">
        <ele>1709.96</ele>
        <time>2013-02-27T14:55:32+01:00</time>
      </trkpt>
      <trkpt lat="43.05280747884" lon="-5.39654283182">
        <ele>1709.52</ele>
        <time>2013-02-27T14:55:33+01:00</time>
      </trkpt>
      <trkpt lat="43.05283085831" lon="-5.39661137453">
        <ele>1709.07</ele>
        <time>2013-02-27T14:55:34+01:00</time>
      </trkpt>
      <trkpt lat="43.05285772948" lon="-5.39670836567">
        <ele>1708.77</ele>
        <time>2013-02-27T14:55:35+01:00</time>
      </trkpt>
      <trkpt lat="43.05285641547" lon="-5.39676281817">
        <ele>1708.79</ele>
        <time>2013-02-27T14:55:36+01:00</time>
      </trkpt>
      <trkpt lat="43.0528250553" lon="-5.39676520826">
        <ele>1708.5</ele>
        <time>2013-02-27T14:55:37+01:00</time>
      </trkpt>
      <trkpt lat="43.05283289839" lon="-5.39679572702">
        <ele>1707.77</ele>
        <time>2013-02-27T14:55:40+01:00</time>
      </trkpt>
      <trkpt lat="43.05280590148" lon="-5.39679934973">
        <ele>1707.83</ele>
        <time>2013-02-27T15:02:17+01:00</time>
      </trkpt>
      <trkpt lat="43.05281327612" lon="-5.39681737452">
        <ele>1707.83</ele>
        <time>2013-02-27T15:02:24+01:00</time>
      </trkpt>
      <trkpt lat="43.05283651046" lon="-5.39682761795">
        <ele>1707.18</ele>
        <time>2013-02-27T15:04:16+01:00</time>
      </trkpt>
      <trkpt lat="43.05285453485" lon="-5.39685239835">
        <ele>1706.53</ele>
        <time>2013-02-27T15:05:45+01:00</time>
      </trkpt>
      <trkpt lat="43.05286293418" lon="-5.39688149431">
        <ele>1705.38</ele>
        <time>2013-02-27T15:05:46+01:00</time>
      </trkpt>
      <trkpt lat="43.05286910674" lon="-5.39691976824">
        <ele>1704.74</ele>
        <time>2013-02-27T15:05:47+01:00</time>
      </trkpt>
      <trkpt lat="43.05287294728" lon="-5.3969747737">
        <ele>1703.77</ele>
        <time>2013-02-27T15:05:48+01:00</time>
      </trkpt>
      <trkpt lat="43.05288215747" lon="-5.39702862945">
        <ele>1702.9</ele>
        <time>2013-02-27T15:05:49+01:00</time>
      </trkpt>
      <trkpt lat="43.05288888715" lon="-5.39708878238">
        <ele>1702.08</ele>
        <time>2013-02-27T15:05:50+01:00</time>
      </trkpt>
      <trkpt lat="43.05292109284" lon="-5.39718290824">
        <ele>1701.04</ele>
        <time>2013-02-27T15:05:51+01:00</time>
      </trkpt>
      <trkpt lat="43.05295049009" lon="-5.39724369351">
        <ele>1700.3</ele>
        <time>2013-02-27T15:05:52+01:00</time>
      </trkpt>
      <trkpt lat="43.05297419205" lon="-5.39728785456">
        <ele>1699.77</ele>
        <time>2013-02-27T15:05:54+01:00</time>
      </trkpt>
      <trkpt lat="43.05299006293" lon="-5.39731898141">
        <ele>1699.14</ele>
        <time>2013-02-27T15:05:54+01:00</time>
      </trkpt>
      <trkpt lat="43.05304248985" lon="-5.39737640467">
        <ele>1698.84</ele>
        <time>2013-02-27T15:05:57+01:00</time>
      </trkpt>
      <trkpt lat="43.053105513" lon="-5.39741625368">
        <ele>1698.35</ele>
        <time>2013-02-27T15:05:57+01:00</time>
      </trkpt>
      <trkpt lat="43.0531665315" lon="-5.39744320011">
        <ele>1698.29</ele>
        <time>2013-02-27T15:05:59+01:00</time>
      </trkpt>
      <trkpt lat="43.05323036773" lon="-5.39747635026">
        <ele>1697.94</ele>
        <time>2013-02-27T15:05:59+01:00</time>
      </trkpt>
      <trkpt lat="43.05326611231" lon="-5.39749415654">
        <ele>1697.66</ele>
        <time>2013-02-27T15:06:00+01:00</time>
      </trkpt>
      <trkpt lat="43.0532774526" lon="-5.39749747105">
        <ele>1697.31</ele>
        <time>2013-02-27T15:06:01+01:00</time>
      </trkpt>
      <trkpt lat="43.05336194866" lon="-5.39751050044">
        <ele>1696.97</ele>
        <time>2013-02-27T15:06:02+01:00</time>
      </trkpt>
      <trkpt lat="43.05343831104" lon="-5.39753465904">
        <ele>1696.53</ele>
        <time>2013-02-27T15:06:04+01:00</time>
      </trkpt>
      <trkpt lat="43.05351381265" lon="-5.3975535696">
        <ele>1695.93</ele>
        <time>2013-02-27T15:06:04+01:00</time>
      </trkpt>
      <trkpt lat="43.05364472251" lon="-5.39759934227">
        <ele>1695.3</ele>
        <time>2013-02-27T15:06:06+01:00</time>
      </trkpt>
      <trkpt lat="43.05372994661" lon="-5.39764799234">
        <ele>1694.72</ele>
        <time>2013-02-27T15:06:06+01:00</time>
      </trkpt>
      <trkpt lat="43.05376400608" lon="-5.39768206915">
        <ele>1694.15</ele>
        <time>2013-02-27T15:06:08+01:00</time>
      </trkpt>
      <trkpt lat="43.05377345119" lon="-5.3976893828">
        <ele>1693.6</ele>
        <time>2013-02-27T15:06:08+01:00</time>
      </trkpt>
      <trkpt lat="43.05381148229" lon="-5.39770221027">
        <ele>1693.04</ele>
        <time>2013-02-27T15:06:09+01:00</time>
      </trkpt>
      <trkpt lat="43.05381243726" lon="-5.39769906084">
        <ele>1692.4</ele>
        <time>2013-02-27T15:06:21+01:00</time>
      </trkpt>
      <trkpt lat="43.05381641899" lon="-5.39769913489">
        <ele>1691.87</ele>
        <time>2013-02-27T15:06:21+01:00</time>
      </trkpt>
      <trkpt lat="43.05384894224" lon="-5.39770902344">
        <ele>1691.15</ele>
        <time>2013-02-27T15:06:25+01:00</time>
      </trkpt>
      <trkpt lat="43.05387494783" lon="-5.39772364882">
        <ele>1690.63</ele>
        <time>2013-02-27T15:06:28+01:00</time>
      </trkpt>
      <trkpt lat="43.05390980037" lon="-5.39775486219">
        <ele>1689.96</ele>
        <time>2013-02-27T15:06:32+01:00</time>
      </trkpt>
      <trkpt lat="43.05392072714" lon="-5.39779047505">
        <ele>1688.54</ele>
        <time>2013-02-27T15:06:40+01:00</time>
      </trkpt>
      <trkpt lat="43.05392529295" lon="-5.39782213984">
        <ele>1687.54</ele>
        <time>2013-02-27T15:06:46+01:00</time>
      </trkpt>
      <trkpt lat="43.0539204729" lon="-5.39785388672">
        <ele>1686.79</ele>
        <time>2013-02-27T15:06:49+01:00</time>
      </trkpt>
      <trkpt lat="43.05393576978" lon="-5.39789356255">
        <ele>1686.07</ele>
        <time>2013-02-27T15:06:53+01:00</time>
      </trkpt>
      <trkpt lat="43.05393195599" lon="-5.39793824398">
        <ele>1685.35</ele>
        <time>2013-02-27T15:06:57+01:00</time>
      </trkpt>
      <trkpt lat="43.05390401596" lon="-5.39799242802">
        <ele>1684.91</ele>
        <time>2013-02-27T15:06:59+01:00</time>
      </trkpt>
      <trkpt lat="43.05388235461" lon="-5.39804203727">
        <ele>1684.52</ele>
        <time>2013-02-27T15:07:01+01:00</time>
      </trkpt>
      <trkpt lat="43.05386277056" lon="-5.39808360051">
        <ele>1684.05</ele>
        <time>2013-02-27T15:07:02+01:00</time>
      </trkpt>
      <trkpt lat="43.05385298313" lon="-5.39810989263">
        <ele>1683.69</ele>
        <time>2013-02-27T15:07:03+01:00</time>
      </trkpt>
      <trkpt lat="43.05383218313" lon="-5.39816222383">
        <ele>1683.61</ele>
        <time>2013-02-27T15:07:05+01:00</time>
      </trkpt>
      <trkpt lat="43.05381026574" lon="-5.39822205179">
        <ele>1683.48</ele>
        <time>2013-02-27T15:07:07+01:00</time>
      </trkpt>
      <trkpt lat="43.05379706018" lon="-5.39825534283">
        <ele>1683.33</ele>
        <time>2013-02-27T15:07:08+01:00</time>
      </trkpt>
      <trkpt lat="43.05378629746" lon="-5.39828700167">
        <ele>1683.34</ele>
        <time>2013-02-27T15:07:09+01:00</time>
      </trkpt>
      <trkpt lat="43.05376709109" lon="-5.39833870825">
        <ele>1683.36</ele>
        <time>2013-02-27T15:07:11+01:00</time>
      </trkpt>
      <trkpt lat="43.053752811" lon="-5.3983811906">
        <ele>1683.47</ele>
        <time>2013-02-27T15:07:13+01:00</time>
      </trkpt>
      <trkpt lat="43.05373405793" lon="-5.39843917976">
        <ele>1683.31</ele>
        <time>2013-02-27T15:07:15+01:00</time>
      </trkpt>
      <trkpt lat="43.05371995225" lon="-5.39847880074">
        <ele>1683.57</ele>
        <time>2013-02-27T15:07:17+01:00</time>
      </trkpt>
      <trkpt lat="43.05370380328" lon="-5.39853825833">
        <ele>1684.02</ele>
        <time>2013-02-27T15:07:19+01:00</time>
      </trkpt>
      <trkpt lat="43.05368811936" lon="-5.3985945961">
        <ele>1684.04</ele>
        <time>2013-02-27T15:07:21+01:00</time>
      </trkpt>
      <trkpt lat="43.05367981854" lon="-5.39862602366">
        <ele>1684.21</ele>
        <time>2013-02-27T15:07:22+01:00</time>
      </trkpt>
      <trkpt lat="43.05367034645" lon="-5.3986789796">
        <ele>1685.47</ele>
        <time>2013-02-27T15:07:25+01:00</time>
      </trkpt>
      <trkpt lat="43.05366191414" lon="-5.39871572233">
        <ele>1685.41</ele>
        <time>2013-02-27T15:07:25+01:00</time>
      </trkpt>
      <trkpt lat="43.05365713016" lon="-5.39873594742">
        <ele>1685.76</ele>
        <time>2013-02-27T15:07:26+01:00</time>
      </trkpt>
      <trkpt lat="43.05363606978" lon="-5.3987700983">
        <ele>1685.54</ele>
        <time>2013-02-27T15:07:28+01:00</time>
      </trkpt>
      <trkpt lat="43.05361844666" lon="-5.39879302172">
        <ele>1685.61</ele>
        <time>2013-02-27T15:07:28+01:00</time>
      </trkpt>
      <trkpt lat="43.05358752997" lon="-5.39883804071">
        <ele>1686.05</ele>
        <time>2013-02-27T15:07:30+01:00</time>
      </trkpt>
      <trkpt lat="43.05356498516" lon="-5.3988674293">
        <ele>1686.28</ele>
        <time>2013-02-27T15:07:32+01:00</time>
      </trkpt>
      <trkpt lat="43.05355305174" lon="-5.39888656748">
        <ele>1686.22</ele>
        <time>2013-02-27T15:07:33+01:00</time>
      </trkpt>
      <trkpt lat="43.05353939463" lon="-5.39891172691">
        <ele>1686.23</ele>
        <time>2013-02-27T15:07:33+01:00</time>
      </trkpt>
      <trkpt lat="43.05352594438" lon="-5.39893905878">
        <ele>1686.27</ele>
        <time>2013-02-27T15:07:34+01:00</time>
      </trkpt>
      <trkpt lat="43.05351144503" lon="-5.39896932088">
        <ele>1686.46</ele>
        <time>2013-02-27T15:07:35+01:00</time>
      </trkpt>
      <trkpt lat="43.05349895667" lon="-5.39900184438">
        <ele>1686.64</ele>
        <time>2013-02-27T15:07:36+01:00</time>
      </trkpt>
      <trkpt lat="43.05348591497" lon="-5.39905716631">
        <ele>1686.77</ele>
        <time>2013-02-27T15:07:38+01:00</time>
      </trkpt>
      <trkpt lat="43.05347458945" lon="-5.3990996796">
        <ele>1686.79</ele>
        <time>2013-02-27T15:07:38+01:00</time>
      </trkpt>
      <trkpt lat="43.05346786517" lon="-5.39913299269">
        <ele>1686.92</ele>
        <time>2013-02-27T15:07:40+01:00</time>
      </trkpt>
      <trkpt lat="43.05346140876" lon="-5.39915392063">
        <ele>1686.98</ele>
        <time>2013-02-27T15:07:40+01:00</time>
      </trkpt>
      <trkpt lat="43.05345372907" lon="-5.39919621103">
        <ele>1687.26</ele>
        <time>2013-02-27T15:07:41+01:00</time>
      </trkpt>
      <trkpt lat="43.05344515233" lon="-5.39922766905">
        <ele>1687.35</ele>
        <time>2013-02-27T15:07:42+01:00</time>
      </trkpt>
      <trkpt lat="43.05343351281" lon="-5.39927741244">
        <ele>1687.49</ele>
        <time>2013-02-27T15:07:44+01:00</time>
      </trkpt>
      <trkpt lat="43.05342240067" lon="-5.39932960591">
        <ele>1687.78</ele>
        <time>2013-02-27T15:07:46+01:00</time>
      </trkpt>
      <trkpt lat="43.05340901354" lon="-5.39938356345">
        <ele>1688.17</ele>
        <time>2013-02-27T15:07:48+01:00</time>
      </trkpt>
      <trkpt lat="43.05339166839" lon="-5.39944451171">
        <ele>1688.37</ele>
        <time>2013-02-27T15:07:50+01:00</time>
      </trkpt>
      <trkpt lat="43.05338000126" lon="-5.39947205756">
        <ele>1688.42</ele>
        <time>2013-02-27T15:07:51+01:00</time>
      </trkpt>
      <trkpt lat="43.05336750896" lon="-5.39950036551">
        <ele>1688.36</ele>
        <time>2013-02-27T15:07:52+01:00</time>
      </trkpt>
      <trkpt lat="43.05334794495" lon="-5.39954820483">
        <ele>1688.67</ele>
        <time>2013-02-27T15:07:54+01:00</time>
      </trkpt>
      <trkpt lat="43.05333290098" lon="-5.39958030325">
        <ele>1688.68</ele>
        <time>2013-02-27T15:07:55+01:00</time>
      </trkpt>
      <trkpt lat="43.05331755403" lon="-5.39962836423">
        <ele>1688.89</ele>
        <time>2013-02-27T15:07:57+01:00</time>
      </trkpt>
      <trkpt lat="43.05330221353" lon="-5.39967733785">
        <ele>1688.97</ele>
        <time>2013-02-27T15:07:59+01:00</time>
      </trkpt>
      <trkpt lat="43.05328710902" lon="-5.3997291762">
        <ele>1689.29</ele>
        <time>2013-02-27T15:08:01+01:00</time>
      </trkpt>
      <trkpt lat="43.0532701071" lon="-5.39977957584">
        <ele>1689.51</ele>
        <time>2013-02-27T15:08:03+01:00</time>
      </trkpt>
      <trkpt lat="43.0532566149" lon="-5.39982968773">
        <ele>1689.81</ele>
        <time>2013-02-27T15:08:05+01:00</time>
      </trkpt>
      <trkpt lat="43.0532415783" lon="-5.39988282662">
        <ele>1690.14</ele>
        <time>2013-02-27T15:08:07+01:00</time>
      </trkpt>
      <trkpt lat="43.05323267012" lon="-5.39991645434">
        <ele>1690.51</ele>
        <time>2013-02-27T15:08:08+01:00</time>
      </trkpt>
      <trkpt lat="43.05321804741" lon="-5.39996857627">
        <ele>1690.92</ele>
        <time>2013-02-27T15:08:10+01:00</time>
      </trkpt>
      <trkpt lat="43.05320868557" lon="-5.40000280527">
        <ele>1691.29</ele>
        <time>2013-02-27T15:08:11+01:00</time>
      </trkpt>
      <trkpt lat="43.05319926175" lon="-5.40003615541">
        <ele>1691.62</ele>
        <time>2013-02-27T15:08:12+01:00</time>
      </trkpt>
      <trkpt lat="43.05318790905" lon="-5.40009320166">
        <ele>1692.36</ele>
        <time>2013-02-27T15:08:14+01:00</time>
      </trkpt>
      <trkpt lat="43.05318288876" lon="-5.40012613909">
        <ele>1692.96</ele>
        <time>2013-02-27T15:08:15+01:00</time>
      </trkpt>
      <trkpt lat="43.05318043086" lon="-5.4001546149">
        <ele>1693.63</ele>
        <time>2013-02-27T15:08:16+01:00</time>
      </trkpt>
      <trkpt lat="43.05316731755" lon="-5.40018350222">
        <ele>1694.1</ele>
        <time>2013-02-27T15:08:17+01:00</time>
      </trkpt>
      <trkpt lat="43.05315552367" lon="-5.40023153343">
        <ele>1694.85</ele>
        <time>2013-02-27T15:08:19+01:00</time>
      </trkpt>
      <trkpt lat="43.05313713869" lon="-5.40027962937">
        <ele>1695.72</ele>
        <time>2013-02-27T15:08:21+01:00</time>
      </trkpt>
      <trkpt lat="43.05311810605" lon="-5.40033156041">
        <ele>1696.65</ele>
        <time>2013-02-27T15:08:23+01:00</time>
      </trkpt>
      <trkpt lat="43.05309964796" lon="-5.4003841914">
        <ele>1696.74</ele>
        <time>2013-02-27T15:08:25+01:00</time>
      </trkpt>
      <trkpt lat="43.05308345054" lon="-5.40043562129">
        <ele>1698.55</ele>
        <time>2013-02-27T15:08:27+01:00</time>
      </trkpt>
      <trkpt lat="43.0530695828" lon="-5.40048392758">
        <ele>1698.49</ele>
        <time>2013-02-27T15:08:29+01:00</time>
      </trkpt>
      <trkpt lat="43.05306032658" lon="-5.40051221982">
        <ele>1699.06</ele>
        <time>2013-02-27T15:08:32+01:00</time>
      </trkpt>
      <trkpt lat="43.05305725519" lon="-5.40052027097">
        <ele>1699.63</ele>
        <time>2013-02-27T15:08:33+01:00</time>
      </trkpt>
      <trkpt lat="43.05301308001" lon="-5.40058950453">
        <ele>1701.17</ele>
        <time>2013-02-27T15:08:35+01:00</time>
      </trkpt>
      <trkpt lat="43.05298855405" lon="-5.40061977977">
        <ele>1701.66</ele>
        <time>2013-02-27T15:08:35+01:00</time>
      </trkpt>
      <trkpt lat="43.05297021229" lon="-5.40064250727">
        <ele>1702.16</ele>
        <time>2013-02-27T15:08:37+01:00</time>
      </trkpt>
      <trkpt lat="43.05294149081" lon="-5.40070072125">
        <ele>1703.28</ele>
        <time>2013-02-27T15:08:40+01:00</time>
      </trkpt>
      <trkpt lat="43.0529246824" lon="-5.40075380417">
        <ele>1704.26</ele>
        <time>2013-02-27T15:08:41+01:00</time>
      </trkpt>
      <trkpt lat="43.05291631588" lon="-5.40078721972">
        <ele>1705.03</ele>
        <time>2013-02-27T15:08:43+01:00</time>
      </trkpt>
      <trkpt lat="43.05289738508" lon="-5.40085720278">
        <ele>1706.19</ele>
        <time>2013-02-27T15:08:45+01:00</time>
      </trkpt>
      <trkpt lat="43.05287871266" lon="-5.40091471823">
        <ele>1707.39</ele>
        <time>2013-02-27T15:08:47+01:00</time>
      </trkpt>
      <trkpt lat="43.05286384701" lon="-5.40094727666">
        <ele>1708.46</ele>
        <time>2013-02-27T15:08:49+01:00</time>
      </trkpt>
      <trkpt lat="43.05285195553" lon="-5.40097517896">
        <ele>1709.84</ele>
        <time>2013-02-27T15:08:50+01:00</time>
      </trkpt>
      <trkpt lat="43.05283941837" lon="-5.40100141243">
        <ele>1711.28</ele>
        <time>2013-02-27T15:08:50+01:00</time>
      </trkpt>
      <trkpt lat="43.05283129239" lon="-5.40101680347">
        <ele>1712.72</ele>
        <time>2013-02-27T15:08:51+01:00</time>
      </trkpt>
      <trkpt lat="43.0528113135" lon="-5.40104849525">
        <ele>1714.06</ele>
        <time>2013-02-27T15:08:52+01:00</time>
      </trkpt>
      <trkpt lat="43.05279538189" lon="-5.40108192392">
        <ele>1715.83</ele>
        <time>2013-02-27T15:08:54+01:00</time>
      </trkpt>
      <trkpt lat="43.05277734284" lon="-5.40111174371">
        <ele>1717.67</ele>
        <time>2013-02-27T15:08:54+01:00</time>
      </trkpt>
      <trkpt lat="43.05279217521" lon="-5.40117537516">
        <ele>1719.01</ele>
        <time>2013-02-27T15:08:56+01:00</time>
      </trkpt>
      <trkpt lat="43.05280395945" lon="-5.40122632293">
        <ele>1720.59</ele>
        <time>2013-02-27T15:08:57+01:00</time>
      </trkpt>
      <trkpt lat="43.05281184836" lon="-5.40126890016">
        <ele>1722.14</ele>
        <time>2013-02-27T15:08:58+01:00</time>
      </trkpt>
      <trkpt lat="43.0527863023" lon="-5.40127587333">
        <ele>1723.77</ele>
        <time>2013-02-27T15:08:59+01:00</time>
      </trkpt>
      <trkpt lat="43.05276972664" lon="-5.40129865858">
        <ele>1725.3</ele>
        <time>2013-02-27T15:09:00+01:00</time>
      </trkpt>
      <trkpt lat="43.05275635323" lon="-5.40132695318">
        <ele>1726.78</ele>
        <time>2013-02-27T15:09:01+01:00</time>
      </trkpt>
      <trkpt lat="43.05274732643" lon="-5.40134385914">
        <ele>1728.24</ele>
        <time>2013-02-27T15:09:02+01:00</time>
      </trkpt>
      <trkpt lat="43.05273249422" lon="-5.40138574827">
        <ele>1729.6</ele>
        <time>2013-02-27T15:09:04+01:00</time>
      </trkpt>
      <trkpt lat="43.0527233689" lon="-5.40141478902">
        <ele>1730.94</ele>
        <time>2013-02-27T15:09:06+01:00</time>
      </trkpt>
      <trkpt lat="43.05271016778" lon="-5.40147704776">
        <ele>1732.32</ele>
        <time>2013-02-27T15:09:08+01:00</time>
      </trkpt>
      <trkpt lat="43.05269649697" lon="-5.40153060436">
        <ele>1733.6</ele>
        <time>2013-02-27T15:09:10+01:00</time>
      </trkpt>
      <trkpt lat="43.05268125701" lon="-5.40157987243">
        <ele>1735.01</ele>
        <time>2013-02-27T15:09:12+01:00</time>
      </trkpt>
      <trkpt lat="43.05267043061" lon="-5.40162600292">
        <ele>1735.52</ele>
        <time>2013-02-27T15:09:14+01:00</time>
      </trkpt>
      <trkpt lat="43.05265944757" lon="-5.40167559627">
        <ele>1736.57</ele>
        <time>2013-02-27T15:09:16+01:00</time>
      </trkpt>
      <trkpt lat="43.0526478297" lon="-5.40172668685">
        <ele>1738.13</ele>
        <time>2013-02-27T15:09:19+01:00</time>
      </trkpt>
      <trkpt lat="43.05263196097" lon="-5.40177693693">
        <ele>1739.62</ele>
        <time>2013-02-27T15:09:20+01:00</time>
      </trkpt>
      <trkpt lat="43.05261460504" lon="-5.40182802475">
        <ele>1740.8</ele>
        <time>2013-02-27T15:09:22+01:00</time>
      </trkpt>
      <trkpt lat="43.05259168784" lon="-5.40187411685">
        <ele>1742.69</ele>
        <time>2013-02-27T15:09:24+01:00</time>
      </trkpt>
      <trkpt lat="43.05252926927" lon="-5.40188387172">
        <ele>1744.26</ele>
        <time>2013-02-27T15:09:26+01:00</time>
      </trkpt>
      <trkpt lat="43.05248845472" lon="-5.40189272938">
        <ele>1745.72</ele>
        <time>2013-02-27T15:09:26+01:00</time>
      </trkpt>
      <trkpt lat="43.05246487081" lon="-5.40189903337">
        <ele>1747.17</ele>
        <time>2013-02-27T15:09:27+01:00</time>
      </trkpt>
      <trkpt lat="43.05244310439" lon="-5.40191505158">
        <ele>1748.6</ele>
        <time>2013-02-27T15:09:28+01:00</time>
      </trkpt>
      <trkpt lat="43.05247551328" lon="-5.40196856868">
        <ele>1750.2</ele>
        <time>2013-02-27T15:09:29+01:00</time>
      </trkpt>
      <trkpt lat="43.0524754907" lon="-5.40202761891">
        <ele>1751.92</ele>
        <time>2013-02-27T15:09:31+01:00</time>
      </trkpt>
      <trkpt lat="43.05246995413" lon="-5.40207128019">
        <ele>1753.46</ele>
        <time>2013-02-27T15:09:32+01:00</time>
      </trkpt>
      <trkpt lat="43.05247418643" lon="-5.40209760879">
        <ele>1754.94</ele>
        <time>2013-02-27T15:09:34+01:00</time>
      </trkpt>
      <trkpt lat="43.05248072386" lon="-5.4021614529">
        <ele>1756.05</ele>
        <time>2013-02-27T15:09:37+01:00</time>
      </trkpt>
      <trkpt lat="43.05247869119" lon="-5.40219537541">
        <ele>1757.29</ele>
        <time>2013-02-27T15:09:38+01:00</time>
      </trkpt>
      <trkpt lat="43.05247031974" lon="-5.40223853011">
        <ele>1758.6</ele>
        <time>2013-02-27T15:09:40+01:00</time>
      </trkpt>
      <trkpt lat="43.05245634708" lon="-5.40231804792">
        <ele>1759.9</ele>
        <time>2013-02-27T15:09:42+01:00</time>
      </trkpt>
      <trkpt lat="43.05244654528" lon="-5.40235876192">
        <ele>1761.12</ele>
        <time>2013-02-27T15:09:43+01:00</time>
      </trkpt>
      <trkpt lat="43.05243606891" lon="-5.40238983761">
        <ele>1762.41</ele>
        <time>2013-02-27T15:09:44+01:00</time>
      </trkpt>
      <trkpt lat="43.05241959029" lon="-5.40244071152">
        <ele>1763.65</ele>
        <time>2013-02-27T15:09:46+01:00</time>
      </trkpt>
      <trkpt lat="43.05240898554" lon="-5.4024739533">
        <ele>1764.81</ele>
        <time>2013-02-27T15:09:47+01:00</time>
      </trkpt>
      <trkpt lat="43.05239975674" lon="-5.40250494271">
        <ele>1765.96</ele>
        <time>2013-02-27T15:09:48+01:00</time>
      </trkpt>
      <trkpt lat="43.05238835561" lon="-5.40255532998">
        <ele>1767.13</ele>
        <time>2013-02-27T15:09:50+01:00</time>
      </trkpt>
      <trkpt lat="43.05236072851" lon="-5.40260597585">
        <ele>1768.73</ele>
        <time>2013-02-27T15:09:53+01:00</time>
      </trkpt>
      <trkpt lat="43.05234209379" lon="-5.40263716036">
        <ele>1770.1</ele>
        <time>2013-02-27T15:09:53+01:00</time>
      </trkpt>
      <trkpt lat="43.052267523" lon="-5.40265573543">
        <ele>1771.49</ele>
        <time>2013-02-27T15:09:54+01:00</time>
      </trkpt>
      <trkpt lat="43.05220909001" lon="-5.40266991105">
        <ele>1772.84</ele>
        <time>2013-02-27T15:09:55+01:00</time>
      </trkpt>
      <trkpt lat="43.05222663948" lon="-5.40270909011">
        <ele>1774.06</ele>
        <time>2013-02-27T15:09:56+01:00</time>
      </trkpt>
      <trkpt lat="43.05221073689" lon="-5.4027557509">
        <ele>1775.23</ele>
        <time>2013-02-27T15:09:58+01:00</time>
      </trkpt>
      <trkpt lat="43.05220842809" lon="-5.40279599551">
        <ele>1776.46</ele>
        <time>2013-02-27T15:09:59+01:00</time>
      </trkpt>
      <trkpt lat="43.05221243484" lon="-5.40283567803">
        <ele>1777.57</ele>
        <time>2013-02-27T15:10:00+01:00</time>
      </trkpt>
      <trkpt lat="43.05220628664" lon="-5.40286233941">
        <ele>1778.67</ele>
        <time>2013-02-27T15:10:01+01:00</time>
      </trkpt>
      <trkpt lat="43.0522044535" lon="-5.40291400685">
        <ele>1780.09</ele>
        <time>2013-02-27T15:10:03+01:00</time>
      </trkpt>
      <trkpt lat="43.05220797608" lon="-5.40295190004">
        <ele>1780.61</ele>
        <time>2013-02-27T15:10:04+01:00</time>
      </trkpt>
      <trkpt lat="43.05220246966" lon="-5.40301300568">
        <ele>1781.59</ele>
        <time>2013-02-27T15:10:06+01:00</time>
      </trkpt>
      <trkpt lat="43.0521888709" lon="-5.40306155381">
        <ele>1782.69</ele>
        <time>2013-02-27T15:10:08+01:00</time>
      </trkpt>
      <trkpt lat="43.0521778363" lon="-5.40311451405">
        <ele>1783.74</ele>
        <time>2013-02-27T15:10:10+01:00</time>
      </trkpt>
      <trkpt lat="43.05215956965" lon="-5.40316560746">
        <ele>1784.95</ele>
        <time>2013-02-27T15:10:12+01:00</time>
      </trkpt>
      <trkpt lat="43.05214243822" lon="-5.40321854032">
        <ele>1786.04</ele>
        <time>2013-02-27T15:10:14+01:00</time>
      </trkpt>
      <trkpt lat="43.05212070586" lon="-5.40327023174">
        <ele>1787.33</ele>
        <time>2013-02-27T15:10:16+01:00</time>
      </trkpt>
      <trkpt lat="43.05210837982" lon="-5.40330283236">
        <ele>1788.53</ele>
        <time>2013-02-27T15:10:17+01:00</time>
      </trkpt>
      <trkpt lat="43.05208616684" lon="-5.40334569642">
        <ele>1789.86</ele>
        <time>2013-02-27T15:10:20+01:00</time>
      </trkpt>
      <trkpt lat="43.05206972136" lon="-5.40338880267">
        <ele>1791.18</ele>
        <time>2013-02-27T15:10:21+01:00</time>
      </trkpt>
      <trkpt lat="43.05205980765" lon="-5.40341942048">
        <ele>1792.41</ele>
        <time>2013-02-27T15:10:23+01:00</time>
      </trkpt>
      <trkpt lat="43.05204436648" lon="-5.40349387087">
        <ele>1793.63</ele>
        <time>2013-02-27T15:10:25+01:00</time>
      </trkpt>
      <trkpt lat="43.05202806837" lon="-5.40355321856">
        <ele>1795.13</ele>
        <time>2013-02-27T15:10:27+01:00</time>
      </trkpt>
      <trkpt lat="43.05200912528" lon="-5.40361424806">
        <ele>1799.18</ele>
        <time>2013-02-27T15:10:29+01:00</time>
      </trkpt>
      <trkpt lat="43.0519918418" lon="-5.40366629222">
        <ele>1801.38</ele>
        <time>2013-02-27T15:10:31+01:00</time>
      </trkpt>
      <trkpt lat="43.05197589355" lon="-5.40371789047">
        <ele>1804.34</ele>
        <time>2013-02-27T15:10:33+01:00</time>
      </trkpt>
      <trkpt lat="43.05193069606" lon="-5.40377894921">
        <ele>1807.64</ele>
        <time>2013-02-27T15:10:36+01:00</time>
      </trkpt>
      <trkpt lat="43.05191218273" lon="-5.4038086669">
        <ele>1809.81</ele>
        <time>2013-02-27T15:10:37+01:00</time>
      </trkpt>
      <trkpt lat="43.05188951075" lon="-5.40385697639">
        <ele>1812.59</ele>
        <time>2013-02-27T15:10:38+01:00</time>
      </trkpt>
      <trkpt lat="43.05188354713" lon="-5.40391174671">
        <ele>1815.12</ele>
        <time>2013-02-27T15:10:41+01:00</time>
      </trkpt>
      <trkpt lat="43.05188540247" lon="-5.40395758261">
        <ele>1817.52</ele>
        <time>2013-02-27T15:10:43+01:00</time>
      </trkpt>
      <trkpt lat="43.05187559259" lon="-5.40398947444">
        <ele>1819.49</ele>
        <time>2013-02-27T15:10:44+01:00</time>
      </trkpt>
      <trkpt lat="43.05186382409" lon="-5.40403754871">
        <ele>1822.1</ele>
        <time>2013-02-27T15:10:46+01:00</time>
      </trkpt>
      <trkpt lat="43.05185087905" lon="-5.40409071134">
        <ele>1824.52</ele>
        <time>2013-02-27T15:10:48+01:00</time>
      </trkpt>
      <trkpt lat="43.0518370997" lon="-5.40414310037">
        <ele>1826.62</ele>
        <time>2013-02-27T15:10:50+01:00</time>
      </trkpt>
      <trkpt lat="43.05182293321" lon="-5.40418054718">
        <ele>1828.62</ele>
        <time>2013-02-27T15:10:51+01:00</time>
      </trkpt>
      <trkpt lat="43.05179594534" lon="-5.40423249994">
        <ele>1831.91</ele>
        <time>2013-02-27T15:10:54+01:00</time>
      </trkpt>
      <trkpt lat="43.0517671453" lon="-5.40425685624">
        <ele>1833.9</ele>
        <time>2013-02-27T15:10:55+01:00</time>
      </trkpt>
      <trkpt lat="43.0517500454" lon="-5.40430244191">
        <ele>1836.71</ele>
        <time>2013-02-27T15:10:57+01:00</time>
      </trkpt>
      <trkpt lat="43.05175259761" lon="-5.40436206958">
        <ele>1836.59</ele>
        <time>2013-02-27T15:10:58+01:00</time>
      </trkpt>
      <trkpt lat="43.05173885924" lon="-5.40441299288">
        <ele>1838.3</ele>
        <time>2013-02-27T15:11:00+01:00</time>
      </trkpt>
      <trkpt lat="43.05172435934" lon="-5.40444237596">
        <ele>1839.92</ele>
        <time>2013-02-27T15:11:01+01:00</time>
      </trkpt>
      <trkpt lat="43.05171395095" lon="-5.4044675854">
        <ele>1841.54</ele>
        <time>2013-02-27T15:11:02+01:00</time>
      </trkpt>
      <trkpt lat="43.05169727601" lon="-5.40451768999">
        <ele>1845.35</ele>
        <time>2013-02-27T15:11:04+01:00</time>
      </trkpt>
      <trkpt lat="43.05168629203" lon="-5.40454699121">
        <ele>1847.27</ele>
        <time>2013-02-27T15:11:05+01:00</time>
      </trkpt>
      <trkpt lat="43.05166954043" lon="-5.40459835197">
        <ele>1849.2</ele>
        <time>2013-02-27T15:11:07+01:00</time>
      </trkpt>
      <trkpt lat="43.05165119366" lon="-5.40465282392">
        <ele>1851.65</ele>
        <time>2013-02-27T15:11:09+01:00</time>
      </trkpt>
      <trkpt lat="43.05163166898" lon="-5.4047061737">
        <ele>1853.71</ele>
        <time>2013-02-27T15:11:11+01:00</time>
      </trkpt>
      <trkpt lat="43.05160927305" lon="-5.40474998161">
        <ele>1855.66</ele>
        <time>2013-02-27T15:11:14+01:00</time>
      </trkpt>
      <trkpt lat="43.05159062588" lon="-5.40479977555">
        <ele>1857.94</ele>
        <time>2013-02-27T15:11:15+01:00</time>
      </trkpt>
      <trkpt lat="43.05158363747" lon="-5.40482760395">
        <ele>1859.84</ele>
        <time>2013-02-27T15:11:16+01:00</time>
      </trkpt>
      <trkpt lat="43.05156784517" lon="-5.40488501172">
        <ele>1861.95</ele>
        <time>2013-02-27T15:11:18+01:00</time>
      </trkpt>
      <trkpt lat="43.05155849592" lon="-5.40491670287">
        <ele>1863.64</ele>
        <time>2013-02-27T15:11:19+01:00</time>
      </trkpt>
      <trkpt lat="43.05154058764" lon="-5.40496950961">
        <ele>1865.33</ele>
        <time>2013-02-27T15:11:21+01:00</time>
      </trkpt>
      <trkpt lat="43.05151933403" lon="-5.40502314549">
        <ele>1867.21</ele>
        <time>2013-02-27T15:11:23+01:00</time>
      </trkpt>
      <trkpt lat="43.0515085334" lon="-5.40507746777">
        <ele>1868.29</ele>
        <time>2013-02-27T15:11:25+01:00</time>
      </trkpt>
      <trkpt lat="43.05150013594" lon="-5.40513050083">
        <ele>1869.81</ele>
        <time>2013-02-27T15:11:27+01:00</time>
      </trkpt>
      <trkpt lat="43.0514848877" lon="-5.4051828769">
        <ele>1871.33</ele>
        <time>2013-02-27T15:11:29+01:00</time>
      </trkpt>
      <trkpt lat="43.0514738578" lon="-5.40521768586">
        <ele>1872.49</ele>
        <time>2013-02-27T15:11:30+01:00</time>
      </trkpt>
      <trkpt lat="43.05146411726" lon="-5.40525420822">
        <ele>1873.89</ele>
        <time>2013-02-27T15:11:31+01:00</time>
      </trkpt>
      <trkpt lat="43.0514578626" lon="-5.40528969492">
        <ele>1875.16</ele>
        <time>2013-02-27T15:11:33+01:00</time>
      </trkpt>
      <trkpt lat="43.05145354072" lon="-5.40532462544">
        <ele>1876.47</ele>
        <time>2013-02-27T15:11:33+01:00</time>
      </trkpt>
      <trkpt lat="43.05144281136" lon="-5.4053831876">
        <ele>1877.66</ele>
        <time>2013-02-27T15:11:35+01:00</time>
      </trkpt>
      <trkpt lat="43.05142578348" lon="-5.40543151491">
        <ele>1878.95</ele>
        <time>2013-02-27T15:11:37+01:00</time>
      </trkpt>
      <trkpt lat="43.05140476878" lon="-5.40547949768">
        <ele>1880.18</ele>
        <time>2013-02-27T15:11:40+01:00</time>
      </trkpt>
      <trkpt lat="43.05138467556" lon="-5.4055294828">
        <ele>1881.39</ele>
        <time>2013-02-27T15:11:42+01:00</time>
      </trkpt>
      <trkpt lat="43.05136784284" lon="-5.40558193127">
        <ele>1882.09</ele>
        <time>2013-02-27T15:11:43+01:00</time>
      </trkpt>
      <trkpt lat="43.05135231685" lon="-5.40563409801">
        <ele>1883.18</ele>
        <time>2013-02-27T15:11:45+01:00</time>
      </trkpt>
      <trkpt lat="43.05134284336" lon="-5.40566451068">
        <ele>1884.08</ele>
        <time>2013-02-27T15:11:46+01:00</time>
      </trkpt>
      <trkpt lat="43.0513252244" lon="-5.40571741589">
        <ele>1885.04</ele>
        <time>2013-02-27T15:11:48+01:00</time>
      </trkpt>
      <trkpt lat="43.05130845052" lon="-5.40577309841">
        <ele>1885.98</ele>
        <time>2013-02-27T15:11:51+01:00</time>
      </trkpt>
      <trkpt lat="43.05129908052" lon="-5.40580044442">
        <ele>1886.03</ele>
        <time>2013-02-27T15:11:51+01:00</time>
      </trkpt>
      <trkpt lat="43.05128946627" lon="-5.40583262308">
        <ele>1886.57</ele>
        <time>2013-02-27T15:11:52+01:00</time>
      </trkpt>
      <trkpt lat="43.05128065939" lon="-5.40586292287">
        <ele>1886.99</ele>
        <time>2013-02-27T15:11:54+01:00</time>
      </trkpt>
      <trkpt lat="43.05126544564" lon="-5.40591649573">
        <ele>1888.17</ele>
        <time>2013-02-27T15:11:56+01:00</time>
      </trkpt>
      <trkpt lat="43.05124843592" lon="-5.40596491071">
        <ele>1888.1</ele>
        <time>2013-02-27T15:11:57+01:00</time>
      </trkpt>
      <trkpt lat="43.05122813605" lon="-5.40601140703">
        <ele>1890.03</ele>
        <time>2013-02-27T15:11:59+01:00</time>
      </trkpt>
      <trkpt lat="43.05120433212" lon="-5.40606848884">
        <ele>1891.04</ele>
        <time>2013-02-27T15:12:01+01:00</time>
      </trkpt>
      <trkpt lat="43.05118335647" lon="-5.40612142067">
        <ele>1892.03</ele>
        <time>2013-02-27T15:12:03+01:00</time>
      </trkpt>
      <trkpt lat="43.05117182926" lon="-5.40615175898">
        <ele>1892.94</ele>
        <time>2013-02-27T15:12:04+01:00</time>
      </trkpt>
      <trkpt lat="43.0511518927" lon="-5.40620261995">
        <ele>1893.97</ele>
        <time>2013-02-27T15:12:06+01:00</time>
      </trkpt>
      <trkpt lat="43.05113103976" lon="-5.40625560862">
        <ele>1894.96</ele>
        <time>2013-02-27T15:12:08+01:00</time>
      </trkpt>
      <trkpt lat="43.05111944939" lon="-5.40628549999">
        <ele>1895.82</ele>
        <time>2013-02-27T15:12:09+01:00</time>
      </trkpt>
      <trkpt lat="43.05110209119" lon="-5.40632986535">
        <ele>1896.7</ele>
        <time>2013-02-27T15:12:11+01:00</time>
      </trkpt>
      <trkpt lat="43.05108883139" lon="-5.4063645155">
        <ele>1897.55</ele>
        <time>2013-02-27T15:12:12+01:00</time>
      </trkpt>
      <trkpt lat="43.05107098468" lon="-5.40641361998">
        <ele>1898.02</ele>
        <time>2013-02-27T15:12:14+01:00</time>
      </trkpt>
      <trkpt lat="43.05105939318" lon="-5.40644365099">
        <ele>1898.68</ele>
        <time>2013-02-27T15:12:15+01:00</time>
      </trkpt>
      <trkpt lat="43.05103654585" lon="-5.40650081795">
        <ele>1899.19</ele>
        <time>2013-02-27T15:12:17+01:00</time>
      </trkpt>
      <trkpt lat="43.05102371909" lon="-5.40653077694">
        <ele>1899.71</ele>
        <time>2013-02-27T15:12:18+01:00</time>
      </trkpt>
      <trkpt lat="43.05101159202" lon="-5.40657719765">
        <ele>1900.12</ele>
        <time>2013-02-27T15:12:19+01:00</time>
      </trkpt>
      <trkpt lat="43.05100389172" lon="-5.40661955828">
        <ele>1900.58</ele>
        <time>2013-02-27T15:12:20+01:00</time>
      </trkpt>
      <trkpt lat="43.05099831222" lon="-5.40665825945">
        <ele>1901</ele>
        <time>2013-02-27T15:12:21+01:00</time>
      </trkpt>
      <trkpt lat="43.05100252602" lon="-5.40671155055">
        <ele>1901.48</ele>
        <time>2013-02-27T15:12:23+01:00</time>
      </trkpt>
      <trkpt lat="43.05102010935" lon="-5.40674388615">
        <ele>1902.02</ele>
        <time>2013-02-27T15:12:25+01:00</time>
      </trkpt>
      <trkpt lat="43.05104038749" lon="-5.40673452171">
        <ele>1902.35</ele>
        <time>2013-02-27T15:12:28+01:00</time>
      </trkpt>
      <trkpt lat="43.05103370232" lon="-5.40670740858">
        <ele>1902.27</ele>
        <time>2013-02-27T15:12:47+01:00</time>
      </trkpt>
      <trkpt lat="43.05105898418" lon="-5.40670514989">
        <ele>1902.55</ele>
        <time>2013-02-27T15:13:24+01:00</time>
      </trkpt>
      <trkpt lat="43.05108301194" lon="-5.40670024692">
        <ele>1903.06</ele>
        <time>2013-02-27T15:13:25+01:00</time>
      </trkpt>
      <trkpt lat="43.0511090194" lon="-5.40669491607">
        <ele>1903.24</ele>
        <time>2013-02-27T15:13:26+01:00</time>
      </trkpt>
      <trkpt lat="43.05110221801" lon="-5.40666890536">
        <ele>1903.59</ele>
        <time>2013-02-27T15:13:33+01:00</time>
      </trkpt>
      <trkpt lat="43.0511206055" lon="-5.40667288978">
        <ele>1904.07</ele>
        <time>2013-02-27T15:13:48+01:00</time>
      </trkpt>
      <trkpt lat="43.05114429898" lon="-5.4066830744">
        <ele>1904.19</ele>
        <time>2013-02-27T15:13:50+01:00</time>
      </trkpt>
      <trkpt lat="43.05120093842" lon="-5.40670482556">
        <ele>1903.84</ele>
        <time>2013-02-27T15:13:52+01:00</time>
      </trkpt>
      <trkpt lat="43.05124871082" lon="-5.40669703879">
        <ele>1903.5</ele>
        <time>2013-02-27T15:13:53+01:00</time>
      </trkpt>
      <trkpt lat="43.05128961362" lon="-5.40667241444">
        <ele>1903.18</ele>
        <time>2013-02-27T15:13:54+01:00</time>
      </trkpt>
      <trkpt lat="43.05136199956" lon="-5.40664636718">
        <ele>1902.38</ele>
        <time>2013-02-27T15:13:55+01:00</time>
      </trkpt>
      <trkpt lat="43.05144316233" lon="-5.40665242561">
        <ele>1901.58</ele>
        <time>2013-02-27T15:13:56+01:00</time>
      </trkpt>
      <trkpt lat="43.0515091766" lon="-5.40663892471">
        <ele>1900.99</ele>
        <time>2013-02-27T15:13:57+01:00</time>
      </trkpt>
      <trkpt lat="43.05157787528" lon="-5.4066206926">
        <ele>1900.26</ele>
        <time>2013-02-27T15:13:58+01:00</time>
      </trkpt>
      <trkpt lat="43.05165893846" lon="-5.40655797053">
        <ele>1899.34</ele>
        <time>2013-02-27T15:13:59+01:00</time>
      </trkpt>
      <trkpt lat="43.05174324568" lon="-5.40653952525">
        <ele>1898.65</ele>
        <time>2013-02-27T15:14:00+01:00</time>
      </trkpt>
      <trkpt lat="43.05181023054" lon="-5.40657950578">
        <ele>1897.63</ele>
        <time>2013-02-27T15:14:01+01:00</time>
      </trkpt>
      <trkpt lat="43.05186355926" lon="-5.40660170096">
        <ele>1896.74</ele>
        <time>2013-02-27T15:14:02+01:00</time>
      </trkpt>
      <trkpt lat="43.05194213149" lon="-5.40657040962">
        <ele>1895.23</ele>
        <time>2013-02-27T15:14:03+01:00</time>
      </trkpt>
      <trkpt lat="43.05203191344" lon="-5.406526469">
        <ele>1893.73</ele>
        <time>2013-02-27T15:14:04+01:00</time>
      </trkpt>
      <trkpt lat="43.05213047322" lon="-5.40648443181">
        <ele>1891.97</ele>
        <time>2013-02-27T15:14:05+01:00</time>
      </trkpt>
      <trkpt lat="43.05224918498" lon="-5.40648648937">
        <ele>1890.35</ele>
        <time>2013-02-27T15:14:06+01:00</time>
      </trkpt>
      <trkpt lat="43.05234543371" lon="-5.40648948858">
        <ele>1889</ele>
        <time>2013-02-27T15:14:07+01:00</time>
      </trkpt>
      <trkpt lat="43.05244712786" lon="-5.40651141199">
        <ele>1887.45</ele>
        <time>2013-02-27T15:14:08+01:00</time>
      </trkpt>
      <trkpt lat="43.05254521722" lon="-5.40650325734">
        <ele>1886.05</ele>
        <time>2013-02-27T15:14:09+01:00</time>
      </trkpt>
      <trkpt lat="43.05263095626" lon="-5.40644197809">
        <ele>1884.69</ele>
        <time>2013-02-27T15:14:10+01:00</time>
      </trkpt>
      <trkpt lat="43.0527176076" lon="-5.40640416657">
        <ele>1883.46</ele>
        <time>2013-02-27T15:14:11+01:00</time>
      </trkpt>
      <trkpt lat="43.05279684416" lon="-5.40639299258">
        <ele>1882.23</ele>
        <time>2013-02-27T15:14:12+01:00</time>
      </trkpt>
      <trkpt lat="43.05287635765" lon="-5.40638214379">
        <ele>1880.87</ele>
        <time>2013-02-27T15:14:13+01:00</time>
      </trkpt>
      <trkpt lat="43.05295736986" lon="-5.40634884726">
        <ele>1879.25</ele>
        <time>2013-02-27T15:14:14+01:00</time>
      </trkpt>
      <trkpt lat="43.05303841879" lon="-5.40629112744">
        <ele>1877.8</ele>
        <time>2013-02-27T15:14:15+01:00</time>
      </trkpt>
      <trkpt lat="43.05311999944" lon="-5.40624016861">
        <ele>1876.55</ele>
        <time>2013-02-27T15:14:16+01:00</time>
      </trkpt>
      <trkpt lat="43.05320076574" lon="-5.40618686841">
        <ele>1875.23</ele>
        <time>2013-02-27T15:14:17+01:00</time>
      </trkpt>
      <trkpt lat="43.05327733929" lon="-5.40614087777">
        <ele>1874.01</ele>
        <time>2013-02-27T15:14:18+01:00</time>
      </trkpt>
      <trkpt lat="43.05336047149" lon="-5.40610187938">
        <ele>1872.66</ele>
        <time>2013-02-27T15:14:19+01:00</time>
      </trkpt>
      <trkpt lat="43.05342920985" lon="-5.40604796472">
        <ele>1871.31</ele>
        <time>2013-02-27T15:14:20+01:00</time>
      </trkpt>
      <trkpt lat="43.05349447202" lon="-5.40598818309">
        <ele>1870</ele>
        <time>2013-02-27T15:14:21+01:00</time>
      </trkpt>
      <trkpt lat="43.05356772238" lon="-5.40594607054">
        <ele>1868.52</ele>
        <time>2013-02-27T15:14:22+01:00</time>
      </trkpt>
      <trkpt lat="43.05365244591" lon="-5.4059162861">
        <ele>1866.94</ele>
        <time>2013-02-27T15:14:23+01:00</time>
      </trkpt>
      <trkpt lat="43.05373330019" lon="-5.40585084571">
        <ele>1865.35</ele>
        <time>2013-02-27T15:14:24+01:00</time>
      </trkpt>
      <trkpt lat="43.05380218794" lon="-5.4057600384">
        <ele>1863.66</ele>
        <time>2013-02-27T15:14:25+01:00</time>
      </trkpt>
      <trkpt lat="43.05386688404" lon="-5.4056802846">
        <ele>1862.21</ele>
        <time>2013-02-27T15:14:26+01:00</time>
      </trkpt>
      <trkpt lat="43.05397441692" lon="-5.40562069871">
        <ele>1860.53</ele>
        <time>2013-02-27T15:14:27+01:00</time>
      </trkpt>
      <trkpt lat="43.0540619652" lon="-5.40553598375">
        <ele>1858.85</ele>
        <time>2013-02-27T15:14:28+01:00</time>
      </trkpt>
      <trkpt lat="43.05413091886" lon="-5.40543072642">
        <ele>1857.21</ele>
        <time>2013-02-27T15:14:29+01:00</time>
      </trkpt>
      <trkpt lat="43.05421000756" lon="-5.40533669179">
        <ele>1855.48</ele>
        <time>2013-02-27T15:14:30+01:00</time>
      </trkpt>
      <trkpt lat="43.05430444281" lon="-5.40526278958">
        <ele>1853.62</ele>
        <time>2013-02-27T15:14:31+01:00</time>
      </trkpt>
      <trkpt lat="43.05438766385" lon="-5.40517709562">
        <ele>1851.79</ele>
        <time>2013-02-27T15:14:32+01:00</time>
      </trkpt>
      <trkpt lat="43.05442404857" lon="-5.40506306512">
        <ele>1850.12</ele>
        <time>2013-02-27T15:14:33+01:00</time>
      </trkpt>
      <trkpt lat="43.05444858312" lon="-5.40494748339">
        <ele>1848.48</ele>
        <time>2013-02-27T15:14:34+01:00</time>
      </trkpt>
      <trkpt lat="43.05449520502" lon="-5.40483846045">
        <ele>1846.64</ele>
        <time>2013-02-27T15:14:35+01:00</time>
      </trkpt>
      <trkpt lat="43.05454479002" lon="-5.40473197931">
        <ele>1844.73</ele>
        <time>2013-02-27T15:14:36+01:00</time>
      </trkpt>
      <trkpt lat="43.05457313403" lon="-5.40460862813">
        <ele>1842.81</ele>
        <time>2013-02-27T15:14:37+01:00</time>
      </trkpt>
      <trkpt lat="43.054598675" lon="-5.40446782358">
        <ele>1840.89</ele>
        <time>2013-02-27T15:14:38+01:00</time>
      </trkpt>
      <trkpt lat="43.05463981519" lon="-5.40432957361">
        <ele>1838.94</ele>
        <time>2013-02-27T15:14:39+01:00</time>
      </trkpt>
      <trkpt lat="43.0546977536" lon="-5.40420787352">
        <ele>1837.01</ele>
        <time>2013-02-27T15:14:40+01:00</time>
      </trkpt>
      <trkpt lat="43.05475782446" lon="-5.40408684774">
        <ele>1835.13</ele>
        <time>2013-02-27T15:14:41+01:00</time>
      </trkpt>
      <trkpt lat="43.05482301197" lon="-5.40398708722">
        <ele>1833.35</ele>
        <time>2013-02-27T15:14:42+01:00</time>
      </trkpt>
      <trkpt lat="43.0548941049" lon="-5.40390665289">
        <ele>1831.75</ele>
        <time>2013-02-27T15:14:43+01:00</time>
      </trkpt>
      <trkpt lat="43.05494753057" lon="-5.4038512234">
        <ele>1830.31</ele>
        <time>2013-02-27T15:14:44+01:00</time>
      </trkpt>
      <trkpt lat="43.05497090463" lon="-5.40381529082">
        <ele>1829.09</ele>
        <time>2013-02-27T15:14:45+01:00</time>
      </trkpt>
      <trkpt lat="43.05499941872" lon="-5.40380060831">
        <ele>1827.92</ele>
        <time>2013-02-27T15:14:47+01:00</time>
      </trkpt>
      <trkpt lat="43.05501217923" lon="-5.40381955387">
        <ele>1826.85</ele>
        <time>2013-02-27T15:14:52+01:00</time>
      </trkpt>
      <trkpt lat="43.05501828526" lon="-5.40378592617">
        <ele>1825.41</ele>
        <time>2013-02-27T15:14:55+01:00</time>
      </trkpt>
      <trkpt lat="43.0550324146" lon="-5.40375304909">
        <ele>1824.54</ele>
        <time>2013-02-27T15:14:58+01:00</time>
      </trkpt>
      <trkpt lat="43.05505777221" lon="-5.40373893785">
        <ele>1823.46</ele>
        <time>2013-02-27T15:15:02+01:00</time>
      </trkpt>
      <trkpt lat="43.05507890227" lon="-5.40373225204">
        <ele>1822.43</ele>
        <time>2013-02-27T15:15:04+01:00</time>
      </trkpt>
      <trkpt lat="43.05510470349" lon="-5.40373074773">
        <ele>1821.39</ele>
        <time>2013-02-27T15:15:06+01:00</time>
      </trkpt>
      <trkpt lat="43.05512931125" lon="-5.40371181346">
        <ele>1820.6</ele>
        <time>2013-02-27T15:15:11+01:00</time>
      </trkpt>
      <trkpt lat="43.0551499901" lon="-5.40367265409">
        <ele>1819.7</ele>
        <time>2013-02-27T15:15:13+01:00</time>
      </trkpt>
      <trkpt lat="43.0551677489" lon="-5.40364422109">
        <ele>1818.91</ele>
        <time>2013-02-27T15:15:14+01:00</time>
      </trkpt>
      <trkpt lat="43.05518796916" lon="-5.40360841176">
        <ele>1818.1</ele>
        <time>2013-02-27T15:15:15+01:00</time>
      </trkpt>
      <trkpt lat="43.05520949169" lon="-5.40357156305">
        <ele>1817.44</ele>
        <time>2013-02-27T15:15:16+01:00</time>
      </trkpt>
      <trkpt lat="43.05523103128" lon="-5.40353287535">
        <ele>1816.83</ele>
        <time>2013-02-27T15:15:17+01:00</time>
      </trkpt>
      <trkpt lat="43.05525189365" lon="-5.40349234414">
        <ele>1816.26</ele>
        <time>2013-02-27T15:15:18+01:00</time>
      </trkpt>
      <trkpt lat="43.05526853925" lon="-5.4034520812">
        <ele>1815.72</ele>
        <time>2013-02-27T15:15:19+01:00</time>
      </trkpt>
      <trkpt lat="43.05527940714" lon="-5.40341863442">
        <ele>1815.27</ele>
        <time>2013-02-27T15:15:20+01:00</time>
      </trkpt>
      <trkpt lat="43.05529030076" lon="-5.40337742031">
        <ele>1814.82</ele>
        <time>2013-02-27T15:15:22+01:00</time>
      </trkpt>
      <trkpt lat="43.05529546372" lon="-5.40334538716">
        <ele>1814.37</ele>
        <time>2013-02-27T15:15:24+01:00</time>
      </trkpt>
      <trkpt lat="43.05530507569" lon="-5.40332108209">
        <ele>1813.9</ele>
        <time>2013-02-27T15:15:26+01:00</time>
      </trkpt>
      <trkpt lat="43.05532922831" lon="-5.40329252969">
        <ele>1813.37</ele>
        <time>2013-02-27T15:15:28+01:00</time>
      </trkpt>
      <trkpt lat="43.05535846147" lon="-5.40327262566">
        <ele>1812.75</ele>
        <time>2013-02-27T15:15:30+01:00</time>
      </trkpt>
      <trkpt lat="43.05533638365" lon="-5.4032430285">
        <ele>1811.78</ele>
        <time>2013-02-27T15:15:33+01:00</time>
      </trkpt>
      <trkpt lat="43.05530900167" lon="-5.40321726072">
        <ele>1811.16</ele>
        <time>2013-02-27T15:15:35+01:00</time>
      </trkpt>
      <trkpt lat="43.05528729791" lon="-5.40319266115">
        <ele>1810.47</ele>
        <time>2013-02-27T15:15:37+01:00</time>
      </trkpt>
      <trkpt lat="43.05528885802" lon="-5.40316044976">
        <ele>1809.84</ele>
        <time>2013-02-27T15:15:40+01:00</time>
      </trkpt>
      <trkpt lat="43.05530043532" lon="-5.40312933115">
        <ele>1808.58</ele>
        <time>2013-02-27T15:15:43+01:00</time>
      </trkpt>
      <trkpt lat="43.05530824931" lon="-5.40309836406">
        <ele>1808.19</ele>
        <time>2013-02-27T15:15:51+01:00</time>
      </trkpt>
      <trkpt lat="43.05528728155" lon="-5.40308124063">
        <ele>1807.78</ele>
        <time>2013-02-27T15:15:59+01:00</time>
      </trkpt>
      <trkpt lat="43.05526189854" lon="-5.40306963521">
        <ele>1807.09</ele>
        <time>2013-02-27T15:16:01+01:00</time>
      </trkpt>
      <trkpt lat="43.05524566389" lon="-5.40301663199">
        <ele>1806.09</ele>
        <time>2013-02-27T15:16:03+01:00</time>
      </trkpt>
      <trkpt lat="43.05524792544" lon="-5.40297693234">
        <ele>1805.51</ele>
        <time>2013-02-27T15:16:04+01:00</time>
      </trkpt>
      <trkpt lat="43.05525705317" lon="-5.40292800184">
        <ele>1804.81</ele>
        <time>2013-02-27T15:16:05+01:00</time>
      </trkpt>
      <trkpt lat="43.05529036619" lon="-5.40284027883">
        <ele>1804</ele>
        <time>2013-02-27T15:16:06+01:00</time>
      </trkpt>
      <trkpt lat="43.05530999191" lon="-5.40276949721">
        <ele>1803.16</ele>
        <time>2013-02-27T15:16:07+01:00</time>
      </trkpt>
      <trkpt lat="43.05533681102" lon="-5.40270071147">
        <ele>1802.34</ele>
        <time>2013-02-27T15:16:08+01:00</time>
      </trkpt>
      <trkpt lat="43.05536789501" lon="-5.40262827803">
        <ele>1801.46</ele>
        <time>2013-02-27T15:16:09+01:00</time>
      </trkpt>
      <trkpt lat="43.05539623713" lon="-5.40255721488">
        <ele>1800.69</ele>
        <time>2013-02-27T15:16:10+01:00</time>
      </trkpt>
      <trkpt lat="43.05542713395" lon="-5.40248334671">
        <ele>1799.91</ele>
        <time>2013-02-27T15:16:11+01:00</time>
      </trkpt>
      <trkpt lat="43.05545557051" lon="-5.40242089078">
        <ele>1799.12</ele>
        <time>2013-02-27T15:16:12+01:00</time>
      </trkpt>
      <trkpt lat="43.05548081899" lon="-5.40236734611">
        <ele>1798.36</ele>
        <time>2013-02-27T15:16:13+01:00</time>
      </trkpt>
      <trkpt lat="43.05550265575" lon="-5.40232382046">
        <ele>1797.64</ele>
        <time>2013-02-27T15:16:14+01:00</time>
      </trkpt>
      <trkpt lat="43.05551762601" lon="-5.40229314034">
        <ele>1796.96</ele>
        <time>2013-02-27T15:16:15+01:00</time>
      </trkpt>
      <trkpt lat="43.05553424819" lon="-5.40226578157">
        <ele>1796.4</ele>
        <time>2013-02-27T15:16:17+01:00</time>
      </trkpt>
      <trkpt lat="43.05552576411" lon="-5.402239283">
        <ele>1795.85</ele>
        <time>2013-02-27T15:16:52+01:00</time>
      </trkpt>
      <trkpt lat="43.05554486882" lon="-5.4021934831">
        <ele>1794.97</ele>
        <time>2013-02-27T15:16:54+01:00</time>
      </trkpt>
      <trkpt lat="43.05555839661" lon="-5.40216461236">
        <ele>1794.24</ele>
        <time>2013-02-27T15:16:55+01:00</time>
      </trkpt>
      <trkpt lat="43.05558396471" lon="-5.40210175276">
        <ele>1793.29</ele>
        <time>2013-02-27T15:16:56+01:00</time>
      </trkpt>
      <trkpt lat="43.05560183525" lon="-5.40202772426">
        <ele>1792.05</ele>
        <time>2013-02-27T15:16:57+01:00</time>
      </trkpt>
      <trkpt lat="43.05562436752" lon="-5.40195521917">
        <ele>1790.91</ele>
        <time>2013-02-27T15:16:58+01:00</time>
      </trkpt>
      <trkpt lat="43.05565143956" lon="-5.40189599248">
        <ele>1789.72</ele>
        <time>2013-02-27T15:16:59+01:00</time>
      </trkpt>
      <trkpt lat="43.05567100696" lon="-5.4018420918">
        <ele>1788.57</ele>
        <time>2013-02-27T15:17:00+01:00</time>
      </trkpt>
      <trkpt lat="43.05568313985" lon="-5.40179559228">
        <ele>1787.31</ele>
        <time>2013-02-27T15:17:01+01:00</time>
      </trkpt>
      <trkpt lat="43.0556004372" lon="-5.40171844346">
        <ele>1784.62</ele>
        <time>2013-02-27T15:17:02+01:00</time>
      </trkpt>
      <trkpt lat="43.05553136461" lon="-5.40162646531">
        <ele>1782.28</ele>
        <time>2013-02-27T15:17:03+01:00</time>
      </trkpt>
      <trkpt lat="43.05550239199" lon="-5.40148691213">
        <ele>1779.94</ele>
        <time>2013-02-27T15:17:04+01:00</time>
      </trkpt>
      <trkpt lat="43.05547999423" lon="-5.40134056466">
        <ele>1777.87</ele>
        <time>2013-02-27T15:17:06+01:00</time>
      </trkpt>
      <trkpt lat="43.05546435758" lon="-5.40119170211">
        <ele>1775.94</ele>
        <time>2013-02-27T15:17:06+01:00</time>
      </trkpt>
      <trkpt lat="43.05545597364" lon="-5.40101382137">
        <ele>1773.93</ele>
        <time>2013-02-27T15:17:07+01:00</time>
      </trkpt>
      <trkpt lat="43.055434126" lon="-5.40087163747">
        <ele>1772.02</ele>
        <time>2013-02-27T15:17:08+01:00</time>
      </trkpt>
      <trkpt lat="43.05542293037" lon="-5.40076706619">
        <ele>1770.27</ele>
        <time>2013-02-27T15:17:09+01:00</time>
      </trkpt>
      <trkpt lat="43.05539970296" lon="-5.40064188105">
        <ele>1768.57</ele>
        <time>2013-02-27T15:17:10+01:00</time>
      </trkpt>
      <trkpt lat="43.0553693418" lon="-5.40054060224">
        <ele>1767.06</ele>
        <time>2013-02-27T15:17:11+01:00</time>
      </trkpt>
      <trkpt lat="43.05534228128" lon="-5.40044551284">
        <ele>1765.44</ele>
        <time>2013-02-27T15:17:12+01:00</time>
      </trkpt>
      <trkpt lat="43.05533871319" lon="-5.40032410163">
        <ele>1764.27</ele>
        <time>2013-02-27T15:17:14+01:00</time>
      </trkpt>
      <trkpt lat="43.05533297044" lon="-5.40019400625">
        <ele>1762.96</ele>
        <time>2013-02-27T15:17:15+01:00</time>
      </trkpt>
      <trkpt lat="43.05533034571" lon="-5.40011127583">
        <ele>1761.79</ele>
        <time>2013-02-27T15:17:15+01:00</time>
      </trkpt>
      <trkpt lat="43.05532356415" lon="-5.40002435498">
        <ele>1760.53</ele>
        <time>2013-02-27T15:17:17+01:00</time>
      </trkpt>
      <trkpt lat="43.05526747868" lon="-5.3999503256">
        <ele>1759.85</ele>
        <time>2013-02-27T15:17:18+01:00</time>
      </trkpt>
      <trkpt lat="43.05522628791" lon="-5.39989213499">
        <ele>1759.01</ele>
        <time>2013-02-27T15:17:20+01:00</time>
      </trkpt>
      <trkpt lat="43.05520961394" lon="-5.39985627887">
        <ele>1758.27</ele>
        <time>2013-02-27T15:17:20+01:00</time>
      </trkpt>
      <trkpt lat="43.05515775154" lon="-5.39980385643">
        <ele>1758.21</ele>
        <time>2013-02-27T15:17:22+01:00</time>
      </trkpt>
      <trkpt lat="43.05512679311" lon="-5.39974261114">
        <ele>1757.73</ele>
        <time>2013-02-27T15:17:22+01:00</time>
      </trkpt>
      <trkpt lat="43.05507926188" lon="-5.39965673544">
        <ele>1757.24</ele>
        <time>2013-02-27T15:17:23+01:00</time>
      </trkpt>
      <trkpt lat="43.0550712979" lon="-5.399543269">
        <ele>1756.19</ele>
        <time>2013-02-27T15:17:24+01:00</time>
      </trkpt>
      <trkpt lat="43.0550224647" lon="-5.39942334563">
        <ele>1755.91</ele>
        <time>2013-02-27T15:17:26+01:00</time>
      </trkpt>
      <trkpt lat="43.05500086281" lon="-5.39930266733">
        <ele>1755.11</ele>
        <time>2013-02-27T15:17:27+01:00</time>
      </trkpt>
      <trkpt lat="43.05496609936" lon="-5.39920725196">
        <ele>1754.39</ele>
        <time>2013-02-27T15:17:28+01:00</time>
      </trkpt>
      <trkpt lat="43.0549242109" lon="-5.39912091249">
        <ele>1753.66</ele>
        <time>2013-02-27T15:17:28+01:00</time>
      </trkpt>
      <trkpt lat="43.0548976429" lon="-5.3990221939">
        <ele>1752.56</ele>
        <time>2013-02-27T15:17:30+01:00</time>
      </trkpt>
      <trkpt lat="43.05485979992" lon="-5.39893913935">
        <ele>1751.67</ele>
        <time>2013-02-27T15:17:32+01:00</time>
      </trkpt>
      <trkpt lat="43.05485303166" lon="-5.39892196584">
        <ele>1750.86</ele>
        <time>2013-02-27T15:17:32+01:00</time>
      </trkpt>
      <trkpt lat="43.05481178282" lon="-5.39880457764">
        <ele>1749.63</ele>
        <time>2013-02-27T15:17:34+01:00</time>
      </trkpt>
      <trkpt lat="43.05477560996" lon="-5.39871579252">
        <ele>1748.43</ele>
        <time>2013-02-27T15:17:35+01:00</time>
      </trkpt>
      <trkpt lat="43.05476014288" lon="-5.39860400945">
        <ele>1746.83</ele>
        <time>2013-02-27T15:17:35+01:00</time>
      </trkpt>
      <trkpt lat="43.05475681921" lon="-5.39858323386">
        <ele>1745.62</ele>
        <time>2013-02-27T15:17:36+01:00</time>
      </trkpt>
      <trkpt lat="43.05475376085" lon="-5.39855793928">
        <ele>1744.18</ele>
        <time>2013-02-27T15:17:37+01:00</time>
      </trkpt>
      <trkpt lat="43.05476212645" lon="-5.39845630931">
        <ele>1743.44</ele>
        <time>2013-02-27T15:17:38+01:00</time>
      </trkpt>
      <trkpt lat="43.05476289177" lon="-5.39844286061">
        <ele>1742.02</ele>
        <time>2013-02-27T15:17:40+01:00</time>
      </trkpt>
      <trkpt lat="43.05476207181" lon="-5.39842821706">
        <ele>1740.45</ele>
        <time>2013-02-27T15:17:45+01:00</time>
      </trkpt>
      <trkpt lat="43.05476172779" lon="-5.39840906995">
        <ele>1738.7</ele>
        <time>2013-02-27T15:17:47+01:00</time>
      </trkpt>
      <trkpt lat="43.05474930421" lon="-5.39833774393">
        <ele>1737.44</ele>
        <time>2013-02-27T15:17:48+01:00</time>
      </trkpt>
      <trkpt lat="43.05474518267" lon="-5.39833061971">
        <ele>1735.93</ele>
        <time>2013-02-27T15:17:49+01:00</time>
      </trkpt>
      <trkpt lat="43.05470848891" lon="-5.39829969228">
        <ele>1734.94</ele>
        <time>2013-02-27T15:17:51+01:00</time>
      </trkpt>
      <trkpt lat="43.0547026109" lon="-5.39829635646">
        <ele>1733.8</ele>
        <time>2013-02-27T15:17:52+01:00</time>
      </trkpt>
      <trkpt lat="43.05463715519" lon="-5.39827998286">
        <ele>1732.73</ele>
        <time>2013-02-27T15:17:53+01:00</time>
      </trkpt>
      <trkpt lat="43.05459925362" lon="-5.39827784808">
        <ele>1731.71</ele>
        <time>2013-02-27T15:17:54+01:00</time>
      </trkpt>
      <trkpt lat="43.0545666617" lon="-5.39827205671">
        <ele>1730.62</ele>
        <time>2013-02-27T15:17:55+01:00</time>
      </trkpt>
      <trkpt lat="43.0545210166" lon="-5.39825527456">
        <ele>1729.46</ele>
        <time>2013-02-27T15:17:56+01:00</time>
      </trkpt>
      <trkpt lat="43.0544752419" lon="-5.39823394733">
        <ele>1728.27</ele>
        <time>2013-02-27T15:17:57+01:00</time>
      </trkpt>
      <trkpt lat="43.05440174747" lon="-5.398183682">
        <ele>1726.97</ele>
        <time>2013-02-27T15:17:58+01:00</time>
      </trkpt>
      <trkpt lat="43.05431110854" lon="-5.39812514801">
        <ele>1725.82</ele>
        <time>2013-02-27T15:17:59+01:00</time>
      </trkpt>
      <trkpt lat="43.05422082933" lon="-5.39805711482">
        <ele>1724.59</ele>
        <time>2013-02-27T15:18:00+01:00</time>
      </trkpt>
      <trkpt lat="43.05412733636" lon="-5.39799784358">
        <ele>1723.38</ele>
        <time>2013-02-27T15:18:01+01:00</time>
      </trkpt>
      <trkpt lat="43.05405717288" lon="-5.39792751717">
        <ele>1722.05</ele>
        <time>2013-02-27T15:18:02+01:00</time>
      </trkpt>
      <trkpt lat="43.05399512864" lon="-5.39784518967">
        <ele>1720.72</ele>
        <time>2013-02-27T15:18:03+01:00</time>
      </trkpt>
      <trkpt lat="43.05392475055" lon="-5.39778708287">
        <ele>1719.61</ele>
        <time>2013-02-27T15:18:04+01:00</time>
      </trkpt>
      <trkpt lat="43.05385552201" lon="-5.39775842949">
        <ele>1718.64</ele>
        <time>2013-02-27T15:18:05+01:00</time>
      </trkpt>
      <trkpt lat="43.05388660345" lon="-5.39776676815">
        <ele>1716.75</ele>
        <time>2013-02-27T15:18:14+01:00</time>
      </trkpt>
      <trkpt lat="43.05390965046" lon="-5.39777381256">
        <ele>1715.44</ele>
        <time>2013-02-27T15:18:16+01:00</time>
      </trkpt>
      <trkpt lat="43.05393223066" lon="-5.39779956249">
        <ele>1714.23</ele>
        <time>2013-02-27T15:18:19+01:00</time>
      </trkpt>
      <trkpt lat="43.05394254697" lon="-5.39783032757">
        <ele>1712.76</ele>
        <time>2013-02-27T15:18:54+01:00</time>
      </trkpt>
      <trkpt lat="43.05394809711" lon="-5.39786155924">
        <ele>1711.48</ele>
        <time>2013-02-27T15:18:58+01:00</time>
      </trkpt>
      <trkpt lat="43.0539622829" lon="-5.39789798043">
        <ele>1710.3</ele>
        <time>2013-02-27T15:19:00+01:00</time>
      </trkpt>
      <trkpt lat="43.05397470896" lon="-5.39792866694">
        <ele>1708.99</ele>
        <time>2013-02-27T15:19:03+01:00</time>
      </trkpt>
      <trkpt lat="43.0539608327" lon="-5.3979785913">
        <ele>1707.37</ele>
        <time>2013-02-27T15:19:07+01:00</time>
      </trkpt>
      <trkpt lat="43.05395077912" lon="-5.39800075746">
        <ele>1705.93</ele>
        <time>2013-02-27T15:19:07+01:00</time>
      </trkpt>
      <trkpt lat="43.05392607304" lon="-5.39805107923">
        <ele>1704.86</ele>
        <time>2013-02-27T15:19:08+01:00</time>
      </trkpt>
      <trkpt lat="43.05390731845" lon="-5.3980927266">
        <ele>1703.55</ele>
        <time>2013-02-27T15:19:09+01:00</time>
      </trkpt>
      <trkpt lat="43.0538906594" lon="-5.39812640294">
        <ele>1702.45</ele>
        <time>2013-02-27T15:19:10+01:00</time>
      </trkpt>
      <trkpt lat="43.05386442823" lon="-5.39818195442">
        <ele>1701.37</ele>
        <time>2013-02-27T15:19:12+01:00</time>
      </trkpt>
      <trkpt lat="43.0538492243" lon="-5.39821371772">
        <ele>1700.43</ele>
        <time>2013-02-27T15:19:13+01:00</time>
      </trkpt>
      <trkpt lat="43.05383426153" lon="-5.39824719202">
        <ele>1699.53</ele>
        <time>2013-02-27T15:19:14+01:00</time>
      </trkpt>
      <trkpt lat="43.05382196798" lon="-5.39827611789">
        <ele>1698.59</ele>
        <time>2013-02-27T15:19:15+01:00</time>
      </trkpt>
      <trkpt lat="43.05380878043" lon="-5.39830409834">
        <ele>1697.77</ele>
        <time>2013-02-27T15:19:16+01:00</time>
      </trkpt>
      <trkpt lat="43.05379625228" lon="-5.39833021333">
        <ele>1697.04</ele>
        <time>2013-02-27T15:19:17+01:00</time>
      </trkpt>
      <trkpt lat="43.05378245734" lon="-5.39836271851">
        <ele>1696.31</ele>
        <time>2013-02-27T15:19:18+01:00</time>
      </trkpt>
      <trkpt lat="43.05377089383" lon="-5.39839116503">
        <ele>1695.72</ele>
        <time>2013-02-27T15:19:19+01:00</time>
      </trkpt>
      <trkpt lat="43.05375622023" lon="-5.39843486552">
        <ele>1695.1</ele>
        <time>2013-02-27T15:19:21+01:00</time>
      </trkpt>
      <trkpt lat="43.05374570827" lon="-5.39846727611">
        <ele>1694.47</ele>
        <time>2013-02-27T15:19:22+01:00</time>
      </trkpt>
      <trkpt lat="43.05373619627" lon="-5.39849689228">
        <ele>1693.9</ele>
        <time>2013-02-27T15:19:23+01:00</time>
      </trkpt>
      <trkpt lat="43.0537218216" lon="-5.39854291454">
        <ele>1693.45</ele>
        <time>2013-02-27T15:19:25+01:00</time>
      </trkpt>
      <trkpt lat="43.05370987431" lon="-5.3985787673">
        <ele>1693.02</ele>
        <time>2013-02-27T15:19:26+01:00</time>
      </trkpt>
      <trkpt lat="43.05369637359" lon="-5.39862473544">
        <ele>1692.75</ele>
        <time>2013-02-27T15:19:28+01:00</time>
      </trkpt>
      <trkpt lat="43.05368156997" lon="-5.39867811846">
        <ele>1692.41</ele>
        <time>2013-02-27T15:19:30+01:00</time>
      </trkpt>
      <trkpt lat="43.05367160198" lon="-5.39871199618">
        <ele>1692.09</ele>
        <time>2013-02-27T15:19:31+01:00</time>
      </trkpt>
      <trkpt lat="43.05365525856" lon="-5.39876155295">
        <ele>1691.91</ele>
        <time>2013-02-27T15:19:33+01:00</time>
      </trkpt>
      <trkpt lat="43.05363686893" lon="-5.39881458082">
        <ele>1691.89</ele>
        <time>2013-02-27T15:19:35+01:00</time>
      </trkpt>
      <trkpt lat="43.05362467498" lon="-5.3988464429">
        <ele>1691.72</ele>
        <time>2013-02-27T15:19:36+01:00</time>
      </trkpt>
      <trkpt lat="43.0536041659" lon="-5.398902646">
        <ele>1691.71</ele>
        <time>2013-02-27T15:19:38+01:00</time>
      </trkpt>
      <trkpt lat="43.05358705428" lon="-5.39895129478">
        <ele>1691.55</ele>
        <time>2013-02-27T15:19:40+01:00</time>
      </trkpt>
      <trkpt lat="43.05357001975" lon="-5.39900568332">
        <ele>1691.46</ele>
        <time>2013-02-27T15:19:42+01:00</time>
      </trkpt>
      <trkpt lat="43.05355876738" lon="-5.39903882336">
        <ele>1691.43</ele>
        <time>2013-02-27T15:19:43+01:00</time>
      </trkpt>
      <trkpt lat="43.05354823926" lon="-5.39907192849">
        <ele>1691.38</ele>
        <time>2013-02-27T15:19:44+01:00</time>
      </trkpt>
      <trkpt lat="43.05353100519" lon="-5.39912578188">
        <ele>1691.31</ele>
        <time>2013-02-27T15:19:46+01:00</time>
      </trkpt>
      <trkpt lat="43.05352015389" lon="-5.3991579474">
        <ele>1691.29</ele>
        <time>2013-02-27T15:19:47+01:00</time>
      </trkpt>
      <trkpt lat="43.05351131034" lon="-5.39918481233">
        <ele>1691.34</ele>
        <time>2013-02-27T15:19:48+01:00</time>
      </trkpt>
      <trkpt lat="43.05350045668" lon="-5.39921688275">
        <ele>1691.55</ele>
        <time>2013-02-27T15:19:49+01:00</time>
      </trkpt>
      <trkpt lat="43.05349060709" lon="-5.39924481211">
        <ele>1691.72</ele>
        <time>2013-02-27T15:19:50+01:00</time>
      </trkpt>
      <trkpt lat="43.05348069113" lon="-5.39927534252">
        <ele>1691.93</ele>
        <time>2013-02-27T15:19:51+01:00</time>
      </trkpt>
      <trkpt lat="43.05346978959" lon="-5.39930438149">
        <ele>1692.09</ele>
        <time>2013-02-27T15:19:52+01:00</time>
      </trkpt>
      <trkpt lat="43.05345470115" lon="-5.39935250113">
        <ele>1692.1</ele>
        <time>2013-02-27T15:19:54+01:00</time>
      </trkpt>
      <trkpt lat="43.0534418934" lon="-5.39938653317">
        <ele>1692.37</ele>
        <time>2013-02-27T15:19:55+01:00</time>
      </trkpt>
      <trkpt lat="43.05343001117" lon="-5.39941633951">
        <ele>1692.76</ele>
        <time>2013-02-27T15:19:56+01:00</time>
      </trkpt>
      <trkpt lat="43.05341288258" lon="-5.39946581962">
        <ele>1693.02</ele>
        <time>2013-02-27T15:19:58+01:00</time>
      </trkpt>
      <trkpt lat="43.0533969587" lon="-5.39950463808">
        <ele>1693.23</ele>
        <time>2013-02-27T15:20:00+01:00</time>
      </trkpt>
      <trkpt lat="43.05338665843" lon="-5.39953249671">
        <ele>1693.61</ele>
        <time>2013-02-27T15:20:00+01:00</time>
      </trkpt>
      <trkpt lat="43.05337438317" lon="-5.39956592226">
        <ele>1693.98</ele>
        <time>2013-02-27T15:20:02+01:00</time>
      </trkpt>
      <trkpt lat="43.05336464191" lon="-5.39959162515">
        <ele>1694.27</ele>
        <time>2013-02-27T15:20:02+01:00</time>
      </trkpt>
      <trkpt lat="43.05334703626" lon="-5.3996400834">
        <ele>1694.67</ele>
        <time>2013-02-27T15:20:04+01:00</time>
      </trkpt>
      <trkpt lat="43.05334190572" lon="-5.39968568758">
        <ele>1694.69</ele>
        <time>2013-02-27T15:20:06+01:00</time>
      </trkpt>
      <trkpt lat="43.05333992164" lon="-5.39972525083">
        <ele>1694.95</ele>
        <time>2013-02-27T15:20:08+01:00</time>
      </trkpt>
      <trkpt lat="43.05332716295" lon="-5.399773187">
        <ele>1695.17</ele>
        <time>2013-02-27T15:20:10+01:00</time>
      </trkpt>
      <trkpt lat="43.05331764694" lon="-5.39979984444">
        <ele>1695.4</ele>
        <time>2013-02-27T15:20:11+01:00</time>
      </trkpt>
      <trkpt lat="43.05330407711" lon="-5.39983043487">
        <ele>1695.58</ele>
        <time>2013-02-27T15:20:12+01:00</time>
      </trkpt>
      <trkpt lat="43.05328318191" lon="-5.39988328242">
        <ele>1695.9</ele>
        <time>2013-02-27T15:20:14+01:00</time>
      </trkpt>
      <trkpt lat="43.05326072437" lon="-5.39993797849">
        <ele>1696.36</ele>
        <time>2013-02-27T15:20:16+01:00</time>
      </trkpt>
      <trkpt lat="43.0532478797" lon="-5.39996834235">
        <ele>1696.73</ele>
        <time>2013-02-27T15:20:17+01:00</time>
      </trkpt>
      <trkpt lat="43.05323561913" lon="-5.39999642386">
        <ele>1697.05</ele>
        <time>2013-02-27T15:20:18+01:00</time>
      </trkpt>
      <trkpt lat="43.053223681" lon="-5.40002495607">
        <ele>1697.36</ele>
        <time>2013-02-27T15:20:19+01:00</time>
      </trkpt>
      <trkpt lat="43.05321102074" lon="-5.40005458948">
        <ele>1697.71</ele>
        <time>2013-02-27T15:20:21+01:00</time>
      </trkpt>
      <trkpt lat="43.05319730759" lon="-5.40008455931">
        <ele>1698.1</ele>
        <time>2013-02-27T15:20:22+01:00</time>
      </trkpt>
      <trkpt lat="43.05318318051" lon="-5.40011364305">
        <ele>1698.51</ele>
        <time>2013-02-27T15:20:22+01:00</time>
      </trkpt>
      <trkpt lat="43.05316862043" lon="-5.40014333146">
        <ele>1698.82</ele>
        <time>2013-02-27T15:20:24+01:00</time>
      </trkpt>
      <trkpt lat="43.0531609475" lon="-5.40017394547">
        <ele>1699.07</ele>
        <time>2013-02-27T15:20:24+01:00</time>
      </trkpt>
      <trkpt lat="43.05315525549" lon="-5.4002279457">
        <ele>1699.26</ele>
        <time>2013-02-27T15:20:26+01:00</time>
      </trkpt>
      <trkpt lat="43.05315244851" lon="-5.40026290083">
        <ele>1699.49</ele>
        <time>2013-02-27T15:20:28+01:00</time>
      </trkpt>
      <trkpt lat="43.05315389096" lon="-5.40032003396">
        <ele>1699.87</ele>
        <time>2013-02-27T15:20:30+01:00</time>
      </trkpt>
      <trkpt lat="43.05314536169" lon="-5.40036653047">
        <ele>1701.12</ele>
        <time>2013-02-27T15:20:32+01:00</time>
      </trkpt>
      <trkpt lat="43.05313222292" lon="-5.40041110082">
        <ele>1701.02</ele>
        <time>2013-02-27T15:20:34+01:00</time>
      </trkpt>
      <trkpt lat="43.05312465038" lon="-5.40043942898">
        <ele>1701.41</ele>
        <time>2013-02-27T15:20:36+01:00</time>
      </trkpt>
      <trkpt lat="43.05310722649" lon="-5.4004832139">
        <ele>1702.23</ele>
        <time>2013-02-27T15:20:37+01:00</time>
      </trkpt>
      <trkpt lat="43.0530873467" lon="-5.40053032648">
        <ele>1702.99</ele>
        <time>2013-02-27T15:20:39+01:00</time>
      </trkpt>
      <trkpt lat="43.05307026145" lon="-5.40057522121">
        <ele>1703.63</ele>
        <time>2013-02-27T15:20:41+01:00</time>
      </trkpt>
      <trkpt lat="43.05305510974" lon="-5.40062496973">
        <ele>1704.32</ele>
        <time>2013-02-27T15:20:43+01:00</time>
      </trkpt>
      <trkpt lat="43.05303759546" lon="-5.40067743245">
        <ele>1705.27</ele>
        <time>2013-02-27T15:20:45+01:00</time>
      </trkpt>
      <trkpt lat="43.05302916405" lon="-5.40071193076">
        <ele>1706.06</ele>
        <time>2013-02-27T15:20:46+01:00</time>
      </trkpt>
      <trkpt lat="43.05302073872" lon="-5.40074209859">
        <ele>1706.73</ele>
        <time>2013-02-27T15:20:47+01:00</time>
      </trkpt>
      <trkpt lat="43.05301172274" lon="-5.40077252402">
        <ele>1707.62</ele>
        <time>2013-02-27T15:20:49+01:00</time>
      </trkpt>
      <trkpt lat="43.0530008026" lon="-5.40081263099">
        <ele>1708.47</ele>
        <time>2013-02-27T15:20:51+01:00</time>
      </trkpt>
      <trkpt lat="43.05299826052" lon="-5.40082035487">
        <ele>1708.18</ele>
        <time>2013-02-27T15:20:53+01:00</time>
      </trkpt>
      <trkpt lat="43.05298095381" lon="-5.40087946175">
        <ele>1708.6</ele>
        <time>2013-02-27T15:20:55+01:00</time>
      </trkpt>
      <trkpt lat="43.0529773875" lon="-5.40088771938">
        <ele>1709.05</ele>
        <time>2013-02-27T15:20:56+01:00</time>
      </trkpt>
      <trkpt lat="43.05295729485" lon="-5.40094914428">
        <ele>1709.63</ele>
        <time>2013-02-27T15:20:58+01:00</time>
      </trkpt>
      <trkpt lat="43.05292901668" lon="-5.40102188765">
        <ele>1711.71</ele>
        <time>2013-02-27T15:20:59+01:00</time>
      </trkpt>
      <trkpt lat="43.05291424153" lon="-5.40105889982">
        <ele>1712.71</ele>
        <time>2013-02-27T15:21:00+01:00</time>
      </trkpt>
      <trkpt lat="43.05289800957" lon="-5.40109299024">
        <ele>1713.9</ele>
        <time>2013-02-27T15:21:01+01:00</time>
      </trkpt>
      <trkpt lat="43.0528858113" lon="-5.40112441759">
        <ele>1715.26</ele>
        <time>2013-02-27T15:21:02+01:00</time>
      </trkpt>
      <trkpt lat="43.0528705641" lon="-5.40115484294">
        <ele>1716.77</ele>
        <time>2013-02-27T15:21:03+01:00</time>
      </trkpt>
      <trkpt lat="43.0528561488" lon="-5.40118285507">
        <ele>1718.09</ele>
        <time>2013-02-27T15:21:05+01:00</time>
      </trkpt>
      <trkpt lat="43.05283908356" lon="-5.40120964694">
        <ele>1719.48</ele>
        <time>2013-02-27T15:21:05+01:00</time>
      </trkpt>
      <trkpt lat="43.05282507578" lon="-5.40123626183">
        <ele>1720.48</ele>
        <time>2013-02-27T15:21:06+01:00</time>
      </trkpt>
      <trkpt lat="43.05281117659" lon="-5.40126203665">
        <ele>1721.53</ele>
        <time>2013-02-27T15:21:08+01:00</time>
      </trkpt>
      <trkpt lat="43.0527858662" lon="-5.4013068883">
        <ele>1722.99</ele>
        <time>2013-02-27T15:21:09+01:00</time>
      </trkpt>
      <trkpt lat="43.05276715838" lon="-5.40133859036">
        <ele>1724.35</ele>
        <time>2013-02-27T15:21:10+01:00</time>
      </trkpt>
      <trkpt lat="43.05275151451" lon="-5.40136370623">
        <ele>1725.52</ele>
        <time>2013-02-27T15:21:12+01:00</time>
      </trkpt>
      <trkpt lat="43.05274198197" lon="-5.40140708499">
        <ele>1727.14</ele>
        <time>2013-02-27T15:21:14+01:00</time>
      </trkpt>
      <trkpt lat="43.05274376349" lon="-5.40144801431">
        <ele>1728.32</ele>
        <time>2013-02-27T15:21:15+01:00</time>
      </trkpt>
      <trkpt lat="43.05273483265" lon="-5.40149603098">
        <ele>1729.81</ele>
        <time>2013-02-27T15:21:17+01:00</time>
      </trkpt>
      <trkpt lat="43.05272654977" lon="-5.40152784932">
        <ele>1731.15</ele>
        <time>2013-02-27T15:21:19+01:00</time>
      </trkpt>
      <trkpt lat="43.05271026751" lon="-5.40158334474">
        <ele>1732.47</ele>
        <time>2013-02-27T15:21:20+01:00</time>
      </trkpt>
      <trkpt lat="43.0527043959" lon="-5.40162032714">
        <ele>1733.72</ele>
        <time>2013-02-27T15:21:22+01:00</time>
      </trkpt>
      <trkpt lat="43.0526980248" lon="-5.40165253405">
        <ele>1735.26</ele>
        <time>2013-02-27T15:21:22+01:00</time>
      </trkpt>
      <trkpt lat="43.05267257717" lon="-5.40171101029">
        <ele>1736.24</ele>
        <time>2013-02-27T15:21:24+01:00</time>
      </trkpt>
      <trkpt lat="43.05265283608" lon="-5.40174483376">
        <ele>1737.27</ele>
        <time>2013-02-27T15:21:26+01:00</time>
      </trkpt>
      <trkpt lat="43.05263480627" lon="-5.40177446429">
        <ele>1738.46</ele>
        <time>2013-02-27T15:21:26+01:00</time>
      </trkpt>
      <trkpt lat="43.05262010266" lon="-5.40180204923">
        <ele>1739.72</ele>
        <time>2013-02-27T15:21:27+01:00</time>
      </trkpt>
      <trkpt lat="43.05260596372" lon="-5.40184330666">
        <ele>1741.1</ele>
        <time>2013-02-27T15:21:29+01:00</time>
      </trkpt>
      <trkpt lat="43.05258475298" lon="-5.40191520239">
        <ele>1742.8</ele>
        <time>2013-02-27T15:21:32+01:00</time>
      </trkpt>
      <trkpt lat="43.05256965672" lon="-5.40196539113">
        <ele>1744.48</ele>
        <time>2013-02-27T15:21:34+01:00</time>
      </trkpt>
      <trkpt lat="43.0525533237" lon="-5.40201318285">
        <ele>1746.15</ele>
        <time>2013-02-27T15:21:36+01:00</time>
      </trkpt>
      <trkpt lat="43.05254100893" lon="-5.40204002862">
        <ele>1747.81</ele>
        <time>2013-02-27T15:21:37+01:00</time>
      </trkpt>
      <trkpt lat="43.05251759122" lon="-5.4020899895">
        <ele>1749.54</ele>
        <time>2013-02-27T15:21:39+01:00</time>
      </trkpt>
      <trkpt lat="43.05250144123" lon="-5.40212023235">
        <ele>1751.11</ele>
        <time>2013-02-27T15:21:40+01:00</time>
      </trkpt>
      <trkpt lat="43.05248148096" lon="-5.40214800681">
        <ele>1752.59</ele>
        <time>2013-02-27T15:21:41+01:00</time>
      </trkpt>
      <trkpt lat="43.05246511721" lon="-5.40217341005">
        <ele>1754.1</ele>
        <time>2013-02-27T15:21:42+01:00</time>
      </trkpt>
      <trkpt lat="43.05244109087" lon="-5.40222026611">
        <ele>1756.37</ele>
        <time>2013-02-27T15:21:44+01:00</time>
      </trkpt>
      <trkpt lat="43.05242555677" lon="-5.4022621591">
        <ele>1758.1</ele>
        <time>2013-02-27T15:21:46+01:00</time>
      </trkpt>
      <trkpt lat="43.05240846893" lon="-5.40229380586">
        <ele>1759.89</ele>
        <time>2013-02-27T15:21:47+01:00</time>
      </trkpt>
      <trkpt lat="43.05239874733" lon="-5.40232165013">
        <ele>1761.76</ele>
        <time>2013-02-27T15:21:49+01:00</time>
      </trkpt>
      <trkpt lat="43.05238138115" lon="-5.40239046188">
        <ele>1763.96</ele>
        <time>2013-02-27T15:21:51+01:00</time>
      </trkpt>
      <trkpt lat="43.05237435399" lon="-5.40242977226">
        <ele>1765.93</ele>
        <time>2013-02-27T15:21:52+01:00</time>
      </trkpt>
      <trkpt lat="43.05237050104" lon="-5.40246231067">
        <ele>1767.8</ele>
        <time>2013-02-27T15:21:54+01:00</time>
      </trkpt>
      <trkpt lat="43.05236654533" lon="-5.40249429933">
        <ele>1769.72</ele>
        <time>2013-02-27T15:21:54+01:00</time>
      </trkpt>
      <trkpt lat="43.05235998744" lon="-5.40252389817">
        <ele>1771.68</ele>
        <time>2013-02-27T15:21:56+01:00</time>
      </trkpt>
      <trkpt lat="43.05234945576" lon="-5.40255275083">
        <ele>1773.58</ele>
        <time>2013-02-27T15:21:56+01:00</time>
      </trkpt>
      <trkpt lat="43.05234044274" lon="-5.40258292946">
        <ele>1775.11</ele>
        <time>2013-02-27T15:21:57+01:00</time>
      </trkpt>
      <trkpt lat="43.05232767661" lon="-5.40261196513">
        <ele>1776.77</ele>
        <time>2013-02-27T15:21:58+01:00</time>
      </trkpt>
      <trkpt lat="43.05231516568" lon="-5.40263922994">
        <ele>1778.33</ele>
        <time>2013-02-27T15:22:00+01:00</time>
      </trkpt>
      <trkpt lat="43.0523018676" lon="-5.40266439713">
        <ele>1779.81</ele>
        <time>2013-02-27T15:22:00+01:00</time>
      </trkpt>
      <trkpt lat="43.05228378529" lon="-5.40269645383">
        <ele>1781.07</ele>
        <time>2013-02-27T15:22:02+01:00</time>
      </trkpt>
      <trkpt lat="43.05227148517" lon="-5.4027430983">
        <ele>1782.37</ele>
        <time>2013-02-27T15:22:04+01:00</time>
      </trkpt>
      <trkpt lat="43.05224989608" lon="-5.40279531004">
        <ele>1783.75</ele>
        <time>2013-02-27T15:22:06+01:00</time>
      </trkpt>
      <trkpt lat="43.05223724821" lon="-5.40284581686">
        <ele>1788.37</ele>
        <time>2013-02-27T15:22:08+01:00</time>
      </trkpt>
      <trkpt lat="43.05221957905" lon="-5.4028785296">
        <ele>1789.69</ele>
        <time>2013-02-27T15:22:10+01:00</time>
      </trkpt>
      <trkpt lat="43.05220469799" lon="-5.40290571139">
        <ele>1791.28</ele>
        <time>2013-02-27T15:22:10+01:00</time>
      </trkpt>
      <trkpt lat="43.05221696524" lon="-5.40294479332">
        <ele>1791.06</ele>
        <time>2013-02-27T15:22:12+01:00</time>
      </trkpt>
      <trkpt lat="43.05222139805" lon="-5.40298574114">
        <ele>1792.62</ele>
        <time>2013-02-27T15:22:14+01:00</time>
      </trkpt>
      <trkpt lat="43.05220694249" lon="-5.40303351402">
        <ele>1793.79</ele>
        <time>2013-02-27T15:22:16+01:00</time>
      </trkpt>
      <trkpt lat="43.05218954198" lon="-5.40306303469">
        <ele>1796.68</ele>
        <time>2013-02-27T15:22:17+01:00</time>
      </trkpt>
      <trkpt lat="43.05217256363" lon="-5.4030914845">
        <ele>1797.93</ele>
        <time>2013-02-27T15:22:18+01:00</time>
      </trkpt>
      <trkpt lat="43.05215615556" lon="-5.40312126054">
        <ele>1799.42</ele>
        <time>2013-02-27T15:22:19+01:00</time>
      </trkpt>
      <trkpt lat="43.05214131325" lon="-5.40315064114">
        <ele>1801.14</ele>
        <time>2013-02-27T15:22:20+01:00</time>
      </trkpt>
      <trkpt lat="43.05212896608" lon="-5.40317990676">
        <ele>1802.68</ele>
        <time>2013-02-27T15:22:21+01:00</time>
      </trkpt>
      <trkpt lat="43.05211830172" lon="-5.40321006612">
        <ele>1804.03</ele>
        <time>2013-02-27T15:22:23+01:00</time>
      </trkpt>
      <trkpt lat="43.05210829598" lon="-5.40323993768">
        <ele>1805.44</ele>
        <time>2013-02-27T15:22:23+01:00</time>
      </trkpt>
      <trkpt lat="43.05209371673" lon="-5.40328992216">
        <ele>1806.72</ele>
        <time>2013-02-27T15:22:25+01:00</time>
      </trkpt>
      <trkpt lat="43.05207796346" lon="-5.40334259688">
        <ele>1808.14</ele>
        <time>2013-02-27T15:22:27+01:00</time>
      </trkpt>
      <trkpt lat="43.05205956566" lon="-5.40339448449">
        <ele>1808.15</ele>
        <time>2013-02-27T15:22:29+01:00</time>
      </trkpt>
      <trkpt lat="43.0520423367" lon="-5.40344742496">
        <ele>1809.13</ele>
        <time>2013-02-27T15:22:31+01:00</time>
      </trkpt>
      <trkpt lat="43.05202624304" lon="-5.40350145139">
        <ele>1810.09</ele>
        <time>2013-02-27T15:22:33+01:00</time>
      </trkpt>
      <trkpt lat="43.05201113042" lon="-5.40355422855">
        <ele>1811.11</ele>
        <time>2013-02-27T15:22:35+01:00</time>
      </trkpt>
      <trkpt lat="43.05199536154" lon="-5.40360695622">
        <ele>1813.48</ele>
        <time>2013-02-27T15:22:38+01:00</time>
      </trkpt>
      <trkpt lat="43.05198099806" lon="-5.40366269642">
        <ele>1813.59</ele>
        <time>2013-02-27T15:22:40+01:00</time>
      </trkpt>
      <trkpt lat="43.051965719" lon="-5.4037203975">
        <ele>1816.68</ele>
        <time>2013-02-27T15:22:42+01:00</time>
      </trkpt>
      <trkpt lat="43.05195751491" lon="-5.40375234429">
        <ele>1816.47</ele>
        <time>2013-02-27T15:22:42+01:00</time>
      </trkpt>
      <trkpt lat="43.05193990974" lon="-5.40380615728">
        <ele>1817.81</ele>
        <time>2013-02-27T15:22:45+01:00</time>
      </trkpt>
      <trkpt lat="43.05192947395" lon="-5.40383869595">
        <ele>1820.99</ele>
        <time>2013-02-27T15:22:46+01:00</time>
      </trkpt>
      <trkpt lat="43.05191877442" lon="-5.40386820194">
        <ele>1822.69</ele>
        <time>2013-02-27T15:22:46+01:00</time>
      </trkpt>
      <trkpt lat="43.05190808623" lon="-5.40389868709">
        <ele>1823.75</ele>
        <time>2013-02-27T15:22:47+01:00</time>
      </trkpt>
      <trkpt lat="43.05189705971" lon="-5.40392987365">
        <ele>1824.9</ele>
        <time>2013-02-27T15:22:48+01:00</time>
      </trkpt>
      <trkpt lat="43.05188313275" lon="-5.40395833918">
        <ele>1826.47</ele>
        <time>2013-02-27T15:22:49+01:00</time>
      </trkpt>
      <trkpt lat="43.05186925521" lon="-5.40398472212">
        <ele>1826.49</ele>
        <time>2013-02-27T15:22:51+01:00</time>
      </trkpt>
      <trkpt lat="43.05185492999" lon="-5.40400908631">
        <ele>1828.68</ele>
        <time>2013-02-27T15:22:52+01:00</time>
      </trkpt>
      <trkpt lat="43.05183124351" lon="-5.40404396069">
        <ele>1828.57</ele>
        <time>2013-02-27T15:22:54+01:00</time>
      </trkpt>
      <trkpt lat="43.05180452878" lon="-5.40408206346">
        <ele>1829.34</ele>
        <time>2013-02-27T15:22:55+01:00</time>
      </trkpt>
      <trkpt lat="43.05178466838" lon="-5.40410913003">
        <ele>1830.07</ele>
        <time>2013-02-27T15:22:56+01:00</time>
      </trkpt>
      <trkpt lat="43.05176281153" lon="-5.40416033142">
        <ele>1832.73</ele>
        <time>2013-02-27T15:22:58+01:00</time>
      </trkpt>
      <trkpt lat="43.05174904625" lon="-5.4042094314">
        <ele>1834.42</ele>
        <time>2013-02-27T15:23:00+01:00</time>
      </trkpt>
      <trkpt lat="43.05174152159" lon="-5.40425847212">
        <ele>1835.99</ele>
        <time>2013-02-27T15:23:02+01:00</time>
      </trkpt>
      <trkpt lat="43.05173337629" lon="-5.40430712972">
        <ele>1837.88</ele>
        <time>2013-02-27T15:23:04+01:00</time>
      </trkpt>
      <trkpt lat="43.05172403736" lon="-5.40435589989">
        <ele>1839.89</ele>
        <time>2013-02-27T15:23:06+01:00</time>
      </trkpt>
      <trkpt lat="43.05171182562" lon="-5.40440520938">
        <ele>1841.82</ele>
        <time>2013-02-27T15:23:08+01:00</time>
      </trkpt>
      <trkpt lat="43.05169879853" lon="-5.40445313949">
        <ele>1843.82</ele>
        <time>2013-02-27T15:23:10+01:00</time>
      </trkpt>
      <trkpt lat="43.05168436976" lon="-5.4045048544">
        <ele>1845.72</ele>
        <time>2013-02-27T15:23:12+01:00</time>
      </trkpt>
      <trkpt lat="43.05167119641" lon="-5.40455913546">
        <ele>1847.35</ele>
        <time>2013-02-27T15:23:14+01:00</time>
      </trkpt>
      <trkpt lat="43.0516561118" lon="-5.40461397488">
        <ele>1848.88</ele>
        <time>2013-02-27T15:23:16+01:00</time>
      </trkpt>
      <trkpt lat="43.05164132641" lon="-5.40466902102">
        <ele>1850.49</ele>
        <time>2013-02-27T15:23:18+01:00</time>
      </trkpt>
      <trkpt lat="43.05162713755" lon="-5.40471709757">
        <ele>1852.35</ele>
        <time>2013-02-27T15:23:20+01:00</time>
      </trkpt>
      <trkpt lat="43.05161613731" lon="-5.40475318624">
        <ele>1853.83</ele>
        <time>2013-02-27T15:23:21+01:00</time>
      </trkpt>
      <trkpt lat="43.05159964811" lon="-5.40480665905">
        <ele>1855.43</ele>
        <time>2013-02-27T15:23:23+01:00</time>
      </trkpt>
      <trkpt lat="43.05158140302" lon="-5.40485975803">
        <ele>1856.96</ele>
        <time>2013-02-27T15:23:26+01:00</time>
      </trkpt>
      <trkpt lat="43.05156196395" lon="-5.40491266876">
        <ele>1858.43</ele>
        <time>2013-02-27T15:23:27+01:00</time>
      </trkpt>
      <trkpt lat="43.05154319756" lon="-5.40496495716">
        <ele>1859.93</ele>
        <time>2013-02-27T15:23:29+01:00</time>
      </trkpt>
      <trkpt lat="43.05152540368" lon="-5.4050191447">
        <ele>1861.41</ele>
        <time>2013-02-27T15:23:31+01:00</time>
      </trkpt>
      <trkpt lat="43.05150857459" lon="-5.40507344671">
        <ele>1862.89</ele>
        <time>2013-02-27T15:23:33+01:00</time>
      </trkpt>
      <trkpt lat="43.05149120076" lon="-5.40512798648">
        <ele>1864.33</ele>
        <time>2013-02-27T15:23:35+01:00</time>
      </trkpt>
      <trkpt lat="43.05147381017" lon="-5.40518292721">
        <ele>1865.73</ele>
        <time>2013-02-27T15:23:37+01:00</time>
      </trkpt>
      <trkpt lat="43.05145622932" lon="-5.40523934135">
        <ele>1867.15</ele>
        <time>2013-02-27T15:23:39+01:00</time>
      </trkpt>
      <trkpt lat="43.05143810137" lon="-5.40529507302">
        <ele>1868.54</ele>
        <time>2013-02-27T15:23:41+01:00</time>
      </trkpt>
      <trkpt lat="43.05142010731" lon="-5.40535073644">
        <ele>1869.81</ele>
        <time>2013-02-27T15:23:43+01:00</time>
      </trkpt>
      <trkpt lat="43.05140190033" lon="-5.4054057141">
        <ele>1871.17</ele>
        <time>2013-02-27T15:23:45+01:00</time>
      </trkpt>
      <trkpt lat="43.05138352119" lon="-5.40546009512">
        <ele>1872.54</ele>
        <time>2013-02-27T15:23:47+01:00</time>
      </trkpt>
      <trkpt lat="43.05136444589" lon="-5.40551501998">
        <ele>1873.85</ele>
        <time>2013-02-27T15:23:49+01:00</time>
      </trkpt>
      <trkpt lat="43.05134609306" lon="-5.40557060272">
        <ele>1875.23</ele>
        <time>2013-02-27T15:23:51+01:00</time>
      </trkpt>
      <trkpt lat="43.05132834055" lon="-5.405625346">
        <ele>1876.34</ele>
        <time>2013-02-27T15:23:54+01:00</time>
      </trkpt>
      <trkpt lat="43.05131894614" lon="-5.40565646895">
        <ele>1877.45</ele>
        <time>2013-02-27T15:23:55+01:00</time>
      </trkpt>
      <trkpt lat="43.05131001037" lon="-5.40568470181">
        <ele>1878.39</ele>
        <time>2013-02-27T15:23:55+01:00</time>
      </trkpt>
      <trkpt lat="43.05129203028" lon="-5.40573776623">
        <ele>1879.64</ele>
        <time>2013-02-27T15:23:57+01:00</time>
      </trkpt>
      <trkpt lat="43.05127344751" lon="-5.40579286117">
        <ele>1880.93</ele>
        <time>2013-02-27T15:23:59+01:00</time>
      </trkpt>
      <trkpt lat="43.05125759565" lon="-5.40584785742">
        <ele>1882.26</ele>
        <time>2013-02-27T15:24:01+01:00</time>
      </trkpt>
      <trkpt lat="43.05124227263" lon="-5.40589452139">
        <ele>1883.47</ele>
        <time>2013-02-27T15:24:03+01:00</time>
      </trkpt>
      <trkpt lat="43.0512224551" lon="-5.40595201811">
        <ele>1884.84</ele>
        <time>2013-02-27T15:24:05+01:00</time>
      </trkpt>
      <trkpt lat="43.05120361315" lon="-5.40600340724">
        <ele>1886.18</ele>
        <time>2013-02-27T15:24:07+01:00</time>
      </trkpt>
      <trkpt lat="43.05118509506" lon="-5.40605758029">
        <ele>1887.43</ele>
        <time>2013-02-27T15:24:09+01:00</time>
      </trkpt>
      <trkpt lat="43.05116706199" lon="-5.40611188085">
        <ele>1888.62</ele>
        <time>2013-02-27T15:24:11+01:00</time>
      </trkpt>
      <trkpt lat="43.0511569606" lon="-5.40614250691">
        <ele>1889.73</ele>
        <time>2013-02-27T15:24:12+01:00</time>
      </trkpt>
      <trkpt lat="43.0511387508" lon="-5.40619671589">
        <ele>1890.81</ele>
        <time>2013-02-27T15:24:14+01:00</time>
      </trkpt>
      <trkpt lat="43.05112761333" lon="-5.4062269556">
        <ele>1891.88</ele>
        <time>2013-02-27T15:24:15+01:00</time>
      </trkpt>
      <trkpt lat="43.05111789975" lon="-5.40625525101">
        <ele>1892.85</ele>
        <time>2013-02-27T15:24:16+01:00</time>
      </trkpt>
      <trkpt lat="43.05109950242" lon="-5.40630779362">
        <ele>1893.88</ele>
        <time>2013-02-27T15:24:18+01:00</time>
      </trkpt>
      <trkpt lat="43.05108887426" lon="-5.40633809301">
        <ele>1894.78</ele>
        <time>2013-02-27T15:24:19+01:00</time>
      </trkpt>
      <trkpt lat="43.05107053634" lon="-5.40639030796">
        <ele>1895.7</ele>
        <time>2013-02-27T15:24:21+01:00</time>
      </trkpt>
      <trkpt lat="43.051060065" lon="-5.40642185701">
        <ele>1896.56</ele>
        <time>2013-02-27T15:24:22+01:00</time>
      </trkpt>
      <trkpt lat="43.05104608039" lon="-5.40647691266">
        <ele>1897.3</ele>
        <time>2013-02-27T15:24:24+01:00</time>
      </trkpt>
      <trkpt lat="43.05103940585" lon="-5.40650581226">
        <ele>1897.99</ele>
        <time>2013-02-27T15:24:25+01:00</time>
      </trkpt>
      <trkpt lat="43.05103334354" lon="-5.40653908483">
        <ele>1898.63</ele>
        <time>2013-02-27T15:24:26+01:00</time>
      </trkpt>
      <trkpt lat="43.05102605771" lon="-5.40659243693">
        <ele>1899.38</ele>
        <time>2013-02-27T15:24:27+01:00</time>
      </trkpt>
      <trkpt lat="43.0510281203" lon="-5.40663119079">
        <ele>1899.94</ele>
        <time>2013-02-27T15:24:28+01:00</time>
      </trkpt>
      <trkpt lat="43.0510351159" lon="-5.40667089881">
        <ele>1900.47</ele>
        <time>2013-02-27T15:24:29+01:00</time>
      </trkpt>
      <trkpt lat="43.0510421899" lon="-5.40670149892">
        <ele>1900.92</ele>
        <time>2013-02-27T15:24:31+01:00</time>
      </trkpt>
      <trkpt lat="43.0510713371" lon="-5.40671142371">
        <ele>1901.14</ele>
        <time>2013-02-27T15:24:34+01:00</time>
      </trkpt>
      <trkpt lat="43.05109380983" lon="-5.40673751867">
        <ele>1901.35</ele>
        <time>2013-02-27T15:24:36+01:00</time>
      </trkpt>
      <trkpt lat="43.05110799409" lon="-5.40677092459">
        <ele>1901.62</ele>
        <time>2013-02-27T15:24:38+01:00</time>
      </trkpt>
      <trkpt lat="43.05109168479" lon="-5.40679538758">
        <ele>1900.53</ele>
        <time>2013-02-27T15:25:03+01:00</time>
      </trkpt>
      <trkpt lat="43.05108243872" lon="-5.40680906803">
        <ele>1901.11</ele>
        <time>2013-02-27T15:25:15+01:00</time>
      </trkpt>
      <trkpt lat="43.05105911626" lon="-5.40680110282">
        <ele>1900.71</ele>
        <time>2013-02-27T15:25:21+01:00</time>
      </trkpt>
      <trkpt lat="43.05103048319" lon="-5.40680451581">
        <ele>1900.9</ele>
        <time>2013-02-27T15:25:25+01:00</time>
      </trkpt>
      <trkpt lat="43.05105123171" lon="-5.40677769975">
        <ele>1900.85</ele>
        <time>2013-02-27T15:25:45+01:00</time>
      </trkpt>
      <trkpt lat="43.05108978041" lon="-5.40673209441">
        <ele>1900.77</ele>
        <time>2013-02-27T15:25:47+01:00</time>
      </trkpt>
      <trkpt lat="43.05112037774" lon="-5.4067007537">
        <ele>1900.48</ele>
        <time>2013-02-27T15:25:48+01:00</time>
      </trkpt>
      <trkpt lat="43.05115553597" lon="-5.40666978333">
        <ele>1900.14</ele>
        <time>2013-02-27T15:25:49+01:00</time>
      </trkpt>
      <trkpt lat="43.05123282931" lon="-5.40663560619">
        <ele>1899.73</ele>
        <time>2013-02-27T15:25:50+01:00</time>
      </trkpt>
      <trkpt lat="43.05128154229" lon="-5.40662338166">
        <ele>1899.32</ele>
        <time>2013-02-27T15:25:51+01:00</time>
      </trkpt>
      <trkpt lat="43.05138522925" lon="-5.40663401252">
        <ele>1898.86</ele>
        <time>2013-02-27T15:25:52+01:00</time>
      </trkpt>
      <trkpt lat="43.05148646644" lon="-5.40662199004">
        <ele>1897.7</ele>
        <time>2013-02-27T15:25:53+01:00</time>
      </trkpt>
      <trkpt lat="43.05158811433" lon="-5.40656534744">
        <ele>1896.82</ele>
        <time>2013-02-27T15:25:55+01:00</time>
      </trkpt>
      <trkpt lat="43.05166583307" lon="-5.40657409167">
        <ele>1895.99</ele>
        <time>2013-02-27T15:25:55+01:00</time>
      </trkpt>
      <trkpt lat="43.05175952783" lon="-5.40658462204">
        <ele>1894.7</ele>
        <time>2013-02-27T15:25:56+01:00</time>
      </trkpt>
      <trkpt lat="43.05185107179" lon="-5.40658676507">
        <ele>1893.41</ele>
        <time>2013-02-27T15:25:57+01:00</time>
      </trkpt>
      <trkpt lat="43.05196255382" lon="-5.40654280312">
        <ele>1893.06</ele>
        <time>2013-02-27T15:25:58+01:00</time>
      </trkpt>
      <trkpt lat="43.05207326254" lon="-5.40651979502">
        <ele>1890.76</ele>
        <time>2013-02-27T15:25:59+01:00</time>
      </trkpt>
      <trkpt lat="43.05220460371" lon="-5.40651707094">
        <ele>1889.63</ele>
        <time>2013-02-27T15:26:00+01:00</time>
      </trkpt>
      <trkpt lat="43.05232840378" lon="-5.40646429011">
        <ele>1888.27</ele>
        <time>2013-02-27T15:26:02+01:00</time>
      </trkpt>
      <trkpt lat="43.05245143322" lon="-5.40641926756">
        <ele>1888.36</ele>
        <time>2013-02-27T15:26:02+01:00</time>
      </trkpt>
      <trkpt lat="43.05252450035" lon="-5.40639419372">
        <ele>1887.4</ele>
        <time>2013-02-27T15:26:03+01:00</time>
      </trkpt>
      <trkpt lat="43.05267552379" lon="-5.40637742036">
        <ele>1886.51</ele>
        <time>2013-02-27T15:26:04+01:00</time>
      </trkpt>
      <trkpt lat="43.05279011748" lon="-5.40639210354">
        <ele>1885.64</ele>
        <time>2013-02-27T15:26:05+01:00</time>
      </trkpt>
      <trkpt lat="43.0528891439" lon="-5.40638974282">
        <ele>1884.83</ele>
        <time>2013-02-27T15:26:06+01:00</time>
      </trkpt>
      <trkpt lat="43.05298354812" lon="-5.40637800539">
        <ele>1883.91</ele>
        <time>2013-02-27T15:26:07+01:00</time>
      </trkpt>
      <trkpt lat="43.0530580854" lon="-5.40627782427">
        <ele>1881.23</ele>
        <time>2013-02-27T15:26:08+01:00</time>
      </trkpt>
      <trkpt lat="43.05311855629" lon="-5.40620139467">
        <ele>1879.96</ele>
        <time>2013-02-27T15:26:09+01:00</time>
      </trkpt>
      <trkpt lat="43.05319348121" lon="-5.40616867439">
        <ele>1879.99</ele>
        <time>2013-02-27T15:26:11+01:00</time>
      </trkpt>
      <trkpt lat="43.05326871531" lon="-5.40614080677">
        <ele>1878.83</ele>
        <time>2013-02-27T15:26:12+01:00</time>
      </trkpt>
      <trkpt lat="43.05334320152" lon="-5.40610413539">
        <ele>1876.15</ele>
        <time>2013-02-27T15:26:13+01:00</time>
      </trkpt>
      <trkpt lat="43.05341062265" lon="-5.4060966964">
        <ele>1874.98</ele>
        <time>2013-02-27T15:26:14+01:00</time>
      </trkpt>
      <trkpt lat="43.05346013448" lon="-5.40605566791">
        <ele>1873.88</ele>
        <time>2013-02-27T15:26:14+01:00</time>
      </trkpt>
      <trkpt lat="43.05350862713" lon="-5.40598751484">
        <ele>1872.63</ele>
        <time>2013-02-27T15:26:15+01:00</time>
      </trkpt>
      <trkpt lat="43.05356268269" lon="-5.40591413802">
        <ele>1871.24</ele>
        <time>2013-02-27T15:26:16+01:00</time>
      </trkpt>
      <trkpt lat="43.0536208348" lon="-5.40586439277">
        <ele>1870.1</ele>
        <time>2013-02-27T15:26:17+01:00</time>
      </trkpt>
      <trkpt lat="43.05369170851" lon="-5.4058124001">
        <ele>1870.08</ele>
        <time>2013-02-27T15:26:18+01:00</time>
      </trkpt>
      <trkpt lat="43.05374903329" lon="-5.40576921156">
        <ele>1868.83</ele>
        <time>2013-02-27T15:26:20+01:00</time>
      </trkpt>
      <trkpt lat="43.05380747043" lon="-5.40570216875">
        <ele>1865.94</ele>
        <time>2013-02-27T15:26:21+01:00</time>
      </trkpt>
      <trkpt lat="43.05386804112" lon="-5.4056318303">
        <ele>1864.66</ele>
        <time>2013-02-27T15:26:21+01:00</time>
      </trkpt>
      <trkpt lat="43.05397678183" lon="-5.40559026997">
        <ele>1862.58</ele>
        <time>2013-02-27T15:26:22+01:00</time>
      </trkpt>
      <trkpt lat="43.05405482284" lon="-5.4055171155">
        <ele>1862.54</ele>
        <time>2013-02-27T15:26:23+01:00</time>
      </trkpt>
      <trkpt lat="43.05414026906" lon="-5.40544602411">
        <ele>1861.03</ele>
        <time>2013-02-27T15:26:24+01:00</time>
      </trkpt>
      <trkpt lat="43.05420290852" lon="-5.40533437426">
        <ele>1857.52</ele>
        <time>2013-02-27T15:26:25+01:00</time>
      </trkpt>
      <trkpt lat="43.05427348262" lon="-5.405252751">
        <ele>1855.55</ele>
        <time>2013-02-27T15:26:26+01:00</time>
      </trkpt>
      <trkpt lat="43.05433855118" lon="-5.40516387095">
        <ele>1853.98</ele>
        <time>2013-02-27T15:26:27+01:00</time>
      </trkpt>
      <trkpt lat="43.05439020083" lon="-5.40508435552">
        <ele>1851.64</ele>
        <time>2013-02-27T15:26:28+01:00</time>
      </trkpt>
      <trkpt lat="43.05442384964" lon="-5.40497345057">
        <ele>1849.4</ele>
        <time>2013-02-27T15:26:29+01:00</time>
      </trkpt>
      <trkpt lat="43.05447142068" lon="-5.40488247215">
        <ele>1847.67</ele>
        <time>2013-02-27T15:26:30+01:00</time>
      </trkpt>
      <trkpt lat="43.05453731958" lon="-5.40476459397">
        <ele>1845.38</ele>
        <time>2013-02-27T15:26:33+01:00</time>
      </trkpt>
      <trkpt lat="43.05456152404" lon="-5.40473160832">
        <ele>1843.6</ele>
        <time>2013-02-27T15:26:34+01:00</time>
      </trkpt>
      <trkpt lat="43.05458785805" lon="-5.40471050659">
        <ele>1841.63</ele>
        <time>2013-02-27T15:26:35+01:00</time>
      </trkpt>
      <trkpt lat="43.05459886497" lon="-5.40468176711">
        <ele>1840.47</ele>
        <time>2013-02-27T15:26:41+01:00</time>
      </trkpt>
      <trkpt lat="43.0546112058" lon="-5.40459010366">
        <ele>1838.03</ele>
        <time>2013-02-27T15:26:43+01:00</time>
      </trkpt>
      <trkpt lat="43.05463141232" lon="-5.40452911201">
        <ele>1836.31</ele>
        <time>2013-02-27T15:26:45+01:00</time>
      </trkpt>
      <trkpt lat="43.05466202364" lon="-5.40447096123">
        <ele>1834.81</ele>
        <time>2013-02-27T15:26:46+01:00</time>
      </trkpt>
      <trkpt lat="43.05468308425" lon="-5.40445687392">
        <ele>1833.3</ele>
        <time>2013-02-27T15:26:47+01:00</time>
      </trkpt>
      <trkpt lat="43.05470468309" lon="-5.40447097938">
        <ele>1831.69</ele>
        <time>2013-02-27T15:26:49+01:00</time>
      </trkpt>
      <trkpt lat="43.05473045479" lon="-5.40449969817">
        <ele>1829.9</ele>
        <time>2013-02-27T15:26:50+01:00</time>
      </trkpt>
      <trkpt lat="43.054764791" lon="-5.40455560235">
        <ele>1828.14</ele>
        <time>2013-02-27T15:26:51+01:00</time>
      </trkpt>
      <trkpt lat="43.05481703244" lon="-5.40459808152">
        <ele>1826.01</ele>
        <time>2013-02-27T15:26:52+01:00</time>
      </trkpt>
      <trkpt lat="43.05490357781" lon="-5.40463574809">
        <ele>1824.73</ele>
        <time>2013-02-27T15:26:53+01:00</time>
      </trkpt>
      <trkpt lat="43.05497292801" lon="-5.40466008451">
        <ele>1823.24</ele>
        <time>2013-02-27T15:26:54+01:00</time>
      </trkpt>
      <trkpt lat="43.05505365211" lon="-5.4046803745">
        <ele>1821.84</ele>
        <time>2013-02-27T15:26:55+01:00</time>
      </trkpt>
      <trkpt lat="43.05511982013" lon="-5.40470662778">
        <ele>1820.4</ele>
        <time>2013-02-27T15:26:56+01:00</time>
      </trkpt>
      <trkpt lat="43.05514945589" lon="-5.40479166831">
        <ele>1818.12</ele>
        <time>2013-02-27T15:26:57+01:00</time>
      </trkpt>
      <trkpt lat="43.05519228799" lon="-5.40489031974">
        <ele>1815.78</ele>
        <time>2013-02-27T15:26:58+01:00</time>
      </trkpt>
      <trkpt lat="43.05523342223" lon="-5.40497056772">
        <ele>1813.23</ele>
        <time>2013-02-27T15:26:59+01:00</time>
      </trkpt>
      <trkpt lat="43.05527928988" lon="-5.40501357542">
        <ele>1811.54</ele>
        <time>2013-02-27T15:27:00+01:00</time>
      </trkpt>
      <trkpt lat="43.05534398513" lon="-5.40503250346">
        <ele>1809.53</ele>
        <time>2013-02-27T15:27:01+01:00</time>
      </trkpt>
      <trkpt lat="43.0553869198" lon="-5.40502497882">
        <ele>1809.53</ele>
        <time>2013-02-27T15:27:02+01:00</time>
      </trkpt>
      <trkpt lat="43.05539748293" lon="-5.40502094903">
        <ele>1808.2</ele>
        <time>2013-02-27T15:27:03+01:00</time>
      </trkpt>
      <trkpt lat="43.05542754075" lon="-5.40498579972">
        <ele>1806.87</ele>
        <time>2013-02-27T15:27:04+01:00</time>
      </trkpt>
      <trkpt lat="43.0554646963" lon="-5.40492348211">
        <ele>1805.65</ele>
        <time>2013-02-27T15:27:05+01:00</time>
      </trkpt>
      <trkpt lat="43.05550387806" lon="-5.40490873871">
        <ele>1804.79</ele>
        <time>2013-02-27T15:27:06+01:00</time>
      </trkpt>
      <trkpt lat="43.05554946651" lon="-5.40492309028">
        <ele>1803.39</ele>
        <time>2013-02-27T15:27:07+01:00</time>
      </trkpt>
      <trkpt lat="43.0555810477" lon="-5.40492998391">
        <ele>1801.88</ele>
        <time>2013-02-27T15:27:08+01:00</time>
      </trkpt>
      <trkpt lat="43.05560603881" lon="-5.40491701281">
        <ele>1800.4</ele>
        <time>2013-02-27T15:27:09+01:00</time>
      </trkpt>
      <trkpt lat="43.05563386934" lon="-5.40490241571">
        <ele>1796.43</ele>
        <time>2013-02-27T15:27:10+01:00</time>
      </trkpt>
      <trkpt lat="43.05566598932" lon="-5.40489996568">
        <ele>1793.85</ele>
        <time>2013-02-27T15:27:12+01:00</time>
      </trkpt>
      <trkpt lat="43.05569199344" lon="-5.40490517536">
        <ele>1791.28</ele>
        <time>2013-02-27T15:27:15+01:00</time>
      </trkpt>
      <trkpt lat="43.05566671766" lon="-5.40489636018">
        <ele>1790.4</ele>
        <time>2013-02-27T15:27:50+01:00</time>
      </trkpt>
      <trkpt lat="43.05564074128" lon="-5.40488842806">
        <ele>1788.21</ele>
        <time>2013-02-27T15:27:52+01:00</time>
      </trkpt>
      <trkpt lat="43.05564813924" lon="-5.4048986683">
        <ele>1786.44</ele>
        <time>2013-02-27T15:27:56+01:00</time>
      </trkpt>
      <trkpt lat="43.05565086555" lon="-5.40490212308">
        <ele>1784.94</ele>
        <time>2013-02-27T15:27:58+01:00</time>
      </trkpt>
      <trkpt lat="43.05569198864" lon="-5.40489860074">
        <ele>1783.13</ele>
        <time>2013-02-27T15:28:01+01:00</time>
      </trkpt>
      <trkpt lat="43.05579720617" lon="-5.40481511543">
        <ele>1781.13</ele>
        <time>2013-02-27T15:28:02+01:00</time>
      </trkpt>
      <trkpt lat="43.05582837945" lon="-5.40477588793">
        <ele>1779.19</ele>
        <time>2013-02-27T15:28:03+01:00</time>
      </trkpt>
      <trkpt lat="43.05586253201" lon="-5.40472320757">
        <ele>1777.49</ele>
        <time>2013-02-27T15:28:04+01:00</time>
      </trkpt>
      <trkpt lat="43.05596767165" lon="-5.40471660255">
        <ele>1775.39</ele>
        <time>2013-02-27T15:28:05+01:00</time>
      </trkpt>
      <trkpt lat="43.05603335835" lon="-5.40471749437">
        <ele>1773.15</ele>
        <time>2013-02-27T15:28:07+01:00</time>
      </trkpt>
      <trkpt lat="43.05606715495" lon="-5.40472238353">
        <ele>1770.95</ele>
        <time>2013-02-27T15:28:07+01:00</time>
      </trkpt>
      <trkpt lat="43.05613088713" lon="-5.40467625498">
        <ele>1769.36</ele>
        <time>2013-02-27T15:28:08+01:00</time>
      </trkpt>
      <trkpt lat="43.05614371023" lon="-5.40466706561">
        <ele>1767.56</ele>
        <time>2013-02-27T15:28:09+01:00</time>
      </trkpt>
      <trkpt lat="43.05625960641" lon="-5.40452459327">
        <ele>1765.21</ele>
        <time>2013-02-27T15:28:11+01:00</time>
      </trkpt>
      <trkpt lat="43.05629848477" lon="-5.40447476536">
        <ele>1763.19</ele>
        <time>2013-02-27T15:28:11+01:00</time>
      </trkpt>
      <trkpt lat="43.05638120732" lon="-5.40441879645">
        <ele>1761.44</ele>
        <time>2013-02-27T15:28:13+01:00</time>
      </trkpt>
      <trkpt lat="43.05639650361" lon="-5.40440728194">
        <ele>1759.65</ele>
        <time>2013-02-27T15:28:13+01:00</time>
      </trkpt>
      <trkpt lat="43.05653090435" lon="-5.40431355711">
        <ele>1757.37</ele>
        <time>2013-02-27T15:28:14+01:00</time>
      </trkpt>
      <trkpt lat="43.05663856836" lon="-5.40421866639">
        <ele>1758.1</ele>
        <time>2013-02-27T15:28:15+01:00</time>
      </trkpt>
      <trkpt lat="43.05672184179" lon="-5.40412348609">
        <ele>1757.2</ele>
        <time>2013-02-27T15:28:17+01:00</time>
      </trkpt>
      <trkpt lat="43.0568273861" lon="-5.40398524871">
        <ele>1753.52</ele>
        <time>2013-02-27T15:28:18+01:00</time>
      </trkpt>
      <trkpt lat="43.05685623984" lon="-5.40387659852">
        <ele>1751.95</ele>
        <time>2013-02-27T15:28:18+01:00</time>
      </trkpt>
      <trkpt lat="43.05687129774" lon="-5.40378083952">
        <ele>1750.52</ele>
        <time>2013-02-27T15:28:20+01:00</time>
      </trkpt>
      <trkpt lat="43.05687058159" lon="-5.40373261791">
        <ele>1748.76</ele>
        <time>2013-02-27T15:28:20+01:00</time>
      </trkpt>
      <trkpt lat="43.05687114552" lon="-5.40368964782">
        <ele>1746.86</ele>
        <time>2013-02-27T15:28:21+01:00</time>
      </trkpt>
      <trkpt lat="43.05690604475" lon="-5.40363719165">
        <ele>1745.12</ele>
        <time>2013-02-27T15:28:23+01:00</time>
      </trkpt>
      <trkpt lat="43.05694472153" lon="-5.40358359665">
        <ele>1743.5</ele>
        <time>2013-02-27T15:28:25+01:00</time>
      </trkpt>
      <trkpt lat="43.05699906523" lon="-5.40349505604">
        <ele>1741.86</ele>
        <time>2013-02-27T15:28:26+01:00</time>
      </trkpt>
      <trkpt lat="43.05704966419" lon="-5.40338280005">
        <ele>1739.71</ele>
        <time>2013-02-27T15:28:27+01:00</time>
      </trkpt>
      <trkpt lat="43.05708499675" lon="-5.40326928785">
        <ele>1737.64</ele>
        <time>2013-02-27T15:28:28+01:00</time>
      </trkpt>
      <trkpt lat="43.0571365544" lon="-5.4031642416">
        <ele>1735.77</ele>
        <time>2013-02-27T15:28:28+01:00</time>
      </trkpt>
      <trkpt lat="43.05719682208" lon="-5.40305170196">
        <ele>1733.83</ele>
        <time>2013-02-27T15:28:29+01:00</time>
      </trkpt>
      <trkpt lat="43.05723172245" lon="-5.40298596008">
        <ele>1732.01</ele>
        <time>2013-02-27T15:28:30+01:00</time>
      </trkpt>
      <trkpt lat="43.05728646484" lon="-5.40286309269">
        <ele>1730.07</ele>
        <time>2013-02-27T15:28:32+01:00</time>
      </trkpt>
      <trkpt lat="43.05732597884" lon="-5.4027889654">
        <ele>1728.19</ele>
        <time>2013-02-27T15:28:33+01:00</time>
      </trkpt>
      <trkpt lat="43.05734853321" lon="-5.4027298835">
        <ele>1726.38</ele>
        <time>2013-02-27T15:28:34+01:00</time>
      </trkpt>
      <trkpt lat="43.05736018546" lon="-5.40265825385">
        <ele>1724.49</ele>
        <time>2013-02-27T15:28:35+01:00</time>
      </trkpt>
      <trkpt lat="43.05738129138" lon="-5.40260517">
        <ele>1722.75</ele>
        <time>2013-02-27T15:28:35+01:00</time>
      </trkpt>
      <trkpt lat="43.05740550299" lon="-5.40253838335">
        <ele>1720.87</ele>
        <time>2013-02-27T15:28:37+01:00</time>
      </trkpt>
      <trkpt lat="43.05743379908" lon="-5.40248681959">
        <ele>1718.95</ele>
        <time>2013-02-27T15:28:38+01:00</time>
      </trkpt>
      <trkpt lat="43.05745468742" lon="-5.40244019252">
        <ele>1717.27</ele>
        <time>2013-02-27T15:28:38+01:00</time>
      </trkpt>
      <trkpt lat="43.05747918283" lon="-5.40240116164">
        <ele>1712.68</ele>
        <time>2013-02-27T15:28:40+01:00</time>
      </trkpt>
      <trkpt lat="43.05749246381" lon="-5.40232542852">
        <ele>1709.58</ele>
        <time>2013-02-27T15:28:41+01:00</time>
      </trkpt>
      <trkpt lat="43.0575133255" lon="-5.40230632564">
        <ele>1707.28</ele>
        <time>2013-02-27T15:28:42+01:00</time>
      </trkpt>
      <trkpt lat="43.0575249596" lon="-5.40233439002">
        <ele>1707.52</ele>
        <time>2013-02-27T15:28:46+01:00</time>
      </trkpt>
      <trkpt lat="43.05754373757" lon="-5.40231931786">
        <ele>1702.25</ele>
        <time>2013-02-27T15:28:57+01:00</time>
      </trkpt>
      <trkpt lat="43.05760664401" lon="-5.40227073787">
        <ele>1699.75</ele>
        <time>2013-02-27T15:29:17+01:00</time>
      </trkpt>
      <trkpt lat="43.05763401933" lon="-5.40221231951">
        <ele>1697.4</ele>
        <time>2013-02-27T15:29:17+01:00</time>
      </trkpt>
      <trkpt lat="43.05765848276" lon="-5.40215314363">
        <ele>1695.27</ele>
        <time>2013-02-27T15:29:18+01:00</time>
      </trkpt>
      <trkpt lat="43.05767812876" lon="-5.40210566018">
        <ele>1692.79</ele>
        <time>2013-02-27T15:29:20+01:00</time>
      </trkpt>
      <trkpt lat="43.05768996689" lon="-5.4020587923">
        <ele>1690.85</ele>
        <time>2013-02-27T15:29:21+01:00</time>
      </trkpt>
      <trkpt lat="43.05775694062" lon="-5.40194248418">
        <ele>1687.82</ele>
        <time>2013-02-27T15:29:21+01:00</time>
      </trkpt>
      <trkpt lat="43.05780082849" lon="-5.4018626582">
        <ele>1685.38</ele>
        <time>2013-02-27T15:29:22+01:00</time>
      </trkpt>
      <trkpt lat="43.05782022927" lon="-5.40180873439">
        <ele>1682.85</ele>
        <time>2013-02-27T15:29:24+01:00</time>
      </trkpt>
      <trkpt lat="43.05783518225" lon="-5.40177082861">
        <ele>1679.7</ele>
        <time>2013-02-27T15:29:24+01:00</time>
      </trkpt>
      <trkpt lat="43.05782117522" lon="-5.40174614195">
        <ele>1677.89</ele>
        <time>2013-02-27T15:29:27+01:00</time>
      </trkpt>
      <trkpt lat="43.05783440932" lon="-5.40169803382">
        <ele>1674.6</ele>
        <time>2013-02-27T15:29:28+01:00</time>
      </trkpt>
      <trkpt lat="43.05783267753" lon="-5.4016545992">
        <ele>1672.25</ele>
        <time>2013-02-27T15:29:29+01:00</time>
      </trkpt>
      <trkpt lat="43.05783454115" lon="-5.40160476714">
        <ele>1670.78</ele>
        <time>2013-02-27T15:29:31+01:00</time>
      </trkpt>
      <trkpt lat="43.05783896481" lon="-5.40156607241">
        <ele>1668.82</ele>
        <time>2013-02-27T15:29:31+01:00</time>
      </trkpt>
      <trkpt lat="43.05784154432" lon="-5.40152191064">
        <ele>1665.88</ele>
        <time>2013-02-27T15:29:33+01:00</time>
      </trkpt>
      <trkpt lat="43.05785679398" lon="-5.40147855668">
        <ele>1663.18</ele>
        <time>2013-02-27T15:29:33+01:00</time>
      </trkpt>
      <trkpt lat="43.05784660875" lon="-5.40156060902">
        <ele>1660.92</ele>
        <time>2013-02-27T15:29:35+01:00</time>
      </trkpt>
      <trkpt lat="43.05784647453" lon="-5.40159834564">
        <ele>1658.05</ele>
        <time>2013-02-27T15:29:35+01:00</time>
      </trkpt>
      <trkpt lat="43.05788607732" lon="-5.40157444406">
        <ele>1658.82</ele>
        <time>2013-02-27T15:29:40+01:00</time>
      </trkpt>
      <trkpt lat="43.05791491911" lon="-5.40156751798">
        <ele>1657.59</ele>
        <time>2013-02-27T15:29:41+01:00</time>
      </trkpt>
      <trkpt lat="43.05793306694" lon="-5.4015489664">
        <ele>1656.71</ele>
        <time>2013-02-27T15:29:43+01:00</time>
      </trkpt>
      <trkpt lat="43.05795970094" lon="-5.401541828">
        <ele>1655.19</ele>
        <time>2013-02-27T15:29:46+01:00</time>
      </trkpt>
      <trkpt lat="43.05798988652" lon="-5.40152782333">
        <ele>1654.64</ele>
        <time>2013-02-27T15:29:48+01:00</time>
      </trkpt>
      <trkpt lat="43.05799713375" lon="-5.40152364845">
        <ele>1653.7</ele>
        <time>2013-02-27T15:29:50+01:00</time>
      </trkpt>
      <trkpt lat="43.05800148884" lon="-5.40152110339">
        <ele>1652.8</ele>
        <time>2013-02-27T15:29:51+01:00</time>
      </trkpt>
      <trkpt lat="43.05801281452" lon="-5.40151253784">
        <ele>1652.02</ele>
        <time>2013-02-27T15:29:52+01:00</time>
      </trkpt>
      <trkpt lat="43.05811269906" lon="-5.40144027113">
        <ele>1650.96</ele>
        <time>2013-02-27T15:29:53+01:00</time>
      </trkpt>
      <trkpt lat="43.05815208846" lon="-5.40141193736">
        <ele>1650.03</ele>
        <time>2013-02-27T15:29:54+01:00</time>
      </trkpt>
      <trkpt lat="43.05817726659" lon="-5.40139634643">
        <ele>1649.09</ele>
        <time>2013-02-27T15:29:55+01:00</time>
      </trkpt>
      <trkpt lat="43.05821755731" lon="-5.40137775105">
        <ele>1648.16</ele>
        <time>2013-02-27T15:29:58+01:00</time>
      </trkpt>
      <trkpt lat="43.05824651835" lon="-5.40136012515">
        <ele>1645.33</ele>
        <time>2013-02-27T15:30:00+01:00</time>
      </trkpt>
      <trkpt lat="43.05826696288" lon="-5.40134843306">
        <ele>1643.58</ele>
        <time>2013-02-27T15:30:02+01:00</time>
      </trkpt>
      <trkpt lat="43.05827755615" lon="-5.4013160539">
        <ele>1642.63</ele>
        <time>2013-02-27T15:30:08+01:00</time>
      </trkpt>
      <trkpt lat="43.05829706386" lon="-5.40127429383">
        <ele>1640.72</ele>
        <time>2013-02-27T15:30:11+01:00</time>
      </trkpt>
      <trkpt lat="43.05831451696" lon="-5.40124167802">
        <ele>1639.15</ele>
        <time>2013-02-27T15:30:13+01:00</time>
      </trkpt>
      <trkpt lat="43.05832373055" lon="-5.40121322044">
        <ele>1637.94</ele>
        <time>2013-02-27T15:30:19+01:00</time>
      </trkpt>
      <trkpt lat="43.05833396839" lon="-5.40117665428">
        <ele>1637.05</ele>
        <time>2013-02-27T15:30:27+01:00</time>
      </trkpt>
      <trkpt lat="43.058351098" lon="-5.40115421382">
        <ele>1635.78</ele>
        <time>2013-02-27T15:30:28+01:00</time>
      </trkpt>
      <trkpt lat="43.05836978677" lon="-5.4011327731">
        <ele>1634.3</ele>
        <time>2013-02-27T15:30:30+01:00</time>
      </trkpt>
      <trkpt lat="43.05839485011" lon="-5.4011006407">
        <ele>1633.26</ele>
        <time>2013-02-27T15:30:32+01:00</time>
      </trkpt>
      <trkpt lat="43.05841602713" lon="-5.40107328758">
        <ele>1632.54</ele>
        <time>2013-02-27T15:30:33+01:00</time>
      </trkpt>
      <trkpt lat="43.05843862602" lon="-5.40103977392">
        <ele>1631.57</ele>
        <time>2013-02-27T15:30:34+01:00</time>
      </trkpt>
      <trkpt lat="43.05846242321" lon="-5.40100006185">
        <ele>1630.82</ele>
        <time>2013-02-27T15:30:34+01:00</time>
      </trkpt>
      <trkpt lat="43.058486906" lon="-5.40095263886">
        <ele>1629.66</ele>
        <time>2013-02-27T15:30:35+01:00</time>
      </trkpt>
      <trkpt lat="43.0585099109" lon="-5.40090467109">
        <ele>1628.59</ele>
        <time>2013-02-27T15:30:37+01:00</time>
      </trkpt>
      <trkpt lat="43.05852997683" lon="-5.40085159455">
        <ele>1627.44</ele>
        <time>2013-02-27T15:30:38+01:00</time>
      </trkpt>
      <trkpt lat="43.05854808925" lon="-5.40079302828">
        <ele>1626.59</ele>
        <time>2013-02-27T15:30:38+01:00</time>
      </trkpt>
      <trkpt lat="43.05856325287" lon="-5.40073806208">
        <ele>1625.74</ele>
        <time>2013-02-27T15:30:39+01:00</time>
      </trkpt>
      <trkpt lat="43.05857797073" lon="-5.40068564357">
        <ele>1624.63</ele>
        <time>2013-02-27T15:30:41+01:00</time>
      </trkpt>
      <trkpt lat="43.05859049405" lon="-5.40063574294">
        <ele>1623.86</ele>
        <time>2013-02-27T15:30:41+01:00</time>
      </trkpt>
      <trkpt lat="43.05860464948" lon="-5.40059757855">
        <ele>1623.45</ele>
        <time>2013-02-27T15:30:42+01:00</time>
      </trkpt>
      <trkpt lat="43.05861867879" lon="-5.40056406235">
        <ele>1623.01</ele>
        <time>2013-02-27T15:30:44+01:00</time>
      </trkpt>
      <trkpt lat="43.0586349541" lon="-5.40054461777">
        <ele>1622.69</ele>
        <time>2013-02-27T15:30:45+01:00</time>
      </trkpt>
      <trkpt lat="43.05868032849" lon="-5.40053402418">
        <ele>1622.15</ele>
        <time>2013-02-27T15:30:47+01:00</time>
      </trkpt>
      <trkpt lat="43.0587112969" lon="-5.40052761393">
        <ele>1621.36</ele>
        <time>2013-02-27T15:30:48+01:00</time>
      </trkpt>
      <trkpt lat="43.05874038994" lon="-5.4005137255">
        <ele>1620.84</ele>
        <time>2013-02-27T15:30:52+01:00</time>
      </trkpt>
      <trkpt lat="43.05876313731" lon="-5.40048818484">
        <ele>1620.26</ele>
        <time>2013-02-27T15:30:53+01:00</time>
      </trkpt>
      <trkpt lat="43.05879154721" lon="-5.4004573096">
        <ele>1619.55</ele>
        <time>2013-02-27T15:30:55+01:00</time>
      </trkpt>
      <trkpt lat="43.05884921091" lon="-5.40042986014">
        <ele>1615.12</ele>
        <time>2013-02-27T15:30:56+01:00</time>
      </trkpt>
      <trkpt lat="43.05885933549" lon="-5.40039687761">
        <ele>1611.85</ele>
        <time>2013-02-27T15:30:58+01:00</time>
      </trkpt>
      <trkpt lat="43.05883178905" lon="-5.40041093411">
        <ele>1610.77</ele>
        <time>2013-02-27T15:31:01+01:00</time>
      </trkpt>
      <trkpt lat="43.05888982582" lon="-5.40038490266">
        <ele>1608.65</ele>
        <time>2013-02-27T15:31:02+01:00</time>
      </trkpt>
      <trkpt lat="43.058944211" lon="-5.40035416146">
        <ele>1606.3</ele>
        <time>2013-02-27T15:31:03+01:00</time>
      </trkpt>
      <trkpt lat="43.05897144169" lon="-5.40035089247">
        <ele>1606.55</ele>
        <time>2013-02-27T15:31:05+01:00</time>
      </trkpt>
      <trkpt lat="43.05900853789" lon="-5.40034205793">
        <ele>1605.63</ele>
        <time>2013-02-27T15:31:05+01:00</time>
      </trkpt>
      <trkpt lat="43.05904418738" lon="-5.4003406263">
        <ele>1604.6</ele>
        <time>2013-02-27T15:31:06+01:00</time>
      </trkpt>
      <trkpt lat="43.05907616124" lon="-5.40033839537">
        <ele>1603.81</ele>
        <time>2013-02-27T15:31:07+01:00</time>
      </trkpt>
      <trkpt lat="43.05910513604" lon="-5.40033820033">
        <ele>1602.16</ele>
        <time>2013-02-27T15:31:09+01:00</time>
      </trkpt>
      <trkpt lat="43.05913478672" lon="-5.40036292178">
        <ele>1601.19</ele>
        <time>2013-02-27T15:31:12+01:00</time>
      </trkpt>
      <trkpt lat="43.05914737787" lon="-5.40037669889">
        <ele>1601.31</ele>
        <time>2013-02-27T15:31:15+01:00</time>
      </trkpt>
      <trkpt lat="43.05916519856" lon="-5.40039544783">
        <ele>1600.81</ele>
        <time>2013-02-27T15:31:17+01:00</time>
      </trkpt>
      <trkpt lat="43.05916624524" lon="-5.40036256956">
        <ele>1598.46</ele>
        <time>2013-02-27T15:31:31+01:00</time>
      </trkpt>
      <trkpt lat="43.05916876798" lon="-5.40033118347">
        <ele>1597.12</ele>
        <time>2013-02-27T15:31:33+01:00</time>
      </trkpt>
      <trkpt lat="43.05918003489" lon="-5.40029587134">
        <ele>1596.44</ele>
        <time>2013-02-27T15:31:36+01:00</time>
      </trkpt>
      <trkpt lat="43.05919822315" lon="-5.40031191512">
        <ele>1595.45</ele>
        <time>2013-02-27T15:31:38+01:00</time>
      </trkpt>
      <trkpt lat="43.059209697" lon="-5.4003334578">
        <ele>1594.2</ele>
        <time>2013-02-27T15:31:42+01:00</time>
      </trkpt>
      <trkpt lat="43.05923189227" lon="-5.40032857351">
        <ele>1593.78</ele>
        <time>2013-02-27T15:31:47+01:00</time>
      </trkpt>
      <trkpt lat="43.05925082112" lon="-5.40028795253">
        <ele>1593.38</ele>
        <time>2013-02-27T15:31:51+01:00</time>
      </trkpt>
      <trkpt lat="43.05927945647" lon="-5.40026563465">
        <ele>1592.98</ele>
        <time>2013-02-27T15:31:53+01:00</time>
      </trkpt>
      <trkpt lat="43.05930627582" lon="-5.40025406194">
        <ele>1592.8</ele>
        <time>2013-02-27T15:31:54+01:00</time>
      </trkpt>
      <trkpt lat="43.05932709592" lon="-5.40023739758">
        <ele>1592.31</ele>
        <time>2013-02-27T15:31:57+01:00</time>
      </trkpt>
      <trkpt lat="43.0593442016" lon="-5.40020174409">
        <ele>1591.1</ele>
        <time>2013-02-27T15:31:58+01:00</time>
      </trkpt>
      <trkpt lat="43.05935885449" lon="-5.40016323155">
        <ele>1590.72</ele>
        <time>2013-02-27T15:32:00+01:00</time>
      </trkpt>
      <trkpt lat="43.05936470197" lon="-5.40012931044">
        <ele>1590.8</ele>
        <time>2013-02-27T15:32:02+01:00</time>
      </trkpt>
      <trkpt lat="43.05937171315" lon="-5.4001509478">
        <ele>1588.64</ele>
        <time>2013-02-27T15:32:10+01:00</time>
      </trkpt>
      <trkpt lat="43.05939657683" lon="-5.40013966124">
        <ele>1587.27</ele>
        <time>2013-02-27T15:32:13+01:00</time>
      </trkpt>
      <trkpt lat="43.05941835243" lon="-5.40011660287">
        <ele>1587.71</ele>
        <time>2013-02-27T15:32:15+01:00</time>
      </trkpt>
      <trkpt lat="43.05942954166" lon="-5.40009343084">
        <ele>1587.01</ele>
        <time>2013-02-27T15:32:18+01:00</time>
      </trkpt>
      <trkpt lat="43.05943959144" lon="-5.40006237667">
        <ele>1586.19</ele>
        <time>2013-02-27T15:32:21+01:00</time>
      </trkpt>
      <trkpt lat="43.05944491288" lon="-5.40004168919">
        <ele>1585.49</ele>
        <time>2013-02-27T15:32:23+01:00</time>
      </trkpt>
      <trkpt lat="43.05947978075" lon="-5.40000374858">
        <ele>1584.97</ele>
        <time>2013-02-27T15:32:26+01:00</time>
      </trkpt>
      <trkpt lat="43.05951112468" lon="-5.39999144009">
        <ele>1583.44</ele>
        <time>2013-02-27T15:32:27+01:00</time>
      </trkpt>
      <trkpt lat="43.05952152158" lon="-5.39995970176">
        <ele>1580.9</ele>
        <time>2013-02-27T15:32:41+01:00</time>
      </trkpt>
      <trkpt lat="43.05953697848" lon="-5.39992592851">
        <ele>1581.24</ele>
        <time>2013-02-27T15:32:43+01:00</time>
      </trkpt>
      <trkpt lat="43.05955794007" lon="-5.39992058202">
        <ele>1580.47</ele>
        <time>2013-02-27T15:32:46+01:00</time>
      </trkpt>
      <trkpt lat="43.05953938408" lon="-5.39993854009">
        <ele>1579.87</ele>
        <time>2013-02-27T15:32:52+01:00</time>
      </trkpt>
      <trkpt lat="43.05952240333" lon="-5.39996832307">
        <ele>1578.86</ele>
        <time>2013-02-27T15:32:57+01:00</time>
      </trkpt>
      <trkpt lat="43.05950607473" lon="-5.3999960491">
        <ele>1578.5</ele>
        <time>2013-02-27T15:33:01+01:00</time>
      </trkpt>
      <trkpt lat="43.05949070804" lon="-5.39997935457">
        <ele>1577.78</ele>
        <time>2013-02-27T15:33:09+01:00</time>
      </trkpt>
      <trkpt lat="43.0594968523" lon="-5.39995319429">
        <ele>1577.32</ele>
        <time>2013-02-27T15:33:20+01:00</time>
      </trkpt>
      <trkpt lat="43.05950522253" lon="-5.39992489524">
        <ele>1576.73</ele>
        <time>2013-02-27T15:33:21+01:00</time>
      </trkpt>
      <trkpt lat="43.05951628431" lon="-5.39989214512">
        <ele>1576.27</ele>
        <time>2013-02-27T15:33:25+01:00</time>
      </trkpt>
      <trkpt lat="43.05951739025" lon="-5.39985951061">
        <ele>1574.5</ele>
        <time>2013-02-27T15:33:27+01:00</time>
      </trkpt>
      <trkpt lat="43.05952150064" lon="-5.39982884383">
        <ele>1575.17</ele>
        <time>2013-02-27T15:33:32+01:00</time>
      </trkpt>
      <trkpt lat="43.05953563318" lon="-5.39979635777">
        <ele>1574.97</ele>
        <time>2013-02-27T15:33:35+01:00</time>
      </trkpt>
      <trkpt lat="43.05954923919" lon="-5.39978374747">
        <ele>1574.69</ele>
        <time>2013-02-27T15:33:38+01:00</time>
      </trkpt>
      <trkpt lat="43.05958597378" lon="-5.39975441438">
        <ele>1573.34</ele>
        <time>2013-02-27T15:33:47+01:00</time>
      </trkpt>
      <trkpt lat="43.05961558304" lon="-5.3997400988">
        <ele>1572.63</ele>
        <time>2013-02-27T15:33:50+01:00</time>
      </trkpt>
      <trkpt lat="43.05964366664" lon="-5.39974917152">
        <ele>1571.97</ele>
        <time>2013-02-27T15:33:53+01:00</time>
      </trkpt>
      <trkpt lat="43.0596687629" lon="-5.39975433882">
        <ele>1571.24</ele>
        <time>2013-02-27T15:33:57+01:00</time>
      </trkpt>
      <trkpt lat="43.05968684068" lon="-5.39975984624">
        <ele>1571.04</ele>
        <time>2013-02-27T15:34:03+01:00</time>
      </trkpt>
      <trkpt lat="43.05970019625" lon="-5.39974650669">
        <ele>1571.03</ele>
        <time>2013-02-27T15:34:06+01:00</time>
      </trkpt>
      <trkpt lat="43.05970803085" lon="-5.39970572726">
        <ele>1570.18</ele>
        <time>2013-02-27T15:34:11+01:00</time>
      </trkpt>
      <trkpt lat="43.05969819752" lon="-5.39968671587">
        <ele>1569.77</ele>
        <time>2013-02-27T15:34:15+01:00</time>
      </trkpt>
      <trkpt lat="43.05968982795" lon="-5.3996411978">
        <ele>1569.07</ele>
        <time>2013-02-27T15:34:25+01:00</time>
      </trkpt>
      <trkpt lat="43.05970012339" lon="-5.39961251406">
        <ele>1569.85</ele>
        <time>2013-02-27T15:34:45+01:00</time>
      </trkpt>
      <trkpt lat="43.05971005901" lon="-5.39958026072">
        <ele>1569.72</ele>
        <time>2013-02-27T15:34:47+01:00</time>
      </trkpt>
      <trkpt lat="43.05973115657" lon="-5.39953939226">
        <ele>1569.88</ele>
        <time>2013-02-27T15:34:49+01:00</time>
      </trkpt>
      <trkpt lat="43.05976691129" lon="-5.39949743597">
        <ele>1570.08</ele>
        <time>2013-02-27T15:34:50+01:00</time>
      </trkpt>
      <trkpt lat="43.05980541415" lon="-5.39944707282">
        <ele>1570.05</ele>
        <time>2013-02-27T15:34:52+01:00</time>
      </trkpt>
      <trkpt lat="43.059846983" lon="-5.39940235658">
        <ele>1570.09</ele>
        <time>2013-02-27T15:34:52+01:00</time>
      </trkpt>
      <trkpt lat="43.05990296519" lon="-5.39934492809">
        <ele>1570.17</ele>
        <time>2013-02-27T15:34:54+01:00</time>
      </trkpt>
      <trkpt lat="43.05995229842" lon="-5.39929154357">
        <ele>1570.19</ele>
        <time>2013-02-27T15:34:54+01:00</time>
      </trkpt>
      <trkpt lat="43.06005373436" lon="-5.39922974355">
        <ele>1569.83</ele>
        <time>2013-02-27T15:34:56+01:00</time>
      </trkpt>
      <trkpt lat="43.06012981" lon="-5.39917309611">
        <ele>1569.82</ele>
        <time>2013-02-27T15:34:57+01:00</time>
      </trkpt>
      <trkpt lat="43.06018317018" lon="-5.39912088666">
        <ele>1570.01</ele>
        <time>2013-02-27T15:34:58+01:00</time>
      </trkpt>
      <trkpt lat="43.06022233975" lon="-5.39908805572">
        <ele>1570.11</ele>
        <time>2013-02-27T15:34:58+01:00</time>
      </trkpt>
      <trkpt lat="43.06027802398" lon="-5.39906327741">
        <ele>1570.03</ele>
        <time>2013-02-27T15:34:59+01:00</time>
      </trkpt>
      <trkpt lat="43.06030076139" lon="-5.39903176788">
        <ele>1569.83</ele>
        <time>2013-02-27T15:35:00+01:00</time>
      </trkpt>
      <trkpt lat="43.06031365724" lon="-5.39899991794">
        <ele>1569.85</ele>
        <time>2013-02-27T15:35:01+01:00</time>
      </trkpt>
      <trkpt lat="43.06035180921" lon="-5.39898442844">
        <ele>1569.7</ele>
        <time>2013-02-27T15:35:03+01:00</time>
      </trkpt>
      <trkpt lat="43.06038297599" lon="-5.3989500828">
        <ele>1569.65</ele>
        <time>2013-02-27T15:35:04+01:00</time>
      </trkpt>
      <trkpt lat="43.06042930837" lon="-5.39896742061">
        <ele>1569.22</ele>
        <time>2013-02-27T15:35:05+01:00</time>
      </trkpt>
      <trkpt lat="43.06047719865" lon="-5.39896733425">
        <ele>1569.08</ele>
        <time>2013-02-27T15:35:06+01:00</time>
      </trkpt>
      <trkpt lat="43.06051745448" lon="-5.398973419">
        <ele>1568.97</ele>
        <time>2013-02-27T15:35:07+01:00</time>
      </trkpt>
      <trkpt lat="43.06055303181" lon="-5.39901466792">
        <ele>1568.32</ele>
        <time>2013-02-27T15:35:08+01:00</time>
      </trkpt>
      <trkpt lat="43.06059207909" lon="-5.39907426549">
        <ele>1567.86</ele>
        <time>2013-02-27T15:35:09+01:00</time>
      </trkpt>
      <trkpt lat="43.06062740338" lon="-5.39912435597">
        <ele>1567.39</ele>
        <time>2013-02-27T15:35:10+01:00</time>
      </trkpt>
      <trkpt lat="43.06065656075" lon="-5.39916998036">
        <ele>1566.85</ele>
        <time>2013-02-27T15:35:11+01:00</time>
      </trkpt>
      <trkpt lat="43.06069559684" lon="-5.39923584301">
        <ele>1566.28</ele>
        <time>2013-02-27T15:35:13+01:00</time>
      </trkpt>
      <trkpt lat="43.06072941127" lon="-5.39929433002">
        <ele>1565.51</ele>
        <time>2013-02-27T15:35:13+01:00</time>
      </trkpt>
      <trkpt lat="43.0607703604" lon="-5.39936113193">
        <ele>1564.63</ele>
        <time>2013-02-27T15:35:14+01:00</time>
      </trkpt>
      <trkpt lat="43.06080704415" lon="-5.39942438996">
        <ele>1564.13</ele>
        <time>2013-02-27T15:35:16+01:00</time>
      </trkpt>
      <trkpt lat="43.06085358908" lon="-5.39938944449">
        <ele>1563.51</ele>
        <time>2013-02-27T15:35:17+01:00</time>
      </trkpt>
      <trkpt lat="43.06090286298" lon="-5.39934745256">
        <ele>1562.6</ele>
        <time>2013-02-27T15:35:17+01:00</time>
      </trkpt>
      <trkpt lat="43.060977359" lon="-5.39930794056">
        <ele>1561.89</ele>
        <time>2013-02-27T15:35:18+01:00</time>
      </trkpt>
      <trkpt lat="43.06103715167" lon="-5.39927328312">
        <ele>1561.17</ele>
        <time>2013-02-27T15:35:20+01:00</time>
      </trkpt>
      <trkpt lat="43.0610919585" lon="-5.39923610972">
        <ele>1560.47</ele>
        <time>2013-02-27T15:35:20+01:00</time>
      </trkpt>
      <trkpt lat="43.06115924625" lon="-5.39919803081">
        <ele>1559.53</ele>
        <time>2013-02-27T15:35:21+01:00</time>
      </trkpt>
      <trkpt lat="43.06123119015" lon="-5.39916554948">
        <ele>1558.73</ele>
        <time>2013-02-27T15:35:22+01:00</time>
      </trkpt>
      <trkpt lat="43.0612945852" lon="-5.3991300897">
        <ele>1557.7</ele>
        <time>2013-02-27T15:35:23+01:00</time>
      </trkpt>
      <trkpt lat="43.06136270772" lon="-5.39910738269">
        <ele>1556.92</ele>
        <time>2013-02-27T15:35:24+01:00</time>
      </trkpt>
      <trkpt lat="43.06142470223" lon="-5.39911356094">
        <ele>1555.96</ele>
        <time>2013-02-27T15:35:25+01:00</time>
      </trkpt>
      <trkpt lat="43.06148182174" lon="-5.39911704538">
        <ele>1555.04</ele>
        <time>2013-02-27T15:35:26+01:00</time>
      </trkpt>
      <trkpt lat="43.06153226189" lon="-5.39913110143">
        <ele>1554.22</ele>
        <time>2013-02-27T15:35:27+01:00</time>
      </trkpt>
      <trkpt lat="43.06158908741" lon="-5.39911299141">
        <ele>1553.45</ele>
        <time>2013-02-27T15:35:28+01:00</time>
      </trkpt>
      <trkpt lat="43.06163850636" lon="-5.39907952983">
        <ele>1553.23</ele>
        <time>2013-02-27T15:35:30+01:00</time>
      </trkpt>
      <trkpt lat="43.06169529528" lon="-5.39905694542">
        <ele>1552.53</ele>
        <time>2013-02-27T15:35:30+01:00</time>
      </trkpt>
      <trkpt lat="43.06173501742" lon="-5.39905933523">
        <ele>1550.34</ele>
        <time>2013-02-27T15:35:32+01:00</time>
      </trkpt>
      <trkpt lat="43.061764386" lon="-5.39905578988">
        <ele>1550.61</ele>
        <time>2013-02-27T15:35:33+01:00</time>
      </trkpt>
      <trkpt lat="43.06184241113" lon="-5.39902825872">
        <ele>1549.49</ele>
        <time>2013-02-27T15:35:34+01:00</time>
      </trkpt>
      <trkpt lat="43.06191410786" lon="-5.39900142893">
        <ele>1548.3</ele>
        <time>2013-02-27T15:35:34+01:00</time>
      </trkpt>
      <trkpt lat="43.06199188144" lon="-5.39896857032">
        <ele>1547.32</ele>
        <time>2013-02-27T15:35:35+01:00</time>
      </trkpt>
      <trkpt lat="43.06211301461" lon="-5.39897836008">
        <ele>1546.38</ele>
        <time>2013-02-27T15:35:37+01:00</time>
      </trkpt>
      <trkpt lat="43.06221582997" lon="-5.39895403238">
        <ele>1543.45</ele>
        <time>2013-02-27T15:35:38+01:00</time>
      </trkpt>
      <trkpt lat="43.062307371" lon="-5.39892026604">
        <ele>1543.65</ele>
        <time>2013-02-27T15:35:38+01:00</time>
      </trkpt>
      <trkpt lat="43.06236369952" lon="-5.39886637295">
        <ele>1542.78</ele>
        <time>2013-02-27T15:35:40+01:00</time>
      </trkpt>
      <trkpt lat="43.06235776556" lon="-5.39870083087">
        <ele>1541.48</ele>
        <time>2013-02-27T15:35:40+01:00</time>
      </trkpt>
      <trkpt lat="43.06236935278" lon="-5.39849331181">
        <ele>1539.75</ele>
        <time>2013-02-27T15:35:43+01:00</time>
      </trkpt>
      <trkpt lat="43.06237317897" lon="-5.39836275866">
        <ele>1538.68</ele>
        <time>2013-02-27T15:35:44+01:00</time>
      </trkpt>
      <trkpt lat="43.06239322259" lon="-5.3982657036">
        <ele>1537.4</ele>
        <time>2013-02-27T15:35:45+01:00</time>
      </trkpt>
      <trkpt lat="43.06239880711" lon="-5.39819083792">
        <ele>1536.11</ele>
        <time>2013-02-27T15:35:46+01:00</time>
      </trkpt>
      <trkpt lat="43.06239878119" lon="-5.39814155518">
        <ele>1534.87</ele>
        <time>2013-02-27T15:35:47+01:00</time>
      </trkpt>
      <trkpt lat="43.0623998853" lon="-5.39811182761">
        <ele>1533.64</ele>
        <time>2013-02-27T15:35:48+01:00</time>
      </trkpt>
      <trkpt lat="43.06240824322" lon="-5.3981447434">
        <ele>1530.25</ele>
        <time>2013-02-27T15:35:51+01:00</time>
      </trkpt>
      <trkpt lat="43.06243819774" lon="-5.39818960084">
        <ele>1528.5</ele>
        <time>2013-02-27T15:35:53+01:00</time>
      </trkpt>
      <trkpt lat="43.06245504255" lon="-5.39821994087">
        <ele>1526.72</ele>
        <time>2013-02-27T15:35:54+01:00</time>
      </trkpt>
      <trkpt lat="43.0624567016" lon="-5.39817518102">
        <ele>1525.31</ele>
        <time>2013-02-27T15:35:57+01:00</time>
      </trkpt>
      <trkpt lat="43.06243889454" lon="-5.39817997116">
        <ele>1523.6</ele>
        <time>2013-02-27T15:36:14+01:00</time>
      </trkpt>
      <trkpt lat="43.0624372647" lon="-5.39814710697">
        <ele>1521.26</ele>
        <time>2013-02-27T15:36:25+01:00</time>
      </trkpt>
      <trkpt lat="43.06245117075" lon="-5.39810723354">
        <ele>1519.73</ele>
        <time>2013-02-27T15:36:27+01:00</time>
      </trkpt>
      <trkpt lat="43.06246504619" lon="-5.39807623971">
        <ele>1518.43</ele>
        <time>2013-02-27T15:36:28+01:00</time>
      </trkpt>
      <trkpt lat="43.0624858588" lon="-5.39804138129">
        <ele>1516.79</ele>
        <time>2013-02-27T15:36:30+01:00</time>
      </trkpt>
      <trkpt lat="43.06252324464" lon="-5.3979845614">
        <ele>1515.27</ele>
        <time>2013-02-27T15:36:31+01:00</time>
      </trkpt>
      <trkpt lat="43.06256964292" lon="-5.39793874686">
        <ele>1513.7</ele>
        <time>2013-02-27T15:36:32+01:00</time>
      </trkpt>
      <trkpt lat="43.0626274282" lon="-5.39789825733">
        <ele>1511.91</ele>
        <time>2013-02-27T15:36:33+01:00</time>
      </trkpt>
      <trkpt lat="43.0626908407" lon="-5.39786999306">
        <ele>1510.69</ele>
        <time>2013-02-27T15:36:34+01:00</time>
      </trkpt>
      <trkpt lat="43.06274398599" lon="-5.39783623295">
        <ele>1509.63</ele>
        <time>2013-02-27T15:36:35+01:00</time>
      </trkpt>
      <trkpt lat="43.06277770729" lon="-5.39781920728">
        <ele>1507.92</ele>
        <time>2013-02-27T15:36:36+01:00</time>
      </trkpt>
      <trkpt lat="43.06277912894" lon="-5.39779214585">
        <ele>1506.41</ele>
        <time>2013-02-27T15:36:41+01:00</time>
      </trkpt>
      <trkpt lat="43.06279279079" lon="-5.39777003681">
        <ele>1505.71</ele>
        <time>2013-02-27T15:36:44+01:00</time>
      </trkpt>
      <trkpt lat="43.06279627961" lon="-5.39772892789">
        <ele>1504.21</ele>
        <time>2013-02-27T15:36:46+01:00</time>
      </trkpt>
      <trkpt lat="43.0628285384" lon="-5.3976805354">
        <ele>1502.56</ele>
        <time>2013-02-27T15:36:47+01:00</time>
      </trkpt>
      <trkpt lat="43.06285677169" lon="-5.39759113113">
        <ele>1500.97</ele>
        <time>2013-02-27T15:36:48+01:00</time>
      </trkpt>
      <trkpt lat="43.06287800167" lon="-5.39748879954">
        <ele>1499.31</ele>
        <time>2013-02-27T15:36:49+01:00</time>
      </trkpt>
      <trkpt lat="43.06287755981" lon="-5.39737461402">
        <ele>1497.94</ele>
        <time>2013-02-27T15:36:50+01:00</time>
      </trkpt>
      <trkpt lat="43.06288939697" lon="-5.39727697083">
        <ele>1496.5</ele>
        <time>2013-02-27T15:36:51+01:00</time>
      </trkpt>
      <trkpt lat="43.0629139662" lon="-5.39718399936">
        <ele>1495</ele>
        <time>2013-02-27T15:36:52+01:00</time>
      </trkpt>
      <trkpt lat="43.06291876167" lon="-5.39710869472">
        <ele>1493.56</ele>
        <time>2013-02-27T15:36:53+01:00</time>
      </trkpt>
      <trkpt lat="43.06291150891" lon="-5.39706269132">
        <ele>1492.24</ele>
        <time>2013-02-27T15:36:54+01:00</time>
      </trkpt>
      <trkpt lat="43.06289645058" lon="-5.39702580389">
        <ele>1491</ele>
        <time>2013-02-27T15:36:55+01:00</time>
      </trkpt>
      <trkpt lat="43.06288581686" lon="-5.39699556128">
        <ele>1489.72</ele>
        <time>2013-02-27T15:36:57+01:00</time>
      </trkpt>
      <trkpt lat="43.06288301843" lon="-5.39693837316">
        <ele>1488.37</ele>
        <time>2013-02-27T15:36:57+01:00</time>
      </trkpt>
      <trkpt lat="43.06288175791" lon="-5.39688150798">
        <ele>1487.07</ele>
        <time>2013-02-27T15:36:58+01:00</time>
      </trkpt>
      <trkpt lat="43.06287046716" lon="-5.39681260514">
        <ele>1485.84</ele>
        <time>2013-02-27T15:36:59+01:00</time>
      </trkpt>
      <trkpt lat="43.06285296823" lon="-5.39675494567">
        <ele>1484.59</ele>
        <time>2013-02-27T15:37:00+01:00</time>
      </trkpt>
      <trkpt lat="43.06282194873" lon="-5.39669328081">
        <ele>1483.41</ele>
        <time>2013-02-27T15:37:01+01:00</time>
      </trkpt>
      <trkpt lat="43.06279592328" lon="-5.39664897452">
        <ele>1482.27</ele>
        <time>2013-02-27T15:37:03+01:00</time>
      </trkpt>
      <trkpt lat="43.06280217521" lon="-5.39667121725">
        <ele>1481.11</ele>
        <time>2013-02-27T15:37:03+01:00</time>
      </trkpt>
      <trkpt lat="43.06279763474" lon="-5.3966502615">
        <ele>1479.87</ele>
        <time>2013-02-27T15:37:11+01:00</time>
      </trkpt>
      <trkpt lat="43.06280842778" lon="-5.39666826563">
        <ele>1479.69</ele>
        <time>2013-02-27T15:37:18+01:00</time>
      </trkpt>
      <trkpt lat="43.06283164173" lon="-5.39666388688">
        <ele>1477.3</ele>
        <time>2013-02-27T15:37:40+01:00</time>
      </trkpt>
      <trkpt lat="43.06281506154" lon="-5.39665288579">
        <ele>1477.1</ele>
        <time>2013-02-27T15:37:48+01:00</time>
      </trkpt>
      <trkpt lat="43.06278985197" lon="-5.39664914331">
        <ele>1476.58</ele>
        <time>2013-02-27T15:37:52+01:00</time>
      </trkpt>
      <trkpt lat="43.06276321828" lon="-5.39665134524">
        <ele>1476.15</ele>
        <time>2013-02-27T15:38:01+01:00</time>
      </trkpt>
      <trkpt lat="43.06277049792" lon="-5.39667183514">
        <ele>1475.18</ele>
        <time>2013-02-27T15:38:08+01:00</time>
      </trkpt>
      <trkpt lat="43.0627685005" lon="-5.3967090584">
        <ele>1474.25</ele>
        <time>2013-02-27T15:38:23+01:00</time>
      </trkpt>
      <trkpt lat="43.06275676869" lon="-5.39674010649">
        <ele>1473.59</ele>
        <time>2013-02-27T15:38:26+01:00</time>
      </trkpt>
      <trkpt lat="43.06276498352" lon="-5.39672365144">
        <ele>1473.19</ele>
        <time>2013-02-27T15:38:43+01:00</time>
      </trkpt>
      <trkpt lat="43.0627725944" lon="-5.39669675699">
        <ele>1472.39</ele>
        <time>2013-02-27T15:38:44+01:00</time>
      </trkpt>
      <trkpt lat="43.06278075505" lon="-5.39666495834">
        <ele>1471.43</ele>
        <time>2013-02-27T15:38:47+01:00</time>
      </trkpt>
      <trkpt lat="43.06277765006" lon="-5.39662687443">
        <ele>1470.22</ele>
        <time>2013-02-27T15:39:00+01:00</time>
      </trkpt>
      <trkpt lat="43.06276915463" lon="-5.39659417361">
        <ele>1469.49</ele>
        <time>2013-02-27T15:39:05+01:00</time>
      </trkpt>
      <trkpt lat="43.06276367209" lon="-5.39656364012">
        <ele>1468.91</ele>
        <time>2013-02-27T15:39:19+01:00</time>
      </trkpt>
      <trkpt lat="43.06277608721" lon="-5.39652950434">
        <ele>1468.75</ele>
        <time>2013-02-27T15:39:21+01:00</time>
      </trkpt>
      <trkpt lat="43.06279064017" lon="-5.39648995423">
        <ele>1468.57</ele>
        <time>2013-02-27T15:39:23+01:00</time>
      </trkpt>
      <trkpt lat="43.06280491663" lon="-5.39650739109">
        <ele>1465.73</ele>
        <time>2013-02-27T15:39:30+01:00</time>
      </trkpt>
      <trkpt lat="43.06280498289" lon="-5.3964937289">
        <ele>1465.79</ele>
        <time>2013-02-27T15:39:36+01:00</time>
      </trkpt>
      <trkpt lat="43.06280319189" lon="-5.39644940564">
        <ele>1465.5</ele>
        <time>2013-02-27T15:39:40+01:00</time>
      </trkpt>
      <trkpt lat="43.06280440949" lon="-5.39641365185">
        <ele>1465.65</ele>
        <time>2013-02-27T15:39:43+01:00</time>
      </trkpt>
      <trkpt lat="43.06279596935" lon="-5.3963726382">
        <ele>1465.24</ele>
        <time>2013-02-27T15:39:46+01:00</time>
      </trkpt>
      <trkpt lat="43.06278003209" lon="-5.39634391657">
        <ele>1465.08</ele>
        <time>2013-02-27T15:39:48+01:00</time>
      </trkpt>
      <trkpt lat="43.06279062449" lon="-5.39632207899">
        <ele>1463.93</ele>
        <time>2013-02-27T15:39:52+01:00</time>
      </trkpt>
      <trkpt lat="43.06280964088" lon="-5.39630443454">
        <ele>1463.7</ele>
        <time>2013-02-27T15:39:53+01:00</time>
      </trkpt>
      <trkpt lat="43.06282356401" lon="-5.39629795421">
        <ele>1463.32</ele>
        <time>2013-02-27T15:39:55+01:00</time>
      </trkpt>
      <trkpt lat="43.06280653931" lon="-5.39627768253">
        <ele>1463.69</ele>
        <time>2013-02-27T15:40:02+01:00</time>
      </trkpt>
      <trkpt lat="43.06278808047" lon="-5.396255188">
        <ele>1463.4</ele>
        <time>2013-02-27T15:40:05+01:00</time>
      </trkpt>
      <trkpt lat="43.06277191643" lon="-5.39622467167">
        <ele>1463.63</ele>
        <time>2013-02-27T15:40:10+01:00</time>
      </trkpt>
      <trkpt lat="43.06278719087" lon="-5.3961961049">
        <ele>1464.37</ele>
        <time>2013-02-27T15:40:14+01:00</time>
      </trkpt>
      <trkpt lat="43.06280090753" lon="-5.39616330124">
        <ele>1464.91</ele>
        <time>2013-02-27T15:40:16+01:00</time>
      </trkpt>
      <trkpt lat="43.06281287096" lon="-5.39613555105">
        <ele>1465.04</ele>
        <time>2013-02-27T15:40:20+01:00</time>
      </trkpt>
      <trkpt lat="43.06280281386" lon="-5.39609988678">
        <ele>1466.43</ele>
        <time>2013-02-27T15:40:25+01:00</time>
      </trkpt>
      <trkpt lat="43.06279381181" lon="-5.39605550887">
        <ele>1466.51</ele>
        <time>2013-02-27T15:40:28+01:00</time>
      </trkpt>
      <trkpt lat="43.06278008729" lon="-5.39600301763">
        <ele>1466.44</ele>
        <time>2013-02-27T15:40:31+01:00</time>
      </trkpt>
      <trkpt lat="43.062771322" lon="-5.39596963045">
        <ele>1466.69</ele>
        <time>2013-02-27T15:40:31+01:00</time>
      </trkpt>
      <trkpt lat="43.06276082724" lon="-5.39592419782">
        <ele>1466.84</ele>
        <time>2013-02-27T15:40:33+01:00</time>
      </trkpt>
      <trkpt lat="43.06274857535" lon="-5.39588895164">
        <ele>1466.74</ele>
        <time>2013-02-27T15:40:36+01:00</time>
      </trkpt>
      <trkpt lat="43.06273715979" lon="-5.39586335515">
        <ele>1466.78</ele>
        <time>2013-02-27T15:40:38+01:00</time>
      </trkpt>
      <trkpt lat="43.0627394029" lon="-5.39583054204">
        <ele>1466.92</ele>
        <time>2013-02-27T15:40:40+01:00</time>
      </trkpt>
      <trkpt lat="43.0627587611" lon="-5.39583242838">
        <ele>1466.15</ele>
        <time>2013-02-27T15:40:46+01:00</time>
      </trkpt>
      <trkpt lat="43.06277967515" lon="-5.39585374889">
        <ele>1464.74</ele>
        <time>2013-02-27T15:40:47+01:00</time>
      </trkpt>
      <trkpt lat="43.0627966216" lon="-5.39587589472">
        <ele>1465.11</ele>
        <time>2013-02-27T15:40:50+01:00</time>
      </trkpt>
      <trkpt lat="43.06280383191" lon="-5.39589282837">
        <ele>1464.82</ele>
        <time>2013-02-27T15:40:53+01:00</time>
      </trkpt>
      <trkpt lat="43.06282368176" lon="-5.39589075142">
        <ele>1464.41</ele>
        <time>2013-02-27T15:40:58+01:00</time>
      </trkpt>
      <trkpt lat="43.06281812988" lon="-5.39585888713">
        <ele>1464.43</ele>
        <time>2013-02-27T15:41:03+01:00</time>
      </trkpt>
      <trkpt lat="43.06281430377" lon="-5.39581865138">
        <ele>1464.48</ele>
        <time>2013-02-27T15:41:05+01:00</time>
      </trkpt>
      <trkpt lat="43.06282711723" lon="-5.39577955766">
        <ele>1464.43</ele>
        <time>2013-02-27T15:41:06+01:00</time>
      </trkpt>
      <trkpt lat="43.06284188398" lon="-5.39573901597">
        <ele>1464.55</ele>
        <time>2013-02-27T15:41:08+01:00</time>
      </trkpt>
      <trkpt lat="43.06285382273" lon="-5.39570334793">
        <ele>1464.89</ele>
        <time>2013-02-27T15:41:10+01:00</time>
      </trkpt>
      <trkpt lat="43.06285252809" lon="-5.39567969487">
        <ele>1465.3</ele>
        <time>2013-02-27T15:41:13+01:00</time>
      </trkpt>
      <trkpt lat="43.06284207112" lon="-5.39563361505">
        <ele>1466.02</ele>
        <time>2013-02-27T15:41:18+01:00</time>
      </trkpt>
      <trkpt lat="43.06285933195" lon="-5.39561645775">
        <ele>1465.56</ele>
        <time>2013-02-27T15:41:31+01:00</time>
      </trkpt>
      <trkpt lat="43.06288625404" lon="-5.39560531238">
        <ele>1465.81</ele>
        <time>2013-02-27T15:41:34+01:00</time>
      </trkpt>
      <trkpt lat="43.06290836135" lon="-5.39559446456">
        <ele>1466.18</ele>
        <time>2013-02-27T15:41:37+01:00</time>
      </trkpt>
      <trkpt lat="43.06293983959" lon="-5.39558149911">
        <ele>1465.43</ele>
        <time>2013-02-27T15:41:39+01:00</time>
      </trkpt>
      <trkpt lat="43.06295439047" lon="-5.39554953859">
        <ele>1465.73</ele>
        <time>2013-02-27T15:41:46+01:00</time>
      </trkpt>
      <trkpt lat="43.06296576554" lon="-5.39552152372">
        <ele>1465.9</ele>
        <time>2013-02-27T15:41:50+01:00</time>
      </trkpt>
      <trkpt lat="43.06296535659" lon="-5.39548205979">
        <ele>1466.4</ele>
        <time>2013-02-27T15:41:57+01:00</time>
      </trkpt>
      <trkpt lat="43.06298164783" lon="-5.39545314371">
        <ele>1466.19</ele>
        <time>2013-02-27T15:41:59+01:00</time>
      </trkpt>
      <trkpt lat="43.06299443425" lon="-5.39544717867">
        <ele>1466.28</ele>
        <time>2013-02-27T15:42:03+01:00</time>
      </trkpt>
      <trkpt lat="43.06301991845" lon="-5.39542497228">
        <ele>1466.52</ele>
        <time>2013-02-27T15:42:06+01:00</time>
      </trkpt>
      <trkpt lat="43.06304848461" lon="-5.39541764762">
        <ele>1467.32</ele>
        <time>2013-02-27T15:42:10+01:00</time>
      </trkpt>
      <trkpt lat="43.0630777007" lon="-5.39541423809">
        <ele>1467.46</ele>
        <time>2013-02-27T15:42:11+01:00</time>
      </trkpt>
      <trkpt lat="43.06310748264" lon="-5.3954144279">
        <ele>1467.78</ele>
        <time>2013-02-27T15:42:12+01:00</time>
      </trkpt>
      <trkpt lat="43.06314294332" lon="-5.39540447464">
        <ele>1468.82</ele>
        <time>2013-02-27T15:42:13+01:00</time>
      </trkpt>
      <trkpt lat="43.0631335734" lon="-5.39538504963">
        <ele>1469.82</ele>
        <time>2013-02-27T15:42:19+01:00</time>
      </trkpt>
      <trkpt lat="43.06313578979" lon="-5.39535387315">
        <ele>1469.17</ele>
        <time>2013-02-27T15:42:24+01:00</time>
      </trkpt>
      <trkpt lat="43.06313047982" lon="-5.39531992738">
        <ele>1469.69</ele>
        <time>2013-02-27T15:42:32+01:00</time>
      </trkpt>
      <trkpt lat="43.06311076297" lon="-5.39530256016">
        <ele>1470.45</ele>
        <time>2013-02-27T15:42:40+01:00</time>
      </trkpt>
      <trkpt lat="43.06309040944" lon="-5.39527858626">
        <ele>1471.71</ele>
        <time>2013-02-27T15:42:52+01:00</time>
      </trkpt>
      <trkpt lat="43.06307787141" lon="-5.39525533285">
        <ele>1471.57</ele>
        <time>2013-02-27T15:42:56+01:00</time>
      </trkpt>
      <trkpt lat="43.06309477629" lon="-5.39524471426">
        <ele>1471.84</ele>
        <time>2013-02-27T15:43:05+01:00</time>
      </trkpt>
      <trkpt lat="43.06308783076" lon="-5.39521234863">
        <ele>1471.62</ele>
        <time>2013-02-27T15:43:15+01:00</time>
      </trkpt>
      <trkpt lat="43.06306744645" lon="-5.39517896512">
        <ele>1472.17</ele>
        <time>2013-02-27T15:43:17+01:00</time>
      </trkpt>
      <trkpt lat="43.0630442479" lon="-5.39515548505">
        <ele>1472.71</ele>
        <time>2013-02-27T15:43:19+01:00</time>
      </trkpt>
      <trkpt lat="43.0630194855" lon="-5.39513329708">
        <ele>1472.95</ele>
        <time>2013-02-27T15:43:22+01:00</time>
      </trkpt>
      <trkpt lat="43.062994529" lon="-5.39511651892">
        <ele>1472.86</ele>
        <time>2013-02-27T15:43:24+01:00</time>
      </trkpt>
      <trkpt lat="43.06297497687" lon="-5.39510644446">
        <ele>1472.92</ele>
        <time>2013-02-27T15:43:26+01:00</time>
      </trkpt>
      <trkpt lat="43.06296808248" lon="-5.39507492527">
        <ele>1472.87</ele>
        <time>2013-02-27T15:43:31+01:00</time>
      </trkpt>
      <trkpt lat="43.0629615524" lon="-5.395032378">
        <ele>1472.55</ele>
        <time>2013-02-27T15:43:44+01:00</time>
      </trkpt>
      <trkpt lat="43.06294965926" lon="-5.39499945716">
        <ele>1472.76</ele>
        <time>2013-02-27T15:43:46+01:00</time>
      </trkpt>
      <trkpt lat="43.06293726753" lon="-5.39496040788">
        <ele>1473.05</ele>
        <time>2013-02-27T15:43:56+01:00</time>
      </trkpt>
      <trkpt lat="43.06292714711" lon="-5.39493507683">
        <ele>1473.44</ele>
        <time>2013-02-27T15:43:58+01:00</time>
      </trkpt>
      <trkpt lat="43.06292803838" lon="-5.3948994288">
        <ele>1474.21</ele>
        <time>2013-02-27T15:44:06+01:00</time>
      </trkpt>
      <trkpt lat="43.06292278671" lon="-5.39486568291">
        <ele>1474.84</ele>
        <time>2013-02-27T15:44:10+01:00</time>
      </trkpt>
      <trkpt lat="43.06292361393" lon="-5.39482574139">
        <ele>1475.33</ele>
        <time>2013-02-27T15:44:12+01:00</time>
      </trkpt>
      <trkpt lat="43.06292884204" lon="-5.39476994271">
        <ele>1476.2</ele>
        <time>2013-02-27T15:44:14+01:00</time>
      </trkpt>
      <trkpt lat="43.06294148821" lon="-5.3947301504">
        <ele>1476.39</ele>
        <time>2013-02-27T15:44:17+01:00</time>
      </trkpt>
      <trkpt lat="43.06296993429" lon="-5.39470348352">
        <ele>1476.41</ele>
        <time>2013-02-27T15:44:19+01:00</time>
      </trkpt>
      <trkpt lat="43.06300187563" lon="-5.39470753788">
        <ele>1477.14</ele>
        <time>2013-02-27T15:44:20+01:00</time>
      </trkpt>
      <trkpt lat="43.06301362832" lon="-5.3947371825">
        <ele>1477.36</ele>
        <time>2013-02-27T15:44:24+01:00</time>
      </trkpt>
      <trkpt lat="43.06299596287" lon="-5.39473647296">
        <ele>1477.46</ele>
        <time>2013-02-27T15:44:30+01:00</time>
      </trkpt>
      <trkpt lat="43.06298455759" lon="-5.39470908051">
        <ele>1478.16</ele>
        <time>2013-02-27T15:44:32+01:00</time>
      </trkpt>
      <trkpt lat="43.06299551314" lon="-5.39467352034">
        <ele>1478.13</ele>
        <time>2013-02-27T15:44:35+01:00</time>
      </trkpt>
      <trkpt lat="43.06301362987" lon="-5.39463784278">
        <ele>1478.33</ele>
        <time>2013-02-27T15:44:39+01:00</time>
      </trkpt>
      <trkpt lat="43.06301011183" lon="-5.39460576273">
        <ele>1479.09</ele>
        <time>2013-02-27T15:44:44+01:00</time>
      </trkpt>
      <trkpt lat="43.0629968689" lon="-5.39457138469">
        <ele>1479.64</ele>
        <time>2013-02-27T15:44:46+01:00</time>
      </trkpt>
      <trkpt lat="43.06298141276" lon="-5.39452253251">
        <ele>1480.85</ele>
        <time>2013-02-27T15:44:49+01:00</time>
      </trkpt>
      <trkpt lat="43.06296863206" lon="-5.39447373593">
        <ele>1480.77</ele>
        <time>2013-02-27T15:44:52+01:00</time>
      </trkpt>
      <trkpt lat="43.06295333542" lon="-5.39443058311">
        <ele>1481.11</ele>
        <time>2013-02-27T15:44:55+01:00</time>
      </trkpt>
      <trkpt lat="43.06294367115" lon="-5.394397008">
        <ele>1481.74</ele>
        <time>2013-02-27T15:44:57+01:00</time>
      </trkpt>
      <trkpt lat="43.06294773974" lon="-5.39436326973">
        <ele>1482.25</ele>
        <time>2013-02-27T15:44:58+01:00</time>
      </trkpt>
      <trkpt lat="43.06297182163" lon="-5.39434351336">
        <ele>1480.61</ele>
        <time>2013-02-27T15:45:06+01:00</time>
      </trkpt>
      <trkpt lat="43.06298042678" lon="-5.39432666885">
        <ele>1480.55</ele>
        <time>2013-02-27T15:45:09+01:00</time>
      </trkpt>
      <trkpt lat="43.06298760016" lon="-5.39430014168">
        <ele>1480.69</ele>
        <time>2013-02-27T15:45:11+01:00</time>
      </trkpt>
      <trkpt lat="43.06299414147" lon="-5.39427158113">
        <ele>1480</ele>
        <time>2013-02-27T15:45:12+01:00</time>
      </trkpt>
      <trkpt lat="43.06300363253" lon="-5.39422305053">
        <ele>1479.4</ele>
        <time>2013-02-27T15:45:12+01:00</time>
      </trkpt>
      <trkpt lat="43.06300727417" lon="-5.39418779637">
        <ele>1479.14</ele>
        <time>2013-02-27T15:45:13+01:00</time>
      </trkpt>
      <trkpt lat="43.06300947772" lon="-5.39415606921">
        <ele>1478.75</ele>
        <time>2013-02-27T15:45:15+01:00</time>
      </trkpt>
      <trkpt lat="43.06301077994" lon="-5.3941282149">
        <ele>1478.58</ele>
        <time>2013-02-27T15:45:17+01:00</time>
      </trkpt>
      <trkpt lat="43.06301473863" lon="-5.3940772318">
        <ele>1478.48</ele>
        <time>2013-02-27T15:45:19+01:00</time>
      </trkpt>
      <trkpt lat="43.06301174174" lon="-5.39403102653">
        <ele>1478.29</ele>
        <time>2013-02-27T15:45:22+01:00</time>
      </trkpt>
      <trkpt lat="43.06300349807" lon="-5.39399771265">
        <ele>1478.01</ele>
        <time>2013-02-27T15:45:29+01:00</time>
      </trkpt>
      <trkpt lat="43.06299762486" lon="-5.39396690999">
        <ele>1478.05</ele>
        <time>2013-02-27T15:45:31+01:00</time>
      </trkpt>
      <trkpt lat="43.06301341519" lon="-5.39393640841">
        <ele>1477.87</ele>
        <time>2013-02-27T15:45:43+01:00</time>
      </trkpt>
      <trkpt lat="43.0629963561" lon="-5.39391441601">
        <ele>1477.9</ele>
        <time>2013-02-27T15:45:56+01:00</time>
      </trkpt>
      <trkpt lat="43.06297229128" lon="-5.39390800587">
        <ele>1478.34</ele>
        <time>2013-02-27T15:46:03+01:00</time>
      </trkpt>
      <trkpt lat="43.0629583588" lon="-5.39393931268">
        <ele>1478.89</ele>
        <time>2013-02-27T15:46:08+01:00</time>
      </trkpt>
      <trkpt lat="43.06296599939" lon="-5.39396542239">
        <ele>1479.07</ele>
        <time>2013-02-27T15:46:12+01:00</time>
      </trkpt>
      <trkpt lat="43.06299415924" lon="-5.39396103763">
        <ele>1479.09</ele>
        <time>2013-02-27T15:46:37+01:00</time>
      </trkpt>
      <trkpt lat="43.06301915374" lon="-5.39395652555">
        <ele>1479.38</ele>
        <time>2013-02-27T15:46:39+01:00</time>
      </trkpt>
      <trkpt lat="43.06300252988" lon="-5.39394581489">
        <ele>1479.74</ele>
        <time>2013-02-27T15:46:42+01:00</time>
      </trkpt>
      <trkpt lat="43.0629921545" lon="-5.39397197663">
        <ele>1480.66</ele>
        <time>2013-02-27T15:46:58+01:00</time>
      </trkpt>
      <trkpt lat="43.06297048491" lon="-5.39396599297">
        <ele>1481.27</ele>
        <time>2013-02-27T15:47:06+01:00</time>
      </trkpt>
      <trkpt lat="43.06298317907" lon="-5.393986517">
        <ele>1480.83</ele>
        <time>2013-02-27T15:47:19+01:00</time>
      </trkpt>
      <trkpt lat="43.06300606122" lon="-5.39398525017">
        <ele>1480.22</ele>
        <time>2013-02-27T15:47:24+01:00</time>
      </trkpt>
      <trkpt lat="43.06302950955" lon="-5.3939900269">
        <ele>1479.74</ele>
        <time>2013-02-27T15:47:30+01:00</time>
      </trkpt>
      <trkpt lat="43.06305388202" lon="-5.3939903537">
        <ele>1479</ele>
        <time>2013-02-27T15:47:36+01:00</time>
      </trkpt>
      <trkpt lat="43.06304172219" lon="-5.39401452626">
        <ele>1478.57</ele>
        <time>2013-02-27T15:47:50+01:00</time>
      </trkpt>
      <trkpt lat="43.06305482349" lon="-5.39399253505">
        <ele>1478.72</ele>
        <time>2013-02-27T15:48:13+01:00</time>
      </trkpt>
      <trkpt lat="43.06305392335" lon="-5.39395937012">
        <ele>1479.29</ele>
        <time>2013-02-27T15:48:26+01:00</time>
      </trkpt>
      <trkpt lat="43.06306517624" lon="-5.39393416283">
        <ele>1479.24</ele>
        <time>2013-02-27T15:48:30+01:00</time>
      </trkpt>
      <trkpt lat="43.06304999246" lon="-5.39391772199">
        <ele>1479.42</ele>
        <time>2013-02-27T15:48:32+01:00</time>
      </trkpt>
      <trkpt lat="43.06304816029" lon="-5.39394170822">
        <ele>1480.29</ele>
        <time>2013-02-27T15:48:41+01:00</time>
      </trkpt>
      <trkpt lat="43.06302858973" lon="-5.3939332439">
        <ele>1480.51</ele>
        <time>2013-02-27T15:49:36+01:00</time>
      </trkpt>
      <trkpt lat="43.06301018738" lon="-5.393950955">
        <ele>1480.87</ele>
        <time>2013-02-27T15:49:52+01:00</time>
      </trkpt>
      <trkpt lat="43.06303003532" lon="-5.39395114193">
        <ele>1480.04</ele>
        <time>2013-02-27T15:50:04+01:00</time>
      </trkpt>
      <trkpt lat="43.06305299164" lon="-5.39394980276">
        <ele>1479.57</ele>
        <time>2013-02-27T15:50:25+01:00</time>
      </trkpt>
      <trkpt lat="43.06303567361" lon="-5.39395887217">
        <ele>1479.47</ele>
        <time>2013-02-27T15:51:57+01:00</time>
      </trkpt>
      <trkpt lat="43.06301210659" lon="-5.39396343343">
        <ele>1479.68</ele>
        <time>2013-02-27T15:52:11+01:00</time>
      </trkpt>
      <trkpt lat="43.06298620374" lon="-5.39395596378">
        <ele>1479.45</ele>
        <time>2013-02-27T15:52:15+01:00</time>
      </trkpt>
      <trkpt lat="43.06300422427" lon="-5.39395996838">
        <ele>1479.47</ele>
        <time>2013-02-27T15:52:20+01:00</time>
      </trkpt>
      <trkpt lat="43.0630050351" lon="-5.39398855484">
        <ele>1480.99</ele>
        <time>2013-02-27T15:52:36+01:00</time>
      </trkpt>
      <trkpt lat="43.06298252276" lon="-5.3940089149">
        <ele>1481.56</ele>
        <time>2013-02-27T15:52:57+01:00</time>
      </trkpt>
      <trkpt lat="43.06297502314" lon="-5.39404760506">
        <ele>1482.18</ele>
        <time>2013-02-27T15:52:58+01:00</time>
      </trkpt>
      <trkpt lat="43.06296748824" lon="-5.39410925549">
        <ele>1482.81</ele>
        <time>2013-02-27T15:53:01+01:00</time>
      </trkpt>
      <trkpt lat="43.06296611537" lon="-5.39414934644">
        <ele>1483.72</ele>
        <time>2013-02-27T15:53:02+01:00</time>
      </trkpt>
      <trkpt lat="43.06299435943" lon="-5.39430471493">
        <ele>1484.29</ele>
        <time>2013-02-27T15:53:02+01:00</time>
      </trkpt>
      <trkpt lat="43.06299871403" lon="-5.39438993928">
        <ele>1484.77</ele>
        <time>2013-02-27T15:53:03+01:00</time>
      </trkpt>
      <trkpt lat="43.06299458934" lon="-5.39449938625">
        <ele>1485.48</ele>
        <time>2013-02-27T15:53:05+01:00</time>
      </trkpt>
      <trkpt lat="43.06300419149" lon="-5.39461602468">
        <ele>1485.63</ele>
        <time>2013-02-27T15:53:05+01:00</time>
      </trkpt>
      <trkpt lat="43.06300158569" lon="-5.39470721225">
        <ele>1486.06</ele>
        <time>2013-02-27T15:53:07+01:00</time>
      </trkpt>
      <trkpt lat="43.06302805426" lon="-5.39478318431">
        <ele>1486.49</ele>
        <time>2013-02-27T15:53:08+01:00</time>
      </trkpt>
      <trkpt lat="43.06305532067" lon="-5.39487103805">
        <ele>1487.15</ele>
        <time>2013-02-27T15:53:08+01:00</time>
      </trkpt>
      <trkpt lat="43.06310236663" lon="-5.39494394499">
        <ele>1487.46</ele>
        <time>2013-02-27T15:53:09+01:00</time>
      </trkpt>
      <trkpt lat="43.06316123508" lon="-5.39500494692">
        <ele>1487.92</ele>
        <time>2013-02-27T15:53:10+01:00</time>
      </trkpt>
      <trkpt lat="43.06322886722" lon="-5.39504099565">
        <ele>1488.43</ele>
        <time>2013-02-27T15:53:11+01:00</time>
      </trkpt>
      <trkpt lat="43.06330084583" lon="-5.39506617554">
        <ele>1488.88</ele>
        <time>2013-02-27T15:53:12+01:00</time>
      </trkpt>
      <trkpt lat="43.06339038332" lon="-5.39505752884">
        <ele>1488.96</ele>
        <time>2013-02-27T15:53:14+01:00</time>
      </trkpt>
      <trkpt lat="43.06346304372" lon="-5.39504685734">
        <ele>1489.02</ele>
        <time>2013-02-27T15:53:15+01:00</time>
      </trkpt>
      <trkpt lat="43.06353722249" lon="-5.3950293449">
        <ele>1489.2</ele>
        <time>2013-02-27T15:53:16+01:00</time>
      </trkpt>
      <trkpt lat="43.06360336817" lon="-5.39499726793">
        <ele>1489.63</ele>
        <time>2013-02-27T15:53:17+01:00</time>
      </trkpt>
      <trkpt lat="43.06367731038" lon="-5.39498493234">
        <ele>1489.93</ele>
        <time>2013-02-27T15:53:18+01:00</time>
      </trkpt>
      <trkpt lat="43.06375659618" lon="-5.39495752209">
        <ele>1490.45</ele>
        <time>2013-02-27T15:53:18+01:00</time>
      </trkpt>
      <trkpt lat="43.06383377605" lon="-5.39492407816">
        <ele>1490.76</ele>
        <time>2013-02-27T15:53:19+01:00</time>
      </trkpt>
      <trkpt lat="43.06390244723" lon="-5.39490579721">
        <ele>1491.11</ele>
        <time>2013-02-27T15:53:21+01:00</time>
      </trkpt>
      <trkpt lat="43.06396806285" lon="-5.39489196819">
        <ele>1491.43</ele>
        <time>2013-02-27T15:53:21+01:00</time>
      </trkpt>
      <trkpt lat="43.06406301603" lon="-5.39495063967">
        <ele>1491.47</ele>
        <time>2013-02-27T15:53:23+01:00</time>
      </trkpt>
      <trkpt lat="43.06414519503" lon="-5.39498057126">
        <ele>1491.48</ele>
        <time>2013-02-27T15:53:24+01:00</time>
      </trkpt>
      <trkpt lat="43.0642344324" lon="-5.39502852495">
        <ele>1491.49</ele>
        <time>2013-02-27T15:53:25+01:00</time>
      </trkpt>
      <trkpt lat="43.06432343265" lon="-5.39508801223">
        <ele>1491.44</ele>
        <time>2013-02-27T15:53:25+01:00</time>
      </trkpt>
      <trkpt lat="43.0643976614" lon="-5.39513889755">
        <ele>1491.17</ele>
        <time>2013-02-27T15:53:26+01:00</time>
      </trkpt>
      <trkpt lat="43.06445146624" lon="-5.39519889664">
        <ele>1490.27</ele>
        <time>2013-02-27T15:53:27+01:00</time>
      </trkpt>
      <trkpt lat="43.06451312212" lon="-5.3952743307">
        <ele>1490.16</ele>
        <time>2013-02-27T15:53:28+01:00</time>
      </trkpt>
      <trkpt lat="43.06458545847" lon="-5.39539480311">
        <ele>1489.78</ele>
        <time>2013-02-27T15:53:30+01:00</time>
      </trkpt>
      <trkpt lat="43.06464621475" lon="-5.39552830412">
        <ele>1489.55</ele>
        <time>2013-02-27T15:53:31+01:00</time>
      </trkpt>
      <trkpt lat="43.06469134553" lon="-5.39564698986">
        <ele>1489.33</ele>
        <time>2013-02-27T15:53:31+01:00</time>
      </trkpt>
      <trkpt lat="43.06474646048" lon="-5.39578254992">
        <ele>1489.03</ele>
        <time>2013-02-27T15:53:32+01:00</time>
      </trkpt>
      <trkpt lat="43.06479088864" lon="-5.39590021168">
        <ele>1488.66</ele>
        <time>2013-02-27T15:53:34+01:00</time>
      </trkpt>
      <trkpt lat="43.06482049822" lon="-5.39597887333">
        <ele>1488.39</ele>
        <time>2013-02-27T15:53:34+01:00</time>
      </trkpt>
      <trkpt lat="43.06488394964" lon="-5.39611992198">
        <ele>1488.15</ele>
        <time>2013-02-27T15:53:35+01:00</time>
      </trkpt>
      <trkpt lat="43.06496054355" lon="-5.39617086343">
        <ele>1486.76</ele>
        <time>2013-02-27T15:53:37+01:00</time>
      </trkpt>
      <trkpt lat="43.06503225578" lon="-5.39624267547">
        <ele>1486.56</ele>
        <time>2013-02-27T15:53:38+01:00</time>
      </trkpt>
      <trkpt lat="43.06511646977" lon="-5.39630592114">
        <ele>1486.7</ele>
        <time>2013-02-27T15:53:38+01:00</time>
      </trkpt>
      <trkpt lat="43.06521693043" lon="-5.39635136028">
        <ele>1486.33</ele>
        <time>2013-02-27T15:53:40+01:00</time>
      </trkpt>
      <trkpt lat="43.06530099325" lon="-5.39640188823">
        <ele>1486.03</ele>
        <time>2013-02-27T15:53:41+01:00</time>
      </trkpt>
      <trkpt lat="43.06535714057" lon="-5.39642970381">
        <ele>1485.87</ele>
        <time>2013-02-27T15:53:41+01:00</time>
      </trkpt>
      <trkpt lat="43.06542643223" lon="-5.3964568131">
        <ele>1485.66</ele>
        <time>2013-02-27T15:53:43+01:00</time>
      </trkpt>
      <trkpt lat="43.0655656846" lon="-5.39646006034">
        <ele>1485.47</ele>
        <time>2013-02-27T15:53:43+01:00</time>
      </trkpt>
      <trkpt lat="43.06572777963" lon="-5.39642979733">
        <ele>1485.9</ele>
        <time>2013-02-27T15:53:45+01:00</time>
      </trkpt>
      <trkpt lat="43.06584825026" lon="-5.39635403861">
        <ele>1485.81</ele>
        <time>2013-02-27T15:53:46+01:00</time>
      </trkpt>
      <trkpt lat="43.06593268598" lon="-5.39627931051">
        <ele>1485.72</ele>
        <time>2013-02-27T15:53:47+01:00</time>
      </trkpt>
      <trkpt lat="43.06602715602" lon="-5.39618523972">
        <ele>1485.61</ele>
        <time>2013-02-27T15:53:48+01:00</time>
      </trkpt>
      <trkpt lat="43.06608441564" lon="-5.3961290987">
        <ele>1485.61</ele>
        <time>2013-02-27T15:53:49+01:00</time>
      </trkpt>
      <trkpt lat="43.06618045691" lon="-5.39602781226">
        <ele>1484.9</ele>
        <time>2013-02-27T15:53:50+01:00</time>
      </trkpt>
      <trkpt lat="43.06640241685" lon="-5.39586566813">
        <ele>1484.09</ele>
        <time>2013-02-27T15:53:51+01:00</time>
      </trkpt>
      <trkpt lat="43.06652460701" lon="-5.39577508058">
        <ele>1483.71</ele>
        <time>2013-02-27T15:53:52+01:00</time>
      </trkpt>
      <trkpt lat="43.06667147905" lon="-5.39569050138">
        <ele>1483.38</ele>
        <time>2013-02-27T15:53:53+01:00</time>
      </trkpt>
      <trkpt lat="43.06680497973" lon="-5.39562629543">
        <ele>1483.05</ele>
        <time>2013-02-27T15:53:55+01:00</time>
      </trkpt>
      <trkpt lat="43.06691119291" lon="-5.39555545152">
        <ele>1482.65</ele>
        <time>2013-02-27T15:53:56+01:00</time>
      </trkpt>
      <trkpt lat="43.06699402602" lon="-5.39548692704">
        <ele>1482.23</ele>
        <time>2013-02-27T15:53:57+01:00</time>
      </trkpt>
      <trkpt lat="43.06705656788" lon="-5.3954139505">
        <ele>1482.15</ele>
        <time>2013-02-27T15:53:58+01:00</time>
      </trkpt>
      <trkpt lat="43.0671014836" lon="-5.39535098025">
        <ele>1482.01</ele>
        <time>2013-02-27T15:53:58+01:00</time>
      </trkpt>
      <trkpt lat="43.06714607804" lon="-5.39531983485">
        <ele>1481.78</ele>
        <time>2013-02-27T15:53:59+01:00</time>
      </trkpt>
      <trkpt lat="43.06719335252" lon="-5.39530495565">
        <ele>1481.27</ele>
        <time>2013-02-27T15:54:01+01:00</time>
      </trkpt>
      <trkpt lat="43.06723770966" lon="-5.39527918103">
        <ele>1480.9</ele>
        <time>2013-02-27T15:54:01+01:00</time>
      </trkpt>
      <trkpt lat="43.06726817287" lon="-5.39532284231">
        <ele>1480.66</ele>
        <time>2013-02-27T15:54:02+01:00</time>
      </trkpt>
      <trkpt lat="43.06730896659" lon="-5.39544912238">
        <ele>1480.22</ele>
        <time>2013-02-27T15:54:04+01:00</time>
      </trkpt>
      <trkpt lat="43.06734481915" lon="-5.39555497877">
        <ele>1479.82</ele>
        <time>2013-02-27T15:54:05+01:00</time>
      </trkpt>
      <trkpt lat="43.06737419497" lon="-5.39562189691">
        <ele>1479.41</ele>
        <time>2013-02-27T15:54:05+01:00</time>
      </trkpt>
      <trkpt lat="43.06747859775" lon="-5.39580162935">
        <ele>1478.77</ele>
        <time>2013-02-27T15:54:06+01:00</time>
      </trkpt>
      <trkpt lat="43.06752582531" lon="-5.39589307897">
        <ele>1478.3</ele>
        <time>2013-02-27T15:54:07+01:00</time>
      </trkpt>
      <trkpt lat="43.0676376028" lon="-5.39608848034">
        <ele>1477.84</ele>
        <time>2013-02-27T15:54:09+01:00</time>
      </trkpt>
      <trkpt lat="43.06772614181" lon="-5.39623994518">
        <ele>1477.47</ele>
        <time>2013-02-27T15:54:10+01:00</time>
      </trkpt>
      <trkpt lat="43.06783059038" lon="-5.39639419611">
        <ele>1476.21</ele>
        <time>2013-02-27T15:54:11+01:00</time>
      </trkpt>
      <trkpt lat="43.06791615002" lon="-5.39651975542">
        <ele>1475.67</ele>
        <time>2013-02-27T15:54:11+01:00</time>
      </trkpt>
      <trkpt lat="43.0680249935" lon="-5.3966297592">
        <ele>1474.06</ele>
        <time>2013-02-27T15:54:12+01:00</time>
      </trkpt>
      <trkpt lat="43.06812722846" lon="-5.39674282095">
        <ele>1473.2</ele>
        <time>2013-02-27T15:54:14+01:00</time>
      </trkpt>
      <trkpt lat="43.06822197265" lon="-5.39686997239">
        <ele>1472.47</ele>
        <time>2013-02-27T15:54:15+01:00</time>
      </trkpt>
      <trkpt lat="43.0683216895" lon="-5.39700745196">
        <ele>1471.69</ele>
        <time>2013-02-27T15:54:16+01:00</time>
      </trkpt>
      <trkpt lat="43.06840085451" lon="-5.39716428944">
        <ele>1470.59</ele>
        <time>2013-02-27T15:54:17+01:00</time>
      </trkpt>
      <trkpt lat="43.06845776743" lon="-5.39729244994">
        <ele>1469.71</ele>
        <time>2013-02-27T15:54:18+01:00</time>
      </trkpt>
      <trkpt lat="43.0685008802" lon="-5.3974162936">
        <ele>1469.12</ele>
        <time>2013-02-27T15:54:18+01:00</time>
      </trkpt>
      <trkpt lat="43.06848921854" lon="-5.39758321941">
        <ele>1469.09</ele>
        <time>2013-02-27T15:54:20+01:00</time>
      </trkpt>
      <trkpt lat="43.06846361805" lon="-5.39775339723">
        <ele>1468.42</ele>
        <time>2013-02-27T15:54:21+01:00</time>
      </trkpt>
      <trkpt lat="43.0684212823" lon="-5.39794065398">
        <ele>1466.97</ele>
        <time>2013-02-27T15:54:22+01:00</time>
      </trkpt>
      <trkpt lat="43.06833533284" lon="-5.39808579603">
        <ele>1467.1</ele>
        <time>2013-02-27T15:54:23+01:00</time>
      </trkpt>
      <trkpt lat="43.06824833846" lon="-5.39823136642">
        <ele>1465.72</ele>
        <time>2013-02-27T15:54:24+01:00</time>
      </trkpt>
      <trkpt lat="43.06814797156" lon="-5.39841559751">
        <ele>1464.95</ele>
        <time>2013-02-27T15:54:25+01:00</time>
      </trkpt>
      <trkpt lat="43.06805699083" lon="-5.39858444225">
        <ele>1464.31</ele>
        <time>2013-02-27T15:54:25+01:00</time>
      </trkpt>
      <trkpt lat="43.06798339401" lon="-5.39875144661">
        <ele>1463.71</ele>
        <time>2013-02-27T15:54:27+01:00</time>
      </trkpt>
      <trkpt lat="43.06791670353" lon="-5.39890221239">
        <ele>1462.98</ele>
        <time>2013-02-27T15:54:27+01:00</time>
      </trkpt>
      <trkpt lat="43.06793109277" lon="-5.39910737968">
        <ele>1462.46</ele>
        <time>2013-02-27T15:54:29+01:00</time>
      </trkpt>
      <trkpt lat="43.06792056308" lon="-5.39933368618">
        <ele>1461.66</ele>
        <time>2013-02-27T15:54:30+01:00</time>
      </trkpt>
      <trkpt lat="43.06792445124" lon="-5.39951805404">
        <ele>1460.31</ele>
        <time>2013-02-27T15:54:31+01:00</time>
      </trkpt>
      <trkpt lat="43.0679204647" lon="-5.39970539455">
        <ele>1459.08</ele>
        <time>2013-02-27T15:54:31+01:00</time>
      </trkpt>
      <trkpt lat="43.06789539811" lon="-5.39988986398">
        <ele>1458.52</ele>
        <time>2013-02-27T15:54:32+01:00</time>
      </trkpt>
      <trkpt lat="43.06786437621" lon="-5.40007366911">
        <ele>1458.1</ele>
        <time>2013-02-27T15:54:34+01:00</time>
      </trkpt>
      <trkpt lat="43.06783352257" lon="-5.40022592828">
        <ele>1457.43</ele>
        <time>2013-02-27T15:54:35+01:00</time>
      </trkpt>
      <trkpt lat="43.06782118276" lon="-5.40040772376">
        <ele>1456.78</ele>
        <time>2013-02-27T15:54:36+01:00</time>
      </trkpt>
      <trkpt lat="43.06782528621" lon="-5.40060474718">
        <ele>1456.1</ele>
        <time>2013-02-27T15:54:37+01:00</time>
      </trkpt>
      <trkpt lat="43.06783599755" lon="-5.40078443139">
        <ele>1455.46</ele>
        <time>2013-02-27T15:54:38+01:00</time>
      </trkpt>
      <trkpt lat="43.0678625852" lon="-5.40098591861">
        <ele>1454.47</ele>
        <time>2013-02-27T15:54:38+01:00</time>
      </trkpt>
      <trkpt lat="43.06788531024" lon="-5.40116026082">
        <ele>1453.72</ele>
        <time>2013-02-27T15:54:40+01:00</time>
      </trkpt>
      <trkpt lat="43.06794936575" lon="-5.40129160511">
        <ele>1452.93</ele>
        <time>2013-02-27T15:54:41+01:00</time>
      </trkpt>
      <trkpt lat="43.06802449453" lon="-5.40143147391">
        <ele>1452.28</ele>
        <time>2013-02-27T15:54:42+01:00</time>
      </trkpt>
      <trkpt lat="43.06808568854" lon="-5.40157345739">
        <ele>1451.57</ele>
        <time>2013-02-27T15:54:43+01:00</time>
      </trkpt>
      <trkpt lat="43.0681454695" lon="-5.40174716276">
        <ele>1450.92</ele>
        <time>2013-02-27T15:54:44+01:00</time>
      </trkpt>
      <trkpt lat="43.06820614131" lon="-5.40193264398">
        <ele>1450.17</ele>
        <time>2013-02-27T15:54:45+01:00</time>
      </trkpt>
      <trkpt lat="43.06821780629" lon="-5.40211974276">
        <ele>1449.52</ele>
        <time>2013-02-27T15:54:45+01:00</time>
      </trkpt>
      <trkpt lat="43.06820589005" lon="-5.40228248873">
        <ele>1448.74</ele>
        <time>2013-02-27T15:54:47+01:00</time>
      </trkpt>
      <trkpt lat="43.06818851995" lon="-5.40243976065">
        <ele>1448.76</ele>
        <time>2013-02-27T15:54:48+01:00</time>
      </trkpt>
      <trkpt lat="43.06815406642" lon="-5.40261732837">
        <ele>1447.59</ele>
        <time>2013-02-27T15:54:49+01:00</time>
      </trkpt>
      <trkpt lat="43.06810422684" lon="-5.40282651494">
        <ele>1447.35</ele>
        <time>2013-02-27T15:54:50+01:00</time>
      </trkpt>
      <trkpt lat="43.06806465405" lon="-5.40301734897">
        <ele>1446.76</ele>
        <time>2013-02-27T15:54:50+01:00</time>
      </trkpt>
      <trkpt lat="43.06804235614" lon="-5.40321349789">
        <ele>1446.11</ele>
        <time>2013-02-27T15:54:51+01:00</time>
      </trkpt>
      <trkpt lat="43.06801858465" lon="-5.40340554653">
        <ele>1444.55</ele>
        <time>2013-02-27T15:54:52+01:00</time>
      </trkpt>
      <trkpt lat="43.06802660438" lon="-5.40360301125">
        <ele>1443.79</ele>
        <time>2013-02-27T15:54:54+01:00</time>
      </trkpt>
      <trkpt lat="43.06806629569" lon="-5.40379994986">
        <ele>1442.81</ele>
        <time>2013-02-27T15:54:55+01:00</time>
      </trkpt>
      <trkpt lat="43.06809518871" lon="-5.40403138375">
        <ele>1442.14</ele>
        <time>2013-02-27T15:54:56+01:00</time>
      </trkpt>
      <trkpt lat="43.06812849348" lon="-5.40423209871">
        <ele>1441.42</ele>
        <time>2013-02-27T15:54:57+01:00</time>
      </trkpt>
      <trkpt lat="43.06815496926" lon="-5.40442794394">
        <ele>1440.53</ele>
        <time>2013-02-27T15:54:58+01:00</time>
      </trkpt>
      <trkpt lat="43.06817924104" lon="-5.40462556448">
        <ele>1439.7</ele>
        <time>2013-02-27T15:54:58+01:00</time>
      </trkpt>
      <trkpt lat="43.06817953564" lon="-5.40483574414">
        <ele>1438.79</ele>
        <time>2013-02-27T15:55:00+01:00</time>
      </trkpt>
      <trkpt lat="43.06819265255" lon="-5.40504990149">
        <ele>1437.81</ele>
        <time>2013-02-27T15:55:01+01:00</time>
      </trkpt>
      <trkpt lat="43.06817499181" lon="-5.40527273436">
        <ele>1436.8</ele>
        <time>2013-02-27T15:55:02+01:00</time>
      </trkpt>
      <trkpt lat="43.06817908813" lon="-5.40547473077">
        <ele>1435.86</ele>
        <time>2013-02-27T15:55:02+01:00</time>
      </trkpt>
      <trkpt lat="43.06818527181" lon="-5.40569007714">
        <ele>1434.87</ele>
        <time>2013-02-27T15:55:04+01:00</time>
      </trkpt>
      <trkpt lat="43.06818979378" lon="-5.40614528707">
        <ele>1433.46</ele>
        <time>2013-02-27T15:55:05+01:00</time>
      </trkpt>
      <trkpt lat="43.0681864364" lon="-5.40639705317">
        <ele>1432.38</ele>
        <time>2013-02-27T15:55:07+01:00</time>
      </trkpt>
      <trkpt lat="43.06819685045" lon="-5.40663141694">
        <ele>1431.07</ele>
        <time>2013-02-27T15:55:08+01:00</time>
      </trkpt>
      <trkpt lat="43.06820928287" lon="-5.40684261633">
        <ele>1430.02</ele>
        <time>2013-02-27T15:55:09+01:00</time>
      </trkpt>
      <trkpt lat="43.0682078734" lon="-5.40705035123">
        <ele>1429.99</ele>
        <time>2013-02-27T15:55:10+01:00</time>
      </trkpt>
      <trkpt lat="43.06821208421" lon="-5.40728260327">
        <ele>1429.27</ele>
        <time>2013-02-27T15:55:11+01:00</time>
      </trkpt>
      <trkpt lat="43.06820038704" lon="-5.40745686094">
        <ele>1428.64</ele>
        <time>2013-02-27T15:55:11+01:00</time>
      </trkpt>
      <trkpt lat="43.06814782324" lon="-5.40762602409">
        <ele>1428.28</ele>
        <time>2013-02-27T15:55:12+01:00</time>
      </trkpt>
      <trkpt lat="43.06809456278" lon="-5.40778766398">
        <ele>1427.49</ele>
        <time>2013-02-27T15:55:14+01:00</time>
      </trkpt>
      <trkpt lat="43.0680279531" lon="-5.4079590645">
        <ele>1426.77</ele>
        <time>2013-02-27T15:55:15+01:00</time>
      </trkpt>
      <trkpt lat="43.067945229" lon="-5.4081088137">
        <ele>1425.98</ele>
        <time>2013-02-27T15:55:16+01:00</time>
      </trkpt>
      <trkpt lat="43.06786974264" lon="-5.40826368742">
        <ele>1425.38</ele>
        <time>2013-02-27T15:55:17+01:00</time>
      </trkpt>
      <trkpt lat="43.06787137565" lon="-5.40844426238">
        <ele>1424.29</ele>
        <time>2013-02-27T15:55:18+01:00</time>
      </trkpt>
      <trkpt lat="43.06786285096" lon="-5.40863929825">
        <ele>1423.34</ele>
        <time>2013-02-27T15:55:18+01:00</time>
      </trkpt>
      <trkpt lat="43.0678692597" lon="-5.40884647993">
        <ele>1422.37</ele>
        <time>2013-02-27T15:55:20+01:00</time>
      </trkpt>
      <trkpt lat="43.06786135489" lon="-5.40904576427">
        <ele>1421.54</ele>
        <time>2013-02-27T15:55:21+01:00</time>
      </trkpt>
      <trkpt lat="43.06784223898" lon="-5.40923810472">
        <ele>1419.1</ele>
        <time>2013-02-27T15:55:22+01:00</time>
      </trkpt>
      <trkpt lat="43.0678319785" lon="-5.40942965989">
        <ele>1417.92</ele>
        <time>2013-02-27T15:55:23+01:00</time>
      </trkpt>
      <trkpt lat="43.06782456199" lon="-5.40961978395">
        <ele>1416.8</ele>
        <time>2013-02-27T15:55:24+01:00</time>
      </trkpt>
      <trkpt lat="43.06778819219" lon="-5.40982588325">
        <ele>1415.64</ele>
        <time>2013-02-27T15:55:24+01:00</time>
      </trkpt>
      <trkpt lat="43.06772639319" lon="-5.40999216227">
        <ele>1414.46</ele>
        <time>2013-02-27T15:55:25+01:00</time>
      </trkpt>
      <trkpt lat="43.06764409722" lon="-5.41014284195">
        <ele>1413.25</ele>
        <time>2013-02-27T15:55:27+01:00</time>
      </trkpt>
      <trkpt lat="43.06753312226" lon="-5.41023659085">
        <ele>1412.22</ele>
        <time>2013-02-27T15:55:28+01:00</time>
      </trkpt>
      <trkpt lat="43.06741660137" lon="-5.41033573592">
        <ele>1411.2</ele>
        <time>2013-02-27T15:55:29+01:00</time>
      </trkpt>
      <trkpt lat="43.06730395121" lon="-5.41041113465">
        <ele>1410.43</ele>
        <time>2013-02-27T15:55:29+01:00</time>
      </trkpt>
      <trkpt lat="43.06719354531" lon="-5.4104993046">
        <ele>1409.38</ele>
        <time>2013-02-27T15:55:31+01:00</time>
      </trkpt>
      <trkpt lat="43.06705847607" lon="-5.41057648362">
        <ele>1408.6</ele>
        <time>2013-02-27T15:55:31+01:00</time>
      </trkpt>
      <trkpt lat="43.06693751786" lon="-5.41067614079">
        <ele>1407.73</ele>
        <time>2013-02-27T15:55:32+01:00</time>
      </trkpt>
      <trkpt lat="43.0667994474" lon="-5.41079467056">
        <ele>1406.54</ele>
        <time>2013-02-27T15:55:34+01:00</time>
      </trkpt>
      <trkpt lat="43.06667350306" lon="-5.41091560562">
        <ele>1405.73</ele>
        <time>2013-02-27T15:55:35+01:00</time>
      </trkpt>
      <trkpt lat="43.06657883303" lon="-5.41102878488">
        <ele>1404.81</ele>
        <time>2013-02-27T15:55:36+01:00</time>
      </trkpt>
      <trkpt lat="43.06649521133" lon="-5.41117309846">
        <ele>1403.56</ele>
        <time>2013-02-27T15:55:37+01:00</time>
      </trkpt>
      <trkpt lat="43.06642163376" lon="-5.41134104438">
        <ele>1402.83</ele>
        <time>2013-02-27T15:55:38+01:00</time>
      </trkpt>
      <trkpt lat="43.06637678375" lon="-5.4115267427">
        <ele>1401.87</ele>
        <time>2013-02-27T15:55:38+01:00</time>
      </trkpt>
      <trkpt lat="43.06634355721" lon="-5.41172794582">
        <ele>1401.1</ele>
        <time>2013-02-27T15:55:40+01:00</time>
      </trkpt>
      <trkpt lat="43.06631500083" lon="-5.41191546112">
        <ele>1400.26</ele>
        <time>2013-02-27T15:55:41+01:00</time>
      </trkpt>
      <trkpt lat="43.06630165943" lon="-5.41209323412">
        <ele>1399.47</ele>
        <time>2013-02-27T15:55:42+01:00</time>
      </trkpt>
      <trkpt lat="43.06629123512" lon="-5.41231061806">
        <ele>1398.91</ele>
        <time>2013-02-27T15:55:43+01:00</time>
      </trkpt>
      <trkpt lat="43.0662784245" lon="-5.41249198142">
        <ele>1397.91</ele>
        <time>2013-02-27T15:55:44+01:00</time>
      </trkpt>
      <trkpt lat="43.06628811954" lon="-5.41265307111">
        <ele>1396.8</ele>
        <time>2013-02-27T15:55:44+01:00</time>
      </trkpt>
      <trkpt lat="43.06629508334" lon="-5.4128220866">
        <ele>1396.11</ele>
        <time>2013-02-27T15:55:45+01:00</time>
      </trkpt>
      <trkpt lat="43.0663222611" lon="-5.41303520466">
        <ele>1395.2</ele>
        <time>2013-02-27T15:55:47+01:00</time>
      </trkpt>
      <trkpt lat="43.06635072786" lon="-5.41322205477">
        <ele>1394.12</ele>
        <time>2013-02-27T15:55:48+01:00</time>
      </trkpt>
      <trkpt lat="43.0663762025" lon="-5.41340211832">
        <ele>1393.25</ele>
        <time>2013-02-27T15:55:49+01:00</time>
      </trkpt>
      <trkpt lat="43.06644751447" lon="-5.41359309565">
        <ele>1392.65</ele>
        <time>2013-02-27T15:55:49+01:00</time>
      </trkpt>
      <trkpt lat="43.06653490058" lon="-5.41380650642">
        <ele>1392.07</ele>
        <time>2013-02-27T15:55:51+01:00</time>
      </trkpt>
      <trkpt lat="43.0665971707" lon="-5.41402413566">
        <ele>1390.91</ele>
        <time>2013-02-27T15:55:51+01:00</time>
      </trkpt>
      <trkpt lat="43.06665374706" lon="-5.41423174564">
        <ele>1389.89</ele>
        <time>2013-02-27T15:55:52+01:00</time>
      </trkpt>
      <trkpt lat="43.06669758411" lon="-5.41444841589">
        <ele>1388.94</ele>
        <time>2013-02-27T15:55:54+01:00</time>
      </trkpt>
      <trkpt lat="43.06675996218" lon="-5.41465898567">
        <ele>1387.95</ele>
        <time>2013-02-27T15:55:55+01:00</time>
      </trkpt>
      <trkpt lat="43.06682246099" lon="-5.41488141113">
        <ele>1387.12</ele>
        <time>2013-02-27T15:55:56+01:00</time>
      </trkpt>
      <trkpt lat="43.06687801021" lon="-5.41508548765">
        <ele>1386.13</ele>
        <time>2013-02-27T15:55:57+01:00</time>
      </trkpt>
      <trkpt lat="43.06694269717" lon="-5.41529756201">
        <ele>1385.27</ele>
        <time>2013-02-27T15:55:58+01:00</time>
      </trkpt>
      <trkpt lat="43.06700817234" lon="-5.41551646623">
        <ele>1384.57</ele>
        <time>2013-02-27T15:55:58+01:00</time>
      </trkpt>
      <trkpt lat="43.06705992471" lon="-5.41574029035">
        <ele>1383.58</ele>
        <time>2013-02-27T15:56:00+01:00</time>
      </trkpt>
      <trkpt lat="43.06709052586" lon="-5.41593143674">
        <ele>1382.56</ele>
        <time>2013-02-27T15:56:01+01:00</time>
      </trkpt>
      <trkpt lat="43.06707632836" lon="-5.41614763058">
        <ele>1382.41</ele>
        <time>2013-02-27T15:56:02+01:00</time>
      </trkpt>
      <trkpt lat="43.06705122652" lon="-5.41637084557">
        <ele>1381.55</ele>
        <time>2013-02-27T15:56:03+01:00</time>
      </trkpt>
      <trkpt lat="43.06700872228" lon="-5.41660357848">
        <ele>1379.33</ele>
        <time>2013-02-27T15:56:04+01:00</time>
      </trkpt>
      <trkpt lat="43.06695308161" lon="-5.4168231946">
        <ele>1379.37</ele>
        <time>2013-02-27T15:56:04+01:00</time>
      </trkpt>
      <trkpt lat="43.06688619706" lon="-5.41703495705">
        <ele>1378.65</ele>
        <time>2013-02-27T15:56:05+01:00</time>
      </trkpt>
      <trkpt lat="43.06681662787" lon="-5.41724320417">
        <ele>1377.93</ele>
        <time>2013-02-27T15:56:07+01:00</time>
      </trkpt>
      <trkpt lat="43.06676271559" lon="-5.41743921472">
        <ele>1377.09</ele>
        <time>2013-02-27T15:56:08+01:00</time>
      </trkpt>
      <trkpt lat="43.0667277262" lon="-5.4176274806">
        <ele>1375.35</ele>
        <time>2013-02-27T15:56:09+01:00</time>
      </trkpt>
      <trkpt lat="43.06673507814" lon="-5.4178188914">
        <ele>1375.58</ele>
        <time>2013-02-27T15:56:09+01:00</time>
      </trkpt>
      <trkpt lat="43.06674845083" lon="-5.41801549095">
        <ele>1373.7</ele>
        <time>2013-02-27T15:56:10+01:00</time>
      </trkpt>
      <trkpt lat="43.06676141834" lon="-5.41819381634">
        <ele>1373.79</ele>
        <time>2013-02-27T15:56:11+01:00</time>
      </trkpt>
      <trkpt lat="43.06677003817" lon="-5.41831270845">
        <ele>1373.14</ele>
        <time>2013-02-27T15:56:12+01:00</time>
      </trkpt>
      <trkpt lat="43.0668634688" lon="-5.41857519198">
        <ele>1372.17</ele>
        <time>2013-02-27T15:56:14+01:00</time>
      </trkpt>
      <trkpt lat="43.06694676264" lon="-5.4188087378">
        <ele>1371.29</ele>
        <time>2013-02-27T15:56:15+01:00</time>
      </trkpt>
      <trkpt lat="43.06700271577" lon="-5.41901584306">
        <ele>1370.66</ele>
        <time>2013-02-27T15:56:16+01:00</time>
      </trkpt>
      <trkpt lat="43.06705729112" lon="-5.41920552321">
        <ele>1369.86</ele>
        <time>2013-02-27T15:56:16+01:00</time>
      </trkpt>
      <trkpt lat="43.06706150067" lon="-5.41939004197">
        <ele>1368.96</ele>
        <time>2013-02-27T15:56:17+01:00</time>
      </trkpt>
      <trkpt lat="43.0670196284" lon="-5.4195659512">
        <ele>1368.1</ele>
        <time>2013-02-27T15:56:18+01:00</time>
      </trkpt>
      <trkpt lat="43.06697447416" lon="-5.41975489068">
        <ele>1367.25</ele>
        <time>2013-02-27T15:56:19+01:00</time>
      </trkpt>
      <trkpt lat="43.06685195234" lon="-5.420100395">
        <ele>1366.12</ele>
        <time>2013-02-27T15:56:21+01:00</time>
      </trkpt>
      <trkpt lat="43.06676388435" lon="-5.42035375111">
        <ele>1363.36</ele>
        <time>2013-02-27T15:56:22+01:00</time>
      </trkpt>
      <trkpt lat="43.06670491186" lon="-5.42053697663">
        <ele>1362.01</ele>
        <time>2013-02-27T15:56:23+01:00</time>
      </trkpt>
      <trkpt lat="43.06665175325" lon="-5.42071914863">
        <ele>1360.66</ele>
        <time>2013-02-27T15:56:24+01:00</time>
      </trkpt>
    </trkseg>
  </trk>
</gpx>